<?xml version="1.0" encoding="UTF-8" standalone="no" ?>
<gpx xmlns="http://www.topografix.com/GPX/1/1" xmlns:xsi="http://www.w3.org/2001/XMLSchema-instance" xsi:schemaLocation="http://www.topografix.com/GPX/1/1 http://www.topografix.com/GPX/1/1/gpx.xsd" version="1.1" creator="VisuGPX - https://www.visugpx.com">
  <metadata>
    <name>Fort de Lenlon</name>
    <desc><![CDATA[Trace AlpineQuest 24/02/2025 08:13:04]]></desc>
  </metadata>
  <trk>
    <name><![CDATA[Fort de Lenlon_1]]></name>
    <trkseg>
      <trkpt lat="45.01665" lon="6.63632">
        <ele>1591.902</ele>
        <time>2025-02-24T07:13:04Z</time>
      </trkpt>
      <trkpt lat="45.01665" lon="6.6363">
        <ele>1589.611</ele>
        <time>2025-02-24T07:13:26Z</time>
      </trkpt>
      <trkpt lat="45.01665" lon="6.6363">
        <ele>1589.74</ele>
        <time>2025-02-24T07:13:46Z</time>
      </trkpt>
      <trkpt lat="45.01665" lon="6.6363">
        <ele>1590.328</ele>
        <time>2025-02-24T07:14:07Z</time>
      </trkpt>
      <trkpt lat="45.01665" lon="6.6363">
        <ele>1590.026</ele>
        <time>2025-02-24T07:14:28Z</time>
      </trkpt>
      <trkpt lat="45.01665" lon="6.6363">
        <ele>1589.224</ele>
        <time>2025-02-24T07:14:48Z</time>
      </trkpt>
      <trkpt lat="45.0166" lon="6.63631">
        <ele>1587.927</ele>
        <time>2025-02-24T07:15:08Z</time>
      </trkpt>
      <trkpt lat="45.01656" lon="6.63634">
        <ele>1588.777</ele>
        <time>2025-02-24T07:15:13Z</time>
      </trkpt>
      <trkpt lat="45.01651" lon="6.63639">
        <ele>1587.209</ele>
        <time>2025-02-24T07:15:18Z</time>
      </trkpt>
      <trkpt lat="45.01647" lon="6.63643">
        <ele>1586.54</ele>
        <time>2025-02-24T07:15:23Z</time>
      </trkpt>
      <trkpt lat="45.01644" lon="6.63648">
        <ele>1584.922</ele>
        <time>2025-02-24T07:15:27Z</time>
      </trkpt>
      <trkpt lat="45.01641" lon="6.63654">
        <ele>1585.925</ele>
        <time>2025-02-24T07:15:32Z</time>
      </trkpt>
      <trkpt lat="45.01637" lon="6.6366">
        <ele>1585.083</ele>
        <time>2025-02-24T07:15:37Z</time>
      </trkpt>
      <trkpt lat="45.01635" lon="6.63666">
        <ele>1584.018</ele>
        <time>2025-02-24T07:15:41Z</time>
      </trkpt>
      <trkpt lat="45.01633" lon="6.63671">
        <ele>1582.194</ele>
        <time>2025-02-24T07:15:45Z</time>
      </trkpt>
      <trkpt lat="45.0163" lon="6.63677">
        <ele>1583.367</ele>
        <time>2025-02-24T07:15:50Z</time>
      </trkpt>
      <trkpt lat="45.01628" lon="6.63683">
        <ele>1582.198</ele>
        <time>2025-02-24T07:15:54Z</time>
      </trkpt>
      <trkpt lat="45.01626" lon="6.6369">
        <ele>1583.174</ele>
        <time>2025-02-24T07:15:59Z</time>
      </trkpt>
      <trkpt lat="45.01624" lon="6.63696">
        <ele>1582.882</ele>
        <time>2025-02-24T07:16:03Z</time>
      </trkpt>
      <trkpt lat="45.0162" lon="6.63701">
        <ele>1582.52</ele>
        <time>2025-02-24T07:16:08Z</time>
      </trkpt>
      <trkpt lat="45.01617" lon="6.63707">
        <ele>1583.442</ele>
        <time>2025-02-24T07:16:13Z</time>
      </trkpt>
      <trkpt lat="45.01614" lon="6.63713">
        <ele>1583.188</ele>
        <time>2025-02-24T07:16:18Z</time>
      </trkpt>
      <trkpt lat="45.01611" lon="6.63718">
        <ele>1585.129</ele>
        <time>2025-02-24T07:16:22Z</time>
      </trkpt>
      <trkpt lat="45.0161" lon="6.63725">
        <ele>1586.359</ele>
        <time>2025-02-24T07:16:25Z</time>
      </trkpt>
      <trkpt lat="45.01607" lon="6.63731">
        <ele>1590.096</ele>
        <time>2025-02-24T07:16:28Z</time>
      </trkpt>
      <trkpt lat="45.01604" lon="6.63736">
        <ele>1590.617</ele>
        <time>2025-02-24T07:16:34Z</time>
      </trkpt>
      <trkpt lat="45.01602" lon="6.63742">
        <ele>1587.038</ele>
        <time>2025-02-24T07:16:39Z</time>
      </trkpt>
      <trkpt lat="45.01599" lon="6.63748">
        <ele>1587.607</ele>
        <time>2025-02-24T07:16:44Z</time>
      </trkpt>
      <trkpt lat="45.01599" lon="6.63755">
        <ele>1586.618</ele>
        <time>2025-02-24T07:16:48Z</time>
      </trkpt>
      <trkpt lat="45.01598" lon="6.63761">
        <ele>1585.259</ele>
        <time>2025-02-24T07:16:53Z</time>
      </trkpt>
      <trkpt lat="45.01596" lon="6.63767">
        <ele>1583.985</ele>
        <time>2025-02-24T07:16:58Z</time>
      </trkpt>
      <trkpt lat="45.01596" lon="6.63774">
        <ele>1585.169</ele>
        <time>2025-02-24T07:17:03Z</time>
      </trkpt>
      <trkpt lat="45.01597" lon="6.6378">
        <ele>1583.804</ele>
        <time>2025-02-24T07:17:09Z</time>
      </trkpt>
      <trkpt lat="45.01598" lon="6.63787">
        <ele>1584.474</ele>
        <time>2025-02-24T07:17:14Z</time>
      </trkpt>
      <trkpt lat="45.01598" lon="6.63794">
        <ele>1583.908</ele>
        <time>2025-02-24T07:17:20Z</time>
      </trkpt>
      <trkpt lat="45.01595" lon="6.638">
        <ele>1582.856</ele>
        <time>2025-02-24T07:17:26Z</time>
      </trkpt>
      <trkpt lat="45.01592" lon="6.63805">
        <ele>1581.833</ele>
        <time>2025-02-24T07:17:31Z</time>
      </trkpt>
      <trkpt lat="45.01589" lon="6.6381">
        <ele>1580.684</ele>
        <time>2025-02-24T07:17:35Z</time>
      </trkpt>
      <trkpt lat="45.01587" lon="6.63817">
        <ele>1582.407</ele>
        <time>2025-02-24T07:17:38Z</time>
      </trkpt>
      <trkpt lat="45.01584" lon="6.63823">
        <ele>1585.206</ele>
        <time>2025-02-24T07:17:43Z</time>
      </trkpt>
      <trkpt lat="45.01582" lon="6.63828">
        <ele>1585.81</ele>
        <time>2025-02-24T07:17:48Z</time>
      </trkpt>
      <trkpt lat="45.01582" lon="6.63836">
        <ele>1585.324</ele>
        <time>2025-02-24T07:17:54Z</time>
      </trkpt>
      <trkpt lat="45.0158" lon="6.63841">
        <ele>1582.482</ele>
        <time>2025-02-24T07:18:02Z</time>
      </trkpt>
      <trkpt lat="45.0158" lon="6.63841">
        <ele>1580.403</ele>
        <time>2025-02-24T07:18:22Z</time>
      </trkpt>
      <trkpt lat="45.0158" lon="6.63841">
        <ele>1582.727</ele>
        <time>2025-02-24T07:18:42Z</time>
      </trkpt>
      <trkpt lat="45.01581" lon="6.63842">
        <ele>1580.179</ele>
        <time>2025-02-24T07:18:56Z</time>
      </trkpt>
      <trkpt lat="45.01584" lon="6.63848">
        <ele>1579.334</ele>
        <time>2025-02-24T07:19:01Z</time>
      </trkpt>
      <trkpt lat="45.01586" lon="6.63855">
        <ele>1577.404</ele>
        <time>2025-02-24T07:19:08Z</time>
      </trkpt>
      <trkpt lat="45.01587" lon="6.63861">
        <ele>1575.945</ele>
        <time>2025-02-24T07:19:14Z</time>
      </trkpt>
      <trkpt lat="45.01589" lon="6.63868">
        <ele>1575.9</ele>
        <time>2025-02-24T07:19:20Z</time>
      </trkpt>
      <trkpt lat="45.01589" lon="6.63875">
        <ele>1574.984</ele>
        <time>2025-02-24T07:19:26Z</time>
      </trkpt>
      <trkpt lat="45.01587" lon="6.6388">
        <ele>1574.331</ele>
        <time>2025-02-24T07:19:32Z</time>
      </trkpt>
      <trkpt lat="45.01587" lon="6.63888">
        <ele>1574.104</ele>
        <time>2025-02-24T07:19:39Z</time>
      </trkpt>
      <trkpt lat="45.01587" lon="6.63894">
        <ele>1573.645</ele>
        <time>2025-02-24T07:19:46Z</time>
      </trkpt>
      <trkpt lat="45.01586" lon="6.63896">
        <ele>1572.656</ele>
        <time>2025-02-24T07:20:06Z</time>
      </trkpt>
      <trkpt lat="45.01586" lon="6.63896">
        <ele>1573</ele>
        <time>2025-02-24T07:20:27Z</time>
      </trkpt>
      <trkpt lat="45.01586" lon="6.63896">
        <ele>1573.313</ele>
        <time>2025-02-24T07:20:48Z</time>
      </trkpt>
      <trkpt lat="45.01583" lon="6.63899">
        <ele>1573.261</ele>
        <time>2025-02-24T07:21:08Z</time>
      </trkpt>
      <trkpt lat="45.01579" lon="6.63902">
        <ele>1572.725</ele>
        <time>2025-02-24T07:21:13Z</time>
      </trkpt>
      <trkpt lat="45.01574" lon="6.63905">
        <ele>1572.714</ele>
        <time>2025-02-24T07:21:19Z</time>
      </trkpt>
      <trkpt lat="45.0157" lon="6.6391">
        <ele>1573.167</ele>
        <time>2025-02-24T07:21:24Z</time>
      </trkpt>
      <trkpt lat="45.01568" lon="6.63916">
        <ele>1574.526</ele>
        <time>2025-02-24T07:21:29Z</time>
      </trkpt>
      <trkpt lat="45.01568" lon="6.63923">
        <ele>1574.502</ele>
        <time>2025-02-24T07:21:35Z</time>
      </trkpt>
      <trkpt lat="45.01568" lon="6.6393">
        <ele>1573.595</ele>
        <time>2025-02-24T07:21:40Z</time>
      </trkpt>
      <trkpt lat="45.0157" lon="6.63936">
        <ele>1573.845</ele>
        <time>2025-02-24T07:21:46Z</time>
      </trkpt>
      <trkpt lat="45.0157" lon="6.63943">
        <ele>1573.738</ele>
        <time>2025-02-24T07:21:51Z</time>
      </trkpt>
      <trkpt lat="45.01569" lon="6.63949">
        <ele>1572.186</ele>
        <time>2025-02-24T07:21:56Z</time>
      </trkpt>
      <trkpt lat="45.01569" lon="6.63955">
        <ele>1571.546</ele>
        <time>2025-02-24T07:22:01Z</time>
      </trkpt>
      <trkpt lat="45.01567" lon="6.63961">
        <ele>1571.225</ele>
        <time>2025-02-24T07:22:06Z</time>
      </trkpt>
      <trkpt lat="45.01566" lon="6.63968">
        <ele>1570.025</ele>
        <time>2025-02-24T07:22:11Z</time>
      </trkpt>
      <trkpt lat="45.01566" lon="6.63975">
        <ele>1571.142</ele>
        <time>2025-02-24T07:22:16Z</time>
      </trkpt>
      <trkpt lat="45.01564" lon="6.63981">
        <ele>1569.503</ele>
        <time>2025-02-24T07:22:21Z</time>
      </trkpt>
      <trkpt lat="45.01564" lon="6.63988">
        <ele>1569.985</ele>
        <time>2025-02-24T07:22:26Z</time>
      </trkpt>
      <trkpt lat="45.01562" lon="6.63995">
        <ele>1570.396</ele>
        <time>2025-02-24T07:22:31Z</time>
      </trkpt>
      <trkpt lat="45.01561" lon="6.64002">
        <ele>1570.742</ele>
        <time>2025-02-24T07:22:36Z</time>
      </trkpt>
      <trkpt lat="45.01561" lon="6.64008">
        <ele>1573.881</ele>
        <time>2025-02-24T07:22:40Z</time>
      </trkpt>
      <trkpt lat="45.01561" lon="6.64015">
        <ele>1573.991</ele>
        <time>2025-02-24T07:22:45Z</time>
      </trkpt>
      <trkpt lat="45.01562" lon="6.64021">
        <ele>1575.619</ele>
        <time>2025-02-24T07:22:50Z</time>
      </trkpt>
      <trkpt lat="45.0156" lon="6.64027">
        <ele>1576.443</ele>
        <time>2025-02-24T07:23:11Z</time>
      </trkpt>
      <trkpt lat="45.01561" lon="6.64034">
        <ele>1575.138</ele>
        <time>2025-02-24T07:23:17Z</time>
      </trkpt>
      <trkpt lat="45.01563" lon="6.6404">
        <ele>1574.008</ele>
        <time>2025-02-24T07:23:24Z</time>
      </trkpt>
      <trkpt lat="45.01566" lon="6.64045">
        <ele>1572.045</ele>
        <time>2025-02-24T07:23:31Z</time>
      </trkpt>
      <trkpt lat="45.01568" lon="6.64052">
        <ele>1571.914</ele>
        <time>2025-02-24T07:23:38Z</time>
      </trkpt>
      <trkpt lat="45.01569" lon="6.64058">
        <ele>1571.49</ele>
        <time>2025-02-24T07:23:43Z</time>
      </trkpt>
      <trkpt lat="45.01569" lon="6.64065">
        <ele>1571.345</ele>
        <time>2025-02-24T07:23:48Z</time>
      </trkpt>
      <trkpt lat="45.01571" lon="6.64071">
        <ele>1568.87</ele>
        <time>2025-02-24T07:23:53Z</time>
      </trkpt>
      <trkpt lat="45.01574" lon="6.64077">
        <ele>1569.679</ele>
        <time>2025-02-24T07:23:59Z</time>
      </trkpt>
      <trkpt lat="45.01573" lon="6.64083">
        <ele>1571.616</ele>
        <time>2025-02-24T07:24:05Z</time>
      </trkpt>
      <trkpt lat="45.01574" lon="6.64089">
        <ele>1574.196</ele>
        <time>2025-02-24T07:24:12Z</time>
      </trkpt>
      <trkpt lat="45.01573" lon="6.64096">
        <ele>1572.689</ele>
        <time>2025-02-24T07:24:18Z</time>
      </trkpt>
      <trkpt lat="45.01574" lon="6.64103">
        <ele>1572.482</ele>
        <time>2025-02-24T07:24:24Z</time>
      </trkpt>
      <trkpt lat="45.01574" lon="6.64109">
        <ele>1573.365</ele>
        <time>2025-02-24T07:24:30Z</time>
      </trkpt>
      <trkpt lat="45.01571" lon="6.64114">
        <ele>1573.523</ele>
        <time>2025-02-24T07:24:38Z</time>
      </trkpt>
      <trkpt lat="45.01571" lon="6.64114">
        <ele>1573.742</ele>
        <time>2025-02-24T07:24:59Z</time>
      </trkpt>
      <trkpt lat="45.01573" lon="6.64119">
        <ele>1573.095</ele>
        <time>2025-02-24T07:25:13Z</time>
      </trkpt>
      <trkpt lat="45.01577" lon="6.64123">
        <ele>1571.938</ele>
        <time>2025-02-24T07:25:21Z</time>
      </trkpt>
      <trkpt lat="45.0158" lon="6.64129">
        <ele>1570.456</ele>
        <time>2025-02-24T07:25:26Z</time>
      </trkpt>
      <trkpt lat="45.01583" lon="6.64136">
        <ele>1570.362</ele>
        <time>2025-02-24T07:25:30Z</time>
      </trkpt>
      <trkpt lat="45.01584" lon="6.64142">
        <ele>1571.259</ele>
        <time>2025-02-24T07:25:35Z</time>
      </trkpt>
      <trkpt lat="45.01584" lon="6.64149">
        <ele>1571.386</ele>
        <time>2025-02-24T07:25:41Z</time>
      </trkpt>
      <trkpt lat="45.01584" lon="6.64149">
        <ele>1568.824</ele>
        <time>2025-02-24T07:26:01Z</time>
      </trkpt>
      <trkpt lat="45.01584" lon="6.64152">
        <ele>1567.127</ele>
        <time>2025-02-24T07:26:14Z</time>
      </trkpt>
      <trkpt lat="45.01585" lon="6.64158">
        <ele>1569.596</ele>
        <time>2025-02-24T07:26:21Z</time>
      </trkpt>
      <trkpt lat="45.01586" lon="6.64166">
        <ele>1568.877</ele>
        <time>2025-02-24T07:26:27Z</time>
      </trkpt>
      <trkpt lat="45.01587" lon="6.64172">
        <ele>1568.366</ele>
        <time>2025-02-24T07:26:33Z</time>
      </trkpt>
      <trkpt lat="45.01589" lon="6.64178">
        <ele>1568.086</ele>
        <time>2025-02-24T07:26:40Z</time>
      </trkpt>
      <trkpt lat="45.01591" lon="6.64184">
        <ele>1569.334</ele>
        <time>2025-02-24T07:26:50Z</time>
      </trkpt>
      <trkpt lat="45.01593" lon="6.64191">
        <ele>1566.223</ele>
        <time>2025-02-24T07:26:57Z</time>
      </trkpt>
      <trkpt lat="45.01594" lon="6.64198">
        <ele>1563.68</ele>
        <time>2025-02-24T07:27:00Z</time>
      </trkpt>
      <trkpt lat="45.01595" lon="6.64205">
        <ele>1564.36</ele>
        <time>2025-02-24T07:27:04Z</time>
      </trkpt>
      <trkpt lat="45.01595" lon="6.64212">
        <ele>1564.534</ele>
        <time>2025-02-24T07:27:10Z</time>
      </trkpt>
      <trkpt lat="45.01596" lon="6.64218">
        <ele>1562.168</ele>
        <time>2025-02-24T07:27:13Z</time>
      </trkpt>
      <trkpt lat="45.01596" lon="6.64225">
        <ele>1561.48</ele>
        <time>2025-02-24T07:27:17Z</time>
      </trkpt>
      <trkpt lat="45.01594" lon="6.64231">
        <ele>1561.785</ele>
        <time>2025-02-24T07:27:22Z</time>
      </trkpt>
      <trkpt lat="45.01591" lon="6.64237">
        <ele>1562.686</ele>
        <time>2025-02-24T07:27:28Z</time>
      </trkpt>
      <trkpt lat="45.0159" lon="6.64243">
        <ele>1562.539</ele>
        <time>2025-02-24T07:27:34Z</time>
      </trkpt>
      <trkpt lat="45.01588" lon="6.64251">
        <ele>1563.248</ele>
        <time>2025-02-24T07:27:41Z</time>
      </trkpt>
      <trkpt lat="45.01587" lon="6.64258">
        <ele>1563.374</ele>
        <time>2025-02-24T07:27:47Z</time>
      </trkpt>
      <trkpt lat="45.01587" lon="6.64265">
        <ele>1564.573</ele>
        <time>2025-02-24T07:27:53Z</time>
      </trkpt>
      <trkpt lat="45.01587" lon="6.64272">
        <ele>1565.312</ele>
        <time>2025-02-24T07:27:59Z</time>
      </trkpt>
      <trkpt lat="45.01587" lon="6.64278">
        <ele>1565.919</ele>
        <time>2025-02-24T07:28:04Z</time>
      </trkpt>
      <trkpt lat="45.01587" lon="6.64285">
        <ele>1565.877</ele>
        <time>2025-02-24T07:28:10Z</time>
      </trkpt>
      <trkpt lat="45.01587" lon="6.64292">
        <ele>1561.476</ele>
        <time>2025-02-24T07:28:16Z</time>
      </trkpt>
      <trkpt lat="45.01587" lon="6.64298">
        <ele>1559.663</ele>
        <time>2025-02-24T07:28:20Z</time>
      </trkpt>
      <trkpt lat="45.01587" lon="6.64304">
        <ele>1559.125</ele>
        <time>2025-02-24T07:28:24Z</time>
      </trkpt>
      <trkpt lat="45.01586" lon="6.6431">
        <ele>1560.515</ele>
        <time>2025-02-24T07:28:29Z</time>
      </trkpt>
      <trkpt lat="45.01585" lon="6.64317">
        <ele>1561.409</ele>
        <time>2025-02-24T07:28:35Z</time>
      </trkpt>
      <trkpt lat="45.01584" lon="6.64324">
        <ele>1561.569</ele>
        <time>2025-02-24T07:28:42Z</time>
      </trkpt>
      <trkpt lat="45.01581" lon="6.6433">
        <ele>1560.936</ele>
        <time>2025-02-24T07:28:48Z</time>
      </trkpt>
      <trkpt lat="45.01581" lon="6.64336">
        <ele>1560.155</ele>
        <time>2025-02-24T07:28:54Z</time>
      </trkpt>
      <trkpt lat="45.01579" lon="6.64342">
        <ele>1561.993</ele>
        <time>2025-02-24T07:29:00Z</time>
      </trkpt>
      <trkpt lat="45.01577" lon="6.64348">
        <ele>1562.658</ele>
        <time>2025-02-24T07:29:06Z</time>
      </trkpt>
      <trkpt lat="45.01574" lon="6.64353">
        <ele>1562.662</ele>
        <time>2025-02-24T07:29:13Z</time>
      </trkpt>
      <trkpt lat="45.0157" lon="6.64357">
        <ele>1562.19</ele>
        <time>2025-02-24T07:29:19Z</time>
      </trkpt>
      <trkpt lat="45.01566" lon="6.64359">
        <ele>1563.612</ele>
        <time>2025-02-24T07:29:25Z</time>
      </trkpt>
      <trkpt lat="45.01562" lon="6.64359">
        <ele>1566.776</ele>
        <time>2025-02-24T07:29:31Z</time>
      </trkpt>
      <trkpt lat="45.01558" lon="6.64359">
        <ele>1570.294</ele>
        <time>2025-02-24T07:29:36Z</time>
      </trkpt>
      <trkpt lat="45.01554" lon="6.64358">
        <ele>1572.314</ele>
        <time>2025-02-24T07:29:43Z</time>
      </trkpt>
      <trkpt lat="45.01549" lon="6.64357">
        <ele>1574.096</ele>
        <time>2025-02-24T07:29:50Z</time>
      </trkpt>
      <trkpt lat="45.01545" lon="6.64354">
        <ele>1575.172</ele>
        <time>2025-02-24T07:29:58Z</time>
      </trkpt>
      <trkpt lat="45.01541" lon="6.64351">
        <ele>1576.201</ele>
        <time>2025-02-24T07:30:07Z</time>
      </trkpt>
      <trkpt lat="45.01537" lon="6.64348">
        <ele>1577.28</ele>
        <time>2025-02-24T07:30:14Z</time>
      </trkpt>
      <trkpt lat="45.01532" lon="6.64345">
        <ele>1577.882</ele>
        <time>2025-02-24T07:30:21Z</time>
      </trkpt>
      <trkpt lat="45.01528" lon="6.64342">
        <ele>1578.359</ele>
        <time>2025-02-24T07:30:29Z</time>
      </trkpt>
      <trkpt lat="45.01524" lon="6.64338">
        <ele>1578.195</ele>
        <time>2025-02-24T07:30:38Z</time>
      </trkpt>
      <trkpt lat="45.01522" lon="6.64333">
        <ele>1578.528</ele>
        <time>2025-02-24T07:30:45Z</time>
      </trkpt>
      <trkpt lat="45.01519" lon="6.64328">
        <ele>1580.258</ele>
        <time>2025-02-24T07:30:52Z</time>
      </trkpt>
      <trkpt lat="45.01515" lon="6.64325">
        <ele>1583.256</ele>
        <time>2025-02-24T07:30:58Z</time>
      </trkpt>
      <trkpt lat="45.0151" lon="6.64323">
        <ele>1584.591</ele>
        <time>2025-02-24T07:31:04Z</time>
      </trkpt>
      <trkpt lat="45.01507" lon="6.64324">
        <ele>1581.222</ele>
        <time>2025-02-24T07:31:10Z</time>
      </trkpt>
      <trkpt lat="45.01504" lon="6.64329">
        <ele>1579.456</ele>
        <time>2025-02-24T07:31:17Z</time>
      </trkpt>
      <trkpt lat="45.01501" lon="6.64333">
        <ele>1580.298</ele>
        <time>2025-02-24T07:31:24Z</time>
      </trkpt>
      <trkpt lat="45.01501" lon="6.64333">
        <ele>1578.346</ele>
        <time>2025-02-24T07:31:45Z</time>
      </trkpt>
      <trkpt lat="45.01498" lon="6.64337">
        <ele>1576.532</ele>
        <time>2025-02-24T07:31:51Z</time>
      </trkpt>
      <trkpt lat="45.01495" lon="6.64343">
        <ele>1577.986</ele>
        <time>2025-02-24T07:31:58Z</time>
      </trkpt>
      <trkpt lat="45.01491" lon="6.64347">
        <ele>1579.546</ele>
        <time>2025-02-24T07:32:05Z</time>
      </trkpt>
      <trkpt lat="45.01487" lon="6.6435">
        <ele>1581.641</ele>
        <time>2025-02-24T07:32:11Z</time>
      </trkpt>
      <trkpt lat="45.01483" lon="6.64353">
        <ele>1582.4</ele>
        <time>2025-02-24T07:32:19Z</time>
      </trkpt>
      <trkpt lat="45.01482" lon="6.64359">
        <ele>1584.516</ele>
        <time>2025-02-24T07:32:26Z</time>
      </trkpt>
      <trkpt lat="45.01486" lon="6.64363">
        <ele>1585.881</ele>
        <time>2025-02-24T07:32:35Z</time>
      </trkpt>
      <trkpt lat="45.01482" lon="6.64367">
        <ele>1587.553</ele>
        <time>2025-02-24T07:32:42Z</time>
      </trkpt>
      <trkpt lat="45.01478" lon="6.64369">
        <ele>1589.553</ele>
        <time>2025-02-24T07:32:47Z</time>
      </trkpt>
      <trkpt lat="45.01473" lon="6.6437">
        <ele>1591.445</ele>
        <time>2025-02-24T07:33:00Z</time>
      </trkpt>
      <trkpt lat="45.01469" lon="6.64373">
        <ele>1591.779</ele>
        <time>2025-02-24T07:33:07Z</time>
      </trkpt>
      <trkpt lat="45.01465" lon="6.64375">
        <ele>1593.931</ele>
        <time>2025-02-24T07:33:14Z</time>
      </trkpt>
      <trkpt lat="45.01461" lon="6.64377">
        <ele>1593.315</ele>
        <time>2025-02-24T07:33:22Z</time>
      </trkpt>
      <trkpt lat="45.01457" lon="6.64379">
        <ele>1596.044</ele>
        <time>2025-02-24T07:33:29Z</time>
      </trkpt>
      <trkpt lat="45.01453" lon="6.64381">
        <ele>1596.522</ele>
        <time>2025-02-24T07:33:38Z</time>
      </trkpt>
      <trkpt lat="45.01449" lon="6.64385">
        <ele>1596.542</ele>
        <time>2025-02-24T07:33:46Z</time>
      </trkpt>
      <trkpt lat="45.01445" lon="6.64387">
        <ele>1598.652</ele>
        <time>2025-02-24T07:33:54Z</time>
      </trkpt>
      <trkpt lat="45.01441" lon="6.64388">
        <ele>1601.581</ele>
        <time>2025-02-24T07:34:02Z</time>
      </trkpt>
      <trkpt lat="45.01437" lon="6.64388">
        <ele>1598.487</ele>
        <time>2025-02-24T07:34:10Z</time>
      </trkpt>
      <trkpt lat="45.01433" lon="6.64389">
        <ele>1601.419</ele>
        <time>2025-02-24T07:34:18Z</time>
      </trkpt>
      <trkpt lat="45.01429" lon="6.6439">
        <ele>1603.055</ele>
        <time>2025-02-24T07:34:25Z</time>
      </trkpt>
      <trkpt lat="45.01425" lon="6.6439">
        <ele>1605.562</ele>
        <time>2025-02-24T07:34:34Z</time>
      </trkpt>
      <trkpt lat="45.0142" lon="6.64392">
        <ele>1606.114</ele>
        <time>2025-02-24T07:34:43Z</time>
      </trkpt>
      <trkpt lat="45.01416" lon="6.64393">
        <ele>1609.546</ele>
        <time>2025-02-24T07:34:50Z</time>
      </trkpt>
      <trkpt lat="45.01413" lon="6.64398">
        <ele>1607.874</ele>
        <time>2025-02-24T07:35:01Z</time>
      </trkpt>
      <trkpt lat="45.01413" lon="6.64403">
        <ele>1610.619</ele>
        <time>2025-02-24T07:35:08Z</time>
      </trkpt>
      <trkpt lat="45.01409" lon="6.64407">
        <ele>1609.019</ele>
        <time>2025-02-24T07:35:16Z</time>
      </trkpt>
      <trkpt lat="45.01405" lon="6.64411">
        <ele>1608.836</ele>
        <time>2025-02-24T07:35:25Z</time>
      </trkpt>
      <trkpt lat="45.01401" lon="6.64414">
        <ele>1607.311</ele>
        <time>2025-02-24T07:35:32Z</time>
      </trkpt>
      <trkpt lat="45.01398" lon="6.64419">
        <ele>1607.519</ele>
        <time>2025-02-24T07:35:41Z</time>
      </trkpt>
      <trkpt lat="45.01395" lon="6.64425">
        <ele>1607.037</ele>
        <time>2025-02-24T07:35:49Z</time>
      </trkpt>
      <trkpt lat="45.01391" lon="6.64426">
        <ele>1607.933</ele>
        <time>2025-02-24T07:35:55Z</time>
      </trkpt>
      <trkpt lat="45.01389" lon="6.64425">
        <ele>1608.324</ele>
        <time>2025-02-24T07:36:16Z</time>
      </trkpt>
      <trkpt lat="45.01385" lon="6.64423">
        <ele>1610.698</ele>
        <time>2025-02-24T07:36:24Z</time>
      </trkpt>
      <trkpt lat="45.0138" lon="6.6442">
        <ele>1610.668</ele>
        <time>2025-02-24T07:36:30Z</time>
      </trkpt>
      <trkpt lat="45.01377" lon="6.64416">
        <ele>1612.152</ele>
        <time>2025-02-24T07:36:38Z</time>
      </trkpt>
      <trkpt lat="45.01372" lon="6.64419">
        <ele>1614.209</ele>
        <time>2025-02-24T07:36:47Z</time>
      </trkpt>
      <trkpt lat="45.01369" lon="6.64424">
        <ele>1613.38</ele>
        <time>2025-02-24T07:36:54Z</time>
      </trkpt>
      <trkpt lat="45.01365" lon="6.64425">
        <ele>1611.304</ele>
        <time>2025-02-24T07:37:02Z</time>
      </trkpt>
      <trkpt lat="45.01361" lon="6.64429">
        <ele>1614.475</ele>
        <time>2025-02-24T07:37:08Z</time>
      </trkpt>
      <trkpt lat="45.01357" lon="6.64432">
        <ele>1616.379</ele>
        <time>2025-02-24T07:37:14Z</time>
      </trkpt>
      <trkpt lat="45.01354" lon="6.64436">
        <ele>1615.761</ele>
        <time>2025-02-24T07:37:21Z</time>
      </trkpt>
      <trkpt lat="45.0135" lon="6.6444">
        <ele>1618.538</ele>
        <time>2025-02-24T07:37:27Z</time>
      </trkpt>
      <trkpt lat="45.01346" lon="6.64443">
        <ele>1619.314</ele>
        <time>2025-02-24T07:37:34Z</time>
      </trkpt>
      <trkpt lat="45.01342" lon="6.64445">
        <ele>1616.766</ele>
        <time>2025-02-24T07:37:44Z</time>
      </trkpt>
      <trkpt lat="45.01338" lon="6.64448">
        <ele>1616.134</ele>
        <time>2025-02-24T07:37:53Z</time>
      </trkpt>
      <trkpt lat="45.01334" lon="6.64451">
        <ele>1616.453</ele>
        <time>2025-02-24T07:38:01Z</time>
      </trkpt>
      <trkpt lat="45.01329" lon="6.64452">
        <ele>1616.186</ele>
        <time>2025-02-24T07:38:09Z</time>
      </trkpt>
      <trkpt lat="45.01324" lon="6.64454">
        <ele>1615.674</ele>
        <time>2025-02-24T07:38:17Z</time>
      </trkpt>
      <trkpt lat="45.0132" lon="6.64456">
        <ele>1616.235</ele>
        <time>2025-02-24T07:38:24Z</time>
      </trkpt>
      <trkpt lat="45.01317" lon="6.64457">
        <ele>1619.962</ele>
        <time>2025-02-24T07:38:28Z</time>
      </trkpt>
      <trkpt lat="45.01312" lon="6.64459">
        <ele>1621.011</ele>
        <time>2025-02-24T07:38:36Z</time>
      </trkpt>
      <trkpt lat="45.01307" lon="6.64459">
        <ele>1620.559</ele>
        <time>2025-02-24T07:38:43Z</time>
      </trkpt>
      <trkpt lat="45.01303" lon="6.6446">
        <ele>1621.91</ele>
        <time>2025-02-24T07:38:51Z</time>
      </trkpt>
      <trkpt lat="45.01299" lon="6.64462">
        <ele>1624.249</ele>
        <time>2025-02-24T07:38:57Z</time>
      </trkpt>
      <trkpt lat="45.01294" lon="6.64461">
        <ele>1623.608</ele>
        <time>2025-02-24T07:39:05Z</time>
      </trkpt>
      <trkpt lat="45.0129" lon="6.6446">
        <ele>1623.005</ele>
        <time>2025-02-24T07:39:12Z</time>
      </trkpt>
      <trkpt lat="45.01285" lon="6.64459">
        <ele>1624.247</ele>
        <time>2025-02-24T07:39:19Z</time>
      </trkpt>
      <trkpt lat="45.01282" lon="6.6446">
        <ele>1628.279</ele>
        <time>2025-02-24T07:39:25Z</time>
      </trkpt>
      <trkpt lat="45.01278" lon="6.6446">
        <ele>1631.528</ele>
        <time>2025-02-24T07:39:32Z</time>
      </trkpt>
      <trkpt lat="45.01273" lon="6.64461">
        <ele>1631.65</ele>
        <time>2025-02-24T07:39:40Z</time>
      </trkpt>
      <trkpt lat="45.01269" lon="6.64463">
        <ele>1628.516</ele>
        <time>2025-02-24T07:39:47Z</time>
      </trkpt>
      <trkpt lat="45.01266" lon="6.64464">
        <ele>1631.909</ele>
        <time>2025-02-24T07:39:52Z</time>
      </trkpt>
      <trkpt lat="45.01261" lon="6.64467">
        <ele>1632.204</ele>
        <time>2025-02-24T07:40:00Z</time>
      </trkpt>
      <trkpt lat="45.01257" lon="6.6447">
        <ele>1631.573</ele>
        <time>2025-02-24T07:40:08Z</time>
      </trkpt>
      <trkpt lat="45.01253" lon="6.64474">
        <ele>1632.867</ele>
        <time>2025-02-24T07:40:16Z</time>
      </trkpt>
      <trkpt lat="45.0125" lon="6.64477">
        <ele>1631.391</ele>
        <time>2025-02-24T07:40:24Z</time>
      </trkpt>
      <trkpt lat="45.01246" lon="6.64479">
        <ele>1628.107</ele>
        <time>2025-02-24T07:40:31Z</time>
      </trkpt>
      <trkpt lat="45.01242" lon="6.64483">
        <ele>1626.482</ele>
        <time>2025-02-24T07:40:39Z</time>
      </trkpt>
      <trkpt lat="45.01238" lon="6.64484">
        <ele>1627.859</ele>
        <time>2025-02-24T07:40:46Z</time>
      </trkpt>
      <trkpt lat="45.01234" lon="6.64486">
        <ele>1626.99</ele>
        <time>2025-02-24T07:40:53Z</time>
      </trkpt>
      <trkpt lat="45.0123" lon="6.64488">
        <ele>1630.241</ele>
        <time>2025-02-24T07:40:58Z</time>
      </trkpt>
      <trkpt lat="45.01226" lon="6.6449">
        <ele>1630.207</ele>
        <time>2025-02-24T07:41:05Z</time>
      </trkpt>
      <trkpt lat="45.01221" lon="6.64492">
        <ele>1632.123</ele>
        <time>2025-02-24T07:41:12Z</time>
      </trkpt>
      <trkpt lat="45.01216" lon="6.64493">
        <ele>1633.473</ele>
        <time>2025-02-24T07:41:20Z</time>
      </trkpt>
      <trkpt lat="45.01212" lon="6.64495">
        <ele>1634.133</ele>
        <time>2025-02-24T07:41:28Z</time>
      </trkpt>
      <trkpt lat="45.01207" lon="6.64497">
        <ele>1634.765</ele>
        <time>2025-02-24T07:41:34Z</time>
      </trkpt>
      <trkpt lat="45.01204" lon="6.64499">
        <ele>1637.459</ele>
        <time>2025-02-24T07:41:40Z</time>
      </trkpt>
      <trkpt lat="45.012" lon="6.645">
        <ele>1640.15</ele>
        <time>2025-02-24T07:41:47Z</time>
      </trkpt>
      <trkpt lat="45.01195" lon="6.64504">
        <ele>1641.166</ele>
        <time>2025-02-24T07:41:55Z</time>
      </trkpt>
      <trkpt lat="45.01191" lon="6.64507">
        <ele>1639.488</ele>
        <time>2025-02-24T07:42:04Z</time>
      </trkpt>
      <trkpt lat="45.01186" lon="6.64507">
        <ele>1638.789</ele>
        <time>2025-02-24T07:42:11Z</time>
      </trkpt>
      <trkpt lat="45.01182" lon="6.64509">
        <ele>1637.496</ele>
        <time>2025-02-24T07:42:18Z</time>
      </trkpt>
      <trkpt lat="45.01179" lon="6.64511">
        <ele>1640.688</ele>
        <time>2025-02-24T07:42:24Z</time>
      </trkpt>
      <trkpt lat="45.01174" lon="6.64514">
        <ele>1642.207</ele>
        <time>2025-02-24T07:42:32Z</time>
      </trkpt>
      <trkpt lat="45.0117" lon="6.64517">
        <ele>1642.336</ele>
        <time>2025-02-24T07:42:40Z</time>
      </trkpt>
      <trkpt lat="45.01166" lon="6.64521">
        <ele>1643.356</ele>
        <time>2025-02-24T07:42:50Z</time>
      </trkpt>
      <trkpt lat="45.01162" lon="6.64523">
        <ele>1644.975</ele>
        <time>2025-02-24T07:42:57Z</time>
      </trkpt>
      <trkpt lat="45.01157" lon="6.64526">
        <ele>1644.192</ele>
        <time>2025-02-24T07:43:04Z</time>
      </trkpt>
      <trkpt lat="45.01154" lon="6.6453">
        <ele>1643.133</ele>
        <time>2025-02-24T07:43:12Z</time>
      </trkpt>
      <trkpt lat="45.01149" lon="6.64533">
        <ele>1643.304</ele>
        <time>2025-02-24T07:43:18Z</time>
      </trkpt>
      <trkpt lat="45.01145" lon="6.64537">
        <ele>1644.284</ele>
        <time>2025-02-24T07:43:25Z</time>
      </trkpt>
      <trkpt lat="45.01142" lon="6.64541">
        <ele>1642.768</ele>
        <time>2025-02-24T07:43:33Z</time>
      </trkpt>
      <trkpt lat="45.01139" lon="6.64545">
        <ele>1642.176</ele>
        <time>2025-02-24T07:43:41Z</time>
      </trkpt>
      <trkpt lat="45.01135" lon="6.64548">
        <ele>1643.646</ele>
        <time>2025-02-24T07:43:48Z</time>
      </trkpt>
      <trkpt lat="45.01131" lon="6.64551">
        <ele>1644.753</ele>
        <time>2025-02-24T07:43:55Z</time>
      </trkpt>
      <trkpt lat="45.01128" lon="6.64556">
        <ele>1643.611</ele>
        <time>2025-02-24T07:44:05Z</time>
      </trkpt>
      <trkpt lat="45.01125" lon="6.64561">
        <ele>1643.043</ele>
        <time>2025-02-24T07:44:16Z</time>
      </trkpt>
      <trkpt lat="45.01122" lon="6.64566">
        <ele>1641.612</ele>
        <time>2025-02-24T07:44:23Z</time>
      </trkpt>
      <trkpt lat="45.01118" lon="6.64571">
        <ele>1641.782</ele>
        <time>2025-02-24T07:44:39Z</time>
      </trkpt>
      <trkpt lat="45.01115" lon="6.64575">
        <ele>1641.593</ele>
        <time>2025-02-24T07:44:47Z</time>
      </trkpt>
      <trkpt lat="45.01111" lon="6.64581">
        <ele>1642.063</ele>
        <time>2025-02-24T07:44:54Z</time>
      </trkpt>
      <trkpt lat="45.01109" lon="6.64586">
        <ele>1643.46</ele>
        <time>2025-02-24T07:45:01Z</time>
      </trkpt>
      <trkpt lat="45.01105" lon="6.6459">
        <ele>1643.559</ele>
        <time>2025-02-24T07:45:07Z</time>
      </trkpt>
      <trkpt lat="45.011" lon="6.64593">
        <ele>1644.157</ele>
        <time>2025-02-24T07:45:13Z</time>
      </trkpt>
      <trkpt lat="45.01096" lon="6.64595">
        <ele>1645.631</ele>
        <time>2025-02-24T07:45:18Z</time>
      </trkpt>
      <trkpt lat="45.01092" lon="6.64598">
        <ele>1645.791</ele>
        <time>2025-02-24T07:45:23Z</time>
      </trkpt>
      <trkpt lat="45.01087" lon="6.646">
        <ele>1648.049</ele>
        <time>2025-02-24T07:45:29Z</time>
      </trkpt>
      <trkpt lat="45.01086" lon="6.64599">
        <ele>1647.36</ele>
        <time>2025-02-24T07:45:50Z</time>
      </trkpt>
      <trkpt lat="45.01087" lon="6.64598">
        <ele>1648.526</ele>
        <time>2025-02-24T07:46:10Z</time>
      </trkpt>
      <trkpt lat="45.01084" lon="6.64596">
        <ele>1648.627</ele>
        <time>2025-02-24T07:46:31Z</time>
      </trkpt>
      <trkpt lat="45.01081" lon="6.64592">
        <ele>1647.358</ele>
        <time>2025-02-24T07:46:37Z</time>
      </trkpt>
      <trkpt lat="45.01077" lon="6.64588">
        <ele>1648.935</ele>
        <time>2025-02-24T07:46:43Z</time>
      </trkpt>
      <trkpt lat="45.01074" lon="6.64582">
        <ele>1647.08</ele>
        <time>2025-02-24T07:46:51Z</time>
      </trkpt>
      <trkpt lat="45.01069" lon="6.6458">
        <ele>1649.437</ele>
        <time>2025-02-24T07:46:58Z</time>
      </trkpt>
      <trkpt lat="45.01068" lon="6.64574">
        <ele>1647.67</ele>
        <time>2025-02-24T07:47:04Z</time>
      </trkpt>
      <trkpt lat="45.01067" lon="6.64568">
        <ele>1646.864</ele>
        <time>2025-02-24T07:47:14Z</time>
      </trkpt>
      <trkpt lat="45.01065" lon="6.64562">
        <ele>1649.45</ele>
        <time>2025-02-24T07:47:21Z</time>
      </trkpt>
      <trkpt lat="45.01065" lon="6.64556">
        <ele>1651.555</ele>
        <time>2025-02-24T07:47:28Z</time>
      </trkpt>
      <trkpt lat="45.01065" lon="6.6455">
        <ele>1651.489</ele>
        <time>2025-02-24T07:47:35Z</time>
      </trkpt>
      <trkpt lat="45.01062" lon="6.64544">
        <ele>1649.677</ele>
        <time>2025-02-24T07:47:45Z</time>
      </trkpt>
      <trkpt lat="45.01058" lon="6.64542">
        <ele>1651.733</ele>
        <time>2025-02-24T07:47:54Z</time>
      </trkpt>
      <trkpt lat="45.01055" lon="6.64537">
        <ele>1654.127</ele>
        <time>2025-02-24T07:48:03Z</time>
      </trkpt>
      <trkpt lat="45.01053" lon="6.64531">
        <ele>1656.019</ele>
        <time>2025-02-24T07:48:11Z</time>
      </trkpt>
      <trkpt lat="45.01048" lon="6.64528">
        <ele>1658.007</ele>
        <time>2025-02-24T07:48:19Z</time>
      </trkpt>
      <trkpt lat="45.01046" lon="6.64524">
        <ele>1660.953</ele>
        <time>2025-02-24T07:48:25Z</time>
      </trkpt>
      <trkpt lat="45.01044" lon="6.64517">
        <ele>1661.543</ele>
        <time>2025-02-24T07:48:32Z</time>
      </trkpt>
      <trkpt lat="45.01042" lon="6.64512">
        <ele>1664.102</ele>
        <time>2025-02-24T07:48:40Z</time>
      </trkpt>
      <trkpt lat="45.0104" lon="6.64506">
        <ele>1661.345</ele>
        <time>2025-02-24T07:48:48Z</time>
      </trkpt>
      <trkpt lat="45.0104" lon="6.645">
        <ele>1661.046</ele>
        <time>2025-02-24T07:48:55Z</time>
      </trkpt>
      <trkpt lat="45.01038" lon="6.64494">
        <ele>1662.395</ele>
        <time>2025-02-24T07:49:04Z</time>
      </trkpt>
      <trkpt lat="45.01036" lon="6.64488">
        <ele>1662.906</ele>
        <time>2025-02-24T07:49:14Z</time>
      </trkpt>
      <trkpt lat="45.01035" lon="6.64481">
        <ele>1662.501</ele>
        <time>2025-02-24T07:49:22Z</time>
      </trkpt>
      <trkpt lat="45.01033" lon="6.64474">
        <ele>1663.056</ele>
        <time>2025-02-24T07:49:31Z</time>
      </trkpt>
      <trkpt lat="45.01032" lon="6.64468">
        <ele>1664.081</ele>
        <time>2025-02-24T07:49:42Z</time>
      </trkpt>
      <trkpt lat="45.01027" lon="6.64465">
        <ele>1662.899</ele>
        <time>2025-02-24T07:49:54Z</time>
      </trkpt>
      <trkpt lat="45.01024" lon="6.64462">
        <ele>1665.642</ele>
        <time>2025-02-24T07:50:02Z</time>
      </trkpt>
      <trkpt lat="45.0102" lon="6.64461">
        <ele>1669.523</ele>
        <time>2025-02-24T07:50:11Z</time>
      </trkpt>
      <trkpt lat="45.01016" lon="6.64458">
        <ele>1671.689</ele>
        <time>2025-02-24T07:50:19Z</time>
      </trkpt>
      <trkpt lat="45.01012" lon="6.64457">
        <ele>1669.04</ele>
        <time>2025-02-24T07:50:26Z</time>
      </trkpt>
      <trkpt lat="45.01008" lon="6.64455">
        <ele>1668.905</ele>
        <time>2025-02-24T07:50:34Z</time>
      </trkpt>
      <trkpt lat="45.01004" lon="6.64451">
        <ele>1669.774</ele>
        <time>2025-02-24T07:50:43Z</time>
      </trkpt>
      <trkpt lat="45.01001" lon="6.64447">
        <ele>1668.808</ele>
        <time>2025-02-24T07:50:52Z</time>
      </trkpt>
      <trkpt lat="45.00999" lon="6.64441">
        <ele>1668.629</ele>
        <time>2025-02-24T07:51:06Z</time>
      </trkpt>
      <trkpt lat="45.01002" lon="6.64437">
        <ele>1666.476</ele>
        <time>2025-02-24T07:51:11Z</time>
      </trkpt>
      <trkpt lat="45.01" lon="6.64431">
        <ele>1669.292</ele>
        <time>2025-02-24T07:51:21Z</time>
      </trkpt>
      <trkpt lat="45.00999" lon="6.64431">
        <ele>1668.154</ele>
        <time>2025-02-24T07:51:42Z</time>
      </trkpt>
      <trkpt lat="45.00994" lon="6.64431">
        <ele>1671.585</ele>
        <time>2025-02-24T07:51:49Z</time>
      </trkpt>
      <trkpt lat="45.00994" lon="6.64425">
        <ele>1672.117</ele>
        <time>2025-02-24T07:51:59Z</time>
      </trkpt>
      <trkpt lat="45.0099" lon="6.6442">
        <ele>1673.141</ele>
        <time>2025-02-24T07:52:09Z</time>
      </trkpt>
      <trkpt lat="45.0099" lon="6.6442">
        <ele>1674.085</ele>
        <time>2025-02-24T07:52:30Z</time>
      </trkpt>
      <trkpt lat="45.0099" lon="6.6442">
        <ele>1674.137</ele>
        <time>2025-02-24T07:52:51Z</time>
      </trkpt>
      <trkpt lat="45.00991" lon="6.64421">
        <ele>1675.334</ele>
        <time>2025-02-24T07:53:11Z</time>
      </trkpt>
      <trkpt lat="45.00991" lon="6.64424">
        <ele>1679.753</ele>
        <time>2025-02-24T07:53:29Z</time>
      </trkpt>
      <trkpt lat="45.00988" lon="6.64425">
        <ele>1676.235</ele>
        <time>2025-02-24T07:53:37Z</time>
      </trkpt>
      <trkpt lat="45.00985" lon="6.64422">
        <ele>1672.959</ele>
        <time>2025-02-24T07:53:42Z</time>
      </trkpt>
      <trkpt lat="45.00981" lon="6.64419">
        <ele>1671.798</ele>
        <time>2025-02-24T07:53:49Z</time>
      </trkpt>
      <trkpt lat="45.0098" lon="6.64413">
        <ele>1673.752</ele>
        <time>2025-02-24T07:53:56Z</time>
      </trkpt>
      <trkpt lat="45.00976" lon="6.64411">
        <ele>1677.111</ele>
        <time>2025-02-24T07:54:01Z</time>
      </trkpt>
      <trkpt lat="45.00973" lon="6.64406">
        <ele>1679.246</ele>
        <time>2025-02-24T07:54:08Z</time>
      </trkpt>
      <trkpt lat="45.0097" lon="6.64401">
        <ele>1679.729</ele>
        <time>2025-02-24T07:54:14Z</time>
      </trkpt>
      <trkpt lat="45.00969" lon="6.64394">
        <ele>1678.66</ele>
        <time>2025-02-24T07:54:20Z</time>
      </trkpt>
      <trkpt lat="45.00967" lon="6.64388">
        <ele>1676.107</ele>
        <time>2025-02-24T07:54:27Z</time>
      </trkpt>
      <trkpt lat="45.00966" lon="6.64383">
        <ele>1679.121</ele>
        <time>2025-02-24T07:54:43Z</time>
      </trkpt>
      <trkpt lat="45.00966" lon="6.64376">
        <ele>1677.699</ele>
        <time>2025-02-24T07:54:50Z</time>
      </trkpt>
      <trkpt lat="45.00964" lon="6.6437">
        <ele>1678.372</ele>
        <time>2025-02-24T07:54:59Z</time>
      </trkpt>
      <trkpt lat="45.00961" lon="6.64365">
        <ele>1680.449</ele>
        <time>2025-02-24T07:55:06Z</time>
      </trkpt>
      <trkpt lat="45.0096" lon="6.6436">
        <ele>1678.618</ele>
        <time>2025-02-24T07:55:14Z</time>
      </trkpt>
      <trkpt lat="45.00958" lon="6.64354">
        <ele>1680.503</ele>
        <time>2025-02-24T07:55:22Z</time>
      </trkpt>
      <trkpt lat="45.00956" lon="6.64347">
        <ele>1680.542</ele>
        <time>2025-02-24T07:55:30Z</time>
      </trkpt>
      <trkpt lat="45.00955" lon="6.64342">
        <ele>1683.012</ele>
        <time>2025-02-24T07:55:37Z</time>
      </trkpt>
      <trkpt lat="45.00952" lon="6.64339">
        <ele>1685.992</ele>
        <time>2025-02-24T07:55:44Z</time>
      </trkpt>
      <trkpt lat="45.00948" lon="6.64336">
        <ele>1686.88</ele>
        <time>2025-02-24T07:55:53Z</time>
      </trkpt>
      <trkpt lat="45.00943" lon="6.64335">
        <ele>1688.388</ele>
        <time>2025-02-24T07:56:01Z</time>
      </trkpt>
      <trkpt lat="45.0094" lon="6.64332">
        <ele>1686.302</ele>
        <time>2025-02-24T07:56:10Z</time>
      </trkpt>
      <trkpt lat="45.00938" lon="6.64332">
        <ele>1684.574</ele>
        <time>2025-02-24T07:56:31Z</time>
      </trkpt>
      <trkpt lat="45.00933" lon="6.64335">
        <ele>1682.283</ele>
        <time>2025-02-24T07:56:49Z</time>
      </trkpt>
      <trkpt lat="45.00929" lon="6.64336">
        <ele>1683.894</ele>
        <time>2025-02-24T07:56:57Z</time>
      </trkpt>
      <trkpt lat="45.00925" lon="6.64337">
        <ele>1687.216</ele>
        <time>2025-02-24T07:57:02Z</time>
      </trkpt>
      <trkpt lat="45.00921" lon="6.64336">
        <ele>1687.073</ele>
        <time>2025-02-24T07:57:11Z</time>
      </trkpt>
      <trkpt lat="45.00916" lon="6.64336">
        <ele>1690.924</ele>
        <time>2025-02-24T07:57:18Z</time>
      </trkpt>
      <trkpt lat="45.00911" lon="6.64337">
        <ele>1691.376</ele>
        <time>2025-02-24T07:57:27Z</time>
      </trkpt>
      <trkpt lat="45.00907" lon="6.64335">
        <ele>1690.946</ele>
        <time>2025-02-24T07:57:35Z</time>
      </trkpt>
      <trkpt lat="45.00902" lon="6.64333">
        <ele>1690.948</ele>
        <time>2025-02-24T07:57:43Z</time>
      </trkpt>
      <trkpt lat="45.00898" lon="6.64331">
        <ele>1693.423</ele>
        <time>2025-02-24T07:57:51Z</time>
      </trkpt>
      <trkpt lat="45.00895" lon="6.64327">
        <ele>1695.268</ele>
        <time>2025-02-24T07:57:58Z</time>
      </trkpt>
      <trkpt lat="45.00891" lon="6.64323">
        <ele>1693.415</ele>
        <time>2025-02-24T07:58:05Z</time>
      </trkpt>
      <trkpt lat="45.00887" lon="6.64321">
        <ele>1691.3</ele>
        <time>2025-02-24T07:58:13Z</time>
      </trkpt>
      <trkpt lat="45.00884" lon="6.64316">
        <ele>1692.411</ele>
        <time>2025-02-24T07:58:21Z</time>
      </trkpt>
      <trkpt lat="45.00881" lon="6.64311">
        <ele>1693.704</ele>
        <time>2025-02-24T07:58:29Z</time>
      </trkpt>
      <trkpt lat="45.00879" lon="6.64306">
        <ele>1695.958</ele>
        <time>2025-02-24T07:58:36Z</time>
      </trkpt>
      <trkpt lat="45.00876" lon="6.64301">
        <ele>1694.416</ele>
        <time>2025-02-24T07:58:43Z</time>
      </trkpt>
      <trkpt lat="45.00874" lon="6.64296">
        <ele>1695.722</ele>
        <time>2025-02-24T07:58:51Z</time>
      </trkpt>
      <trkpt lat="45.00871" lon="6.6429">
        <ele>1695.872</ele>
        <time>2025-02-24T07:59:01Z</time>
      </trkpt>
      <trkpt lat="45.00868" lon="6.64286">
        <ele>1696.616</ele>
        <time>2025-02-24T07:59:08Z</time>
      </trkpt>
      <trkpt lat="45.00864" lon="6.64286">
        <ele>1699.781</ele>
        <time>2025-02-24T07:59:14Z</time>
      </trkpt>
      <trkpt lat="45.00859" lon="6.64286">
        <ele>1701.356</ele>
        <time>2025-02-24T07:59:23Z</time>
      </trkpt>
      <trkpt lat="45.00856" lon="6.64282">
        <ele>1700.459</ele>
        <time>2025-02-24T07:59:31Z</time>
      </trkpt>
      <trkpt lat="45.00852" lon="6.64277">
        <ele>1699.382</ele>
        <time>2025-02-24T07:59:39Z</time>
      </trkpt>
      <trkpt lat="45.00848" lon="6.64274">
        <ele>1700.771</ele>
        <time>2025-02-24T07:59:49Z</time>
      </trkpt>
      <trkpt lat="45.00844" lon="6.6427">
        <ele>1701.802</ele>
        <time>2025-02-24T07:59:58Z</time>
      </trkpt>
      <trkpt lat="45.00843" lon="6.64263">
        <ele>1700.688</ele>
        <time>2025-02-24T08:00:06Z</time>
      </trkpt>
      <trkpt lat="45.00841" lon="6.64257">
        <ele>1701.788</ele>
        <time>2025-02-24T08:00:15Z</time>
      </trkpt>
      <trkpt lat="45.00838" lon="6.64253">
        <ele>1704.542</ele>
        <time>2025-02-24T08:00:23Z</time>
      </trkpt>
      <trkpt lat="45.00834" lon="6.64252">
        <ele>1707.063</ele>
        <time>2025-02-24T08:00:30Z</time>
      </trkpt>
      <trkpt lat="45.00831" lon="6.64248">
        <ele>1709.021</ele>
        <time>2025-02-24T08:00:38Z</time>
      </trkpt>
      <trkpt lat="45.00828" lon="6.64242">
        <ele>1709.098</ele>
        <time>2025-02-24T08:00:46Z</time>
      </trkpt>
      <trkpt lat="45.00825" lon="6.64238">
        <ele>1711.599</ele>
        <time>2025-02-24T08:00:53Z</time>
      </trkpt>
      <trkpt lat="45.00822" lon="6.64236">
        <ele>1709.534</ele>
        <time>2025-02-24T08:01:00Z</time>
      </trkpt>
      <trkpt lat="45.00818" lon="6.64232">
        <ele>1707.097</ele>
        <time>2025-02-24T08:01:07Z</time>
      </trkpt>
      <trkpt lat="45.00816" lon="6.64227">
        <ele>1710.823</ele>
        <time>2025-02-24T08:01:14Z</time>
      </trkpt>
      <trkpt lat="45.00812" lon="6.64223">
        <ele>1710.285</ele>
        <time>2025-02-24T08:01:24Z</time>
      </trkpt>
      <trkpt lat="45.00809" lon="6.64219">
        <ele>1712.857</ele>
        <time>2025-02-24T08:01:30Z</time>
      </trkpt>
      <trkpt lat="45.00806" lon="6.64214">
        <ele>1712.567</ele>
        <time>2025-02-24T08:01:39Z</time>
      </trkpt>
      <trkpt lat="45.00803" lon="6.64209">
        <ele>1713.501</ele>
        <time>2025-02-24T08:01:49Z</time>
      </trkpt>
      <trkpt lat="45.00798" lon="6.64206">
        <ele>1712.836</ele>
        <time>2025-02-24T08:01:59Z</time>
      </trkpt>
      <trkpt lat="45.00794" lon="6.64203">
        <ele>1713.319</ele>
        <time>2025-02-24T08:02:08Z</time>
      </trkpt>
      <trkpt lat="45.00792" lon="6.64197">
        <ele>1714.128</ele>
        <time>2025-02-24T08:02:15Z</time>
      </trkpt>
      <trkpt lat="45.00789" lon="6.64191">
        <ele>1713.903</ele>
        <time>2025-02-24T08:02:23Z</time>
      </trkpt>
      <trkpt lat="45.00787" lon="6.64185">
        <ele>1715.265</ele>
        <time>2025-02-24T08:02:31Z</time>
      </trkpt>
      <trkpt lat="45.00785" lon="6.64178">
        <ele>1715.295</ele>
        <time>2025-02-24T08:02:39Z</time>
      </trkpt>
      <trkpt lat="45.00785" lon="6.64171">
        <ele>1716.566</ele>
        <time>2025-02-24T08:02:47Z</time>
      </trkpt>
      <trkpt lat="45.00785" lon="6.64166">
        <ele>1719.963</ele>
        <time>2025-02-24T08:02:53Z</time>
      </trkpt>
      <trkpt lat="45.00784" lon="6.6416">
        <ele>1719.692</ele>
        <time>2025-02-24T08:03:02Z</time>
      </trkpt>
      <trkpt lat="45.00781" lon="6.64156">
        <ele>1720.69</ele>
        <time>2025-02-24T08:03:11Z</time>
      </trkpt>
      <trkpt lat="45.00777" lon="6.64151">
        <ele>1719.087</ele>
        <time>2025-02-24T08:03:21Z</time>
      </trkpt>
      <trkpt lat="45.00775" lon="6.64145">
        <ele>1720.148</ele>
        <time>2025-02-24T08:03:29Z</time>
      </trkpt>
      <trkpt lat="45.00773" lon="6.64139">
        <ele>1722.007</ele>
        <time>2025-02-24T08:03:40Z</time>
      </trkpt>
      <trkpt lat="45.00771" lon="6.64134">
        <ele>1721.979</ele>
        <time>2025-02-24T08:03:50Z</time>
      </trkpt>
      <trkpt lat="45.00769" lon="6.64128">
        <ele>1724.245</ele>
        <time>2025-02-24T08:03:58Z</time>
      </trkpt>
      <trkpt lat="45.00767" lon="6.64128">
        <ele>1727.601</ele>
        <time>2025-02-24T08:04:18Z</time>
      </trkpt>
      <trkpt lat="45.00767" lon="6.64135">
        <ele>1729.191</ele>
        <time>2025-02-24T08:04:24Z</time>
      </trkpt>
      <trkpt lat="45.00764" lon="6.64137">
        <ele>1733.552</ele>
        <time>2025-02-24T08:04:39Z</time>
      </trkpt>
      <trkpt lat="45.00759" lon="6.64136">
        <ele>1735.622</ele>
        <time>2025-02-24T08:04:46Z</time>
      </trkpt>
      <trkpt lat="45.00756" lon="6.64133">
        <ele>1733.277</ele>
        <time>2025-02-24T08:04:51Z</time>
      </trkpt>
      <trkpt lat="45.00752" lon="6.64129">
        <ele>1731.793</ele>
        <time>2025-02-24T08:04:57Z</time>
      </trkpt>
      <trkpt lat="45.00747" lon="6.64129">
        <ele>1733.692</ele>
        <time>2025-02-24T08:05:04Z</time>
      </trkpt>
      <trkpt lat="45.00743" lon="6.64125">
        <ele>1734.087</ele>
        <time>2025-02-24T08:05:11Z</time>
      </trkpt>
      <trkpt lat="45.00739" lon="6.64121">
        <ele>1734.35</ele>
        <time>2025-02-24T08:05:17Z</time>
      </trkpt>
      <trkpt lat="45.00735" lon="6.64119">
        <ele>1736.772</ele>
        <time>2025-02-24T08:05:26Z</time>
      </trkpt>
      <trkpt lat="45.00731" lon="6.64114">
        <ele>1736.508</ele>
        <time>2025-02-24T08:05:33Z</time>
      </trkpt>
      <trkpt lat="45.00727" lon="6.64113">
        <ele>1737.128</ele>
        <time>2025-02-24T08:05:41Z</time>
      </trkpt>
      <trkpt lat="45.00723" lon="6.6411">
        <ele>1737.551</ele>
        <time>2025-02-24T08:05:49Z</time>
      </trkpt>
      <trkpt lat="45.00718" lon="6.64109">
        <ele>1738.409</ele>
        <time>2025-02-24T08:05:57Z</time>
      </trkpt>
      <trkpt lat="45.00714" lon="6.64109">
        <ele>1741.114</ele>
        <time>2025-02-24T08:06:04Z</time>
      </trkpt>
      <trkpt lat="45.0071" lon="6.64104">
        <ele>1740.637</ele>
        <time>2025-02-24T08:06:10Z</time>
      </trkpt>
      <trkpt lat="45.00707" lon="6.64099">
        <ele>1740.145</ele>
        <time>2025-02-24T08:06:16Z</time>
      </trkpt>
      <trkpt lat="45.00705" lon="6.64093">
        <ele>1737.822</ele>
        <time>2025-02-24T08:06:21Z</time>
      </trkpt>
      <trkpt lat="45.00703" lon="6.64089">
        <ele>1739.59</ele>
        <time>2025-02-24T08:06:28Z</time>
      </trkpt>
      <trkpt lat="45.00699" lon="6.64086">
        <ele>1736.905</ele>
        <time>2025-02-24T08:06:37Z</time>
      </trkpt>
      <trkpt lat="45.00695" lon="6.64082">
        <ele>1738.117</ele>
        <time>2025-02-24T08:06:47Z</time>
      </trkpt>
      <trkpt lat="45.00691" lon="6.64083">
        <ele>1740.136</ele>
        <time>2025-02-24T08:06:57Z</time>
      </trkpt>
      <trkpt lat="45.00686" lon="6.64082">
        <ele>1741.312</ele>
        <time>2025-02-24T08:07:05Z</time>
      </trkpt>
      <trkpt lat="45.00683" lon="6.64081">
        <ele>1745.271</ele>
        <time>2025-02-24T08:07:10Z</time>
      </trkpt>
      <trkpt lat="45.00678" lon="6.64083">
        <ele>1743.777</ele>
        <time>2025-02-24T08:07:20Z</time>
      </trkpt>
      <trkpt lat="45.00673" lon="6.64081">
        <ele>1743.51</ele>
        <time>2025-02-24T08:07:30Z</time>
      </trkpt>
      <trkpt lat="45.00669" lon="6.64081">
        <ele>1745.837</ele>
        <time>2025-02-24T08:07:38Z</time>
      </trkpt>
      <trkpt lat="45.00665" lon="6.64083">
        <ele>1745.544</ele>
        <time>2025-02-24T08:07:48Z</time>
      </trkpt>
      <trkpt lat="45.00661" lon="6.64084">
        <ele>1746.379</ele>
        <time>2025-02-24T08:07:58Z</time>
      </trkpt>
      <trkpt lat="45.00656" lon="6.64081">
        <ele>1745.585</ele>
        <time>2025-02-24T08:08:07Z</time>
      </trkpt>
      <trkpt lat="45.00652" lon="6.64079">
        <ele>1745.837</ele>
        <time>2025-02-24T08:08:16Z</time>
      </trkpt>
      <trkpt lat="45.00648" lon="6.64076">
        <ele>1744.568</ele>
        <time>2025-02-24T08:08:24Z</time>
      </trkpt>
      <trkpt lat="45.00643" lon="6.64076">
        <ele>1742.913</ele>
        <time>2025-02-24T08:08:34Z</time>
      </trkpt>
      <trkpt lat="45.00639" lon="6.64075">
        <ele>1744.386</ele>
        <time>2025-02-24T08:08:43Z</time>
      </trkpt>
      <trkpt lat="45.00635" lon="6.64074">
        <ele>1743.521</ele>
        <time>2025-02-24T08:08:53Z</time>
      </trkpt>
      <trkpt lat="45.0063" lon="6.64074">
        <ele>1743.862</ele>
        <time>2025-02-24T08:09:02Z</time>
      </trkpt>
      <trkpt lat="45.00626" lon="6.64075">
        <ele>1747.164</ele>
        <time>2025-02-24T08:09:09Z</time>
      </trkpt>
      <trkpt lat="45.00621" lon="6.64075">
        <ele>1745.286</ele>
        <time>2025-02-24T08:09:17Z</time>
      </trkpt>
      <trkpt lat="45.00617" lon="6.64075">
        <ele>1748.808</ele>
        <time>2025-02-24T08:09:24Z</time>
      </trkpt>
      <trkpt lat="45.00613" lon="6.64074">
        <ele>1750.22</ele>
        <time>2025-02-24T08:09:38Z</time>
      </trkpt>
      <trkpt lat="45.00612" lon="6.64073">
        <ele>1749.768</ele>
        <time>2025-02-24T08:09:58Z</time>
      </trkpt>
      <trkpt lat="45.00612" lon="6.64073">
        <ele>1749.442</ele>
        <time>2025-02-24T08:10:19Z</time>
      </trkpt>
      <trkpt lat="45.00608" lon="6.64069">
        <ele>1747.367</ele>
        <time>2025-02-24T08:10:34Z</time>
      </trkpt>
      <trkpt lat="45.00604" lon="6.64068">
        <ele>1749.699</ele>
        <time>2025-02-24T08:10:42Z</time>
      </trkpt>
      <trkpt lat="45.006" lon="6.64065">
        <ele>1751.52</ele>
        <time>2025-02-24T08:10:50Z</time>
      </trkpt>
      <trkpt lat="45.00596" lon="6.64065">
        <ele>1753.289</ele>
        <time>2025-02-24T08:10:57Z</time>
      </trkpt>
      <trkpt lat="45.00591" lon="6.64066">
        <ele>1754.315</ele>
        <time>2025-02-24T08:11:06Z</time>
      </trkpt>
      <trkpt lat="45.00587" lon="6.64067">
        <ele>1753.824</ele>
        <time>2025-02-24T08:11:15Z</time>
      </trkpt>
      <trkpt lat="45.00582" lon="6.64068">
        <ele>1753.59</ele>
        <time>2025-02-24T08:11:24Z</time>
      </trkpt>
      <trkpt lat="45.00578" lon="6.64067">
        <ele>1757.538</ele>
        <time>2025-02-24T08:11:31Z</time>
      </trkpt>
      <trkpt lat="45.00574" lon="6.64067">
        <ele>1756.01</ele>
        <time>2025-02-24T08:11:39Z</time>
      </trkpt>
      <trkpt lat="45.0057" lon="6.64069">
        <ele>1758.556</ele>
        <time>2025-02-24T08:11:47Z</time>
      </trkpt>
      <trkpt lat="45.00566" lon="6.6407">
        <ele>1761.343</ele>
        <time>2025-02-24T08:11:55Z</time>
      </trkpt>
      <trkpt lat="45.00561" lon="6.64072">
        <ele>1761.298</ele>
        <time>2025-02-24T08:12:04Z</time>
      </trkpt>
      <trkpt lat="45.00557" lon="6.64069">
        <ele>1759.27</ele>
        <time>2025-02-24T08:12:11Z</time>
      </trkpt>
      <trkpt lat="45.00553" lon="6.64065">
        <ele>1760.982</ele>
        <time>2025-02-24T08:12:20Z</time>
      </trkpt>
      <trkpt lat="45.0055" lon="6.64063">
        <ele>1763.395</ele>
        <time>2025-02-24T08:12:29Z</time>
      </trkpt>
      <trkpt lat="45.00547" lon="6.64057">
        <ele>1762.354</ele>
        <time>2025-02-24T08:12:39Z</time>
      </trkpt>
      <trkpt lat="45.00543" lon="6.64053">
        <ele>1763.11</ele>
        <time>2025-02-24T08:12:48Z</time>
      </trkpt>
      <trkpt lat="45.00541" lon="6.64048">
        <ele>1764.334</ele>
        <time>2025-02-24T08:12:59Z</time>
      </trkpt>
      <trkpt lat="45.00538" lon="6.64043">
        <ele>1762.965</ele>
        <time>2025-02-24T08:13:07Z</time>
      </trkpt>
      <trkpt lat="45.00534" lon="6.6404">
        <ele>1764.57</ele>
        <time>2025-02-24T08:13:16Z</time>
      </trkpt>
      <trkpt lat="45.00529" lon="6.64038">
        <ele>1766.581</ele>
        <time>2025-02-24T08:13:23Z</time>
      </trkpt>
      <trkpt lat="45.00525" lon="6.6404">
        <ele>1765.621</ele>
        <time>2025-02-24T08:13:33Z</time>
      </trkpt>
      <trkpt lat="45.0052" lon="6.6404">
        <ele>1766.516</ele>
        <time>2025-02-24T08:13:42Z</time>
      </trkpt>
      <trkpt lat="45.00516" lon="6.64041">
        <ele>1768.196</ele>
        <time>2025-02-24T08:13:51Z</time>
      </trkpt>
      <trkpt lat="45.00512" lon="6.64041">
        <ele>1770.655</ele>
        <time>2025-02-24T08:13:59Z</time>
      </trkpt>
      <trkpt lat="45.00509" lon="6.64042">
        <ele>1775.186</ele>
        <time>2025-02-24T08:14:04Z</time>
      </trkpt>
      <trkpt lat="45.00504" lon="6.64042">
        <ele>1773.479</ele>
        <time>2025-02-24T08:14:15Z</time>
      </trkpt>
      <trkpt lat="45.005" lon="6.64042">
        <ele>1774.608</ele>
        <time>2025-02-24T08:14:24Z</time>
      </trkpt>
      <trkpt lat="45.00495" lon="6.64042">
        <ele>1775.415</ele>
        <time>2025-02-24T08:14:33Z</time>
      </trkpt>
      <trkpt lat="45.00491" lon="6.64044">
        <ele>1777.65</ele>
        <time>2025-02-24T08:14:43Z</time>
      </trkpt>
      <trkpt lat="45.00487" lon="6.64043">
        <ele>1777.245</ele>
        <time>2025-02-24T08:14:51Z</time>
      </trkpt>
      <trkpt lat="45.00483" lon="6.64042">
        <ele>1780.49</ele>
        <time>2025-02-24T08:14:58Z</time>
      </trkpt>
      <trkpt lat="45.00479" lon="6.64039">
        <ele>1781.561</ele>
        <time>2025-02-24T08:15:07Z</time>
      </trkpt>
      <trkpt lat="45.00476" lon="6.64034">
        <ele>1780.067</ele>
        <time>2025-02-24T08:15:14Z</time>
      </trkpt>
      <trkpt lat="45.00472" lon="6.64033">
        <ele>1781.423</ele>
        <time>2025-02-24T08:15:24Z</time>
      </trkpt>
      <trkpt lat="45.00467" lon="6.6403">
        <ele>1781.303</ele>
        <time>2025-02-24T08:15:36Z</time>
      </trkpt>
      <trkpt lat="45.00463" lon="6.6403">
        <ele>1780.253</ele>
        <time>2025-02-24T08:15:44Z</time>
      </trkpt>
      <trkpt lat="45.00459" lon="6.64028">
        <ele>1784.023</ele>
        <time>2025-02-24T08:15:51Z</time>
      </trkpt>
      <trkpt lat="45.00455" lon="6.64026">
        <ele>1784.95</ele>
        <time>2025-02-24T08:16:01Z</time>
      </trkpt>
      <trkpt lat="45.00451" lon="6.64029">
        <ele>1783.464</ele>
        <time>2025-02-24T08:16:10Z</time>
      </trkpt>
      <trkpt lat="45.00447" lon="6.64031">
        <ele>1783.36</ele>
        <time>2025-02-24T08:16:20Z</time>
      </trkpt>
      <trkpt lat="45.00444" lon="6.64032">
        <ele>1787.945</ele>
        <time>2025-02-24T08:16:28Z</time>
      </trkpt>
      <trkpt lat="45.0044" lon="6.64033">
        <ele>1789.745</ele>
        <time>2025-02-24T08:16:39Z</time>
      </trkpt>
      <trkpt lat="45.00435" lon="6.64032">
        <ele>1789.432</ele>
        <time>2025-02-24T08:16:49Z</time>
      </trkpt>
      <trkpt lat="45.00431" lon="6.64034">
        <ele>1789.691</ele>
        <time>2025-02-24T08:17:01Z</time>
      </trkpt>
      <trkpt lat="45.00426" lon="6.64035">
        <ele>1787.123</ele>
        <time>2025-02-24T08:17:09Z</time>
      </trkpt>
      <trkpt lat="45.00422" lon="6.64036">
        <ele>1786.944</ele>
        <time>2025-02-24T08:17:18Z</time>
      </trkpt>
      <trkpt lat="45.00417" lon="6.64036">
        <ele>1787.669</ele>
        <time>2025-02-24T08:17:26Z</time>
      </trkpt>
      <trkpt lat="45.00413" lon="6.64036">
        <ele>1790.674</ele>
        <time>2025-02-24T08:17:34Z</time>
      </trkpt>
      <trkpt lat="45.00409" lon="6.64033">
        <ele>1790.392</ele>
        <time>2025-02-24T08:17:44Z</time>
      </trkpt>
      <trkpt lat="45.00406" lon="6.64032">
        <ele>1794.283</ele>
        <time>2025-02-24T08:17:52Z</time>
      </trkpt>
      <trkpt lat="45.00401" lon="6.64033">
        <ele>1794.059</ele>
        <time>2025-02-24T08:18:02Z</time>
      </trkpt>
      <trkpt lat="45.00398" lon="6.64036">
        <ele>1797.791</ele>
        <time>2025-02-24T08:18:12Z</time>
      </trkpt>
      <trkpt lat="45.00393" lon="6.64037">
        <ele>1794.179</ele>
        <time>2025-02-24T08:18:21Z</time>
      </trkpt>
      <trkpt lat="45.00389" lon="6.6404">
        <ele>1795.287</ele>
        <time>2025-02-24T08:18:30Z</time>
      </trkpt>
      <trkpt lat="45.00384" lon="6.6404">
        <ele>1795.209</ele>
        <time>2025-02-24T08:18:40Z</time>
      </trkpt>
      <trkpt lat="45.0038" lon="6.6404">
        <ele>1798.155</ele>
        <time>2025-02-24T08:18:47Z</time>
      </trkpt>
      <trkpt lat="45.00375" lon="6.64038">
        <ele>1799.449</ele>
        <time>2025-02-24T08:18:54Z</time>
      </trkpt>
      <trkpt lat="45.00371" lon="6.64037">
        <ele>1797.678</ele>
        <time>2025-02-24T08:19:00Z</time>
      </trkpt>
      <trkpt lat="45.00367" lon="6.64034">
        <ele>1798.471</ele>
        <time>2025-02-24T08:19:10Z</time>
      </trkpt>
      <trkpt lat="45.00363" lon="6.64033">
        <ele>1800.379</ele>
        <time>2025-02-24T08:19:16Z</time>
      </trkpt>
      <trkpt lat="45.0036" lon="6.64031">
        <ele>1804.296</ele>
        <time>2025-02-24T08:19:22Z</time>
      </trkpt>
      <trkpt lat="45.00357" lon="6.64029">
        <ele>1801.576</ele>
        <time>2025-02-24T08:19:32Z</time>
      </trkpt>
      <trkpt lat="45.00353" lon="6.64025">
        <ele>1801.612</ele>
        <time>2025-02-24T08:19:42Z</time>
      </trkpt>
      <trkpt lat="45.00349" lon="6.64024">
        <ele>1804.822</ele>
        <time>2025-02-24T08:19:49Z</time>
      </trkpt>
      <trkpt lat="45.00345" lon="6.64022">
        <ele>1802.302</ele>
        <time>2025-02-24T08:19:56Z</time>
      </trkpt>
      <trkpt lat="45.0034" lon="6.64021">
        <ele>1801.914</ele>
        <time>2025-02-24T08:20:05Z</time>
      </trkpt>
      <trkpt lat="45.00336" lon="6.64022">
        <ele>1803.196</ele>
        <time>2025-02-24T08:20:16Z</time>
      </trkpt>
      <trkpt lat="45.00333" lon="6.64026">
        <ele>1806.093</ele>
        <time>2025-02-24T08:20:24Z</time>
      </trkpt>
      <trkpt lat="45.00328" lon="6.64027">
        <ele>1807.414</ele>
        <time>2025-02-24T08:20:36Z</time>
      </trkpt>
      <trkpt lat="45.00324" lon="6.64025">
        <ele>1809.428</ele>
        <time>2025-02-24T08:20:44Z</time>
      </trkpt>
      <trkpt lat="45.00324" lon="6.64024">
        <ele>1807.878</ele>
        <time>2025-02-24T08:21:05Z</time>
      </trkpt>
      <trkpt lat="45.00325" lon="6.64023">
        <ele>1806.959</ele>
        <time>2025-02-24T08:21:25Z</time>
      </trkpt>
      <trkpt lat="45.00321" lon="6.64021">
        <ele>1807.225</ele>
        <time>2025-02-24T08:21:34Z</time>
      </trkpt>
      <trkpt lat="45.00318" lon="6.64016">
        <ele>1805.114</ele>
        <time>2025-02-24T08:21:41Z</time>
      </trkpt>
      <trkpt lat="45.00315" lon="6.6401">
        <ele>1805.738</ele>
        <time>2025-02-24T08:21:50Z</time>
      </trkpt>
      <trkpt lat="45.00312" lon="6.64006">
        <ele>1807.072</ele>
        <time>2025-02-24T08:21:59Z</time>
      </trkpt>
      <trkpt lat="45.00308" lon="6.64005">
        <ele>1809.909</ele>
        <time>2025-02-24T08:22:08Z</time>
      </trkpt>
      <trkpt lat="45.00305" lon="6.64">
        <ele>1810.563</ele>
        <time>2025-02-24T08:22:18Z</time>
      </trkpt>
      <trkpt lat="45.003" lon="6.64">
        <ele>1810.899</ele>
        <time>2025-02-24T08:22:29Z</time>
      </trkpt>
      <trkpt lat="45.00296" lon="6.63999">
        <ele>1809.81</ele>
        <time>2025-02-24T08:22:37Z</time>
      </trkpt>
      <trkpt lat="45.00291" lon="6.63999">
        <ele>1811.887</ele>
        <time>2025-02-24T08:22:45Z</time>
      </trkpt>
      <trkpt lat="45.00287" lon="6.63998">
        <ele>1812.889</ele>
        <time>2025-02-24T08:22:58Z</time>
      </trkpt>
      <trkpt lat="45.00282" lon="6.63997">
        <ele>1814.56</ele>
        <time>2025-02-24T08:23:07Z</time>
      </trkpt>
      <trkpt lat="45.00278" lon="6.64001">
        <ele>1814.259</ele>
        <time>2025-02-24T08:23:17Z</time>
      </trkpt>
      <trkpt lat="45.00274" lon="6.64">
        <ele>1816.588</ele>
        <time>2025-02-24T08:23:27Z</time>
      </trkpt>
      <trkpt lat="45.0027" lon="6.64">
        <ele>1815.331</ele>
        <time>2025-02-24T08:23:36Z</time>
      </trkpt>
      <trkpt lat="45.00265" lon="6.63998">
        <ele>1815.573</ele>
        <time>2025-02-24T08:23:45Z</time>
      </trkpt>
      <trkpt lat="45.00261" lon="6.63999">
        <ele>1815.235</ele>
        <time>2025-02-24T08:23:53Z</time>
      </trkpt>
      <trkpt lat="45.00256" lon="6.63997">
        <ele>1816.084</ele>
        <time>2025-02-24T08:24:01Z</time>
      </trkpt>
      <trkpt lat="45.00251" lon="6.63994">
        <ele>1817.074</ele>
        <time>2025-02-24T08:24:09Z</time>
      </trkpt>
      <trkpt lat="45.00249" lon="6.6399">
        <ele>1820.08</ele>
        <time>2025-02-24T08:24:16Z</time>
      </trkpt>
      <trkpt lat="45.00246" lon="6.63984">
        <ele>1821.017</ele>
        <time>2025-02-24T08:24:25Z</time>
      </trkpt>
      <trkpt lat="45.00242" lon="6.63981">
        <ele>1821.538</ele>
        <time>2025-02-24T08:24:35Z</time>
      </trkpt>
      <trkpt lat="45.00238" lon="6.63978">
        <ele>1823.081</ele>
        <time>2025-02-24T08:24:44Z</time>
      </trkpt>
      <trkpt lat="45.00234" lon="6.63975">
        <ele>1824.831</ele>
        <time>2025-02-24T08:24:53Z</time>
      </trkpt>
      <trkpt lat="45.0023" lon="6.63972">
        <ele>1826.08</ele>
        <time>2025-02-24T08:25:03Z</time>
      </trkpt>
      <trkpt lat="45.00226" lon="6.63968">
        <ele>1826.555</ele>
        <time>2025-02-24T08:25:13Z</time>
      </trkpt>
      <trkpt lat="45.00221" lon="6.63968">
        <ele>1828.799</ele>
        <time>2025-02-24T08:25:24Z</time>
      </trkpt>
      <trkpt lat="45.00217" lon="6.63969">
        <ele>1828.222</ele>
        <time>2025-02-24T08:25:33Z</time>
      </trkpt>
      <trkpt lat="45.00212" lon="6.63969">
        <ele>1830.02</ele>
        <time>2025-02-24T08:25:42Z</time>
      </trkpt>
      <trkpt lat="45.00208" lon="6.63972">
        <ele>1831.118</ele>
        <time>2025-02-24T08:25:52Z</time>
      </trkpt>
      <trkpt lat="45.00204" lon="6.63972">
        <ele>1834.55</ele>
        <time>2025-02-24T08:26:00Z</time>
      </trkpt>
      <trkpt lat="45.002" lon="6.63974">
        <ele>1834.323</ele>
        <time>2025-02-24T08:26:12Z</time>
      </trkpt>
      <trkpt lat="45.00195" lon="6.63973">
        <ele>1834.313</ele>
        <time>2025-02-24T08:26:23Z</time>
      </trkpt>
      <trkpt lat="45.00192" lon="6.63968">
        <ele>1834.11</ele>
        <time>2025-02-24T08:26:31Z</time>
      </trkpt>
      <trkpt lat="45.00188" lon="6.63966">
        <ele>1837.134</ele>
        <time>2025-02-24T08:26:39Z</time>
      </trkpt>
      <trkpt lat="45.00183" lon="6.63966">
        <ele>1836.355</ele>
        <time>2025-02-24T08:26:49Z</time>
      </trkpt>
      <trkpt lat="45.00179" lon="6.63965">
        <ele>1834.878</ele>
        <time>2025-02-24T08:26:58Z</time>
      </trkpt>
      <trkpt lat="45.00175" lon="6.63965">
        <ele>1836.752</ele>
        <time>2025-02-24T08:27:09Z</time>
      </trkpt>
      <trkpt lat="45.00171" lon="6.63969">
        <ele>1837.254</ele>
        <time>2025-02-24T08:27:28Z</time>
      </trkpt>
      <trkpt lat="45.00168" lon="6.63971">
        <ele>1840.956</ele>
        <time>2025-02-24T08:27:35Z</time>
      </trkpt>
      <trkpt lat="45.00163" lon="6.6397">
        <ele>1841.916</ele>
        <time>2025-02-24T08:27:43Z</time>
      </trkpt>
      <trkpt lat="45.00159" lon="6.6397">
        <ele>1840.838</ele>
        <time>2025-02-24T08:27:51Z</time>
      </trkpt>
      <trkpt lat="45.00154" lon="6.6397">
        <ele>1841.28</ele>
        <time>2025-02-24T08:27:59Z</time>
      </trkpt>
      <trkpt lat="45.0015" lon="6.63969">
        <ele>1842.853</ele>
        <time>2025-02-24T08:28:09Z</time>
      </trkpt>
      <trkpt lat="45.00146" lon="6.63966">
        <ele>1842.76</ele>
        <time>2025-02-24T08:28:19Z</time>
      </trkpt>
      <trkpt lat="45.00141" lon="6.63966">
        <ele>1844.909</ele>
        <time>2025-02-24T08:28:29Z</time>
      </trkpt>
      <trkpt lat="45.00137" lon="6.63963">
        <ele>1845.289</ele>
        <time>2025-02-24T08:28:39Z</time>
      </trkpt>
      <trkpt lat="45.00134" lon="6.63959">
        <ele>1845.288</ele>
        <time>2025-02-24T08:28:49Z</time>
      </trkpt>
      <trkpt lat="45.0013" lon="6.63956">
        <ele>1845.439</ele>
        <time>2025-02-24T08:29:01Z</time>
      </trkpt>
      <trkpt lat="45.00126" lon="6.63952">
        <ele>1846.324</ele>
        <time>2025-02-24T08:29:12Z</time>
      </trkpt>
      <trkpt lat="45.00122" lon="6.63949">
        <ele>1847.892</ele>
        <time>2025-02-24T08:29:24Z</time>
      </trkpt>
      <trkpt lat="45.00117" lon="6.63947">
        <ele>1847.147</ele>
        <time>2025-02-24T08:29:37Z</time>
      </trkpt>
      <trkpt lat="45.00114" lon="6.63946">
        <ele>1850.458</ele>
        <time>2025-02-24T08:29:48Z</time>
      </trkpt>
      <trkpt lat="45.0011" lon="6.63947">
        <ele>1853.536</ele>
        <time>2025-02-24T08:30:01Z</time>
      </trkpt>
      <trkpt lat="45.00105" lon="6.63945">
        <ele>1854.149</ele>
        <time>2025-02-24T08:30:12Z</time>
      </trkpt>
      <trkpt lat="45.00103" lon="6.63941">
        <ele>1852.137</ele>
        <time>2025-02-24T08:30:19Z</time>
      </trkpt>
      <trkpt lat="45.001" lon="6.63938">
        <ele>1855.592</ele>
        <time>2025-02-24T08:30:26Z</time>
      </trkpt>
      <trkpt lat="45.00096" lon="6.63937">
        <ele>1858.405</ele>
        <time>2025-02-24T08:30:36Z</time>
      </trkpt>
      <trkpt lat="45.00092" lon="6.63939">
        <ele>1856.93</ele>
        <time>2025-02-24T08:30:49Z</time>
      </trkpt>
      <trkpt lat="45.00087" lon="6.6394">
        <ele>1858.607</ele>
        <time>2025-02-24T08:31:03Z</time>
      </trkpt>
      <trkpt lat="45.00084" lon="6.63936">
        <ele>1859.684</ele>
        <time>2025-02-24T08:31:12Z</time>
      </trkpt>
      <trkpt lat="45.0008" lon="6.63932">
        <ele>1861.158</ele>
        <time>2025-02-24T08:31:22Z</time>
      </trkpt>
      <trkpt lat="45.00076" lon="6.63931">
        <ele>1858.6</ele>
        <time>2025-02-24T08:31:31Z</time>
      </trkpt>
      <trkpt lat="45.00073" lon="6.63928">
        <ele>1861.046</ele>
        <time>2025-02-24T08:31:40Z</time>
      </trkpt>
      <trkpt lat="45.0007" lon="6.63923">
        <ele>1862.138</ele>
        <time>2025-02-24T08:31:50Z</time>
      </trkpt>
      <trkpt lat="45.00067" lon="6.63918">
        <ele>1860.596</ele>
        <time>2025-02-24T08:31:59Z</time>
      </trkpt>
      <trkpt lat="45.00064" lon="6.63913">
        <ele>1862.425</ele>
        <time>2025-02-24T08:32:09Z</time>
      </trkpt>
      <trkpt lat="45.0006" lon="6.63911">
        <ele>1862.991</ele>
        <time>2025-02-24T08:32:22Z</time>
      </trkpt>
      <trkpt lat="45.00055" lon="6.6391">
        <ele>1864.22</ele>
        <time>2025-02-24T08:32:33Z</time>
      </trkpt>
      <trkpt lat="45.00051" lon="6.6391">
        <ele>1864.405</ele>
        <time>2025-02-24T08:32:42Z</time>
      </trkpt>
      <trkpt lat="45.00047" lon="6.63912">
        <ele>1868.208</ele>
        <time>2025-02-24T08:32:50Z</time>
      </trkpt>
      <trkpt lat="45.00043" lon="6.63913">
        <ele>1871.292</ele>
        <time>2025-02-24T08:32:58Z</time>
      </trkpt>
      <trkpt lat="45.00039" lon="6.63915">
        <ele>1872.067</ele>
        <time>2025-02-24T08:33:08Z</time>
      </trkpt>
      <trkpt lat="45.00034" lon="6.63915">
        <ele>1871.964</ele>
        <time>2025-02-24T08:33:19Z</time>
      </trkpt>
      <trkpt lat="45.00029" lon="6.63915">
        <ele>1871.962</ele>
        <time>2025-02-24T08:33:30Z</time>
      </trkpt>
      <trkpt lat="45.00025" lon="6.63913">
        <ele>1871.381</ele>
        <time>2025-02-24T08:33:40Z</time>
      </trkpt>
      <trkpt lat="45.0002" lon="6.63913">
        <ele>1874.2</ele>
        <time>2025-02-24T08:33:50Z</time>
      </trkpt>
      <trkpt lat="45.00016" lon="6.63909">
        <ele>1875.355</ele>
        <time>2025-02-24T08:33:59Z</time>
      </trkpt>
      <trkpt lat="45.00012" lon="6.63906">
        <ele>1874.436</ele>
        <time>2025-02-24T08:34:10Z</time>
      </trkpt>
      <trkpt lat="45.00007" lon="6.63907">
        <ele>1874.463</ele>
        <time>2025-02-24T08:34:20Z</time>
      </trkpt>
      <trkpt lat="45.00003" lon="6.63907">
        <ele>1877.751</ele>
        <time>2025-02-24T08:34:29Z</time>
      </trkpt>
      <trkpt lat="44.99999" lon="6.63907">
        <ele>1878.661</ele>
        <time>2025-02-24T08:34:42Z</time>
      </trkpt>
      <trkpt lat="44.99995" lon="6.63903">
        <ele>1878.832</ele>
        <time>2025-02-24T08:34:55Z</time>
      </trkpt>
      <trkpt lat="44.99992" lon="6.63899">
        <ele>1880.02</ele>
        <time>2025-02-24T08:35:05Z</time>
      </trkpt>
      <trkpt lat="44.99988" lon="6.63895">
        <ele>1882.496</ele>
        <time>2025-02-24T08:35:16Z</time>
      </trkpt>
      <trkpt lat="44.99984" lon="6.63894">
        <ele>1882.56</ele>
        <time>2025-02-24T08:35:24Z</time>
      </trkpt>
      <trkpt lat="44.99979" lon="6.63895">
        <ele>1884.467</ele>
        <time>2025-02-24T08:35:34Z</time>
      </trkpt>
      <trkpt lat="44.99974" lon="6.63895">
        <ele>1884.159</ele>
        <time>2025-02-24T08:35:47Z</time>
      </trkpt>
      <trkpt lat="44.9997" lon="6.63891">
        <ele>1884.571</ele>
        <time>2025-02-24T08:35:59Z</time>
      </trkpt>
      <trkpt lat="44.99966" lon="6.63889">
        <ele>1883.418</ele>
        <time>2025-02-24T08:36:08Z</time>
      </trkpt>
      <trkpt lat="44.99962" lon="6.63888">
        <ele>1886.688</ele>
        <time>2025-02-24T08:36:21Z</time>
      </trkpt>
      <trkpt lat="44.99958" lon="6.63887">
        <ele>1887.652</ele>
        <time>2025-02-24T08:36:29Z</time>
      </trkpt>
      <trkpt lat="44.99955" lon="6.6389">
        <ele>1891.067</ele>
        <time>2025-02-24T08:36:37Z</time>
      </trkpt>
      <trkpt lat="44.99951" lon="6.63892">
        <ele>1891.315</ele>
        <time>2025-02-24T08:36:52Z</time>
      </trkpt>
      <trkpt lat="44.99947" lon="6.63895">
        <ele>1893.51</ele>
        <time>2025-02-24T08:37:03Z</time>
      </trkpt>
      <trkpt lat="44.99942" lon="6.63895">
        <ele>1894.867</ele>
        <time>2025-02-24T08:37:10Z</time>
      </trkpt>
      <trkpt lat="44.99937" lon="6.63896">
        <ele>1894.956</ele>
        <time>2025-02-24T08:37:21Z</time>
      </trkpt>
      <trkpt lat="44.99933" lon="6.63897">
        <ele>1896.72</ele>
        <time>2025-02-24T08:37:31Z</time>
      </trkpt>
      <trkpt lat="44.99928" lon="6.63898">
        <ele>1897.08</ele>
        <time>2025-02-24T08:37:38Z</time>
      </trkpt>
      <trkpt lat="44.99924" lon="6.63898">
        <ele>1898.382</ele>
        <time>2025-02-24T08:37:46Z</time>
      </trkpt>
      <trkpt lat="44.99919" lon="6.63899">
        <ele>1897.431</ele>
        <time>2025-02-24T08:38:05Z</time>
      </trkpt>
      <trkpt lat="44.99915" lon="6.63901">
        <ele>1899.927</ele>
        <time>2025-02-24T08:38:13Z</time>
      </trkpt>
      <trkpt lat="44.99911" lon="6.63904">
        <ele>1897.717</ele>
        <time>2025-02-24T08:38:27Z</time>
      </trkpt>
      <trkpt lat="44.99907" lon="6.63906">
        <ele>1900.507</ele>
        <time>2025-02-24T08:38:37Z</time>
      </trkpt>
      <trkpt lat="44.99902" lon="6.63908">
        <ele>1902.124</ele>
        <time>2025-02-24T08:38:48Z</time>
      </trkpt>
      <trkpt lat="44.99898" lon="6.63907">
        <ele>1903.734</ele>
        <time>2025-02-24T08:38:59Z</time>
      </trkpt>
      <trkpt lat="44.99894" lon="6.63905">
        <ele>1903.266</ele>
        <time>2025-02-24T08:39:11Z</time>
      </trkpt>
      <trkpt lat="44.9989" lon="6.63904">
        <ele>1906.196</ele>
        <time>2025-02-24T08:39:21Z</time>
      </trkpt>
      <trkpt lat="44.99887" lon="6.63906">
        <ele>1910.139</ele>
        <time>2025-02-24T08:39:34Z</time>
      </trkpt>
      <trkpt lat="44.99883" lon="6.63906">
        <ele>1907.352</ele>
        <time>2025-02-24T08:39:43Z</time>
      </trkpt>
      <trkpt lat="44.99878" lon="6.63907">
        <ele>1905.664</ele>
        <time>2025-02-24T08:39:55Z</time>
      </trkpt>
      <trkpt lat="44.99874" lon="6.63905">
        <ele>1907.271</ele>
        <time>2025-02-24T08:40:03Z</time>
      </trkpt>
      <trkpt lat="44.99872" lon="6.63904">
        <ele>1912.067</ele>
        <time>2025-02-24T08:40:13Z</time>
      </trkpt>
      <trkpt lat="44.99868" lon="6.63905">
        <ele>1914.753</ele>
        <time>2025-02-24T08:40:27Z</time>
      </trkpt>
      <trkpt lat="44.99864" lon="6.63901">
        <ele>1914.426</ele>
        <time>2025-02-24T08:40:43Z</time>
      </trkpt>
      <trkpt lat="44.99859" lon="6.63902">
        <ele>1913.389</ele>
        <time>2025-02-24T08:40:57Z</time>
      </trkpt>
      <trkpt lat="44.99855" lon="6.63901">
        <ele>1912.041</ele>
        <time>2025-02-24T08:41:09Z</time>
      </trkpt>
      <trkpt lat="44.99854" lon="6.63903">
        <ele>1912.876</ele>
        <time>2025-02-24T08:41:30Z</time>
      </trkpt>
      <trkpt lat="44.99854" lon="6.63903">
        <ele>1913.2</ele>
        <time>2025-02-24T08:41:50Z</time>
      </trkpt>
      <trkpt lat="44.99854" lon="6.63903">
        <ele>1913.689</ele>
        <time>2025-02-24T08:42:11Z</time>
      </trkpt>
      <trkpt lat="44.99854" lon="6.63903">
        <ele>1913.59</ele>
        <time>2025-02-24T08:42:31Z</time>
      </trkpt>
      <trkpt lat="44.99854" lon="6.63903">
        <ele>1913.281</ele>
        <time>2025-02-24T08:42:51Z</time>
      </trkpt>
      <trkpt lat="44.99853" lon="6.63903">
        <ele>1913.19</ele>
        <time>2025-02-24T08:43:12Z</time>
      </trkpt>
      <trkpt lat="44.99849" lon="6.63904">
        <ele>1912.985</ele>
        <time>2025-02-24T08:43:20Z</time>
      </trkpt>
      <trkpt lat="44.99846" lon="6.63908">
        <ele>1912.621</ele>
        <time>2025-02-24T08:43:41Z</time>
      </trkpt>
      <trkpt lat="44.99843" lon="6.63907">
        <ele>1914.045</ele>
        <time>2025-02-24T08:44:01Z</time>
      </trkpt>
      <trkpt lat="44.99838" lon="6.63908">
        <ele>1913.437</ele>
        <time>2025-02-24T08:44:09Z</time>
      </trkpt>
      <trkpt lat="44.99833" lon="6.63907">
        <ele>1913.859</ele>
        <time>2025-02-24T08:44:18Z</time>
      </trkpt>
      <trkpt lat="44.99829" lon="6.63906">
        <ele>1915.668</ele>
        <time>2025-02-24T08:44:27Z</time>
      </trkpt>
      <trkpt lat="44.99825" lon="6.63903">
        <ele>1918.123</ele>
        <time>2025-02-24T08:44:36Z</time>
      </trkpt>
      <trkpt lat="44.99824" lon="6.639">
        <ele>1918.174</ele>
        <time>2025-02-24T08:44:56Z</time>
      </trkpt>
      <trkpt lat="44.99824" lon="6.639">
        <ele>1917.858</ele>
        <time>2025-02-24T08:45:17Z</time>
      </trkpt>
      <trkpt lat="44.99824" lon="6.639">
        <ele>1917.628</ele>
        <time>2025-02-24T08:45:38Z</time>
      </trkpt>
      <trkpt lat="44.99824" lon="6.639">
        <ele>1919.545</ele>
        <time>2025-02-24T08:45:59Z</time>
      </trkpt>
      <trkpt lat="44.99824" lon="6.639">
        <ele>1918.284</ele>
        <time>2025-02-24T08:46:19Z</time>
      </trkpt>
      <trkpt lat="44.99821" lon="6.63907">
        <ele>1919.078</ele>
        <time>2025-02-24T08:46:28Z</time>
      </trkpt>
      <trkpt lat="44.99817" lon="6.63906">
        <ele>1920.53</ele>
        <time>2025-02-24T08:46:39Z</time>
      </trkpt>
      <trkpt lat="44.99813" lon="6.63904">
        <ele>1921.616</ele>
        <time>2025-02-24T08:46:49Z</time>
      </trkpt>
      <trkpt lat="44.99808" lon="6.63906">
        <ele>1923.802</ele>
        <time>2025-02-24T08:47:00Z</time>
      </trkpt>
      <trkpt lat="44.99804" lon="6.63905">
        <ele>1926.362</ele>
        <time>2025-02-24T08:47:11Z</time>
      </trkpt>
      <trkpt lat="44.99802" lon="6.63909">
        <ele>1929.024</ele>
        <time>2025-02-24T08:47:26Z</time>
      </trkpt>
      <trkpt lat="44.99798" lon="6.63907">
        <ele>1931.61</ele>
        <time>2025-02-24T08:47:33Z</time>
      </trkpt>
      <trkpt lat="44.99794" lon="6.63903">
        <ele>1931.606</ele>
        <time>2025-02-24T08:47:53Z</time>
      </trkpt>
      <trkpt lat="44.9979" lon="6.63904">
        <ele>1933.318</ele>
        <time>2025-02-24T08:48:09Z</time>
      </trkpt>
      <trkpt lat="44.99786" lon="6.63902">
        <ele>1934.613</ele>
        <time>2025-02-24T08:48:23Z</time>
      </trkpt>
      <trkpt lat="44.99781" lon="6.63904">
        <ele>1935.38</ele>
        <time>2025-02-24T08:48:34Z</time>
      </trkpt>
      <trkpt lat="44.99777" lon="6.63904">
        <ele>1938.664</ele>
        <time>2025-02-24T08:48:44Z</time>
      </trkpt>
      <trkpt lat="44.99772" lon="6.63904">
        <ele>1938.109</ele>
        <time>2025-02-24T08:48:58Z</time>
      </trkpt>
      <trkpt lat="44.99767" lon="6.63904">
        <ele>1938.157</ele>
        <time>2025-02-24T08:49:10Z</time>
      </trkpt>
      <trkpt lat="44.99762" lon="6.63904">
        <ele>1936.826</ele>
        <time>2025-02-24T08:49:27Z</time>
      </trkpt>
      <trkpt lat="44.99758" lon="6.63904">
        <ele>1938.242</ele>
        <time>2025-02-24T08:49:43Z</time>
      </trkpt>
      <trkpt lat="44.99754" lon="6.63906">
        <ele>1938.65</ele>
        <time>2025-02-24T08:50:02Z</time>
      </trkpt>
      <trkpt lat="44.99749" lon="6.63905">
        <ele>1939.329</ele>
        <time>2025-02-24T08:50:19Z</time>
      </trkpt>
      <trkpt lat="44.99746" lon="6.63905">
        <ele>1943.009</ele>
        <time>2025-02-24T08:50:28Z</time>
      </trkpt>
      <trkpt lat="44.99741" lon="6.63904">
        <ele>1944.167</ele>
        <time>2025-02-24T08:50:41Z</time>
      </trkpt>
      <trkpt lat="44.99741" lon="6.63904">
        <ele>1951.399</ele>
        <time>2025-02-24T08:50:50Z</time>
      </trkpt>
      <trkpt lat="44.99736" lon="6.63903">
        <ele>1949.707</ele>
        <time>2025-02-24T08:51:05Z</time>
      </trkpt>
      <trkpt lat="44.99732" lon="6.63904">
        <ele>1948.056</ele>
        <time>2025-02-24T08:51:19Z</time>
      </trkpt>
      <trkpt lat="44.99729" lon="6.63903">
        <ele>1952.399</ele>
        <time>2025-02-24T08:51:31Z</time>
      </trkpt>
      <trkpt lat="44.99725" lon="6.639">
        <ele>1955.109</ele>
        <time>2025-02-24T08:51:44Z</time>
      </trkpt>
      <trkpt lat="44.99722" lon="6.639">
        <ele>1952.016</ele>
        <time>2025-02-24T08:51:53Z</time>
      </trkpt>
      <trkpt lat="44.99717" lon="6.639">
        <ele>1954.166</ele>
        <time>2025-02-24T08:52:08Z</time>
      </trkpt>
      <trkpt lat="44.99714" lon="6.63898">
        <ele>1958.602</ele>
        <time>2025-02-24T08:52:22Z</time>
      </trkpt>
      <trkpt lat="44.9971" lon="6.63895">
        <ele>1960.393</ele>
        <time>2025-02-24T08:52:31Z</time>
      </trkpt>
      <trkpt lat="44.99706" lon="6.63895">
        <ele>1962.647</ele>
        <time>2025-02-24T08:52:42Z</time>
      </trkpt>
      <trkpt lat="44.99702" lon="6.63894">
        <ele>1965.546</ele>
        <time>2025-02-24T08:52:50Z</time>
      </trkpt>
      <trkpt lat="44.99698" lon="6.63894">
        <ele>1966.107</ele>
        <time>2025-02-24T08:52:59Z</time>
      </trkpt>
      <trkpt lat="44.99694" lon="6.63892">
        <ele>1968.925</ele>
        <time>2025-02-24T08:53:12Z</time>
      </trkpt>
      <trkpt lat="44.99689" lon="6.63894">
        <ele>1968.737</ele>
        <time>2025-02-24T08:53:29Z</time>
      </trkpt>
      <trkpt lat="44.99685" lon="6.63896">
        <ele>1969.066</ele>
        <time>2025-02-24T08:53:41Z</time>
      </trkpt>
      <trkpt lat="44.9968" lon="6.63897">
        <ele>1969.282</ele>
        <time>2025-02-24T08:53:53Z</time>
      </trkpt>
      <trkpt lat="44.99679" lon="6.63896">
        <ele>1974.451</ele>
        <time>2025-02-24T08:54:01Z</time>
      </trkpt>
      <trkpt lat="44.99674" lon="6.63895">
        <ele>1974.829</ele>
        <time>2025-02-24T08:54:12Z</time>
      </trkpt>
      <trkpt lat="44.99671" lon="6.63896">
        <ele>1971.173</ele>
        <time>2025-02-24T08:54:21Z</time>
      </trkpt>
      <trkpt lat="44.99666" lon="6.63896">
        <ele>1973.131</ele>
        <time>2025-02-24T08:54:38Z</time>
      </trkpt>
      <trkpt lat="44.99663" lon="6.63893">
        <ele>1970.638</ele>
        <time>2025-02-24T08:54:46Z</time>
      </trkpt>
      <trkpt lat="44.99659" lon="6.6389">
        <ele>1971.571</ele>
        <time>2025-02-24T08:55:01Z</time>
      </trkpt>
      <trkpt lat="44.99655" lon="6.63889">
        <ele>1973.643</ele>
        <time>2025-02-24T08:55:16Z</time>
      </trkpt>
      <trkpt lat="44.9965" lon="6.63887">
        <ele>1973.84</ele>
        <time>2025-02-24T08:55:32Z</time>
      </trkpt>
      <trkpt lat="44.99646" lon="6.63886">
        <ele>1973.241</ele>
        <time>2025-02-24T08:55:46Z</time>
      </trkpt>
      <trkpt lat="44.99642" lon="6.63882">
        <ele>1974.048</ele>
        <time>2025-02-24T08:56:00Z</time>
      </trkpt>
      <trkpt lat="44.99639" lon="6.63883">
        <ele>1977.602</ele>
        <time>2025-02-24T08:56:12Z</time>
      </trkpt>
      <trkpt lat="44.99634" lon="6.63883">
        <ele>1976.829</ele>
        <time>2025-02-24T08:56:24Z</time>
      </trkpt>
      <trkpt lat="44.99631" lon="6.63886">
        <ele>1980.107</ele>
        <time>2025-02-24T08:56:35Z</time>
      </trkpt>
      <trkpt lat="44.99628" lon="6.63889">
        <ele>1983.324</ele>
        <time>2025-02-24T08:56:45Z</time>
      </trkpt>
      <trkpt lat="44.99625" lon="6.63887">
        <ele>1985.517</ele>
        <time>2025-02-24T08:57:01Z</time>
      </trkpt>
      <trkpt lat="44.99622" lon="6.63882">
        <ele>1982.404</ele>
        <time>2025-02-24T08:57:12Z</time>
      </trkpt>
      <trkpt lat="44.99618" lon="6.63877">
        <ele>1985.192</ele>
        <time>2025-02-24T08:57:25Z</time>
      </trkpt>
      <trkpt lat="44.99614" lon="6.63876">
        <ele>1984.302</ele>
        <time>2025-02-24T08:57:39Z</time>
      </trkpt>
      <trkpt lat="44.99611" lon="6.63876">
        <ele>1987.656</ele>
        <time>2025-02-24T08:57:50Z</time>
      </trkpt>
      <trkpt lat="44.99607" lon="6.63874">
        <ele>1990.364</ele>
        <time>2025-02-24T08:58:07Z</time>
      </trkpt>
      <trkpt lat="44.99605" lon="6.63871">
        <ele>1992.522</ele>
        <time>2025-02-24T08:58:28Z</time>
      </trkpt>
      <trkpt lat="44.99605" lon="6.63871">
        <ele>1993.337</ele>
        <time>2025-02-24T08:58:49Z</time>
      </trkpt>
      <trkpt lat="44.99605" lon="6.63871">
        <ele>1994.185</ele>
        <time>2025-02-24T08:59:09Z</time>
      </trkpt>
      <trkpt lat="44.99605" lon="6.63871">
        <ele>1997.574</ele>
        <time>2025-02-24T08:59:19Z</time>
      </trkpt>
      <trkpt lat="44.99605" lon="6.63871">
        <ele>1996.943</ele>
        <time>2025-02-24T08:59:29Z</time>
      </trkpt>
      <trkpt lat="44.99605" lon="6.63871">
        <ele>2000.304</ele>
        <time>2025-02-24T08:59:47Z</time>
      </trkpt>
      <trkpt lat="44.99605" lon="6.63871">
        <ele>2001.174</ele>
        <time>2025-02-24T09:00:08Z</time>
      </trkpt>
      <trkpt lat="44.99605" lon="6.63871">
        <ele>2001.194</ele>
        <time>2025-02-24T09:00:28Z</time>
      </trkpt>
      <trkpt lat="44.99605" lon="6.63871">
        <ele>2001.183</ele>
        <time>2025-02-24T09:00:48Z</time>
      </trkpt>
      <trkpt lat="44.99605" lon="6.63871">
        <ele>2000.934</ele>
        <time>2025-02-24T09:01:09Z</time>
      </trkpt>
      <trkpt lat="44.99605" lon="6.63871">
        <ele>2001.023</ele>
        <time>2025-02-24T09:01:30Z</time>
      </trkpt>
      <trkpt lat="44.99605" lon="6.63871">
        <ele>2001.021</ele>
        <time>2025-02-24T09:01:50Z</time>
      </trkpt>
      <trkpt lat="44.99605" lon="6.63871">
        <ele>2001.003</ele>
        <time>2025-02-24T09:02:11Z</time>
      </trkpt>
      <trkpt lat="44.99605" lon="6.63871">
        <ele>2001.023</ele>
        <time>2025-02-24T09:02:31Z</time>
      </trkpt>
      <trkpt lat="44.99605" lon="6.63871">
        <ele>2000.94</ele>
        <time>2025-02-24T09:02:51Z</time>
      </trkpt>
      <trkpt lat="44.99605" lon="6.63871">
        <ele>1997.834</ele>
        <time>2025-02-24T09:03:12Z</time>
      </trkpt>
      <trkpt lat="44.99605" lon="6.63871">
        <ele>1997.284</ele>
        <time>2025-02-24T09:03:33Z</time>
      </trkpt>
      <trkpt lat="44.99605" lon="6.63871">
        <ele>1998.261</ele>
        <time>2025-02-24T09:03:54Z</time>
      </trkpt>
      <trkpt lat="44.99605" lon="6.63871">
        <ele>1998.261</ele>
        <time>2025-02-24T09:04:15Z</time>
      </trkpt>
      <trkpt lat="44.99605" lon="6.63871">
        <ele>1999.269</ele>
        <time>2025-02-24T09:04:36Z</time>
      </trkpt>
      <trkpt lat="44.99605" lon="6.63871">
        <ele>1999.592</ele>
        <time>2025-02-24T09:04:57Z</time>
      </trkpt>
      <trkpt lat="44.99605" lon="6.63871">
        <ele>1999.907</ele>
        <time>2025-02-24T09:05:17Z</time>
      </trkpt>
      <trkpt lat="44.99599" lon="6.6387">
        <ele>2000.18</ele>
        <time>2025-02-24T09:05:37Z</time>
      </trkpt>
      <trkpt lat="44.99595" lon="6.63869">
        <ele>1998.177</ele>
        <time>2025-02-24T09:05:41Z</time>
      </trkpt>
      <trkpt lat="44.99591" lon="6.63865">
        <ele>1998.519</ele>
        <time>2025-02-24T09:05:51Z</time>
      </trkpt>
      <trkpt lat="44.99587" lon="6.63866">
        <ele>1996.751</ele>
        <time>2025-02-24T09:06:07Z</time>
      </trkpt>
      <trkpt lat="44.99584" lon="6.6386">
        <ele>1997.79</ele>
        <time>2025-02-24T09:06:17Z</time>
      </trkpt>
      <trkpt lat="44.99585" lon="6.63857">
        <ele>2002.852</ele>
        <time>2025-02-24T09:06:20Z</time>
      </trkpt>
      <trkpt lat="44.99587" lon="6.63854">
        <ele>2006.636</ele>
        <time>2025-02-24T09:06:28Z</time>
      </trkpt>
      <trkpt lat="44.99591" lon="6.63858">
        <ele>2007.329</ele>
        <time>2025-02-24T09:06:36Z</time>
      </trkpt>
      <trkpt lat="44.99588" lon="6.63853">
        <ele>2008.696</ele>
        <time>2025-02-24T09:06:45Z</time>
      </trkpt>
      <trkpt lat="44.99583" lon="6.63851">
        <ele>2009.54</ele>
        <time>2025-02-24T09:06:57Z</time>
      </trkpt>
      <trkpt lat="44.99582" lon="6.63848">
        <ele>2013.812</ele>
        <time>2025-02-24T09:07:03Z</time>
      </trkpt>
      <trkpt lat="44.9958" lon="6.63842">
        <ele>2016.029</ele>
        <time>2025-02-24T09:07:13Z</time>
      </trkpt>
      <trkpt lat="44.99578" lon="6.63845">
        <ele>2011.658</ele>
        <time>2025-02-24T09:07:18Z</time>
      </trkpt>
      <trkpt lat="44.99573" lon="6.63844">
        <ele>2012.042</ele>
        <time>2025-02-24T09:07:36Z</time>
      </trkpt>
      <trkpt lat="44.99569" lon="6.63841">
        <ele>2014.524</ele>
        <time>2025-02-24T09:07:49Z</time>
      </trkpt>
      <trkpt lat="44.9957" lon="6.63835">
        <ele>2015.776</ele>
        <time>2025-02-24T09:08:02Z</time>
      </trkpt>
      <trkpt lat="44.9957" lon="6.63831">
        <ele>2019.343</ele>
        <time>2025-02-24T09:08:22Z</time>
      </trkpt>
      <trkpt lat="44.99567" lon="6.63829">
        <ele>2017.847</ele>
        <time>2025-02-24T09:08:43Z</time>
      </trkpt>
      <trkpt lat="44.99563" lon="6.63834">
        <ele>2017.997</ele>
        <time>2025-02-24T09:08:51Z</time>
      </trkpt>
      <trkpt lat="44.9956" lon="6.63835">
        <ele>2020.766</ele>
        <time>2025-02-24T09:09:00Z</time>
      </trkpt>
      <trkpt lat="44.99557" lon="6.6383">
        <ele>2023.445</ele>
        <time>2025-02-24T09:09:08Z</time>
      </trkpt>
      <trkpt lat="44.99556" lon="6.63824">
        <ele>2024.818</ele>
        <time>2025-02-24T09:09:16Z</time>
      </trkpt>
      <trkpt lat="44.99554" lon="6.63825">
        <ele>2018.987</ele>
        <time>2025-02-24T09:09:26Z</time>
      </trkpt>
      <trkpt lat="44.99552" lon="6.63823">
        <ele>2018.886</ele>
        <time>2025-02-24T09:09:47Z</time>
      </trkpt>
      <trkpt lat="44.99548" lon="6.63822">
        <ele>2019.32</ele>
        <time>2025-02-24T09:10:02Z</time>
      </trkpt>
      <trkpt lat="44.99548" lon="6.63816">
        <ele>2020.905</ele>
        <time>2025-02-24T09:10:19Z</time>
      </trkpt>
      <trkpt lat="44.99548" lon="6.63813">
        <ele>2022.785</ele>
        <time>2025-02-24T09:10:40Z</time>
      </trkpt>
      <trkpt lat="44.99548" lon="6.63807">
        <ele>2025.179</ele>
        <time>2025-02-24T09:10:56Z</time>
      </trkpt>
      <trkpt lat="44.99548" lon="6.63807">
        <ele>2026.039</ele>
        <time>2025-02-24T09:11:10Z</time>
      </trkpt>
      <trkpt lat="44.99548" lon="6.63807">
        <ele>2026.77</ele>
        <time>2025-02-24T09:11:18Z</time>
      </trkpt>
      <trkpt lat="44.99548" lon="6.63807">
        <ele>2028.231</ele>
        <time>2025-02-24T09:11:39Z</time>
      </trkpt>
      <trkpt lat="44.99548" lon="6.63807">
        <ele>2029.752</ele>
        <time>2025-02-24T09:11:59Z</time>
      </trkpt>
      <trkpt lat="44.99548" lon="6.63807">
        <ele>2031.197</ele>
        <time>2025-02-24T09:12:20Z</time>
      </trkpt>
      <trkpt lat="44.9954" lon="6.63813">
        <ele>2033.428</ele>
        <time>2025-02-24T09:12:41Z</time>
      </trkpt>
      <trkpt lat="44.99536" lon="6.6381">
        <ele>2034.632</ele>
        <time>2025-02-24T09:12:58Z</time>
      </trkpt>
      <trkpt lat="44.99533" lon="6.63805">
        <ele>2037.863</ele>
        <time>2025-02-24T09:13:14Z</time>
      </trkpt>
      <trkpt lat="44.99531" lon="6.63802">
        <ele>2037.298</ele>
        <time>2025-02-24T09:13:34Z</time>
      </trkpt>
      <trkpt lat="44.99531" lon="6.63802">
        <ele>2037.98</ele>
        <time>2025-02-24T09:13:55Z</time>
      </trkpt>
      <trkpt lat="44.99531" lon="6.63802">
        <ele>2038.279</ele>
        <time>2025-02-24T09:14:15Z</time>
      </trkpt>
      <trkpt lat="44.99531" lon="6.63802">
        <ele>2039.346</ele>
        <time>2025-02-24T09:14:35Z</time>
      </trkpt>
      <trkpt lat="44.99531" lon="6.63802">
        <ele>2035.773</ele>
        <time>2025-02-24T09:14:56Z</time>
      </trkpt>
      <trkpt lat="44.99531" lon="6.63802">
        <ele>2037.612</ele>
        <time>2025-02-24T09:15:16Z</time>
      </trkpt>
      <trkpt lat="44.99531" lon="6.63802">
        <ele>2039.875</ele>
        <time>2025-02-24T09:15:37Z</time>
      </trkpt>
      <trkpt lat="44.99531" lon="6.63802">
        <ele>2041.691</ele>
        <time>2025-02-24T09:15:58Z</time>
      </trkpt>
      <trkpt lat="44.99531" lon="6.63802">
        <ele>2043.478</ele>
        <time>2025-02-24T09:16:19Z</time>
      </trkpt>
      <trkpt lat="44.99531" lon="6.63802">
        <ele>2044.138</ele>
        <time>2025-02-24T09:16:40Z</time>
      </trkpt>
      <trkpt lat="44.99531" lon="6.63802">
        <ele>2046.596</ele>
        <time>2025-02-24T09:17:00Z</time>
      </trkpt>
      <trkpt lat="44.99531" lon="6.63802">
        <ele>2047.216</ele>
        <time>2025-02-24T09:17:20Z</time>
      </trkpt>
      <trkpt lat="44.99531" lon="6.63802">
        <ele>2046.417</ele>
        <time>2025-02-24T09:17:41Z</time>
      </trkpt>
      <trkpt lat="44.99531" lon="6.63802">
        <ele>2047.242</ele>
        <time>2025-02-24T09:18:02Z</time>
      </trkpt>
      <trkpt lat="44.99531" lon="6.63802">
        <ele>2047.7</ele>
        <time>2025-02-24T09:18:23Z</time>
      </trkpt>
      <trkpt lat="44.99531" lon="6.63802">
        <ele>2047.137</ele>
        <time>2025-02-24T09:18:43Z</time>
      </trkpt>
      <trkpt lat="44.99531" lon="6.63802">
        <ele>2046.623</ele>
        <time>2025-02-24T09:19:04Z</time>
      </trkpt>
      <trkpt lat="44.99531" lon="6.63802">
        <ele>2044.738</ele>
        <time>2025-02-24T09:19:24Z</time>
      </trkpt>
      <trkpt lat="44.99524" lon="6.6379">
        <ele>2045.071</ele>
        <time>2025-02-24T09:19:44Z</time>
      </trkpt>
      <trkpt lat="44.9952" lon="6.63791">
        <ele>2043.268</ele>
        <time>2025-02-24T09:19:54Z</time>
      </trkpt>
      <trkpt lat="44.99516" lon="6.63794">
        <ele>2043.658</ele>
        <time>2025-02-24T09:20:01Z</time>
      </trkpt>
      <trkpt lat="44.99514" lon="6.63796">
        <ele>2043.701</ele>
        <time>2025-02-24T09:20:22Z</time>
      </trkpt>
      <trkpt lat="44.99515" lon="6.6379">
        <ele>2044.214</ele>
        <time>2025-02-24T09:20:32Z</time>
      </trkpt>
      <trkpt lat="44.99518" lon="6.63784">
        <ele>2045.447</ele>
        <time>2025-02-24T09:20:39Z</time>
      </trkpt>
      <trkpt lat="44.99521" lon="6.63781">
        <ele>2046.563</ele>
        <time>2025-02-24T09:21:00Z</time>
      </trkpt>
      <trkpt lat="44.99521" lon="6.63775">
        <ele>2048.908</ele>
        <time>2025-02-24T09:21:09Z</time>
      </trkpt>
      <trkpt lat="44.9952" lon="6.63776">
        <ele>2047.825</ele>
        <time>2025-02-24T09:21:29Z</time>
      </trkpt>
      <trkpt lat="44.99517" lon="6.63781">
        <ele>2049.543</ele>
        <time>2025-02-24T09:21:40Z</time>
      </trkpt>
      <trkpt lat="44.99512" lon="6.63782">
        <ele>2048.951</ele>
        <time>2025-02-24T09:21:49Z</time>
      </trkpt>
      <trkpt lat="44.99508" lon="6.63784">
        <ele>2046.713</ele>
        <time>2025-02-24T09:21:58Z</time>
      </trkpt>
      <trkpt lat="44.99506" lon="6.63781">
        <ele>2048.135</ele>
        <time>2025-02-24T09:22:19Z</time>
      </trkpt>
      <trkpt lat="44.99505" lon="6.63782">
        <ele>2049.085</ele>
        <time>2025-02-24T09:22:39Z</time>
      </trkpt>
      <trkpt lat="44.99501" lon="6.63783">
        <ele>2049.476</ele>
        <time>2025-02-24T09:22:53Z</time>
      </trkpt>
      <trkpt lat="44.99496" lon="6.63787">
        <ele>2049.625</ele>
        <time>2025-02-24T09:23:05Z</time>
      </trkpt>
      <trkpt lat="44.99493" lon="6.63791">
        <ele>2051.859</ele>
        <time>2025-02-24T09:23:17Z</time>
      </trkpt>
      <trkpt lat="44.99492" lon="6.63791">
        <ele>2052.374</ele>
        <time>2025-02-24T09:23:37Z</time>
      </trkpt>
      <trkpt lat="44.99488" lon="6.63794">
        <ele>2053.25</ele>
        <time>2025-02-24T09:23:55Z</time>
      </trkpt>
      <trkpt lat="44.99488" lon="6.63787">
        <ele>2054.136</ele>
        <time>2025-02-24T09:24:16Z</time>
      </trkpt>
      <trkpt lat="44.99485" lon="6.63783">
        <ele>2054.245</ele>
        <time>2025-02-24T09:24:25Z</time>
      </trkpt>
      <trkpt lat="44.9948" lon="6.63783">
        <ele>2053.852</ele>
        <time>2025-02-24T09:24:34Z</time>
      </trkpt>
      <trkpt lat="44.99479" lon="6.63778">
        <ele>2056.392</ele>
        <time>2025-02-24T09:24:47Z</time>
      </trkpt>
      <trkpt lat="44.99482" lon="6.63774">
        <ele>2059.922</ele>
        <time>2025-02-24T09:25:06Z</time>
      </trkpt>
      <trkpt lat="44.99485" lon="6.63771">
        <ele>2062.365</ele>
        <time>2025-02-24T09:25:27Z</time>
      </trkpt>
      <trkpt lat="44.99486" lon="6.63772">
        <ele>2063.838</ele>
        <time>2025-02-24T09:25:48Z</time>
      </trkpt>
      <trkpt lat="44.99486" lon="6.63772">
        <ele>2063.844</ele>
        <time>2025-02-24T09:26:08Z</time>
      </trkpt>
      <trkpt lat="44.99481" lon="6.63775">
        <ele>2062.935</ele>
        <time>2025-02-24T09:26:19Z</time>
      </trkpt>
      <trkpt lat="44.99477" lon="6.63778">
        <ele>2062.825</ele>
        <time>2025-02-24T09:26:32Z</time>
      </trkpt>
      <trkpt lat="44.99475" lon="6.63779">
        <ele>2064.892</ele>
        <time>2025-02-24T09:26:53Z</time>
      </trkpt>
      <trkpt lat="44.99472" lon="6.63777">
        <ele>2067.604</ele>
        <time>2025-02-24T09:27:14Z</time>
      </trkpt>
      <trkpt lat="44.99471" lon="6.63778">
        <ele>2067.882</ele>
        <time>2025-02-24T09:27:34Z</time>
      </trkpt>
      <trkpt lat="44.99473" lon="6.63782">
        <ele>2066.156</ele>
        <time>2025-02-24T09:27:55Z</time>
      </trkpt>
      <trkpt lat="44.99473" lon="6.63788">
        <ele>2067.18</ele>
        <time>2025-02-24T09:28:09Z</time>
      </trkpt>
      <trkpt lat="44.99469" lon="6.63788">
        <ele>2067.102</ele>
        <time>2025-02-24T09:28:30Z</time>
      </trkpt>
      <trkpt lat="44.99466" lon="6.63784">
        <ele>2067.384</ele>
        <time>2025-02-24T09:28:50Z</time>
      </trkpt>
      <trkpt lat="44.99462" lon="6.6378">
        <ele>2067.081</ele>
        <time>2025-02-24T09:29:09Z</time>
      </trkpt>
      <trkpt lat="44.99458" lon="6.63776">
        <ele>2068.128</ele>
        <time>2025-02-24T09:29:23Z</time>
      </trkpt>
      <trkpt lat="44.99456" lon="6.63773">
        <ele>2072.497</ele>
        <time>2025-02-24T09:29:37Z</time>
      </trkpt>
      <trkpt lat="44.99455" lon="6.63768">
        <ele>2074.06</ele>
        <time>2025-02-24T09:29:57Z</time>
      </trkpt>
      <trkpt lat="44.99455" lon="6.63768">
        <ele>2074.395</ele>
        <time>2025-02-24T09:30:18Z</time>
      </trkpt>
      <trkpt lat="44.99455" lon="6.63768">
        <ele>2075.555</ele>
        <time>2025-02-24T09:30:39Z</time>
      </trkpt>
      <trkpt lat="44.99455" lon="6.63768">
        <ele>2076.081</ele>
        <time>2025-02-24T09:31:00Z</time>
      </trkpt>
      <trkpt lat="44.99455" lon="6.63768">
        <ele>2075.675</ele>
        <time>2025-02-24T09:31:20Z</time>
      </trkpt>
      <trkpt lat="44.99455" lon="6.63768">
        <ele>2075.902</ele>
        <time>2025-02-24T09:31:40Z</time>
      </trkpt>
      <trkpt lat="44.99455" lon="6.63768">
        <ele>2076.714</ele>
        <time>2025-02-24T09:32:01Z</time>
      </trkpt>
      <trkpt lat="44.99455" lon="6.63768">
        <ele>2077.118</ele>
        <time>2025-02-24T09:32:08Z</time>
      </trkpt>
      <trkpt lat="44.99455" lon="6.63768">
        <ele>2077.542</ele>
        <time>2025-02-24T09:32:29Z</time>
      </trkpt>
      <trkpt lat="44.99455" lon="6.63768">
        <ele>2077.579</ele>
        <time>2025-02-24T09:32:49Z</time>
      </trkpt>
      <trkpt lat="44.99455" lon="6.63768">
        <ele>2077.448</ele>
        <time>2025-02-24T09:32:56Z</time>
      </trkpt>
      <trkpt lat="44.99447" lon="6.63773">
        <ele>2079.441</ele>
        <time>2025-02-24T09:33:16Z</time>
      </trkpt>
      <trkpt lat="44.99443" lon="6.63769">
        <ele>2082.014</ele>
        <time>2025-02-24T09:33:30Z</time>
      </trkpt>
      <trkpt lat="44.99441" lon="6.63763">
        <ele>2083.161</ele>
        <time>2025-02-24T09:33:37Z</time>
      </trkpt>
      <trkpt lat="44.9944" lon="6.63759">
        <ele>2084.632</ele>
        <time>2025-02-24T09:33:57Z</time>
      </trkpt>
      <trkpt lat="44.9944" lon="6.63759">
        <ele>2084.438</ele>
        <time>2025-02-24T09:34:18Z</time>
      </trkpt>
      <trkpt lat="44.9944" lon="6.63759">
        <ele>2086.103</ele>
        <time>2025-02-24T09:34:39Z</time>
      </trkpt>
      <trkpt lat="44.9944" lon="6.63759">
        <ele>2085.946</ele>
        <time>2025-02-24T09:34:59Z</time>
      </trkpt>
      <trkpt lat="44.9944" lon="6.63759">
        <ele>2086.161</ele>
        <time>2025-02-24T09:35:20Z</time>
      </trkpt>
      <trkpt lat="44.9944" lon="6.63759">
        <ele>2090.03</ele>
        <time>2025-02-24T09:35:36Z</time>
      </trkpt>
      <trkpt lat="44.9944" lon="6.63759">
        <ele>2090.359</ele>
        <time>2025-02-24T09:35:50Z</time>
      </trkpt>
      <trkpt lat="44.9944" lon="6.63759">
        <ele>2088.723</ele>
        <time>2025-02-24T09:35:58Z</time>
      </trkpt>
      <trkpt lat="44.99437" lon="6.63757">
        <ele>2088.162</ele>
        <time>2025-02-24T09:36:09Z</time>
      </trkpt>
      <trkpt lat="44.99435" lon="6.63752">
        <ele>2089.721</ele>
        <time>2025-02-24T09:36:23Z</time>
      </trkpt>
      <trkpt lat="44.99433" lon="6.6375">
        <ele>2091.478</ele>
        <time>2025-02-24T09:36:43Z</time>
      </trkpt>
      <trkpt lat="44.99429" lon="6.63753">
        <ele>2090.843</ele>
        <time>2025-02-24T09:36:52Z</time>
      </trkpt>
      <trkpt lat="44.99427" lon="6.63757">
        <ele>2092.979</ele>
        <time>2025-02-24T09:37:12Z</time>
      </trkpt>
      <trkpt lat="44.99423" lon="6.6376">
        <ele>2092.389</ele>
        <time>2025-02-24T09:37:30Z</time>
      </trkpt>
      <trkpt lat="44.99421" lon="6.63766">
        <ele>2094.05</ele>
        <time>2025-02-24T09:37:40Z</time>
      </trkpt>
      <trkpt lat="44.99421" lon="6.63766">
        <ele>2094.874</ele>
        <time>2025-02-24T09:38:01Z</time>
      </trkpt>
      <trkpt lat="44.99421" lon="6.63766">
        <ele>2096.318</ele>
        <time>2025-02-24T09:38:22Z</time>
      </trkpt>
      <trkpt lat="44.99421" lon="6.63766">
        <ele>2098.709</ele>
        <time>2025-02-24T09:38:42Z</time>
      </trkpt>
      <trkpt lat="44.99421" lon="6.63766">
        <ele>2099.193</ele>
        <time>2025-02-24T09:39:03Z</time>
      </trkpt>
      <trkpt lat="44.99421" lon="6.63766">
        <ele>2097.631</ele>
        <time>2025-02-24T09:39:24Z</time>
      </trkpt>
      <trkpt lat="44.99421" lon="6.63766">
        <ele>2097.213</ele>
        <time>2025-02-24T09:39:45Z</time>
      </trkpt>
      <trkpt lat="44.99421" lon="6.63766">
        <ele>2098.971</ele>
        <time>2025-02-24T09:40:06Z</time>
      </trkpt>
      <trkpt lat="44.99421" lon="6.63766">
        <ele>2102.809</ele>
        <time>2025-02-24T09:40:13Z</time>
      </trkpt>
      <trkpt lat="44.99421" lon="6.63766">
        <ele>2104.511</ele>
        <time>2025-02-24T09:40:25Z</time>
      </trkpt>
      <trkpt lat="44.99421" lon="6.63766">
        <ele>2104.27</ele>
        <time>2025-02-24T09:40:45Z</time>
      </trkpt>
      <trkpt lat="44.99414" lon="6.63776">
        <ele>2103.522</ele>
        <time>2025-02-24T09:40:55Z</time>
      </trkpt>
      <trkpt lat="44.9941" lon="6.63772">
        <ele>2102.91</ele>
        <time>2025-02-24T09:41:04Z</time>
      </trkpt>
      <trkpt lat="44.99407" lon="6.63768">
        <ele>2103.243</ele>
        <time>2025-02-24T09:41:25Z</time>
      </trkpt>
      <trkpt lat="44.99403" lon="6.63765">
        <ele>2105.608</ele>
        <time>2025-02-24T09:41:42Z</time>
      </trkpt>
      <trkpt lat="44.99403" lon="6.63758">
        <ele>2105.857</ele>
        <time>2025-02-24T09:41:51Z</time>
      </trkpt>
      <trkpt lat="44.99403" lon="6.63758">
        <ele>2105.906</ele>
        <time>2025-02-24T09:42:11Z</time>
      </trkpt>
      <trkpt lat="44.99403" lon="6.63758">
        <ele>2106.618</ele>
        <time>2025-02-24T09:42:32Z</time>
      </trkpt>
      <trkpt lat="44.99403" lon="6.63758">
        <ele>2107.77</ele>
        <time>2025-02-24T09:42:53Z</time>
      </trkpt>
      <trkpt lat="44.99403" lon="6.63758">
        <ele>2108.663</ele>
        <time>2025-02-24T09:43:13Z</time>
      </trkpt>
      <trkpt lat="44.99403" lon="6.63758">
        <ele>2109.749</ele>
        <time>2025-02-24T09:43:26Z</time>
      </trkpt>
      <trkpt lat="44.99403" lon="6.63758">
        <ele>2109.4</ele>
        <time>2025-02-24T09:43:47Z</time>
      </trkpt>
      <trkpt lat="44.99393" lon="6.63754">
        <ele>2111.986</ele>
        <time>2025-02-24T09:44:02Z</time>
      </trkpt>
      <trkpt lat="44.9939" lon="6.63759">
        <ele>2113.791</ele>
        <time>2025-02-24T09:44:11Z</time>
      </trkpt>
      <trkpt lat="44.99387" lon="6.63763">
        <ele>2113.217</ele>
        <time>2025-02-24T09:44:32Z</time>
      </trkpt>
      <trkpt lat="44.99387" lon="6.63757">
        <ele>2113.303</ele>
        <time>2025-02-24T09:44:52Z</time>
      </trkpt>
      <trkpt lat="44.99389" lon="6.63752">
        <ele>2115.467</ele>
        <time>2025-02-24T09:45:10Z</time>
      </trkpt>
      <trkpt lat="44.99391" lon="6.63747">
        <ele>2117.761</ele>
        <time>2025-02-24T09:45:22Z</time>
      </trkpt>
      <trkpt lat="44.99393" lon="6.63742">
        <ele>2117.19</ele>
        <time>2025-02-24T09:45:42Z</time>
      </trkpt>
      <trkpt lat="44.99393" lon="6.63742">
        <ele>2115.27</ele>
        <time>2025-02-24T09:46:01Z</time>
      </trkpt>
      <trkpt lat="44.99393" lon="6.63742">
        <ele>2115.434</ele>
        <time>2025-02-24T09:46:21Z</time>
      </trkpt>
      <trkpt lat="44.99388" lon="6.6375">
        <ele>2117.167</ele>
        <time>2025-02-24T09:46:41Z</time>
      </trkpt>
      <trkpt lat="44.99384" lon="6.63753">
        <ele>2117.629</ele>
        <time>2025-02-24T09:46:56Z</time>
      </trkpt>
      <trkpt lat="44.99382" lon="6.63755">
        <ele>2119.145</ele>
        <time>2025-02-24T09:47:16Z</time>
      </trkpt>
      <trkpt lat="44.99383" lon="6.63758">
        <ele>2122.12</ele>
        <time>2025-02-24T09:47:37Z</time>
      </trkpt>
      <trkpt lat="44.99381" lon="6.63762">
        <ele>2123.366</ele>
        <time>2025-02-24T09:47:58Z</time>
      </trkpt>
      <trkpt lat="44.99376" lon="6.63761">
        <ele>2122.083</ele>
        <time>2025-02-24T09:48:17Z</time>
      </trkpt>
      <trkpt lat="44.99374" lon="6.63755">
        <ele>2123.732</ele>
        <time>2025-02-24T09:48:32Z</time>
      </trkpt>
      <trkpt lat="44.99374" lon="6.63755">
        <ele>2122.646</ele>
        <time>2025-02-24T09:48:53Z</time>
      </trkpt>
      <trkpt lat="44.99374" lon="6.63755">
        <ele>2124.308</ele>
        <time>2025-02-24T09:49:14Z</time>
      </trkpt>
      <trkpt lat="44.99374" lon="6.63755">
        <ele>2126.096</ele>
        <time>2025-02-24T09:49:28Z</time>
      </trkpt>
      <trkpt lat="44.99369" lon="6.63755">
        <ele>2127.647</ele>
        <time>2025-02-24T09:49:48Z</time>
      </trkpt>
      <trkpt lat="44.99366" lon="6.63759">
        <ele>2127.377</ele>
        <time>2025-02-24T09:50:08Z</time>
      </trkpt>
      <trkpt lat="44.99363" lon="6.6376">
        <ele>2128.409</ele>
        <time>2025-02-24T09:50:28Z</time>
      </trkpt>
      <trkpt lat="44.9936" lon="6.63754">
        <ele>2129.427</ele>
        <time>2025-02-24T09:50:44Z</time>
      </trkpt>
      <trkpt lat="44.99355" lon="6.63751">
        <ele>2129.951</ele>
        <time>2025-02-24T09:50:59Z</time>
      </trkpt>
      <trkpt lat="44.99352" lon="6.6375">
        <ele>2132.899</ele>
        <time>2025-02-24T09:51:13Z</time>
      </trkpt>
      <trkpt lat="44.99347" lon="6.63748">
        <ele>2133.39</ele>
        <time>2025-02-24T09:51:30Z</time>
      </trkpt>
      <trkpt lat="44.99343" lon="6.63746">
        <ele>2133.657</ele>
        <time>2025-02-24T09:51:46Z</time>
      </trkpt>
      <trkpt lat="44.99339" lon="6.63743">
        <ele>2136.279</ele>
        <time>2025-02-24T09:51:59Z</time>
      </trkpt>
      <trkpt lat="44.99336" lon="6.63738">
        <ele>2137.768</ele>
        <time>2025-02-24T09:52:08Z</time>
      </trkpt>
      <trkpt lat="44.99334" lon="6.63735">
        <ele>2138.468</ele>
        <time>2025-02-24T09:52:29Z</time>
      </trkpt>
      <trkpt lat="44.99334" lon="6.63735">
        <ele>2138.491</ele>
        <time>2025-02-24T09:52:49Z</time>
      </trkpt>
      <trkpt lat="44.99333" lon="6.63735">
        <ele>2138.003</ele>
        <time>2025-02-24T09:53:10Z</time>
      </trkpt>
      <trkpt lat="44.99333" lon="6.63735">
        <ele>2138.003</ele>
        <time>2025-02-24T09:53:10Z</time>
      </trkpt>
      <trkpt lat="44.99333" lon="6.63741">
        <ele>2141.979</ele>
        <time>2025-02-24T09:53:24Z</time>
      </trkpt>
      <trkpt lat="44.99333" lon="6.63741">
        <ele>2142.98</ele>
        <time>2025-02-24T09:53:45Z</time>
      </trkpt>
      <trkpt lat="44.99333" lon="6.63741">
        <ele>2143.258</ele>
        <time>2025-02-24T09:54:06Z</time>
      </trkpt>
      <trkpt lat="44.99333" lon="6.63741">
        <ele>2143.249</ele>
        <time>2025-02-24T09:54:26Z</time>
      </trkpt>
      <trkpt lat="44.99333" lon="6.63741">
        <ele>2143.036</ele>
        <time>2025-02-24T09:54:47Z</time>
      </trkpt>
      <trkpt lat="44.99333" lon="6.63741">
        <ele>2142.876</ele>
        <time>2025-02-24T09:55:08Z</time>
      </trkpt>
      <trkpt lat="44.99333" lon="6.63741">
        <ele>2142.259</ele>
        <time>2025-02-24T09:55:29Z</time>
      </trkpt>
      <trkpt lat="44.99333" lon="6.63741">
        <ele>2140.763</ele>
        <time>2025-02-24T09:55:49Z</time>
      </trkpt>
      <trkpt lat="44.99333" lon="6.63741">
        <ele>2137.556</ele>
        <time>2025-02-24T09:56:10Z</time>
      </trkpt>
      <trkpt lat="44.99333" lon="6.63741">
        <ele>2138.373</ele>
        <time>2025-02-24T09:56:31Z</time>
      </trkpt>
      <trkpt lat="44.99333" lon="6.63741">
        <ele>2139.898</ele>
        <time>2025-02-24T09:56:52Z</time>
      </trkpt>
      <trkpt lat="44.99333" lon="6.63741">
        <ele>2140.245</ele>
        <time>2025-02-24T09:57:12Z</time>
      </trkpt>
      <trkpt lat="44.99333" lon="6.63741">
        <ele>2140.224</ele>
        <time>2025-02-24T09:57:33Z</time>
      </trkpt>
      <trkpt lat="44.99333" lon="6.63741">
        <ele>2139.758</ele>
        <time>2025-02-24T09:57:54Z</time>
      </trkpt>
      <trkpt lat="44.99333" lon="6.63741">
        <ele>2140.783</ele>
        <time>2025-02-24T09:58:14Z</time>
      </trkpt>
      <trkpt lat="44.99333" lon="6.63741">
        <ele>2140.82</ele>
        <time>2025-02-24T09:58:35Z</time>
      </trkpt>
      <trkpt lat="44.99333" lon="6.63741">
        <ele>2140.829</ele>
        <time>2025-02-24T09:58:55Z</time>
      </trkpt>
      <trkpt lat="44.99333" lon="6.63741">
        <ele>2140.83</ele>
        <time>2025-02-24T09:59:16Z</time>
      </trkpt>
      <trkpt lat="44.99333" lon="6.63741">
        <ele>2140.858</ele>
        <time>2025-02-24T09:59:36Z</time>
      </trkpt>
      <trkpt lat="44.99333" lon="6.63741">
        <ele>2140.888</ele>
        <time>2025-02-24T09:59:56Z</time>
      </trkpt>
      <trkpt lat="44.99333" lon="6.63741">
        <ele>2141.674</ele>
        <time>2025-02-24T10:00:17Z</time>
      </trkpt>
      <trkpt lat="44.99333" lon="6.63741">
        <ele>2141.762</ele>
        <time>2025-02-24T10:00:37Z</time>
      </trkpt>
      <trkpt lat="44.99333" lon="6.63741">
        <ele>2141.765</ele>
        <time>2025-02-24T10:00:57Z</time>
      </trkpt>
      <trkpt lat="44.99335" lon="6.63736">
        <ele>2141.622</ele>
        <time>2025-02-24T10:01:18Z</time>
      </trkpt>
      <trkpt lat="44.99331" lon="6.63733">
        <ele>2141.806</ele>
        <time>2025-02-24T10:01:25Z</time>
      </trkpt>
      <trkpt lat="44.99327" lon="6.6373">
        <ele>2142.954</ele>
        <time>2025-02-24T10:01:34Z</time>
      </trkpt>
      <trkpt lat="44.99323" lon="6.63726">
        <ele>2141.767</ele>
        <time>2025-02-24T10:01:43Z</time>
      </trkpt>
      <trkpt lat="44.9932" lon="6.63721">
        <ele>2142.796</ele>
        <time>2025-02-24T10:01:52Z</time>
      </trkpt>
      <trkpt lat="44.99319" lon="6.63715">
        <ele>2143.76</ele>
        <time>2025-02-24T10:02:01Z</time>
      </trkpt>
      <trkpt lat="44.99318" lon="6.63709">
        <ele>2146.588</ele>
        <time>2025-02-24T10:02:11Z</time>
      </trkpt>
      <trkpt lat="44.99315" lon="6.63704">
        <ele>2145.244</ele>
        <time>2025-02-24T10:02:19Z</time>
      </trkpt>
      <trkpt lat="44.99312" lon="6.63699">
        <ele>2147.542</ele>
        <time>2025-02-24T10:02:28Z</time>
      </trkpt>
      <trkpt lat="44.99308" lon="6.63694">
        <ele>2147.429</ele>
        <time>2025-02-24T10:02:36Z</time>
      </trkpt>
      <trkpt lat="44.99305" lon="6.6369">
        <ele>2145.975</ele>
        <time>2025-02-24T10:02:45Z</time>
      </trkpt>
      <trkpt lat="44.99302" lon="6.63685">
        <ele>2147.722</ele>
        <time>2025-02-24T10:02:53Z</time>
      </trkpt>
      <trkpt lat="44.99299" lon="6.63681">
        <ele>2152.279</ele>
        <time>2025-02-24T10:03:01Z</time>
      </trkpt>
      <trkpt lat="44.99296" lon="6.63678">
        <ele>2155.364</ele>
        <time>2025-02-24T10:03:09Z</time>
      </trkpt>
      <trkpt lat="44.99293" lon="6.63673">
        <ele>2155.547</ele>
        <time>2025-02-24T10:03:19Z</time>
      </trkpt>
      <trkpt lat="44.99291" lon="6.63666">
        <ele>2155.028</ele>
        <time>2025-02-24T10:03:30Z</time>
      </trkpt>
      <trkpt lat="44.9929" lon="6.63661">
        <ele>2158.493</ele>
        <time>2025-02-24T10:03:40Z</time>
      </trkpt>
      <trkpt lat="44.9929" lon="6.63655">
        <ele>2160.318</ele>
        <time>2025-02-24T10:03:55Z</time>
      </trkpt>
      <trkpt lat="44.99288" lon="6.6365">
        <ele>2161.825</ele>
        <time>2025-02-24T10:04:04Z</time>
      </trkpt>
      <trkpt lat="44.99286" lon="6.63644">
        <ele>2159.919</ele>
        <time>2025-02-24T10:04:12Z</time>
      </trkpt>
      <trkpt lat="44.99282" lon="6.63641">
        <ele>2158.95</ele>
        <time>2025-02-24T10:04:19Z</time>
      </trkpt>
      <trkpt lat="44.99279" lon="6.63636">
        <ele>2156.629</ele>
        <time>2025-02-24T10:04:26Z</time>
      </trkpt>
      <trkpt lat="44.99277" lon="6.63633">
        <ele>2159.988</ele>
        <time>2025-02-24T10:04:32Z</time>
      </trkpt>
      <trkpt lat="44.99272" lon="6.6363">
        <ele>2160.972</ele>
        <time>2025-02-24T10:04:45Z</time>
      </trkpt>
      <trkpt lat="44.99268" lon="6.6363">
        <ele>2161.65</ele>
        <time>2025-02-24T10:04:52Z</time>
      </trkpt>
      <trkpt lat="44.99264" lon="6.63628">
        <ele>2163.739</ele>
        <time>2025-02-24T10:05:00Z</time>
      </trkpt>
      <trkpt lat="44.9926" lon="6.63626">
        <ele>2161.378</ele>
        <time>2025-02-24T10:05:10Z</time>
      </trkpt>
      <trkpt lat="44.99256" lon="6.63623">
        <ele>2162.232</ele>
        <time>2025-02-24T10:05:24Z</time>
      </trkpt>
      <trkpt lat="44.99252" lon="6.63619">
        <ele>2160.464</ele>
        <time>2025-02-24T10:05:33Z</time>
      </trkpt>
      <trkpt lat="44.99248" lon="6.63616">
        <ele>2163.324</ele>
        <time>2025-02-24T10:05:40Z</time>
      </trkpt>
      <trkpt lat="44.99244" lon="6.63612">
        <ele>2165.503</ele>
        <time>2025-02-24T10:05:47Z</time>
      </trkpt>
      <trkpt lat="44.99239" lon="6.63613">
        <ele>2166.262</ele>
        <time>2025-02-24T10:05:56Z</time>
      </trkpt>
      <trkpt lat="44.99234" lon="6.63615">
        <ele>2167.052</ele>
        <time>2025-02-24T10:06:05Z</time>
      </trkpt>
      <trkpt lat="44.99231" lon="6.63617">
        <ele>2170.263</ele>
        <time>2025-02-24T10:06:12Z</time>
      </trkpt>
      <trkpt lat="44.99227" lon="6.6362">
        <ele>2174.162</ele>
        <time>2025-02-24T10:06:19Z</time>
      </trkpt>
      <trkpt lat="44.99223" lon="6.63621">
        <ele>2172.55</ele>
        <time>2025-02-24T10:06:29Z</time>
      </trkpt>
      <trkpt lat="44.99219" lon="6.63622">
        <ele>2170.608</ele>
        <time>2025-02-24T10:06:40Z</time>
      </trkpt>
      <trkpt lat="44.99214" lon="6.63623">
        <ele>2172.232</ele>
        <time>2025-02-24T10:06:53Z</time>
      </trkpt>
      <trkpt lat="44.99211" lon="6.63622">
        <ele>2174.95</ele>
        <time>2025-02-24T10:07:02Z</time>
      </trkpt>
      <trkpt lat="44.99206" lon="6.63621">
        <ele>2177.289</ele>
        <time>2025-02-24T10:07:10Z</time>
      </trkpt>
      <trkpt lat="44.99202" lon="6.63619">
        <ele>2175.026</ele>
        <time>2025-02-24T10:07:19Z</time>
      </trkpt>
      <trkpt lat="44.99198" lon="6.63615">
        <ele>2177.644</ele>
        <time>2025-02-24T10:07:28Z</time>
      </trkpt>
      <trkpt lat="44.99195" lon="6.63611">
        <ele>2180.026</ele>
        <time>2025-02-24T10:07:35Z</time>
      </trkpt>
      <trkpt lat="44.99192" lon="6.63609">
        <ele>2176.702</ele>
        <time>2025-02-24T10:07:42Z</time>
      </trkpt>
      <trkpt lat="44.9919" lon="6.63607">
        <ele>2176.211</ele>
        <time>2025-02-24T10:08:03Z</time>
      </trkpt>
      <trkpt lat="44.9919" lon="6.63607">
        <ele>2176.285</ele>
        <time>2025-02-24T10:08:23Z</time>
      </trkpt>
      <trkpt lat="44.9919" lon="6.63607">
        <ele>2176.395</ele>
        <time>2025-02-24T10:08:44Z</time>
      </trkpt>
      <trkpt lat="44.9919" lon="6.63607">
        <ele>2176.575</ele>
        <time>2025-02-24T10:09:04Z</time>
      </trkpt>
      <trkpt lat="44.9919" lon="6.63607">
        <ele>2176.215</ele>
        <time>2025-02-24T10:09:25Z</time>
      </trkpt>
      <trkpt lat="44.9919" lon="6.63607">
        <ele>2176.291</ele>
        <time>2025-02-24T10:09:45Z</time>
      </trkpt>
      <trkpt lat="44.9919" lon="6.63607">
        <ele>2176.457</ele>
        <time>2025-02-24T10:10:06Z</time>
      </trkpt>
      <trkpt lat="44.9919" lon="6.63607">
        <ele>2176.549</ele>
        <time>2025-02-24T10:10:26Z</time>
      </trkpt>
      <trkpt lat="44.9919" lon="6.63609">
        <ele>2175.478</ele>
        <time>2025-02-24T10:10:46Z</time>
      </trkpt>
      <trkpt lat="44.99186" lon="6.63612">
        <ele>2179.969</ele>
        <time>2025-02-24T10:11:02Z</time>
      </trkpt>
      <trkpt lat="44.99182" lon="6.63609">
        <ele>2180.688</ele>
        <time>2025-02-24T10:11:08Z</time>
      </trkpt>
      <trkpt lat="44.99178" lon="6.63607">
        <ele>2179.469</ele>
        <time>2025-02-24T10:11:18Z</time>
      </trkpt>
      <trkpt lat="44.99173" lon="6.63608">
        <ele>2179.215</ele>
        <time>2025-02-24T10:11:30Z</time>
      </trkpt>
      <trkpt lat="44.99169" lon="6.63611">
        <ele>2179.783</ele>
        <time>2025-02-24T10:11:42Z</time>
      </trkpt>
      <trkpt lat="44.99164" lon="6.63612">
        <ele>2179.764</ele>
        <time>2025-02-24T10:11:53Z</time>
      </trkpt>
      <trkpt lat="44.9916" lon="6.63613">
        <ele>2182.1</ele>
        <time>2025-02-24T10:12:02Z</time>
      </trkpt>
      <trkpt lat="44.99156" lon="6.63614">
        <ele>2183.807</ele>
        <time>2025-02-24T10:12:10Z</time>
      </trkpt>
      <trkpt lat="44.99151" lon="6.63611">
        <ele>2183.308</ele>
        <time>2025-02-24T10:12:19Z</time>
      </trkpt>
      <trkpt lat="44.99148" lon="6.63605">
        <ele>2182.399</ele>
        <time>2025-02-24T10:12:28Z</time>
      </trkpt>
      <trkpt lat="44.99144" lon="6.63601">
        <ele>2182.459</ele>
        <time>2025-02-24T10:12:37Z</time>
      </trkpt>
      <trkpt lat="44.99141" lon="6.636">
        <ele>2185.407</ele>
        <time>2025-02-24T10:12:47Z</time>
      </trkpt>
      <trkpt lat="44.99137" lon="6.636">
        <ele>2188.614</ele>
        <time>2025-02-24T10:12:55Z</time>
      </trkpt>
      <trkpt lat="44.99132" lon="6.63601">
        <ele>2188.618</ele>
        <time>2025-02-24T10:13:05Z</time>
      </trkpt>
      <trkpt lat="44.99127" lon="6.63599">
        <ele>2187.331</ele>
        <time>2025-02-24T10:13:15Z</time>
      </trkpt>
      <trkpt lat="44.99124" lon="6.63597">
        <ele>2189.536</ele>
        <time>2025-02-24T10:13:26Z</time>
      </trkpt>
      <trkpt lat="44.99119" lon="6.63594">
        <ele>2190.293</ele>
        <time>2025-02-24T10:13:39Z</time>
      </trkpt>
      <trkpt lat="44.99115" lon="6.63591">
        <ele>2192.567</ele>
        <time>2025-02-24T10:13:49Z</time>
      </trkpt>
      <trkpt lat="44.99112" lon="6.63587">
        <ele>2193.974</ele>
        <time>2025-02-24T10:13:59Z</time>
      </trkpt>
      <trkpt lat="44.99109" lon="6.63582">
        <ele>2194.347</ele>
        <time>2025-02-24T10:14:11Z</time>
      </trkpt>
      <trkpt lat="44.99107" lon="6.63577">
        <ele>2196.218</ele>
        <time>2025-02-24T10:14:21Z</time>
      </trkpt>
      <trkpt lat="44.99105" lon="6.63572">
        <ele>2198.546</ele>
        <time>2025-02-24T10:14:31Z</time>
      </trkpt>
      <trkpt lat="44.99101" lon="6.63568">
        <ele>2196.463</ele>
        <time>2025-02-24T10:14:40Z</time>
      </trkpt>
      <trkpt lat="44.99097" lon="6.63566">
        <ele>2196.355</ele>
        <time>2025-02-24T10:14:51Z</time>
      </trkpt>
      <trkpt lat="44.99094" lon="6.63561">
        <ele>2197.844</ele>
        <time>2025-02-24T10:14:59Z</time>
      </trkpt>
      <trkpt lat="44.99092" lon="6.63556">
        <ele>2195.383</ele>
        <time>2025-02-24T10:15:06Z</time>
      </trkpt>
      <trkpt lat="44.99091" lon="6.63551">
        <ele>2192.511</ele>
        <time>2025-02-24T10:15:16Z</time>
      </trkpt>
      <trkpt lat="44.99088" lon="6.63547">
        <ele>2196.77</ele>
        <time>2025-02-24T10:15:25Z</time>
      </trkpt>
      <trkpt lat="44.99086" lon="6.63545">
        <ele>2201.104</ele>
        <time>2025-02-24T10:15:33Z</time>
      </trkpt>
      <trkpt lat="44.99083" lon="6.63542">
        <ele>2197.953</ele>
        <time>2025-02-24T10:15:43Z</time>
      </trkpt>
      <trkpt lat="44.9908" lon="6.63537">
        <ele>2198.377</ele>
        <time>2025-02-24T10:15:51Z</time>
      </trkpt>
      <trkpt lat="44.99078" lon="6.63531">
        <ele>2199.588</ele>
        <time>2025-02-24T10:16:02Z</time>
      </trkpt>
      <trkpt lat="44.99077" lon="6.63526">
        <ele>2203.588</ele>
        <time>2025-02-24T10:16:15Z</time>
      </trkpt>
      <trkpt lat="44.99075" lon="6.63521">
        <ele>2205.928</ele>
        <time>2025-02-24T10:16:26Z</time>
      </trkpt>
      <trkpt lat="44.99073" lon="6.63515">
        <ele>2209.134</ele>
        <time>2025-02-24T10:16:34Z</time>
      </trkpt>
      <trkpt lat="44.9907" lon="6.6351">
        <ele>2207.621</ele>
        <time>2025-02-24T10:16:43Z</time>
      </trkpt>
      <trkpt lat="44.99068" lon="6.63505">
        <ele>2208.301</ele>
        <time>2025-02-24T10:16:53Z</time>
      </trkpt>
      <trkpt lat="44.99065" lon="6.635">
        <ele>2206.881</ele>
        <time>2025-02-24T10:17:06Z</time>
      </trkpt>
      <trkpt lat="44.99062" lon="6.63497">
        <ele>2209.541</ele>
        <time>2025-02-24T10:17:17Z</time>
      </trkpt>
      <trkpt lat="44.99057" lon="6.63495">
        <ele>2208.964</ele>
        <time>2025-02-24T10:17:28Z</time>
      </trkpt>
      <trkpt lat="44.99054" lon="6.63492">
        <ele>2211.486</ele>
        <time>2025-02-24T10:17:37Z</time>
      </trkpt>
      <trkpt lat="44.9905" lon="6.63488">
        <ele>2212.887</ele>
        <time>2025-02-24T10:17:47Z</time>
      </trkpt>
      <trkpt lat="44.99047" lon="6.63484">
        <ele>2214.2</ele>
        <time>2025-02-24T10:17:57Z</time>
      </trkpt>
      <trkpt lat="44.99044" lon="6.63479">
        <ele>2213.217</ele>
        <time>2025-02-24T10:18:09Z</time>
      </trkpt>
      <trkpt lat="44.9904" lon="6.63475">
        <ele>2214.416</ele>
        <time>2025-02-24T10:18:19Z</time>
      </trkpt>
      <trkpt lat="44.99037" lon="6.6347">
        <ele>2215.322</ele>
        <time>2025-02-24T10:18:30Z</time>
      </trkpt>
      <trkpt lat="44.99033" lon="6.63466">
        <ele>2214.975</ele>
        <time>2025-02-24T10:18:48Z</time>
      </trkpt>
      <trkpt lat="44.99029" lon="6.63464">
        <ele>2216.927</ele>
        <time>2025-02-24T10:18:57Z</time>
      </trkpt>
      <trkpt lat="44.99025" lon="6.63462">
        <ele>2217.894</ele>
        <time>2025-02-24T10:19:14Z</time>
      </trkpt>
      <trkpt lat="44.99021" lon="6.6346">
        <ele>2217.966</ele>
        <time>2025-02-24T10:19:24Z</time>
      </trkpt>
      <trkpt lat="44.99017" lon="6.63458">
        <ele>2220.466</ele>
        <time>2025-02-24T10:19:34Z</time>
      </trkpt>
      <trkpt lat="44.99012" lon="6.63456">
        <ele>2220.099</ele>
        <time>2025-02-24T10:19:43Z</time>
      </trkpt>
      <trkpt lat="44.99008" lon="6.63453">
        <ele>2221.945</ele>
        <time>2025-02-24T10:19:58Z</time>
      </trkpt>
      <trkpt lat="44.99005" lon="6.6345">
        <ele>2225.082</ele>
        <time>2025-02-24T10:20:05Z</time>
      </trkpt>
      <trkpt lat="44.99" lon="6.63449">
        <ele>2223.679</ele>
        <time>2025-02-24T10:20:17Z</time>
      </trkpt>
      <trkpt lat="44.98997" lon="6.63446">
        <ele>2225.427</ele>
        <time>2025-02-24T10:20:28Z</time>
      </trkpt>
      <trkpt lat="44.98993" lon="6.63442">
        <ele>2226.598</ele>
        <time>2025-02-24T10:20:37Z</time>
      </trkpt>
      <trkpt lat="44.98989" lon="6.63438">
        <ele>2228.53</ele>
        <time>2025-02-24T10:20:49Z</time>
      </trkpt>
      <trkpt lat="44.98985" lon="6.63435">
        <ele>2228.222</ele>
        <time>2025-02-24T10:20:57Z</time>
      </trkpt>
      <trkpt lat="44.98981" lon="6.63432">
        <ele>2230.558</ele>
        <time>2025-02-24T10:21:11Z</time>
      </trkpt>
      <trkpt lat="44.98978" lon="6.63427">
        <ele>2229.622</ele>
        <time>2025-02-24T10:21:20Z</time>
      </trkpt>
      <trkpt lat="44.98974" lon="6.63424">
        <ele>2228.857</ele>
        <time>2025-02-24T10:21:32Z</time>
      </trkpt>
      <trkpt lat="44.9897" lon="6.63423">
        <ele>2227.583</ele>
        <time>2025-02-24T10:21:44Z</time>
      </trkpt>
      <trkpt lat="44.98965" lon="6.63421">
        <ele>2227.033</ele>
        <time>2025-02-24T10:21:54Z</time>
      </trkpt>
      <trkpt lat="44.98961" lon="6.63419">
        <ele>2227.44</ele>
        <time>2025-02-24T10:22:06Z</time>
      </trkpt>
      <trkpt lat="44.98957" lon="6.63416">
        <ele>2228.701</ele>
        <time>2025-02-24T10:22:19Z</time>
      </trkpt>
      <trkpt lat="44.98952" lon="6.63413">
        <ele>2228.269</ele>
        <time>2025-02-24T10:22:31Z</time>
      </trkpt>
      <trkpt lat="44.9895" lon="6.63409">
        <ele>2231.235</ele>
        <time>2025-02-24T10:22:44Z</time>
      </trkpt>
      <trkpt lat="44.98946" lon="6.63407">
        <ele>2234.525</ele>
        <time>2025-02-24T10:22:52Z</time>
      </trkpt>
      <trkpt lat="44.98942" lon="6.63405">
        <ele>2234.381</ele>
        <time>2025-02-24T10:23:04Z</time>
      </trkpt>
      <trkpt lat="44.98937" lon="6.63404">
        <ele>2233.529</ele>
        <time>2025-02-24T10:23:17Z</time>
      </trkpt>
      <trkpt lat="44.98933" lon="6.63402">
        <ele>2234.249</ele>
        <time>2025-02-24T10:23:28Z</time>
      </trkpt>
      <trkpt lat="44.98929" lon="6.63399">
        <ele>2234.661</ele>
        <time>2025-02-24T10:23:38Z</time>
      </trkpt>
      <trkpt lat="44.98924" lon="6.63397">
        <ele>2234.778</ele>
        <time>2025-02-24T10:23:50Z</time>
      </trkpt>
      <trkpt lat="44.9892" lon="6.63395">
        <ele>2237.314</ele>
        <time>2025-02-24T10:24:04Z</time>
      </trkpt>
      <trkpt lat="44.98917" lon="6.63391">
        <ele>2239.411</ele>
        <time>2025-02-24T10:24:15Z</time>
      </trkpt>
      <trkpt lat="44.98913" lon="6.63388">
        <ele>2240.941</ele>
        <time>2025-02-24T10:24:30Z</time>
      </trkpt>
      <trkpt lat="44.98909" lon="6.63384">
        <ele>2241.863</ele>
        <time>2025-02-24T10:24:43Z</time>
      </trkpt>
      <trkpt lat="44.98905" lon="6.63381">
        <ele>2242.587</ele>
        <time>2025-02-24T10:24:53Z</time>
      </trkpt>
      <trkpt lat="44.98901" lon="6.63378">
        <ele>2240.1</ele>
        <time>2025-02-24T10:25:06Z</time>
      </trkpt>
      <trkpt lat="44.98897" lon="6.63377">
        <ele>2244.036</ele>
        <time>2025-02-24T10:25:16Z</time>
      </trkpt>
      <trkpt lat="44.98894" lon="6.63373">
        <ele>2246.069</ele>
        <time>2025-02-24T10:25:29Z</time>
      </trkpt>
      <trkpt lat="44.9889" lon="6.63371">
        <ele>2246.509</ele>
        <time>2025-02-24T10:25:42Z</time>
      </trkpt>
      <trkpt lat="44.98885" lon="6.63369">
        <ele>2247.417</ele>
        <time>2025-02-24T10:25:55Z</time>
      </trkpt>
      <trkpt lat="44.9888" lon="6.63369">
        <ele>2248.355</ele>
        <time>2025-02-24T10:26:03Z</time>
      </trkpt>
      <trkpt lat="44.98876" lon="6.63368">
        <ele>2248.457</ele>
        <time>2025-02-24T10:26:17Z</time>
      </trkpt>
      <trkpt lat="44.98871" lon="6.63367">
        <ele>2250.406</ele>
        <time>2025-02-24T10:26:27Z</time>
      </trkpt>
      <trkpt lat="44.98868" lon="6.63365">
        <ele>2253.601</ele>
        <time>2025-02-24T10:26:39Z</time>
      </trkpt>
      <trkpt lat="44.98863" lon="6.63365">
        <ele>2255.08</ele>
        <time>2025-02-24T10:26:51Z</time>
      </trkpt>
      <trkpt lat="44.98859" lon="6.63365">
        <ele>2255.948</ele>
        <time>2025-02-24T10:27:01Z</time>
      </trkpt>
      <trkpt lat="44.98854" lon="6.63364">
        <ele>2256.422</ele>
        <time>2025-02-24T10:27:14Z</time>
      </trkpt>
      <trkpt lat="44.98854" lon="6.63364">
        <ele>2257.298</ele>
        <time>2025-02-24T10:27:35Z</time>
      </trkpt>
      <trkpt lat="44.98854" lon="6.63364">
        <ele>2257.05</ele>
        <time>2025-02-24T10:27:56Z</time>
      </trkpt>
      <trkpt lat="44.98854" lon="6.63364">
        <ele>2257.396</ele>
        <time>2025-02-24T10:28:17Z</time>
      </trkpt>
      <trkpt lat="44.98854" lon="6.63364">
        <ele>2258.031</ele>
        <time>2025-02-24T10:28:37Z</time>
      </trkpt>
      <trkpt lat="44.98854" lon="6.63364">
        <ele>2258.025</ele>
        <time>2025-02-24T10:28:58Z</time>
      </trkpt>
      <trkpt lat="44.98854" lon="6.63364">
        <ele>2258.295</ele>
        <time>2025-02-24T10:29:18Z</time>
      </trkpt>
      <trkpt lat="44.98854" lon="6.63364">
        <ele>2258.29</ele>
        <time>2025-02-24T10:29:39Z</time>
      </trkpt>
      <trkpt lat="44.98854" lon="6.63364">
        <ele>2258.681</ele>
        <time>2025-02-24T10:29:59Z</time>
      </trkpt>
      <trkpt lat="44.98854" lon="6.63364">
        <ele>2258.723</ele>
        <time>2025-02-24T10:30:20Z</time>
      </trkpt>
      <trkpt lat="44.98854" lon="6.63364">
        <ele>2259.179</ele>
        <time>2025-02-24T10:30:40Z</time>
      </trkpt>
      <trkpt lat="44.98854" lon="6.63364">
        <ele>2259.191</ele>
        <time>2025-02-24T10:31:00Z</time>
      </trkpt>
      <trkpt lat="44.98854" lon="6.63364">
        <ele>2259.185</ele>
        <time>2025-02-24T10:31:21Z</time>
      </trkpt>
      <trkpt lat="44.98854" lon="6.63364">
        <ele>2259.211</ele>
        <time>2025-02-24T10:31:42Z</time>
      </trkpt>
      <trkpt lat="44.98851" lon="6.63361">
        <ele>2257.562</ele>
        <time>2025-02-24T10:31:59Z</time>
      </trkpt>
      <trkpt lat="44.98846" lon="6.6336">
        <ele>2257.357</ele>
        <time>2025-02-24T10:32:11Z</time>
      </trkpt>
      <trkpt lat="44.98841" lon="6.63361">
        <ele>2258.553</ele>
        <time>2025-02-24T10:32:22Z</time>
      </trkpt>
      <trkpt lat="44.98837" lon="6.63361">
        <ele>2260.801</ele>
        <time>2025-02-24T10:32:36Z</time>
      </trkpt>
      <trkpt lat="44.98833" lon="6.63362">
        <ele>2261.255</ele>
        <time>2025-02-24T10:32:48Z</time>
      </trkpt>
      <trkpt lat="44.98829" lon="6.63365">
        <ele>2261.142</ele>
        <time>2025-02-24T10:32:58Z</time>
      </trkpt>
      <trkpt lat="44.98825" lon="6.63366">
        <ele>2265.615</ele>
        <time>2025-02-24T10:33:06Z</time>
      </trkpt>
      <trkpt lat="44.9882" lon="6.63364">
        <ele>2265.379</ele>
        <time>2025-02-24T10:33:19Z</time>
      </trkpt>
      <trkpt lat="44.98815" lon="6.63363">
        <ele>2265.734</ele>
        <time>2025-02-24T10:33:37Z</time>
      </trkpt>
      <trkpt lat="44.98811" lon="6.63364">
        <ele>2265.449</ele>
        <time>2025-02-24T10:33:48Z</time>
      </trkpt>
      <trkpt lat="44.9881" lon="6.63363">
        <ele>2270.975</ele>
        <time>2025-02-24T10:33:53Z</time>
      </trkpt>
      <trkpt lat="44.98806" lon="6.63363">
        <ele>2269.37</ele>
        <time>2025-02-24T10:34:08Z</time>
      </trkpt>
      <trkpt lat="44.98803" lon="6.63366">
        <ele>2271.546</ele>
        <time>2025-02-24T10:34:28Z</time>
      </trkpt>
      <trkpt lat="44.988" lon="6.63372">
        <ele>2271.641</ele>
        <time>2025-02-24T10:34:41Z</time>
      </trkpt>
      <trkpt lat="44.98797" lon="6.63373">
        <ele>2271.59</ele>
        <time>2025-02-24T10:35:01Z</time>
      </trkpt>
      <trkpt lat="44.98797" lon="6.63379">
        <ele>2273.532</ele>
        <time>2025-02-24T10:35:09Z</time>
      </trkpt>
      <trkpt lat="44.98798" lon="6.63384">
        <ele>2275.032</ele>
        <time>2025-02-24T10:35:29Z</time>
      </trkpt>
      <trkpt lat="44.98797" lon="6.63386">
        <ele>2275.98</ele>
        <time>2025-02-24T10:35:49Z</time>
      </trkpt>
      <trkpt lat="44.98793" lon="6.63382">
        <ele>2276.767</ele>
        <time>2025-02-24T10:36:01Z</time>
      </trkpt>
      <trkpt lat="44.9879" lon="6.63376">
        <ele>2277.025</ele>
        <time>2025-02-24T10:36:19Z</time>
      </trkpt>
      <trkpt lat="44.98785" lon="6.6338">
        <ele>2277.198</ele>
        <time>2025-02-24T10:36:27Z</time>
      </trkpt>
      <trkpt lat="44.98784" lon="6.63373">
        <ele>2275.809</ele>
        <time>2025-02-24T10:36:42Z</time>
      </trkpt>
      <trkpt lat="44.98783" lon="6.63368">
        <ele>2278.76</ele>
        <time>2025-02-24T10:36:49Z</time>
      </trkpt>
      <trkpt lat="44.98782" lon="6.63364">
        <ele>2276.741</ele>
        <time>2025-02-24T10:37:10Z</time>
      </trkpt>
      <trkpt lat="44.98779" lon="6.6336">
        <ele>2279.174</ele>
        <time>2025-02-24T10:37:30Z</time>
      </trkpt>
      <trkpt lat="44.98775" lon="6.6336">
        <ele>2281.05</ele>
        <time>2025-02-24T10:37:45Z</time>
      </trkpt>
      <trkpt lat="44.98771" lon="6.63356">
        <ele>2279.171</ele>
        <time>2025-02-24T10:37:55Z</time>
      </trkpt>
      <trkpt lat="44.98771" lon="6.63356">
        <ele>2280.558</ele>
        <time>2025-02-24T10:38:15Z</time>
      </trkpt>
      <trkpt lat="44.98771" lon="6.63356">
        <ele>2282.575</ele>
        <time>2025-02-24T10:38:33Z</time>
      </trkpt>
      <trkpt lat="44.98771" lon="6.63356">
        <ele>2283.584</ele>
        <time>2025-02-24T10:38:54Z</time>
      </trkpt>
      <trkpt lat="44.98771" lon="6.63356">
        <ele>2284.284</ele>
        <time>2025-02-24T10:39:15Z</time>
      </trkpt>
      <trkpt lat="44.98771" lon="6.63356">
        <ele>2284.82</ele>
        <time>2025-02-24T10:39:35Z</time>
      </trkpt>
      <trkpt lat="44.98771" lon="6.63356">
        <ele>2284.944</ele>
        <time>2025-02-24T10:39:55Z</time>
      </trkpt>
      <trkpt lat="44.98771" lon="6.63356">
        <ele>2285.285</ele>
        <time>2025-02-24T10:40:16Z</time>
      </trkpt>
      <trkpt lat="44.98766" lon="6.63363">
        <ele>2285.932</ele>
        <time>2025-02-24T10:40:36Z</time>
      </trkpt>
      <trkpt lat="44.98762" lon="6.63362">
        <ele>2287.962</ele>
        <time>2025-02-24T10:40:57Z</time>
      </trkpt>
      <trkpt lat="44.98757" lon="6.63361">
        <ele>2287.84</ele>
        <time>2025-02-24T10:41:09Z</time>
      </trkpt>
      <trkpt lat="44.98752" lon="6.63363">
        <ele>2289.018</ele>
        <time>2025-02-24T10:41:25Z</time>
      </trkpt>
      <trkpt lat="44.98748" lon="6.63365">
        <ele>2287.456</ele>
        <time>2025-02-24T10:41:39Z</time>
      </trkpt>
      <trkpt lat="44.98745" lon="6.63362">
        <ele>2290.862</ele>
        <time>2025-02-24T10:41:52Z</time>
      </trkpt>
      <trkpt lat="44.98741" lon="6.63364">
        <ele>2291.091</ele>
        <time>2025-02-24T10:42:09Z</time>
      </trkpt>
      <trkpt lat="44.98736" lon="6.63365">
        <ele>2292.031</ele>
        <time>2025-02-24T10:42:23Z</time>
      </trkpt>
      <trkpt lat="44.98732" lon="6.63364">
        <ele>2293.008</ele>
        <time>2025-02-24T10:42:42Z</time>
      </trkpt>
      <trkpt lat="44.98728" lon="6.63361">
        <ele>2295.23</ele>
        <time>2025-02-24T10:42:57Z</time>
      </trkpt>
      <trkpt lat="44.98727" lon="6.63357">
        <ele>2298.092</ele>
        <time>2025-02-24T10:43:17Z</time>
      </trkpt>
      <trkpt lat="44.98724" lon="6.63353">
        <ele>2300.587</ele>
        <time>2025-02-24T10:43:29Z</time>
      </trkpt>
      <trkpt lat="44.98721" lon="6.6335">
        <ele>2303.437</ele>
        <time>2025-02-24T10:43:49Z</time>
      </trkpt>
      <trkpt lat="44.98717" lon="6.63347">
        <ele>2303.607</ele>
        <time>2025-02-24T10:44:05Z</time>
      </trkpt>
      <trkpt lat="44.98715" lon="6.63344">
        <ele>2305.168</ele>
        <time>2025-02-24T10:44:26Z</time>
      </trkpt>
      <trkpt lat="44.98715" lon="6.63344">
        <ele>2305.08</ele>
        <time>2025-02-24T10:44:46Z</time>
      </trkpt>
      <trkpt lat="44.98715" lon="6.63344">
        <ele>2306.284</ele>
        <time>2025-02-24T10:45:06Z</time>
      </trkpt>
      <trkpt lat="44.98714" lon="6.63344">
        <ele>2306.307</ele>
        <time>2025-02-24T10:45:27Z</time>
      </trkpt>
      <trkpt lat="44.98714" lon="6.63344">
        <ele>2306.283</ele>
        <time>2025-02-24T10:45:47Z</time>
      </trkpt>
      <trkpt lat="44.98714" lon="6.63344">
        <ele>2306.324</ele>
        <time>2025-02-24T10:46:08Z</time>
      </trkpt>
      <trkpt lat="44.98714" lon="6.63344">
        <ele>2306.263</ele>
        <time>2025-02-24T10:46:29Z</time>
      </trkpt>
      <trkpt lat="44.98711" lon="6.63344">
        <ele>2309.11</ele>
        <time>2025-02-24T10:46:49Z</time>
      </trkpt>
      <trkpt lat="44.98707" lon="6.63342">
        <ele>2311.376</ele>
        <time>2025-02-24T10:47:04Z</time>
      </trkpt>
      <trkpt lat="44.98702" lon="6.6334">
        <ele>2310.212</ele>
        <time>2025-02-24T10:47:19Z</time>
      </trkpt>
      <trkpt lat="44.98699" lon="6.63336">
        <ele>2312.933</ele>
        <time>2025-02-24T10:47:35Z</time>
      </trkpt>
      <trkpt lat="44.98698" lon="6.6334">
        <ele>2315.701</ele>
        <time>2025-02-24T10:47:55Z</time>
      </trkpt>
      <trkpt lat="44.98694" lon="6.63345">
        <ele>2317.583</ele>
        <time>2025-02-24T10:48:08Z</time>
      </trkpt>
      <trkpt lat="44.98691" lon="6.6335">
        <ele>2317.914</ele>
        <time>2025-02-24T10:48:22Z</time>
      </trkpt>
      <trkpt lat="44.98688" lon="6.63355">
        <ele>2320.843</ele>
        <time>2025-02-24T10:48:38Z</time>
      </trkpt>
      <trkpt lat="44.98684" lon="6.63356">
        <ele>2318.764</ele>
        <time>2025-02-24T10:48:50Z</time>
      </trkpt>
      <trkpt lat="44.98681" lon="6.63351">
        <ele>2320.002</ele>
        <time>2025-02-24T10:49:03Z</time>
      </trkpt>
      <trkpt lat="44.98677" lon="6.63348">
        <ele>2321.924</ele>
        <time>2025-02-24T10:49:18Z</time>
      </trkpt>
      <trkpt lat="44.98673" lon="6.63345">
        <ele>2323.449</ele>
        <time>2025-02-24T10:49:28Z</time>
      </trkpt>
      <trkpt lat="44.98668" lon="6.63342">
        <ele>2324.023</ele>
        <time>2025-02-24T10:49:44Z</time>
      </trkpt>
      <trkpt lat="44.98665" lon="6.63345">
        <ele>2325.59</ele>
        <time>2025-02-24T10:50:03Z</time>
      </trkpt>
      <trkpt lat="44.98662" lon="6.6335">
        <ele>2324.265</ele>
        <time>2025-02-24T10:50:22Z</time>
      </trkpt>
      <trkpt lat="44.98659" lon="6.63354">
        <ele>2325.754</ele>
        <time>2025-02-24T10:50:34Z</time>
      </trkpt>
      <trkpt lat="44.98656" lon="6.63359">
        <ele>2327.074</ele>
        <time>2025-02-24T10:50:54Z</time>
      </trkpt>
      <trkpt lat="44.98658" lon="6.63365">
        <ele>2329.434</ele>
        <time>2025-02-24T10:51:08Z</time>
      </trkpt>
      <trkpt lat="44.98656" lon="6.6337">
        <ele>2332.353</ele>
        <time>2025-02-24T10:51:22Z</time>
      </trkpt>
      <trkpt lat="44.98652" lon="6.63369">
        <ele>2335.165</ele>
        <time>2025-02-24T10:51:40Z</time>
      </trkpt>
      <trkpt lat="44.98647" lon="6.63369">
        <ele>2335.194</ele>
        <time>2025-02-24T10:51:50Z</time>
      </trkpt>
      <trkpt lat="44.98643" lon="6.63368">
        <ele>2334.415</ele>
        <time>2025-02-24T10:52:03Z</time>
      </trkpt>
      <trkpt lat="44.9864" lon="6.63368">
        <ele>2338.937</ele>
        <time>2025-02-24T10:52:19Z</time>
      </trkpt>
      <trkpt lat="44.98635" lon="6.63366">
        <ele>2338.555</ele>
        <time>2025-02-24T10:52:39Z</time>
      </trkpt>
      <trkpt lat="44.9863" lon="6.63363">
        <ele>2337.384</ele>
        <time>2025-02-24T10:52:50Z</time>
      </trkpt>
      <trkpt lat="44.98628" lon="6.63357">
        <ele>2337.661</ele>
        <time>2025-02-24T10:53:01Z</time>
      </trkpt>
      <trkpt lat="44.98623" lon="6.6336">
        <ele>2338.689</ele>
        <time>2025-02-24T10:53:12Z</time>
      </trkpt>
      <trkpt lat="44.98619" lon="6.63357">
        <ele>2336.758</ele>
        <time>2025-02-24T10:53:28Z</time>
      </trkpt>
      <trkpt lat="44.9862" lon="6.6335">
        <ele>2338.494</ele>
        <time>2025-02-24T10:53:40Z</time>
      </trkpt>
      <trkpt lat="44.98621" lon="6.63346">
        <ele>2342.867</ele>
        <time>2025-02-24T10:53:46Z</time>
      </trkpt>
      <trkpt lat="44.98621" lon="6.63346">
        <ele>2339.316</ele>
        <time>2025-02-24T10:54:06Z</time>
      </trkpt>
      <trkpt lat="44.98621" lon="6.63346">
        <ele>2339.954</ele>
        <time>2025-02-24T10:54:16Z</time>
      </trkpt>
      <trkpt lat="44.98621" lon="6.63346">
        <ele>2340.957</ele>
        <time>2025-02-24T10:54:24Z</time>
      </trkpt>
      <trkpt lat="44.98621" lon="6.63346">
        <ele>2343.213</ele>
        <time>2025-02-24T10:54:40Z</time>
      </trkpt>
      <trkpt lat="44.98621" lon="6.63346">
        <ele>2344.007</ele>
        <time>2025-02-24T10:54:51Z</time>
      </trkpt>
      <trkpt lat="44.98618" lon="6.63342">
        <ele>2347.006</ele>
        <time>2025-02-24T10:55:04Z</time>
      </trkpt>
      <trkpt lat="44.98618" lon="6.63339">
        <ele>2349.647</ele>
        <time>2025-02-24T10:55:24Z</time>
      </trkpt>
      <trkpt lat="44.98615" lon="6.63336">
        <ele>2352.128</ele>
        <time>2025-02-24T10:55:39Z</time>
      </trkpt>
      <trkpt lat="44.98611" lon="6.63331">
        <ele>2352.241</ele>
        <time>2025-02-24T10:55:58Z</time>
      </trkpt>
      <trkpt lat="44.98608" lon="6.63328">
        <ele>2354.163</ele>
        <time>2025-02-24T10:56:10Z</time>
      </trkpt>
      <trkpt lat="44.98605" lon="6.63322">
        <ele>2354.866</ele>
        <time>2025-02-24T10:56:22Z</time>
      </trkpt>
      <trkpt lat="44.98603" lon="6.63316">
        <ele>2356.085</ele>
        <time>2025-02-24T10:56:33Z</time>
      </trkpt>
      <trkpt lat="44.98602" lon="6.6331">
        <ele>2355.256</ele>
        <time>2025-02-24T10:56:52Z</time>
      </trkpt>
      <trkpt lat="44.986" lon="6.63308">
        <ele>2354.825</ele>
        <time>2025-02-24T10:57:13Z</time>
      </trkpt>
      <trkpt lat="44.986" lon="6.63308">
        <ele>2354.503</ele>
        <time>2025-02-24T10:57:33Z</time>
      </trkpt>
      <trkpt lat="44.986" lon="6.63308">
        <ele>2354.944</ele>
        <time>2025-02-24T10:57:54Z</time>
      </trkpt>
      <trkpt lat="44.986" lon="6.63308">
        <ele>2354.988</ele>
        <time>2025-02-24T10:58:15Z</time>
      </trkpt>
      <trkpt lat="44.986" lon="6.63308">
        <ele>2354.636</ele>
        <time>2025-02-24T10:58:35Z</time>
      </trkpt>
      <trkpt lat="44.98601" lon="6.63304">
        <ele>2355.339</ele>
        <time>2025-02-24T10:58:56Z</time>
      </trkpt>
      <trkpt lat="44.98597" lon="6.63301">
        <ele>2354.989</ele>
        <time>2025-02-24T10:59:03Z</time>
      </trkpt>
      <trkpt lat="44.98595" lon="6.63296">
        <ele>2357.486</ele>
        <time>2025-02-24T10:59:16Z</time>
      </trkpt>
      <trkpt lat="44.9859" lon="6.63294">
        <ele>2356.396</ele>
        <time>2025-02-24T10:59:27Z</time>
      </trkpt>
      <trkpt lat="44.98586" lon="6.63291">
        <ele>2358.519</ele>
        <time>2025-02-24T10:59:40Z</time>
      </trkpt>
      <trkpt lat="44.98583" lon="6.63287">
        <ele>2358.415</ele>
        <time>2025-02-24T10:59:49Z</time>
      </trkpt>
      <trkpt lat="44.9858" lon="6.63282">
        <ele>2359.38</ele>
        <time>2025-02-24T11:00:09Z</time>
      </trkpt>
      <trkpt lat="44.98577" lon="6.63278">
        <ele>2361.196</ele>
        <time>2025-02-24T11:00:22Z</time>
      </trkpt>
      <trkpt lat="44.98574" lon="6.63275">
        <ele>2364.769</ele>
        <time>2025-02-24T11:00:38Z</time>
      </trkpt>
      <trkpt lat="44.98573" lon="6.63281">
        <ele>2364.486</ele>
        <time>2025-02-24T11:00:53Z</time>
      </trkpt>
      <trkpt lat="44.98573" lon="6.63287">
        <ele>2366.849</ele>
        <time>2025-02-24T11:01:04Z</time>
      </trkpt>
      <trkpt lat="44.98573" lon="6.63294">
        <ele>2367.828</ele>
        <time>2025-02-24T11:01:17Z</time>
      </trkpt>
      <trkpt lat="44.98572" lon="6.633">
        <ele>2369.647</ele>
        <time>2025-02-24T11:01:29Z</time>
      </trkpt>
      <trkpt lat="44.98573" lon="6.63304">
        <ele>2371.554</ele>
        <time>2025-02-24T11:01:49Z</time>
      </trkpt>
      <trkpt lat="44.98571" lon="6.63311">
        <ele>2371.48</ele>
        <time>2025-02-24T11:02:04Z</time>
      </trkpt>
      <trkpt lat="44.9857" lon="6.63317">
        <ele>2373.288</ele>
        <time>2025-02-24T11:02:16Z</time>
      </trkpt>
      <trkpt lat="44.98568" lon="6.63322">
        <ele>2374.809</ele>
        <time>2025-02-24T11:02:36Z</time>
      </trkpt>
      <trkpt lat="44.98563" lon="6.63321">
        <ele>2375.781</ele>
        <time>2025-02-24T11:02:57Z</time>
      </trkpt>
      <trkpt lat="44.98562" lon="6.63315">
        <ele>2377.877</ele>
        <time>2025-02-24T11:03:12Z</time>
      </trkpt>
      <trkpt lat="44.98558" lon="6.63312">
        <ele>2378.944</ele>
        <time>2025-02-24T11:03:22Z</time>
      </trkpt>
      <trkpt lat="44.98556" lon="6.63311">
        <ele>2379.375</ele>
        <time>2025-02-24T11:03:43Z</time>
      </trkpt>
      <trkpt lat="44.98553" lon="6.63306">
        <ele>2379.644</ele>
        <time>2025-02-24T11:03:54Z</time>
      </trkpt>
      <trkpt lat="44.98549" lon="6.63303">
        <ele>2378.571</ele>
        <time>2025-02-24T11:04:07Z</time>
      </trkpt>
      <trkpt lat="44.98546" lon="6.63302">
        <ele>2377.24</ele>
        <time>2025-02-24T11:04:28Z</time>
      </trkpt>
      <trkpt lat="44.98545" lon="6.63304">
        <ele>2375.862</ele>
        <time>2025-02-24T11:04:48Z</time>
      </trkpt>
      <trkpt lat="44.98548" lon="6.63309">
        <ele>2379.484</ele>
        <time>2025-02-24T11:04:54Z</time>
      </trkpt>
      <trkpt lat="44.9855" lon="6.63314">
        <ele>2381.663</ele>
        <time>2025-02-24T11:05:14Z</time>
      </trkpt>
      <trkpt lat="44.98551" lon="6.6332">
        <ele>2384.592</ele>
        <time>2025-02-24T11:05:26Z</time>
      </trkpt>
      <trkpt lat="44.98551" lon="6.63323">
        <ele>2384.376</ele>
        <time>2025-02-24T11:05:46Z</time>
      </trkpt>
      <trkpt lat="44.98551" lon="6.6333">
        <ele>2385.967</ele>
        <time>2025-02-24T11:05:59Z</time>
      </trkpt>
      <trkpt lat="44.9855" lon="6.63332">
        <ele>2388.702</ele>
        <time>2025-02-24T11:06:19Z</time>
      </trkpt>
      <trkpt lat="44.98546" lon="6.63331">
        <ele>2389.646</ele>
        <time>2025-02-24T11:06:25Z</time>
      </trkpt>
      <trkpt lat="44.98543" lon="6.63326">
        <ele>2391.253</ele>
        <time>2025-02-24T11:06:33Z</time>
      </trkpt>
      <trkpt lat="44.98539" lon="6.63322">
        <ele>2390.334</ele>
        <time>2025-02-24T11:06:48Z</time>
      </trkpt>
      <trkpt lat="44.98535" lon="6.63318">
        <ele>2391.384</ele>
        <time>2025-02-24T11:07:04Z</time>
      </trkpt>
      <trkpt lat="44.98535" lon="6.63312">
        <ele>2390.915</ele>
        <time>2025-02-24T11:07:24Z</time>
      </trkpt>
      <trkpt lat="44.98532" lon="6.63308">
        <ele>2391.499</ele>
        <time>2025-02-24T11:07:42Z</time>
      </trkpt>
      <trkpt lat="44.98533" lon="6.63311">
        <ele>2391.076</ele>
        <time>2025-02-24T11:08:02Z</time>
      </trkpt>
      <trkpt lat="44.98536" lon="6.63315">
        <ele>2392.844</ele>
        <time>2025-02-24T11:08:18Z</time>
      </trkpt>
      <trkpt lat="44.98538" lon="6.63323">
        <ele>2394.482</ele>
        <time>2025-02-24T11:08:34Z</time>
      </trkpt>
      <trkpt lat="44.98539" lon="6.63329">
        <ele>2396.182</ele>
        <time>2025-02-24T11:08:48Z</time>
      </trkpt>
      <trkpt lat="44.98539" lon="6.63335">
        <ele>2397.514</ele>
        <time>2025-02-24T11:09:01Z</time>
      </trkpt>
      <trkpt lat="44.98539" lon="6.63342">
        <ele>2398.237</ele>
        <time>2025-02-24T11:09:16Z</time>
      </trkpt>
      <trkpt lat="44.98541" lon="6.63347">
        <ele>2400.651</ele>
        <time>2025-02-24T11:09:29Z</time>
      </trkpt>
      <trkpt lat="44.98543" lon="6.63352">
        <ele>2404.152</ele>
        <time>2025-02-24T11:09:43Z</time>
      </trkpt>
      <trkpt lat="44.98543" lon="6.63359">
        <ele>2406.212</ele>
        <time>2025-02-24T11:09:59Z</time>
      </trkpt>
      <trkpt lat="44.98543" lon="6.63363">
        <ele>2405.54</ele>
        <time>2025-02-24T11:10:19Z</time>
      </trkpt>
      <trkpt lat="44.98541" lon="6.63366">
        <ele>2405.916</ele>
        <time>2025-02-24T11:10:40Z</time>
      </trkpt>
      <trkpt lat="44.9854" lon="6.6337">
        <ele>2407.243</ele>
        <time>2025-02-24T11:11:01Z</time>
      </trkpt>
      <trkpt lat="44.9854" lon="6.63373">
        <ele>2408.04</ele>
        <time>2025-02-24T11:11:21Z</time>
      </trkpt>
      <trkpt lat="44.98539" lon="6.63375">
        <ele>2408.153</ele>
        <time>2025-02-24T11:11:42Z</time>
      </trkpt>
      <trkpt lat="44.98538" lon="6.63376">
        <ele>2409.478</ele>
        <time>2025-02-24T11:12:03Z</time>
      </trkpt>
      <trkpt lat="44.98537" lon="6.63377">
        <ele>2409.816</ele>
        <time>2025-02-24T11:12:24Z</time>
      </trkpt>
      <trkpt lat="44.98538" lon="6.63379">
        <ele>2411.401</ele>
        <time>2025-02-24T11:12:45Z</time>
      </trkpt>
      <trkpt lat="44.98538" lon="6.63379">
        <ele>2411.592</ele>
        <time>2025-02-24T11:13:06Z</time>
      </trkpt>
      <trkpt lat="44.98538" lon="6.63379">
        <ele>2412.131</ele>
        <time>2025-02-24T11:13:26Z</time>
      </trkpt>
      <trkpt lat="44.98538" lon="6.63379">
        <ele>2412.537</ele>
        <time>2025-02-24T11:13:46Z</time>
      </trkpt>
      <trkpt lat="44.98538" lon="6.63379">
        <ele>2411.973</ele>
        <time>2025-02-24T11:14:06Z</time>
      </trkpt>
      <trkpt lat="44.98535" lon="6.63387">
        <ele>2414.051</ele>
        <time>2025-02-24T11:14:27Z</time>
      </trkpt>
      <trkpt lat="44.98535" lon="6.63392">
        <ele>2416.677</ele>
        <time>2025-02-24T11:14:40Z</time>
      </trkpt>
      <trkpt lat="44.98534" lon="6.63399">
        <ele>2417.764</ele>
        <time>2025-02-24T11:14:52Z</time>
      </trkpt>
      <trkpt lat="44.98531" lon="6.63405">
        <ele>2418.129</ele>
        <time>2025-02-24T11:15:02Z</time>
      </trkpt>
      <trkpt lat="44.98528" lon="6.63405">
        <ele>2416.968</ele>
        <time>2025-02-24T11:15:23Z</time>
      </trkpt>
      <trkpt lat="44.98528" lon="6.63408">
        <ele>2418.574</ele>
        <time>2025-02-24T11:15:44Z</time>
      </trkpt>
      <trkpt lat="44.98528" lon="6.63408">
        <ele>2420.428</ele>
        <time>2025-02-24T11:16:04Z</time>
      </trkpt>
      <trkpt lat="44.98528" lon="6.63408">
        <ele>2421.59</ele>
        <time>2025-02-24T11:16:25Z</time>
      </trkpt>
      <trkpt lat="44.98528" lon="6.63408">
        <ele>2421.629</ele>
        <time>2025-02-24T11:16:45Z</time>
      </trkpt>
      <trkpt lat="44.98528" lon="6.63408">
        <ele>2422.343</ele>
        <time>2025-02-24T11:17:06Z</time>
      </trkpt>
      <trkpt lat="44.98528" lon="6.63408">
        <ele>2425.071</ele>
        <time>2025-02-24T11:17:25Z</time>
      </trkpt>
      <trkpt lat="44.98528" lon="6.63408">
        <ele>2427.619</ele>
        <time>2025-02-24T11:17:35Z</time>
      </trkpt>
      <trkpt lat="44.98528" lon="6.63408">
        <ele>2425.932</ele>
        <time>2025-02-24T11:17:54Z</time>
      </trkpt>
      <trkpt lat="44.98528" lon="6.63408">
        <ele>2424.474</ele>
        <time>2025-02-24T11:18:14Z</time>
      </trkpt>
      <trkpt lat="44.98528" lon="6.63408">
        <ele>2423.942</ele>
        <time>2025-02-24T11:18:28Z</time>
      </trkpt>
      <trkpt lat="44.98518" lon="6.6342">
        <ele>2420.641</ele>
        <time>2025-02-24T11:18:32Z</time>
      </trkpt>
      <trkpt lat="44.98513" lon="6.63421">
        <ele>2419.707</ele>
        <time>2025-02-24T11:18:41Z</time>
      </trkpt>
      <trkpt lat="44.9851" lon="6.63416">
        <ele>2421.892</ele>
        <time>2025-02-24T11:18:53Z</time>
      </trkpt>
      <trkpt lat="44.98508" lon="6.6341">
        <ele>2422.791</ele>
        <time>2025-02-24T11:19:13Z</time>
      </trkpt>
      <trkpt lat="44.9851" lon="6.63407">
        <ele>2424.089</ele>
        <time>2025-02-24T11:19:34Z</time>
      </trkpt>
      <trkpt lat="44.9851" lon="6.63404">
        <ele>2424.197</ele>
        <time>2025-02-24T11:19:55Z</time>
      </trkpt>
      <trkpt lat="44.98506" lon="6.63402">
        <ele>2426.217</ele>
        <time>2025-02-24T11:20:13Z</time>
      </trkpt>
      <trkpt lat="44.98506" lon="6.63402">
        <ele>2429.526</ele>
        <time>2025-02-24T11:20:33Z</time>
      </trkpt>
      <trkpt lat="44.98506" lon="6.63402">
        <ele>2430.044</ele>
        <time>2025-02-24T11:20:54Z</time>
      </trkpt>
      <trkpt lat="44.98506" lon="6.63402">
        <ele>2430.9</ele>
        <time>2025-02-24T11:21:15Z</time>
      </trkpt>
      <trkpt lat="44.98506" lon="6.63402">
        <ele>2431.994</ele>
        <time>2025-02-24T11:21:30Z</time>
      </trkpt>
      <trkpt lat="44.98506" lon="6.63402">
        <ele>2432.134</ele>
        <time>2025-02-24T11:21:48Z</time>
      </trkpt>
      <trkpt lat="44.98506" lon="6.63402">
        <ele>2432.216</ele>
        <time>2025-02-24T11:22:08Z</time>
      </trkpt>
      <trkpt lat="44.98506" lon="6.63402">
        <ele>2432.477</ele>
        <time>2025-02-24T11:22:11Z</time>
      </trkpt>
      <trkpt lat="44.98506" lon="6.63402">
        <ele>2426.543</ele>
        <time>2025-02-24T11:22:22Z</time>
      </trkpt>
      <trkpt lat="44.98498" lon="6.634">
        <ele>2424.794</ele>
        <time>2025-02-24T11:22:37Z</time>
      </trkpt>
      <trkpt lat="44.98498" lon="6.63398">
        <ele>2430.34</ele>
        <time>2025-02-24T11:22:44Z</time>
      </trkpt>
      <trkpt lat="44.98495" lon="6.63394">
        <ele>2432.721</ele>
        <time>2025-02-24T11:22:59Z</time>
      </trkpt>
      <trkpt lat="44.98494" lon="6.63392">
        <ele>2432.908</ele>
        <time>2025-02-24T11:23:20Z</time>
      </trkpt>
      <trkpt lat="44.98494" lon="6.63392">
        <ele>2432.959</ele>
        <time>2025-02-24T11:23:41Z</time>
      </trkpt>
      <trkpt lat="44.98494" lon="6.63392">
        <ele>2432.926</ele>
        <time>2025-02-24T11:24:01Z</time>
      </trkpt>
      <trkpt lat="44.9849" lon="6.6339">
        <ele>2436.217</ele>
        <time>2025-02-24T11:24:17Z</time>
      </trkpt>
      <trkpt lat="44.9849" lon="6.6339">
        <ele>2436.24</ele>
        <time>2025-02-24T11:24:38Z</time>
      </trkpt>
      <trkpt lat="44.98489" lon="6.63388">
        <ele>2436.854</ele>
        <time>2025-02-24T11:24:59Z</time>
      </trkpt>
      <trkpt lat="44.98485" lon="6.63387">
        <ele>2432.4</ele>
        <time>2025-02-24T11:25:19Z</time>
      </trkpt>
      <trkpt lat="44.98481" lon="6.63389">
        <ele>2427.135</ele>
        <time>2025-02-24T11:25:31Z</time>
      </trkpt>
      <trkpt lat="44.98476" lon="6.63391">
        <ele>2424.093</ele>
        <time>2025-02-24T11:25:39Z</time>
      </trkpt>
      <trkpt lat="44.98475" lon="6.63396">
        <ele>2421.391</ele>
        <time>2025-02-24T11:25:56Z</time>
      </trkpt>
      <trkpt lat="44.98476" lon="6.634">
        <ele>2426.566</ele>
        <time>2025-02-24T11:26:09Z</time>
      </trkpt>
      <trkpt lat="44.98478" lon="6.63405">
        <ele>2429.777</ele>
        <time>2025-02-24T11:26:12Z</time>
      </trkpt>
      <trkpt lat="44.98479" lon="6.63408">
        <ele>2434.171</ele>
        <time>2025-02-24T11:26:16Z</time>
      </trkpt>
      <trkpt lat="44.98483" lon="6.63412">
        <ele>2438.829</ele>
        <time>2025-02-24T11:26:21Z</time>
      </trkpt>
      <trkpt lat="44.98483" lon="6.63416">
        <ele>2443.478</ele>
        <time>2025-02-24T11:26:27Z</time>
      </trkpt>
      <trkpt lat="44.98483" lon="6.63416">
        <ele>2448.213</ele>
        <time>2025-02-24T11:26:39Z</time>
      </trkpt>
      <trkpt lat="44.98483" lon="6.63416">
        <ele>2448.936</ele>
        <time>2025-02-24T11:26:58Z</time>
      </trkpt>
      <trkpt lat="44.98483" lon="6.63416">
        <ele>2450.172</ele>
        <time>2025-02-24T11:27:19Z</time>
      </trkpt>
      <trkpt lat="44.98483" lon="6.63416">
        <ele>2452.856</ele>
        <time>2025-02-24T11:27:39Z</time>
      </trkpt>
      <trkpt lat="44.98477" lon="6.63405">
        <ele>2452.519</ele>
        <time>2025-02-24T11:27:59Z</time>
      </trkpt>
      <trkpt lat="44.98472" lon="6.63402">
        <ele>2452.663</ele>
        <time>2025-02-24T11:28:18Z</time>
      </trkpt>
      <trkpt lat="44.98469" lon="6.634">
        <ele>2452.62</ele>
        <time>2025-02-24T11:28:38Z</time>
      </trkpt>
      <trkpt lat="44.98468" lon="6.63395">
        <ele>2454.213</ele>
        <time>2025-02-24T11:28:51Z</time>
      </trkpt>
      <trkpt lat="44.98465" lon="6.6339">
        <ele>2455.352</ele>
        <time>2025-02-24T11:29:02Z</time>
      </trkpt>
      <trkpt lat="44.98464" lon="6.63385">
        <ele>2459.054</ele>
        <time>2025-02-24T11:29:15Z</time>
      </trkpt>
      <trkpt lat="44.98462" lon="6.63379">
        <ele>2458.674</ele>
        <time>2025-02-24T11:29:34Z</time>
      </trkpt>
      <trkpt lat="44.98462" lon="6.63373">
        <ele>2461.415</ele>
        <time>2025-02-24T11:29:49Z</time>
      </trkpt>
      <trkpt lat="44.98456" lon="6.63373">
        <ele>2459.877</ele>
        <time>2025-02-24T11:30:07Z</time>
      </trkpt>
      <trkpt lat="44.98454" lon="6.63379">
        <ele>2459.661</ele>
        <time>2025-02-24T11:30:11Z</time>
      </trkpt>
      <trkpt lat="44.9845" lon="6.63382">
        <ele>2457.269</ele>
        <time>2025-02-24T11:30:16Z</time>
      </trkpt>
      <trkpt lat="44.98449" lon="6.63386">
        <ele>2457.981</ele>
        <time>2025-02-24T11:30:37Z</time>
      </trkpt>
      <trkpt lat="44.9845" lon="6.63381">
        <ele>2460.284</ele>
        <time>2025-02-24T11:30:50Z</time>
      </trkpt>
      <trkpt lat="44.98452" lon="6.63376">
        <ele>2463.389</ele>
        <time>2025-02-24T11:30:59Z</time>
      </trkpt>
      <trkpt lat="44.98451" lon="6.6337">
        <ele>2464.793</ele>
        <time>2025-02-24T11:31:14Z</time>
      </trkpt>
      <trkpt lat="44.98449" lon="6.63365">
        <ele>2465.443</ele>
        <time>2025-02-24T11:31:30Z</time>
      </trkpt>
      <trkpt lat="44.98444" lon="6.63367">
        <ele>2464.255</ele>
        <time>2025-02-24T11:31:48Z</time>
      </trkpt>
      <trkpt lat="44.98441" lon="6.63371">
        <ele>2466.641</ele>
        <time>2025-02-24T11:32:08Z</time>
      </trkpt>
      <trkpt lat="44.98437" lon="6.63375">
        <ele>2467.314</ele>
        <time>2025-02-24T11:32:17Z</time>
      </trkpt>
      <trkpt lat="44.98434" lon="6.6338">
        <ele>2468.565</ele>
        <time>2025-02-24T11:32:34Z</time>
      </trkpt>
      <trkpt lat="44.98433" lon="6.63386">
        <ele>2466.726</ele>
        <time>2025-02-24T11:32:49Z</time>
      </trkpt>
      <trkpt lat="44.98432" lon="6.63392">
        <ele>2467.06</ele>
        <time>2025-02-24T11:33:02Z</time>
      </trkpt>
      <trkpt lat="44.98432" lon="6.63398">
        <ele>2469.499</ele>
        <time>2025-02-24T11:33:12Z</time>
      </trkpt>
      <trkpt lat="44.98431" lon="6.63405">
        <ele>2472.271</ele>
        <time>2025-02-24T11:33:24Z</time>
      </trkpt>
      <trkpt lat="44.98431" lon="6.63412">
        <ele>2472.473</ele>
        <time>2025-02-24T11:33:31Z</time>
      </trkpt>
      <trkpt lat="44.9843" lon="6.63419">
        <ele>2472.771</ele>
        <time>2025-02-24T11:33:45Z</time>
      </trkpt>
      <trkpt lat="44.9843" lon="6.63425">
        <ele>2472.632</ele>
        <time>2025-02-24T11:34:06Z</time>
      </trkpt>
      <trkpt lat="44.98431" lon="6.63431">
        <ele>2472.017</ele>
        <time>2025-02-24T11:34:15Z</time>
      </trkpt>
      <trkpt lat="44.98434" lon="6.63437">
        <ele>2473.005</ele>
        <time>2025-02-24T11:34:27Z</time>
      </trkpt>
      <trkpt lat="44.98435" lon="6.63444">
        <ele>2471.673</ele>
        <time>2025-02-24T11:34:42Z</time>
      </trkpt>
      <trkpt lat="44.98437" lon="6.63449">
        <ele>2472.496</ele>
        <time>2025-02-24T11:34:58Z</time>
      </trkpt>
      <trkpt lat="44.98438" lon="6.6345">
        <ele>2473.613</ele>
        <time>2025-02-24T11:35:18Z</time>
      </trkpt>
      <trkpt lat="44.98438" lon="6.63451">
        <ele>2474.629</ele>
        <time>2025-02-24T11:35:39Z</time>
      </trkpt>
      <trkpt lat="44.98438" lon="6.63456">
        <ele>2473.432</ele>
        <time>2025-02-24T11:35:59Z</time>
      </trkpt>
      <trkpt lat="44.9844" lon="6.63462">
        <ele>2473.175</ele>
        <time>2025-02-24T11:36:06Z</time>
      </trkpt>
      <trkpt lat="44.98441" lon="6.63469">
        <ele>2470.957</ele>
        <time>2025-02-24T11:36:11Z</time>
      </trkpt>
      <trkpt lat="44.98444" lon="6.63475">
        <ele>2470.611</ele>
        <time>2025-02-24T11:36:20Z</time>
      </trkpt>
      <trkpt lat="44.98445" lon="6.63481">
        <ele>2472.513</ele>
        <time>2025-02-24T11:36:29Z</time>
      </trkpt>
      <trkpt lat="44.98449" lon="6.63483">
        <ele>2471.725</ele>
        <time>2025-02-24T11:36:36Z</time>
      </trkpt>
      <trkpt lat="44.98449" lon="6.63483">
        <ele>2470.542</ele>
        <time>2025-02-24T11:36:56Z</time>
      </trkpt>
      <trkpt lat="44.98449" lon="6.63483">
        <ele>2469.954</ele>
        <time>2025-02-24T11:37:16Z</time>
      </trkpt>
      <trkpt lat="44.9845" lon="6.63489">
        <ele>2470.198</ele>
        <time>2025-02-24T11:37:23Z</time>
      </trkpt>
      <trkpt lat="44.98452" lon="6.63495">
        <ele>2469.694</ele>
        <time>2025-02-24T11:37:30Z</time>
      </trkpt>
      <trkpt lat="44.98454" lon="6.63501">
        <ele>2469.008</ele>
        <time>2025-02-24T11:37:35Z</time>
      </trkpt>
      <trkpt lat="44.98456" lon="6.63507">
        <ele>2468.032</ele>
        <time>2025-02-24T11:37:44Z</time>
      </trkpt>
      <trkpt lat="44.98459" lon="6.63512">
        <ele>2469.285</ele>
        <time>2025-02-24T11:37:51Z</time>
      </trkpt>
      <trkpt lat="44.98461" lon="6.63518">
        <ele>2470.84</ele>
        <time>2025-02-24T11:37:58Z</time>
      </trkpt>
      <trkpt lat="44.98464" lon="6.63523">
        <ele>2470.146</ele>
        <time>2025-02-24T11:38:06Z</time>
      </trkpt>
      <trkpt lat="44.98467" lon="6.63528">
        <ele>2470.651</ele>
        <time>2025-02-24T11:38:12Z</time>
      </trkpt>
      <trkpt lat="44.9847" lon="6.63534">
        <ele>2470.321</ele>
        <time>2025-02-24T11:38:19Z</time>
      </trkpt>
      <trkpt lat="44.98473" lon="6.63539">
        <ele>2470.438</ele>
        <time>2025-02-24T11:38:28Z</time>
      </trkpt>
      <trkpt lat="44.98476" lon="6.63543">
        <ele>2471.783</ele>
        <time>2025-02-24T11:38:36Z</time>
      </trkpt>
      <trkpt lat="44.98479" lon="6.63549">
        <ele>2472.515</ele>
        <time>2025-02-24T11:38:45Z</time>
      </trkpt>
      <trkpt lat="44.98482" lon="6.63553">
        <ele>2474.034</ele>
        <time>2025-02-24T11:39:00Z</time>
      </trkpt>
      <trkpt lat="44.98486" lon="6.63557">
        <ele>2475.848</ele>
        <time>2025-02-24T11:39:08Z</time>
      </trkpt>
      <trkpt lat="44.98489" lon="6.63562">
        <ele>2475.943</ele>
        <time>2025-02-24T11:39:20Z</time>
      </trkpt>
      <trkpt lat="44.98492" lon="6.63568">
        <ele>2477.408</ele>
        <time>2025-02-24T11:39:32Z</time>
      </trkpt>
      <trkpt lat="44.98495" lon="6.63573">
        <ele>2478.185</ele>
        <time>2025-02-24T11:39:45Z</time>
      </trkpt>
      <trkpt lat="44.98498" lon="6.63578">
        <ele>2479.385</ele>
        <time>2025-02-24T11:39:57Z</time>
      </trkpt>
      <trkpt lat="44.98499" lon="6.63582">
        <ele>2480.496</ele>
        <time>2025-02-24T11:40:17Z</time>
      </trkpt>
      <trkpt lat="44.98502" lon="6.63586">
        <ele>2479.918</ele>
        <time>2025-02-24T11:40:32Z</time>
      </trkpt>
      <trkpt lat="44.98504" lon="6.63591">
        <ele>2482.482</ele>
        <time>2025-02-24T11:40:43Z</time>
      </trkpt>
      <trkpt lat="44.98507" lon="6.63596">
        <ele>2482.059</ele>
        <time>2025-02-24T11:40:56Z</time>
      </trkpt>
      <trkpt lat="44.98511" lon="6.63599">
        <ele>2483.94</ele>
        <time>2025-02-24T11:41:09Z</time>
      </trkpt>
      <trkpt lat="44.98513" lon="6.63605">
        <ele>2485.51</ele>
        <time>2025-02-24T11:41:28Z</time>
      </trkpt>
      <trkpt lat="44.98515" lon="6.6361">
        <ele>2487.605</ele>
        <time>2025-02-24T11:41:40Z</time>
      </trkpt>
      <trkpt lat="44.98518" lon="6.63615">
        <ele>2487.513</ele>
        <time>2025-02-24T11:42:00Z</time>
      </trkpt>
      <trkpt lat="44.98521" lon="6.63619">
        <ele>2489.466</ele>
        <time>2025-02-24T11:42:10Z</time>
      </trkpt>
      <trkpt lat="44.98524" lon="6.63624">
        <ele>2491.851</ele>
        <time>2025-02-24T11:42:23Z</time>
      </trkpt>
      <trkpt lat="44.98527" lon="6.63629">
        <ele>2493.238</ele>
        <time>2025-02-24T11:42:37Z</time>
      </trkpt>
      <trkpt lat="44.98529" lon="6.63635">
        <ele>2493.332</ele>
        <time>2025-02-24T11:42:51Z</time>
      </trkpt>
      <trkpt lat="44.98531" lon="6.63641">
        <ele>2493.146</ele>
        <time>2025-02-24T11:43:11Z</time>
      </trkpt>
      <trkpt lat="44.98531" lon="6.63648">
        <ele>2494.007</ele>
        <time>2025-02-24T11:43:22Z</time>
      </trkpt>
      <trkpt lat="44.98531" lon="6.63654">
        <ele>2495.437</ele>
        <time>2025-02-24T11:43:32Z</time>
      </trkpt>
      <trkpt lat="44.98531" lon="6.63661">
        <ele>2495.219</ele>
        <time>2025-02-24T11:43:41Z</time>
      </trkpt>
      <trkpt lat="44.98532" lon="6.63668">
        <ele>2494.972</ele>
        <time>2025-02-24T11:43:53Z</time>
      </trkpt>
      <trkpt lat="44.98534" lon="6.63673">
        <ele>2496.097</ele>
        <time>2025-02-24T11:44:07Z</time>
      </trkpt>
      <trkpt lat="44.98534" lon="6.6368">
        <ele>2495.64</ele>
        <time>2025-02-24T11:44:18Z</time>
      </trkpt>
      <trkpt lat="44.98535" lon="6.63686">
        <ele>2496.449</ele>
        <time>2025-02-24T11:44:25Z</time>
      </trkpt>
      <trkpt lat="44.98536" lon="6.63691">
        <ele>2499.714</ele>
        <time>2025-02-24T11:44:32Z</time>
      </trkpt>
      <trkpt lat="44.98538" lon="6.63697">
        <ele>2497.868</ele>
        <time>2025-02-24T11:44:44Z</time>
      </trkpt>
      <trkpt lat="44.9854" lon="6.63703">
        <ele>2498.028</ele>
        <time>2025-02-24T11:44:56Z</time>
      </trkpt>
      <trkpt lat="44.98541" lon="6.6371">
        <ele>2498.14</ele>
        <time>2025-02-24T11:45:08Z</time>
      </trkpt>
      <trkpt lat="44.98541" lon="6.63711">
        <ele>2498.36</ele>
        <time>2025-02-24T11:45:29Z</time>
      </trkpt>
      <trkpt lat="44.9854" lon="6.63712">
        <ele>2498.479</ele>
        <time>2025-02-24T11:45:49Z</time>
      </trkpt>
      <trkpt lat="44.9854" lon="6.63712">
        <ele>2498.527</ele>
        <time>2025-02-24T11:46:10Z</time>
      </trkpt>
      <trkpt lat="44.98542" lon="6.63719">
        <ele>2500.27</ele>
        <time>2025-02-24T11:46:26Z</time>
      </trkpt>
      <trkpt lat="44.98543" lon="6.63718">
        <ele>2499.316</ele>
        <time>2025-02-24T11:46:46Z</time>
      </trkpt>
      <trkpt lat="44.98545" lon="6.63724">
        <ele>2500.865</ele>
        <time>2025-02-24T11:47:03Z</time>
      </trkpt>
      <trkpt lat="44.98548" lon="6.6373">
        <ele>2501.349</ele>
        <time>2025-02-24T11:47:11Z</time>
      </trkpt>
      <trkpt lat="44.9855" lon="6.63736">
        <ele>2500.475</ele>
        <time>2025-02-24T11:47:22Z</time>
      </trkpt>
      <trkpt lat="44.98553" lon="6.6374">
        <ele>2502.857</ele>
        <time>2025-02-24T11:47:31Z</time>
      </trkpt>
      <trkpt lat="44.98555" lon="6.63746">
        <ele>2502.467</ele>
        <time>2025-02-24T11:47:51Z</time>
      </trkpt>
      <trkpt lat="44.98558" lon="6.63752">
        <ele>2502.633</ele>
        <time>2025-02-24T11:47:59Z</time>
      </trkpt>
      <trkpt lat="44.98562" lon="6.63756">
        <ele>2503.96</ele>
        <time>2025-02-24T11:48:07Z</time>
      </trkpt>
      <trkpt lat="44.98565" lon="6.6376">
        <ele>2504.781</ele>
        <time>2025-02-24T11:48:15Z</time>
      </trkpt>
      <trkpt lat="44.98569" lon="6.63765">
        <ele>2504.584</ele>
        <time>2025-02-24T11:48:26Z</time>
      </trkpt>
      <trkpt lat="44.98573" lon="6.63768">
        <ele>2506.046</ele>
        <time>2025-02-24T11:48:35Z</time>
      </trkpt>
      <trkpt lat="44.98576" lon="6.63773">
        <ele>2507.863</ele>
        <time>2025-02-24T11:48:44Z</time>
      </trkpt>
      <trkpt lat="44.98579" lon="6.63778">
        <ele>2507.924</ele>
        <time>2025-02-24T11:48:53Z</time>
      </trkpt>
      <trkpt lat="44.98583" lon="6.63781">
        <ele>2507.817</ele>
        <time>2025-02-24T11:49:04Z</time>
      </trkpt>
      <trkpt lat="44.98587" lon="6.63786">
        <ele>2509.102</ele>
        <time>2025-02-24T11:49:16Z</time>
      </trkpt>
      <trkpt lat="44.9859" lon="6.6379">
        <ele>2508.634</ele>
        <time>2025-02-24T11:49:24Z</time>
      </trkpt>
      <trkpt lat="44.98594" lon="6.63793">
        <ele>2509.753</ele>
        <time>2025-02-24T11:49:33Z</time>
      </trkpt>
      <trkpt lat="44.98598" lon="6.63797">
        <ele>2509.504</ele>
        <time>2025-02-24T11:49:42Z</time>
      </trkpt>
      <trkpt lat="44.98602" lon="6.638">
        <ele>2510.173</ele>
        <time>2025-02-24T11:49:53Z</time>
      </trkpt>
      <trkpt lat="44.98605" lon="6.63805">
        <ele>2513.058</ele>
        <time>2025-02-24T11:50:05Z</time>
      </trkpt>
      <trkpt lat="44.98608" lon="6.63808">
        <ele>2513.976</ele>
        <time>2025-02-24T11:50:14Z</time>
      </trkpt>
      <trkpt lat="44.98612" lon="6.63812">
        <ele>2515.246</ele>
        <time>2025-02-24T11:50:25Z</time>
      </trkpt>
      <trkpt lat="44.98614" lon="6.63817">
        <ele>2517.178</ele>
        <time>2025-02-24T11:50:37Z</time>
      </trkpt>
      <trkpt lat="44.98618" lon="6.63822">
        <ele>2516.688</ele>
        <time>2025-02-24T11:50:45Z</time>
      </trkpt>
      <trkpt lat="44.98621" lon="6.63827">
        <ele>2517.994</ele>
        <time>2025-02-24T11:50:53Z</time>
      </trkpt>
      <trkpt lat="44.98624" lon="6.63833">
        <ele>2517.966</ele>
        <time>2025-02-24T11:51:07Z</time>
      </trkpt>
      <trkpt lat="44.98627" lon="6.63838">
        <ele>2519.328</ele>
        <time>2025-02-24T11:51:16Z</time>
      </trkpt>
      <trkpt lat="44.9863" lon="6.63843">
        <ele>2519.008</ele>
        <time>2025-02-24T11:51:23Z</time>
      </trkpt>
      <trkpt lat="44.98633" lon="6.63848">
        <ele>2519.664</ele>
        <time>2025-02-24T11:51:36Z</time>
      </trkpt>
      <trkpt lat="44.98637" lon="6.63852">
        <ele>2518.361</ele>
        <time>2025-02-24T11:51:48Z</time>
      </trkpt>
      <trkpt lat="44.98641" lon="6.63852">
        <ele>2518.43</ele>
        <time>2025-02-24T11:52:00Z</time>
      </trkpt>
      <trkpt lat="44.98646" lon="6.6385">
        <ele>2518.093</ele>
        <time>2025-02-24T11:52:10Z</time>
      </trkpt>
      <trkpt lat="44.9865" lon="6.63845">
        <ele>2518.887</ele>
        <time>2025-02-24T11:52:25Z</time>
      </trkpt>
      <trkpt lat="44.98653" lon="6.6384">
        <ele>2521.115</ele>
        <time>2025-02-24T11:52:35Z</time>
      </trkpt>
      <trkpt lat="44.98654" lon="6.63838">
        <ele>2520.914</ele>
        <time>2025-02-24T11:52:55Z</time>
      </trkpt>
      <trkpt lat="44.9865" lon="6.63834">
        <ele>2519.903</ele>
        <time>2025-02-24T11:53:05Z</time>
      </trkpt>
      <trkpt lat="44.9865" lon="6.63834">
        <ele>2520.613</ele>
        <time>2025-02-24T11:53:25Z</time>
      </trkpt>
      <trkpt lat="44.9865" lon="6.63834">
        <ele>2519.57</ele>
        <time>2025-02-24T11:53:45Z</time>
      </trkpt>
      <trkpt lat="44.9865" lon="6.63834">
        <ele>2519.43</ele>
        <time>2025-02-24T11:54:06Z</time>
      </trkpt>
      <trkpt lat="44.9865" lon="6.63834">
        <ele>2519.422</ele>
        <time>2025-02-24T11:54:26Z</time>
      </trkpt>
      <trkpt lat="44.9865" lon="6.63834">
        <ele>2517.282</ele>
        <time>2025-02-24T11:54:47Z</time>
      </trkpt>
      <trkpt lat="44.9865" lon="6.63834">
        <ele>2516.787</ele>
        <time>2025-02-24T11:55:07Z</time>
      </trkpt>
      <trkpt lat="44.9865" lon="6.63834">
        <ele>2517.191</ele>
        <time>2025-02-24T11:55:24Z</time>
      </trkpt>
      <trkpt lat="44.9865" lon="6.63834">
        <ele>2514.672</ele>
        <time>2025-02-24T11:55:45Z</time>
      </trkpt>
      <trkpt lat="44.9865" lon="6.63834">
        <ele>2514.319</ele>
        <time>2025-02-24T11:56:06Z</time>
      </trkpt>
      <trkpt lat="44.9865" lon="6.63834">
        <ele>2513.999</ele>
        <time>2025-02-24T11:56:26Z</time>
      </trkpt>
      <trkpt lat="44.9865" lon="6.63834">
        <ele>2513.775</ele>
        <time>2025-02-24T11:56:46Z</time>
      </trkpt>
      <trkpt lat="44.9865" lon="6.63834">
        <ele>2513.604</ele>
        <time>2025-02-24T11:57:06Z</time>
      </trkpt>
      <trkpt lat="44.9865" lon="6.63834">
        <ele>2513.367</ele>
        <time>2025-02-24T11:57:26Z</time>
      </trkpt>
      <trkpt lat="44.9865" lon="6.63834">
        <ele>2513.387</ele>
        <time>2025-02-24T11:57:47Z</time>
      </trkpt>
      <trkpt lat="44.9865" lon="6.63834">
        <ele>2513.417</ele>
        <time>2025-02-24T11:58:07Z</time>
      </trkpt>
      <trkpt lat="44.9865" lon="6.63834">
        <ele>2513.492</ele>
        <time>2025-02-24T11:58:28Z</time>
      </trkpt>
      <trkpt lat="44.9865" lon="6.63834">
        <ele>2513.42</ele>
        <time>2025-02-24T11:58:48Z</time>
      </trkpt>
      <trkpt lat="44.9865" lon="6.63834">
        <ele>2513.463</ele>
        <time>2025-02-24T11:59:09Z</time>
      </trkpt>
      <trkpt lat="44.9865" lon="6.63834">
        <ele>2513.501</ele>
        <time>2025-02-24T11:59:29Z</time>
      </trkpt>
      <trkpt lat="44.9865" lon="6.63834">
        <ele>2513.521</ele>
        <time>2025-02-24T11:59:50Z</time>
      </trkpt>
      <trkpt lat="44.9865" lon="6.63834">
        <ele>2513.529</ele>
        <time>2025-02-24T12:00:11Z</time>
      </trkpt>
      <trkpt lat="44.9865" lon="6.63834">
        <ele>2513.569</ele>
        <time>2025-02-24T12:00:31Z</time>
      </trkpt>
      <trkpt lat="44.9865" lon="6.63834">
        <ele>2514.246</ele>
        <time>2025-02-24T12:00:52Z</time>
      </trkpt>
      <trkpt lat="44.9865" lon="6.63834">
        <ele>2514.344</ele>
        <time>2025-02-24T12:01:12Z</time>
      </trkpt>
      <trkpt lat="44.9865" lon="6.63834">
        <ele>2514.081</ele>
        <time>2025-02-24T12:01:32Z</time>
      </trkpt>
      <trkpt lat="44.9865" lon="6.63834">
        <ele>2514.348</ele>
        <time>2025-02-24T12:01:52Z</time>
      </trkpt>
      <trkpt lat="44.9865" lon="6.63834">
        <ele>2514.36</ele>
        <time>2025-02-24T12:02:13Z</time>
      </trkpt>
      <trkpt lat="44.9865" lon="6.63834">
        <ele>2514.35</ele>
        <time>2025-02-24T12:02:34Z</time>
      </trkpt>
      <trkpt lat="44.9865" lon="6.63834">
        <ele>2514.369</ele>
        <time>2025-02-24T12:02:54Z</time>
      </trkpt>
      <trkpt lat="44.9865" lon="6.63834">
        <ele>2514.368</ele>
        <time>2025-02-24T12:03:15Z</time>
      </trkpt>
      <trkpt lat="44.9865" lon="6.63834">
        <ele>2514.368</ele>
        <time>2025-02-24T12:03:36Z</time>
      </trkpt>
      <trkpt lat="44.9865" lon="6.63834">
        <ele>2514.382</ele>
        <time>2025-02-24T12:03:56Z</time>
      </trkpt>
      <trkpt lat="44.9865" lon="6.63834">
        <ele>2514.688</ele>
        <time>2025-02-24T12:04:17Z</time>
      </trkpt>
      <trkpt lat="44.9865" lon="6.63834">
        <ele>2514.719</ele>
        <time>2025-02-24T12:04:37Z</time>
      </trkpt>
      <trkpt lat="44.9865" lon="6.63834">
        <ele>2514.744</ele>
        <time>2025-02-24T12:04:58Z</time>
      </trkpt>
      <trkpt lat="44.9865" lon="6.63834">
        <ele>2514.759</ele>
        <time>2025-02-24T12:05:18Z</time>
      </trkpt>
      <trkpt lat="44.9865" lon="6.63834">
        <ele>2517.316</ele>
        <time>2025-02-24T12:05:38Z</time>
      </trkpt>
      <trkpt lat="44.9865" lon="6.63834">
        <ele>2516.634</ele>
        <time>2025-02-24T12:05:59Z</time>
      </trkpt>
      <trkpt lat="44.9865" lon="6.63834">
        <ele>2515.768</ele>
        <time>2025-02-24T12:06:20Z</time>
      </trkpt>
      <trkpt lat="44.9865" lon="6.63834">
        <ele>2515.778</ele>
        <time>2025-02-24T12:06:41Z</time>
      </trkpt>
      <trkpt lat="44.9865" lon="6.63834">
        <ele>2515.817</ele>
        <time>2025-02-24T12:07:02Z</time>
      </trkpt>
      <trkpt lat="44.9865" lon="6.63834">
        <ele>2515.845</ele>
        <time>2025-02-24T12:07:22Z</time>
      </trkpt>
      <trkpt lat="44.9865" lon="6.63834">
        <ele>2515.873</ele>
        <time>2025-02-24T12:07:43Z</time>
      </trkpt>
      <trkpt lat="44.9865" lon="6.63834">
        <ele>2515.895</ele>
        <time>2025-02-24T12:08:03Z</time>
      </trkpt>
      <trkpt lat="44.9865" lon="6.63834">
        <ele>2515.937</ele>
        <time>2025-02-24T12:08:24Z</time>
      </trkpt>
      <trkpt lat="44.9865" lon="6.63834">
        <ele>2515.937</ele>
        <time>2025-02-24T12:08:45Z</time>
      </trkpt>
      <trkpt lat="44.9865" lon="6.63834">
        <ele>2515.934</ele>
        <time>2025-02-24T12:09:05Z</time>
      </trkpt>
      <trkpt lat="44.9865" lon="6.63834">
        <ele>2515.949</ele>
        <time>2025-02-24T12:09:26Z</time>
      </trkpt>
      <trkpt lat="44.9865" lon="6.63834">
        <ele>2515.972</ele>
        <time>2025-02-24T12:09:46Z</time>
      </trkpt>
      <trkpt lat="44.9865" lon="6.63834">
        <ele>2515.973</ele>
        <time>2025-02-24T12:10:06Z</time>
      </trkpt>
      <trkpt lat="44.9865" lon="6.63834">
        <ele>2515.985</ele>
        <time>2025-02-24T12:10:27Z</time>
      </trkpt>
      <trkpt lat="44.9865" lon="6.63834">
        <ele>2515.99</ele>
        <time>2025-02-24T12:10:48Z</time>
      </trkpt>
      <trkpt lat="44.9865" lon="6.63834">
        <ele>2515.623</ele>
        <time>2025-02-24T12:11:08Z</time>
      </trkpt>
      <trkpt lat="44.9865" lon="6.63834">
        <ele>2515.618</ele>
        <time>2025-02-24T12:11:29Z</time>
      </trkpt>
      <trkpt lat="44.9865" lon="6.63834">
        <ele>2515.611</ele>
        <time>2025-02-24T12:11:49Z</time>
      </trkpt>
      <trkpt lat="44.9865" lon="6.63834">
        <ele>2515.15</ele>
        <time>2025-02-24T12:12:10Z</time>
      </trkpt>
      <trkpt lat="44.9865" lon="6.63834">
        <ele>2515.165</ele>
        <time>2025-02-24T12:12:30Z</time>
      </trkpt>
      <trkpt lat="44.9865" lon="6.63834">
        <ele>2515.226</ele>
        <time>2025-02-24T12:12:51Z</time>
      </trkpt>
      <trkpt lat="44.9865" lon="6.63834">
        <ele>2515.238</ele>
        <time>2025-02-24T12:13:11Z</time>
      </trkpt>
      <trkpt lat="44.9865" lon="6.63834">
        <ele>2515.254</ele>
        <time>2025-02-24T12:13:32Z</time>
      </trkpt>
      <trkpt lat="44.9865" lon="6.63834">
        <ele>2515.267</ele>
        <time>2025-02-24T12:13:52Z</time>
      </trkpt>
      <trkpt lat="44.9865" lon="6.63834">
        <ele>2515.274</ele>
        <time>2025-02-24T12:14:13Z</time>
      </trkpt>
      <trkpt lat="44.9865" lon="6.63834">
        <ele>2515.289</ele>
        <time>2025-02-24T12:14:33Z</time>
      </trkpt>
      <trkpt lat="44.9865" lon="6.63834">
        <ele>2515.38</ele>
        <time>2025-02-24T12:14:53Z</time>
      </trkpt>
      <trkpt lat="44.9865" lon="6.63834">
        <ele>2515.389</ele>
        <time>2025-02-24T12:15:13Z</time>
      </trkpt>
      <trkpt lat="44.9865" lon="6.63834">
        <ele>2515.401</ele>
        <time>2025-02-24T12:15:33Z</time>
      </trkpt>
      <trkpt lat="44.9865" lon="6.63834">
        <ele>2515.415</ele>
        <time>2025-02-24T12:15:54Z</time>
      </trkpt>
      <trkpt lat="44.9865" lon="6.63834">
        <ele>2515.43</ele>
        <time>2025-02-24T12:16:15Z</time>
      </trkpt>
      <trkpt lat="44.9865" lon="6.63834">
        <ele>2515.428</ele>
        <time>2025-02-24T12:16:36Z</time>
      </trkpt>
      <trkpt lat="44.9865" lon="6.63834">
        <ele>2515.432</ele>
        <time>2025-02-24T12:16:56Z</time>
      </trkpt>
      <trkpt lat="44.9865" lon="6.63834">
        <ele>2515.659</ele>
        <time>2025-02-24T12:17:17Z</time>
      </trkpt>
      <trkpt lat="44.9865" lon="6.63834">
        <ele>2515.765</ele>
        <time>2025-02-24T12:17:37Z</time>
      </trkpt>
      <trkpt lat="44.9865" lon="6.63834">
        <ele>2515.768</ele>
        <time>2025-02-24T12:17:58Z</time>
      </trkpt>
      <trkpt lat="44.9865" lon="6.63834">
        <ele>2515.767</ele>
        <time>2025-02-24T12:18:19Z</time>
      </trkpt>
      <trkpt lat="44.9865" lon="6.63834">
        <ele>2515.761</ele>
        <time>2025-02-24T12:18:39Z</time>
      </trkpt>
      <trkpt lat="44.9865" lon="6.63834">
        <ele>2515.771</ele>
        <time>2025-02-24T12:19:00Z</time>
      </trkpt>
      <trkpt lat="44.9865" lon="6.63834">
        <ele>2515.763</ele>
        <time>2025-02-24T12:19:20Z</time>
      </trkpt>
      <trkpt lat="44.9865" lon="6.63834">
        <ele>2515.768</ele>
        <time>2025-02-24T12:19:41Z</time>
      </trkpt>
      <trkpt lat="44.9865" lon="6.63834">
        <ele>2515.768</ele>
        <time>2025-02-24T12:20:02Z</time>
      </trkpt>
      <trkpt lat="44.9865" lon="6.63834">
        <ele>2515.777</ele>
        <time>2025-02-24T12:23:05Z</time>
      </trkpt>
      <trkpt lat="44.9865" lon="6.63834">
        <ele>2515.777</ele>
        <time>2025-02-24T12:27:35Z</time>
      </trkpt>
      <trkpt lat="44.9865" lon="6.63834">
        <ele>2515.777</ele>
        <time>2025-02-24T12:28:07Z</time>
      </trkpt>
      <trkpt lat="44.9865" lon="6.63834">
        <ele>2515.777</ele>
        <time>2025-02-24T12:29:08Z</time>
      </trkpt>
      <trkpt lat="44.9865" lon="6.63834">
        <ele>2525.707</ele>
        <time>2025-02-24T12:29:20Z</time>
      </trkpt>
      <trkpt lat="44.9865" lon="6.63834">
        <ele>2523.099</ele>
        <time>2025-02-24T12:29:22Z</time>
      </trkpt>
      <trkpt lat="44.9865" lon="6.63834">
        <ele>2520.071</ele>
        <time>2025-02-24T12:29:28Z</time>
      </trkpt>
      <trkpt lat="44.9865" lon="6.63834">
        <ele>2518.355</ele>
        <time>2025-02-24T12:29:48Z</time>
      </trkpt>
      <trkpt lat="44.9865" lon="6.63834">
        <ele>2521.55</ele>
        <time>2025-02-24T12:30:07Z</time>
      </trkpt>
      <trkpt lat="44.9865" lon="6.63834">
        <ele>2520.928</ele>
        <time>2025-02-24T12:30:24Z</time>
      </trkpt>
      <trkpt lat="44.9865" lon="6.63834">
        <ele>2521.698</ele>
        <time>2025-02-24T12:30:45Z</time>
      </trkpt>
      <trkpt lat="44.9865" lon="6.63834">
        <ele>2522.124</ele>
        <time>2025-02-24T12:31:05Z</time>
      </trkpt>
      <trkpt lat="44.9865" lon="6.63834">
        <ele>2521.461</ele>
        <time>2025-02-24T12:31:26Z</time>
      </trkpt>
      <trkpt lat="44.9865" lon="6.63834">
        <ele>2519.725</ele>
        <time>2025-02-24T12:31:46Z</time>
      </trkpt>
      <trkpt lat="44.9865" lon="6.63834">
        <ele>2517.161</ele>
        <time>2025-02-24T12:32:03Z</time>
      </trkpt>
      <trkpt lat="44.9865" lon="6.63834">
        <ele>2516.716</ele>
        <time>2025-02-24T12:32:12Z</time>
      </trkpt>
      <trkpt lat="44.9865" lon="6.63834">
        <ele>2515.405</ele>
        <time>2025-02-24T12:32:25Z</time>
      </trkpt>
      <trkpt lat="44.9865" lon="6.63834">
        <ele>2513.303</ele>
        <time>2025-02-24T12:32:35Z</time>
      </trkpt>
      <trkpt lat="44.98652" lon="6.63847">
        <ele>2511.288</ele>
        <time>2025-02-24T12:32:50Z</time>
      </trkpt>
      <trkpt lat="44.98647" lon="6.63849">
        <ele>2511.019</ele>
        <time>2025-02-24T12:32:58Z</time>
      </trkpt>
      <trkpt lat="44.98643" lon="6.63851">
        <ele>2508.494</ele>
        <time>2025-02-24T12:33:04Z</time>
      </trkpt>
      <trkpt lat="44.98639" lon="6.63853">
        <ele>2511.308</ele>
        <time>2025-02-24T12:33:09Z</time>
      </trkpt>
      <trkpt lat="44.98638" lon="6.63854">
        <ele>2513.258</ele>
        <time>2025-02-24T12:33:29Z</time>
      </trkpt>
      <trkpt lat="44.98635" lon="6.63852">
        <ele>2515.984</ele>
        <time>2025-02-24T12:33:44Z</time>
      </trkpt>
      <trkpt lat="44.9863" lon="6.6385">
        <ele>2517.627</ele>
        <time>2025-02-24T12:33:52Z</time>
      </trkpt>
      <trkpt lat="44.98627" lon="6.63848">
        <ele>2519.054</ele>
        <time>2025-02-24T12:34:13Z</time>
      </trkpt>
      <trkpt lat="44.98623" lon="6.63843">
        <ele>2519.646</ele>
        <time>2025-02-24T12:34:28Z</time>
      </trkpt>
      <trkpt lat="44.98623" lon="6.63838">
        <ele>2517.377</ele>
        <time>2025-02-24T12:34:49Z</time>
      </trkpt>
      <trkpt lat="44.98624" lon="6.63838">
        <ele>2518.569</ele>
        <time>2025-02-24T12:35:10Z</time>
      </trkpt>
      <trkpt lat="44.98624" lon="6.63838">
        <ele>2519.18</ele>
        <time>2025-02-24T12:35:31Z</time>
      </trkpt>
      <trkpt lat="44.98624" lon="6.63838">
        <ele>2518.645</ele>
        <time>2025-02-24T12:35:52Z</time>
      </trkpt>
      <trkpt lat="44.98624" lon="6.63838">
        <ele>2519.133</ele>
        <time>2025-02-24T12:36:12Z</time>
      </trkpt>
      <trkpt lat="44.98624" lon="6.63838">
        <ele>2519.133</ele>
        <time>2025-02-24T12:36:33Z</time>
      </trkpt>
      <trkpt lat="44.98624" lon="6.63838">
        <ele>2518.923</ele>
        <time>2025-02-24T12:36:53Z</time>
      </trkpt>
      <trkpt lat="44.9862" lon="6.63831">
        <ele>2517.026</ele>
        <time>2025-02-24T12:37:13Z</time>
      </trkpt>
      <trkpt lat="44.98616" lon="6.63828">
        <ele>2515.703</ele>
        <time>2025-02-24T12:37:28Z</time>
      </trkpt>
      <trkpt lat="44.98611" lon="6.63826">
        <ele>2515.018</ele>
        <time>2025-02-24T12:37:30Z</time>
      </trkpt>
      <trkpt lat="44.98606" lon="6.63822">
        <ele>2514.503</ele>
        <time>2025-02-24T12:37:46Z</time>
      </trkpt>
      <trkpt lat="44.98601" lon="6.63819">
        <ele>2513.34</ele>
        <time>2025-02-24T12:37:51Z</time>
      </trkpt>
      <trkpt lat="44.98598" lon="6.63815">
        <ele>2512.665</ele>
        <time>2025-02-24T12:37:54Z</time>
      </trkpt>
      <trkpt lat="44.98593" lon="6.63811">
        <ele>2511.701</ele>
        <time>2025-02-24T12:37:58Z</time>
      </trkpt>
      <trkpt lat="44.9859" lon="6.63806">
        <ele>2511.014</ele>
        <time>2025-02-24T12:38:04Z</time>
      </trkpt>
      <trkpt lat="44.98586" lon="6.63798">
        <ele>2510.178</ele>
        <time>2025-02-24T12:38:15Z</time>
      </trkpt>
      <trkpt lat="44.98582" lon="6.63791">
        <ele>2508.719</ele>
        <time>2025-02-24T12:38:17Z</time>
      </trkpt>
      <trkpt lat="44.98581" lon="6.63783">
        <ele>2508.568</ele>
        <time>2025-02-24T12:38:21Z</time>
      </trkpt>
      <trkpt lat="44.98578" lon="6.63777">
        <ele>2508.47</ele>
        <time>2025-02-24T12:38:23Z</time>
      </trkpt>
      <trkpt lat="44.98572" lon="6.63775">
        <ele>2508.125</ele>
        <time>2025-02-24T12:38:25Z</time>
      </trkpt>
      <trkpt lat="44.98566" lon="6.63774">
        <ele>2507.096</ele>
        <time>2025-02-24T12:38:27Z</time>
      </trkpt>
      <trkpt lat="44.98564" lon="6.63768">
        <ele>2506.171</ele>
        <time>2025-02-24T12:38:29Z</time>
      </trkpt>
      <trkpt lat="44.9856" lon="6.63765">
        <ele>2505.39</ele>
        <time>2025-02-24T12:38:31Z</time>
      </trkpt>
      <trkpt lat="44.98559" lon="6.63762">
        <ele>2505.086</ele>
        <time>2025-02-24T12:38:51Z</time>
      </trkpt>
      <trkpt lat="44.98554" lon="6.63759">
        <ele>2504.708</ele>
        <time>2025-02-24T12:39:02Z</time>
      </trkpt>
      <trkpt lat="44.9855" lon="6.63755">
        <ele>2504.126</ele>
        <time>2025-02-24T12:39:05Z</time>
      </trkpt>
      <trkpt lat="44.98546" lon="6.63752">
        <ele>2503.519</ele>
        <time>2025-02-24T12:39:08Z</time>
      </trkpt>
      <trkpt lat="44.98546" lon="6.63752">
        <ele>2503.563</ele>
        <time>2025-02-24T12:39:28Z</time>
      </trkpt>
      <trkpt lat="44.98546" lon="6.63752">
        <ele>2501.704</ele>
        <time>2025-02-24T12:39:49Z</time>
      </trkpt>
      <trkpt lat="44.98546" lon="6.63752">
        <ele>2500.781</ele>
        <time>2025-02-24T12:40:10Z</time>
      </trkpt>
      <trkpt lat="44.98545" lon="6.63752">
        <ele>2500.826</ele>
        <time>2025-02-24T12:40:31Z</time>
      </trkpt>
      <trkpt lat="44.98542" lon="6.63747">
        <ele>2503.093</ele>
        <time>2025-02-24T12:40:48Z</time>
      </trkpt>
      <trkpt lat="44.9854" lon="6.6374">
        <ele>2503.878</ele>
        <time>2025-02-24T12:40:56Z</time>
      </trkpt>
      <trkpt lat="44.98537" lon="6.63735">
        <ele>2503.219</ele>
        <time>2025-02-24T12:41:00Z</time>
      </trkpt>
      <trkpt lat="44.98537" lon="6.63728">
        <ele>2501.761</ele>
        <time>2025-02-24T12:41:05Z</time>
      </trkpt>
      <trkpt lat="44.98538" lon="6.6372">
        <ele>2501.029</ele>
        <time>2025-02-24T12:41:11Z</time>
      </trkpt>
      <trkpt lat="44.98536" lon="6.63712">
        <ele>2499.218</ele>
        <time>2025-02-24T12:41:14Z</time>
      </trkpt>
      <trkpt lat="44.98536" lon="6.63711">
        <ele>2500.214</ele>
        <time>2025-02-24T12:41:35Z</time>
      </trkpt>
      <trkpt lat="44.98533" lon="6.63703">
        <ele>2500.274</ele>
        <time>2025-02-24T12:41:41Z</time>
      </trkpt>
      <trkpt lat="44.98532" lon="6.63695">
        <ele>2499.349</ele>
        <time>2025-02-24T12:41:45Z</time>
      </trkpt>
      <trkpt lat="44.98531" lon="6.63689">
        <ele>2499.033</ele>
        <time>2025-02-24T12:41:50Z</time>
      </trkpt>
      <trkpt lat="44.98532" lon="6.63683">
        <ele>2497.461</ele>
        <time>2025-02-24T12:41:57Z</time>
      </trkpt>
      <trkpt lat="44.98532" lon="6.63676">
        <ele>2496.22</ele>
        <time>2025-02-24T12:42:07Z</time>
      </trkpt>
      <trkpt lat="44.98528" lon="6.6367">
        <ele>2495.507</ele>
        <time>2025-02-24T12:42:12Z</time>
      </trkpt>
      <trkpt lat="44.98526" lon="6.63664">
        <ele>2493.624</ele>
        <time>2025-02-24T12:42:14Z</time>
      </trkpt>
      <trkpt lat="44.98527" lon="6.63657">
        <ele>2493.986</ele>
        <time>2025-02-24T12:42:20Z</time>
      </trkpt>
      <trkpt lat="44.98526" lon="6.6365">
        <ele>2494.522</ele>
        <time>2025-02-24T12:42:26Z</time>
      </trkpt>
      <trkpt lat="44.98524" lon="6.63643">
        <ele>2492.821</ele>
        <time>2025-02-24T12:42:34Z</time>
      </trkpt>
      <trkpt lat="44.98524" lon="6.63636">
        <ele>2491.114</ele>
        <time>2025-02-24T12:42:54Z</time>
      </trkpt>
      <trkpt lat="44.98522" lon="6.63629">
        <ele>2490.788</ele>
        <time>2025-02-24T12:43:01Z</time>
      </trkpt>
      <trkpt lat="44.98519" lon="6.63623">
        <ele>2489.264</ele>
        <time>2025-02-24T12:43:06Z</time>
      </trkpt>
      <trkpt lat="44.98514" lon="6.6362">
        <ele>2487.28</ele>
        <time>2025-02-24T12:43:09Z</time>
      </trkpt>
      <trkpt lat="44.98512" lon="6.63614">
        <ele>2485.897</ele>
        <time>2025-02-24T12:43:13Z</time>
      </trkpt>
      <trkpt lat="44.98509" lon="6.63607">
        <ele>2484.759</ele>
        <time>2025-02-24T12:43:17Z</time>
      </trkpt>
      <trkpt lat="44.98502" lon="6.63607">
        <ele>2480.821</ele>
        <time>2025-02-24T12:43:20Z</time>
      </trkpt>
      <trkpt lat="44.985" lon="6.636">
        <ele>2480.736</ele>
        <time>2025-02-24T12:43:22Z</time>
      </trkpt>
      <trkpt lat="44.98498" lon="6.63594">
        <ele>2479.645</ele>
        <time>2025-02-24T12:43:26Z</time>
      </trkpt>
      <trkpt lat="44.98494" lon="6.6359">
        <ele>2478.149</ele>
        <time>2025-02-24T12:43:31Z</time>
      </trkpt>
      <trkpt lat="44.98491" lon="6.63584">
        <ele>2477.683</ele>
        <time>2025-02-24T12:43:34Z</time>
      </trkpt>
      <trkpt lat="44.98487" lon="6.63578">
        <ele>2475.525</ele>
        <time>2025-02-24T12:43:36Z</time>
      </trkpt>
      <trkpt lat="44.98483" lon="6.63572">
        <ele>2473.981</ele>
        <time>2025-02-24T12:43:38Z</time>
      </trkpt>
      <trkpt lat="44.98481" lon="6.63566">
        <ele>2473.239</ele>
        <time>2025-02-24T12:43:40Z</time>
      </trkpt>
      <trkpt lat="44.98478" lon="6.6356">
        <ele>2473.223</ele>
        <time>2025-02-24T12:43:42Z</time>
      </trkpt>
      <trkpt lat="44.98474" lon="6.63554">
        <ele>2473.316</ele>
        <time>2025-02-24T12:43:44Z</time>
      </trkpt>
      <trkpt lat="44.98472" lon="6.63547">
        <ele>2473.672</ele>
        <time>2025-02-24T12:43:46Z</time>
      </trkpt>
      <trkpt lat="44.98468" lon="6.63539">
        <ele>2472.738</ele>
        <time>2025-02-24T12:43:48Z</time>
      </trkpt>
      <trkpt lat="44.98464" lon="6.63532">
        <ele>2472.013</ele>
        <time>2025-02-24T12:43:50Z</time>
      </trkpt>
      <trkpt lat="44.98461" lon="6.63525">
        <ele>2470.074</ele>
        <time>2025-02-24T12:43:53Z</time>
      </trkpt>
      <trkpt lat="44.98459" lon="6.6352">
        <ele>2469.138</ele>
        <time>2025-02-24T12:44:02Z</time>
      </trkpt>
      <trkpt lat="44.98458" lon="6.63514">
        <ele>2471.722</ele>
        <time>2025-02-24T12:44:19Z</time>
      </trkpt>
      <trkpt lat="44.98457" lon="6.63508">
        <ele>2471.734</ele>
        <time>2025-02-24T12:44:22Z</time>
      </trkpt>
      <trkpt lat="44.98455" lon="6.63501">
        <ele>2470.532</ele>
        <time>2025-02-24T12:44:26Z</time>
      </trkpt>
      <trkpt lat="44.98455" lon="6.63495">
        <ele>2470.292</ele>
        <time>2025-02-24T12:44:38Z</time>
      </trkpt>
      <trkpt lat="44.98452" lon="6.63489">
        <ele>2470.029</ele>
        <time>2025-02-24T12:44:45Z</time>
      </trkpt>
      <trkpt lat="44.98451" lon="6.63482">
        <ele>2469.98</ele>
        <time>2025-02-24T12:44:54Z</time>
      </trkpt>
      <trkpt lat="44.9845" lon="6.63475">
        <ele>2471.575</ele>
        <time>2025-02-24T12:45:00Z</time>
      </trkpt>
      <trkpt lat="44.98447" lon="6.63469">
        <ele>2471.033</ele>
        <time>2025-02-24T12:45:06Z</time>
      </trkpt>
      <trkpt lat="44.98444" lon="6.63464">
        <ele>2471.084</ele>
        <time>2025-02-24T12:45:21Z</time>
      </trkpt>
      <trkpt lat="44.98442" lon="6.63459">
        <ele>2471.675</ele>
        <time>2025-02-24T12:45:35Z</time>
      </trkpt>
      <trkpt lat="44.98442" lon="6.63453">
        <ele>2470.969</ele>
        <time>2025-02-24T12:45:55Z</time>
      </trkpt>
      <trkpt lat="44.98443" lon="6.63445">
        <ele>2470.709</ele>
        <time>2025-02-24T12:46:06Z</time>
      </trkpt>
      <trkpt lat="44.98443" lon="6.63437">
        <ele>2469.898</ele>
        <time>2025-02-24T12:46:08Z</time>
      </trkpt>
      <trkpt lat="44.98443" lon="6.63428">
        <ele>2469.112</ele>
        <time>2025-02-24T12:46:10Z</time>
      </trkpt>
      <trkpt lat="44.98443" lon="6.6342">
        <ele>2469.088</ele>
        <time>2025-02-24T12:46:12Z</time>
      </trkpt>
      <trkpt lat="44.98442" lon="6.63413">
        <ele>2469.253</ele>
        <time>2025-02-24T12:46:14Z</time>
      </trkpt>
      <trkpt lat="44.98443" lon="6.63405">
        <ele>2469.145</ele>
        <time>2025-02-24T12:46:16Z</time>
      </trkpt>
      <trkpt lat="44.98443" lon="6.63396">
        <ele>2468.423</ele>
        <time>2025-02-24T12:46:18Z</time>
      </trkpt>
      <trkpt lat="44.98444" lon="6.63388">
        <ele>2467.711</ele>
        <time>2025-02-24T12:46:20Z</time>
      </trkpt>
      <trkpt lat="44.98445" lon="6.6338">
        <ele>2466.713</ele>
        <time>2025-02-24T12:46:22Z</time>
      </trkpt>
      <trkpt lat="44.98446" lon="6.63373">
        <ele>2466.383</ele>
        <time>2025-02-24T12:46:24Z</time>
      </trkpt>
      <trkpt lat="44.98447" lon="6.63364">
        <ele>2465.736</ele>
        <time>2025-02-24T12:46:27Z</time>
      </trkpt>
      <trkpt lat="44.98448" lon="6.63357">
        <ele>2465.105</ele>
        <time>2025-02-24T12:46:36Z</time>
      </trkpt>
      <trkpt lat="44.98449" lon="6.6335">
        <ele>2465.414</ele>
        <time>2025-02-24T12:46:39Z</time>
      </trkpt>
      <trkpt lat="44.98448" lon="6.63343">
        <ele>2464.57</ele>
        <time>2025-02-24T12:46:43Z</time>
      </trkpt>
      <trkpt lat="44.98448" lon="6.63335">
        <ele>2463.472</ele>
        <time>2025-02-24T12:46:47Z</time>
      </trkpt>
      <trkpt lat="44.98448" lon="6.63329">
        <ele>2462.06</ele>
        <time>2025-02-24T12:46:53Z</time>
      </trkpt>
      <trkpt lat="44.98453" lon="6.63332">
        <ele>2458.503</ele>
        <time>2025-02-24T12:47:09Z</time>
      </trkpt>
      <trkpt lat="44.98458" lon="6.63335">
        <ele>2455.979</ele>
        <time>2025-02-24T12:47:13Z</time>
      </trkpt>
      <trkpt lat="44.98461" lon="6.63339">
        <ele>2453.275</ele>
        <time>2025-02-24T12:47:17Z</time>
      </trkpt>
      <trkpt lat="44.98464" lon="6.63345">
        <ele>2451.377</ele>
        <time>2025-02-24T12:47:21Z</time>
      </trkpt>
      <trkpt lat="44.98468" lon="6.63341">
        <ele>2449.575</ele>
        <time>2025-02-24T12:47:37Z</time>
      </trkpt>
      <trkpt lat="44.98468" lon="6.63334">
        <ele>2448.098</ele>
        <time>2025-02-24T12:47:42Z</time>
      </trkpt>
      <trkpt lat="44.98467" lon="6.63326">
        <ele>2445.86</ele>
        <time>2025-02-24T12:47:46Z</time>
      </trkpt>
      <trkpt lat="44.98466" lon="6.63318">
        <ele>2443.76</ele>
        <time>2025-02-24T12:47:49Z</time>
      </trkpt>
      <trkpt lat="44.98464" lon="6.6331">
        <ele>2442.195</ele>
        <time>2025-02-24T12:47:52Z</time>
      </trkpt>
      <trkpt lat="44.98463" lon="6.63303">
        <ele>2441.535</ele>
        <time>2025-02-24T12:47:56Z</time>
      </trkpt>
      <trkpt lat="44.98462" lon="6.63296">
        <ele>2439.481</ele>
        <time>2025-02-24T12:48:00Z</time>
      </trkpt>
      <trkpt lat="44.9846" lon="6.63289">
        <ele>2438.41</ele>
        <time>2025-02-24T12:48:03Z</time>
      </trkpt>
      <trkpt lat="44.98458" lon="6.63281">
        <ele>2436.957</ele>
        <time>2025-02-24T12:48:06Z</time>
      </trkpt>
      <trkpt lat="44.98456" lon="6.63276">
        <ele>2434.957</ele>
        <time>2025-02-24T12:48:09Z</time>
      </trkpt>
      <trkpt lat="44.98455" lon="6.63269">
        <ele>2433.011</ele>
        <time>2025-02-24T12:48:17Z</time>
      </trkpt>
      <trkpt lat="44.98455" lon="6.63263">
        <ele>2432.531</ele>
        <time>2025-02-24T12:48:21Z</time>
      </trkpt>
      <trkpt lat="44.98458" lon="6.63257">
        <ele>2431.704</ele>
        <time>2025-02-24T12:48:37Z</time>
      </trkpt>
      <trkpt lat="44.98461" lon="6.63252">
        <ele>2430.186</ele>
        <time>2025-02-24T12:48:42Z</time>
      </trkpt>
      <trkpt lat="44.98466" lon="6.6325">
        <ele>2424.879</ele>
        <time>2025-02-24T12:48:49Z</time>
      </trkpt>
      <trkpt lat="44.98466" lon="6.6325">
        <ele>2423.546</ele>
        <time>2025-02-24T12:48:51Z</time>
      </trkpt>
      <trkpt lat="44.98466" lon="6.6325">
        <ele>2422.658</ele>
        <time>2025-02-24T12:49:11Z</time>
      </trkpt>
      <trkpt lat="44.98466" lon="6.6325">
        <ele>2421.956</ele>
        <time>2025-02-24T12:49:27Z</time>
      </trkpt>
      <trkpt lat="44.98466" lon="6.6325">
        <ele>2419.578</ele>
        <time>2025-02-24T12:49:30Z</time>
      </trkpt>
      <trkpt lat="44.98475" lon="6.63253">
        <ele>2417.659</ele>
        <time>2025-02-24T12:49:34Z</time>
      </trkpt>
      <trkpt lat="44.98479" lon="6.63249">
        <ele>2417.081</ele>
        <time>2025-02-24T12:49:37Z</time>
      </trkpt>
      <trkpt lat="44.98482" lon="6.63244">
        <ele>2416.183</ele>
        <time>2025-02-24T12:49:41Z</time>
      </trkpt>
      <trkpt lat="44.98486" lon="6.63238">
        <ele>2415.139</ele>
        <time>2025-02-24T12:49:44Z</time>
      </trkpt>
      <trkpt lat="44.98489" lon="6.63231">
        <ele>2415.247</ele>
        <time>2025-02-24T12:49:48Z</time>
      </trkpt>
      <trkpt lat="44.98491" lon="6.63237">
        <ele>2413.263</ele>
        <time>2025-02-24T12:49:51Z</time>
      </trkpt>
      <trkpt lat="44.98492" lon="6.63244">
        <ele>2410.778</ele>
        <time>2025-02-24T12:50:00Z</time>
      </trkpt>
      <trkpt lat="44.98491" lon="6.63252">
        <ele>2408.336</ele>
        <time>2025-02-24T12:50:03Z</time>
      </trkpt>
      <trkpt lat="44.98493" lon="6.63258">
        <ele>2406.307</ele>
        <time>2025-02-24T12:50:09Z</time>
      </trkpt>
      <trkpt lat="44.98498" lon="6.63259">
        <ele>2405.631</ele>
        <time>2025-02-24T12:50:12Z</time>
      </trkpt>
      <trkpt lat="44.985" lon="6.63252">
        <ele>2404.447</ele>
        <time>2025-02-24T12:50:15Z</time>
      </trkpt>
      <trkpt lat="44.98502" lon="6.63246">
        <ele>2404.186</ele>
        <time>2025-02-24T12:50:18Z</time>
      </trkpt>
      <trkpt lat="44.98505" lon="6.63239">
        <ele>2402.333</ele>
        <time>2025-02-24T12:50:20Z</time>
      </trkpt>
      <trkpt lat="44.98508" lon="6.63233">
        <ele>2401.099</ele>
        <time>2025-02-24T12:50:22Z</time>
      </trkpt>
      <trkpt lat="44.98511" lon="6.63227">
        <ele>2400.613</ele>
        <time>2025-02-24T12:50:24Z</time>
      </trkpt>
      <trkpt lat="44.98514" lon="6.63222">
        <ele>2396.776</ele>
        <time>2025-02-24T12:50:27Z</time>
      </trkpt>
      <trkpt lat="44.98514" lon="6.63222">
        <ele>2396.404</ele>
        <time>2025-02-24T12:50:41Z</time>
      </trkpt>
      <trkpt lat="44.98514" lon="6.63222">
        <ele>2397.223</ele>
        <time>2025-02-24T12:51:02Z</time>
      </trkpt>
      <trkpt lat="44.98514" lon="6.63222">
        <ele>2397.602</ele>
        <time>2025-02-24T12:51:22Z</time>
      </trkpt>
      <trkpt lat="44.98515" lon="6.63228">
        <ele>2396.948</ele>
        <time>2025-02-24T12:51:43Z</time>
      </trkpt>
      <trkpt lat="44.98517" lon="6.63236">
        <ele>2394.757</ele>
        <time>2025-02-24T12:51:50Z</time>
      </trkpt>
      <trkpt lat="44.98518" lon="6.63245">
        <ele>2394.011</ele>
        <time>2025-02-24T12:51:53Z</time>
      </trkpt>
      <trkpt lat="44.98518" lon="6.63253">
        <ele>2392.843</ele>
        <time>2025-02-24T12:51:56Z</time>
      </trkpt>
      <trkpt lat="44.9852" lon="6.63259">
        <ele>2391.798</ele>
        <time>2025-02-24T12:52:03Z</time>
      </trkpt>
      <trkpt lat="44.98525" lon="6.63253">
        <ele>2390.599</ele>
        <time>2025-02-24T12:52:06Z</time>
      </trkpt>
      <trkpt lat="44.98526" lon="6.63243">
        <ele>2391.076</ele>
        <time>2025-02-24T12:52:08Z</time>
      </trkpt>
      <trkpt lat="44.98526" lon="6.63236">
        <ele>2389.921</ele>
        <time>2025-02-24T12:52:11Z</time>
      </trkpt>
      <trkpt lat="44.98529" lon="6.63229">
        <ele>2391.118</ele>
        <time>2025-02-24T12:52:14Z</time>
      </trkpt>
      <trkpt lat="44.98533" lon="6.63235">
        <ele>2387.756</ele>
        <time>2025-02-24T12:52:17Z</time>
      </trkpt>
      <trkpt lat="44.98537" lon="6.63231">
        <ele>2387.017</ele>
        <time>2025-02-24T12:52:22Z</time>
      </trkpt>
      <trkpt lat="44.98537" lon="6.63223">
        <ele>2383.59</ele>
        <time>2025-02-24T12:52:26Z</time>
      </trkpt>
      <trkpt lat="44.98539" lon="6.63216">
        <ele>2381.544</ele>
        <time>2025-02-24T12:52:29Z</time>
      </trkpt>
      <trkpt lat="44.98544" lon="6.63225">
        <ele>2377.757</ele>
        <time>2025-02-24T12:52:31Z</time>
      </trkpt>
      <trkpt lat="44.98546" lon="6.63231">
        <ele>2377.487</ele>
        <time>2025-02-24T12:52:33Z</time>
      </trkpt>
      <trkpt lat="44.9855" lon="6.63236">
        <ele>2376.391</ele>
        <time>2025-02-24T12:52:36Z</time>
      </trkpt>
      <trkpt lat="44.98553" lon="6.63242">
        <ele>2375.479</ele>
        <time>2025-02-24T12:52:38Z</time>
      </trkpt>
      <trkpt lat="44.98554" lon="6.63251">
        <ele>2374.752</ele>
        <time>2025-02-24T12:52:40Z</time>
      </trkpt>
      <trkpt lat="44.98556" lon="6.6326">
        <ele>2373.361</ele>
        <time>2025-02-24T12:52:42Z</time>
      </trkpt>
      <trkpt lat="44.98557" lon="6.63268">
        <ele>2372.115</ele>
        <time>2025-02-24T12:52:44Z</time>
      </trkpt>
      <trkpt lat="44.98557" lon="6.63275">
        <ele>2371.786</ele>
        <time>2025-02-24T12:52:46Z</time>
      </trkpt>
      <trkpt lat="44.9856" lon="6.63281">
        <ele>2370.576</ele>
        <time>2025-02-24T12:52:49Z</time>
      </trkpt>
      <trkpt lat="44.98564" lon="6.63285">
        <ele>2369.724</ele>
        <time>2025-02-24T12:52:52Z</time>
      </trkpt>
      <trkpt lat="44.98567" lon="6.63289">
        <ele>2368.729</ele>
        <time>2025-02-24T12:52:54Z</time>
      </trkpt>
      <trkpt lat="44.98571" lon="6.63295">
        <ele>2367.729</ele>
        <time>2025-02-24T12:52:57Z</time>
      </trkpt>
      <trkpt lat="44.98575" lon="6.633">
        <ele>2366.165</ele>
        <time>2025-02-24T12:53:00Z</time>
      </trkpt>
      <trkpt lat="44.98579" lon="6.633">
        <ele>2363.982</ele>
        <time>2025-02-24T12:53:03Z</time>
      </trkpt>
      <trkpt lat="44.98578" lon="6.63287">
        <ele>2362.593</ele>
        <time>2025-02-24T12:53:05Z</time>
      </trkpt>
      <trkpt lat="44.98577" lon="6.63281">
        <ele>2361.399</ele>
        <time>2025-02-24T12:53:18Z</time>
      </trkpt>
      <trkpt lat="44.9858" lon="6.63273">
        <ele>2361.186</ele>
        <time>2025-02-24T12:53:23Z</time>
      </trkpt>
      <trkpt lat="44.98583" lon="6.63265">
        <ele>2359.833</ele>
        <time>2025-02-24T12:53:26Z</time>
      </trkpt>
      <trkpt lat="44.98584" lon="6.63257">
        <ele>2359.952</ele>
        <time>2025-02-24T12:53:28Z</time>
      </trkpt>
      <trkpt lat="44.98585" lon="6.63249">
        <ele>2358.414</ele>
        <time>2025-02-24T12:53:30Z</time>
      </trkpt>
      <trkpt lat="44.98585" lon="6.63241">
        <ele>2357.539</ele>
        <time>2025-02-24T12:53:32Z</time>
      </trkpt>
      <trkpt lat="44.98585" lon="6.63234">
        <ele>2356.862</ele>
        <time>2025-02-24T12:53:34Z</time>
      </trkpt>
      <trkpt lat="44.98584" lon="6.63226">
        <ele>2356.255</ele>
        <time>2025-02-24T12:53:37Z</time>
      </trkpt>
      <trkpt lat="44.98589" lon="6.63232">
        <ele>2353.279</ele>
        <time>2025-02-24T12:53:45Z</time>
      </trkpt>
      <trkpt lat="44.98592" lon="6.63237">
        <ele>2353.029</ele>
        <time>2025-02-24T12:53:47Z</time>
      </trkpt>
      <trkpt lat="44.98595" lon="6.63243">
        <ele>2353.187</ele>
        <time>2025-02-24T12:53:49Z</time>
      </trkpt>
      <trkpt lat="44.98598" lon="6.6325">
        <ele>2352.561</ele>
        <time>2025-02-24T12:53:51Z</time>
      </trkpt>
      <trkpt lat="44.98602" lon="6.63257">
        <ele>2351.908</ele>
        <time>2025-02-24T12:53:53Z</time>
      </trkpt>
      <trkpt lat="44.98605" lon="6.63265">
        <ele>2351.153</ele>
        <time>2025-02-24T12:53:55Z</time>
      </trkpt>
      <trkpt lat="44.9861" lon="6.63273">
        <ele>2350.284</ele>
        <time>2025-02-24T12:53:57Z</time>
      </trkpt>
      <trkpt lat="44.98615" lon="6.63283">
        <ele>2348.9</ele>
        <time>2025-02-24T12:53:59Z</time>
      </trkpt>
      <trkpt lat="44.98618" lon="6.63294">
        <ele>2347.617</ele>
        <time>2025-02-24T12:54:01Z</time>
      </trkpt>
      <trkpt lat="44.98618" lon="6.63302">
        <ele>2348.075</ele>
        <time>2025-02-24T12:54:03Z</time>
      </trkpt>
      <trkpt lat="44.98619" lon="6.63308">
        <ele>2346.776</ele>
        <time>2025-02-24T12:54:19Z</time>
      </trkpt>
      <trkpt lat="44.9862" lon="6.63316">
        <ele>2345.073</ele>
        <time>2025-02-24T12:54:23Z</time>
      </trkpt>
      <trkpt lat="44.9862" lon="6.63326">
        <ele>2342.367</ele>
        <time>2025-02-24T12:54:25Z</time>
      </trkpt>
      <trkpt lat="44.98622" lon="6.63335">
        <ele>2342.639</ele>
        <time>2025-02-24T12:54:27Z</time>
      </trkpt>
      <trkpt lat="44.98626" lon="6.63341">
        <ele>2341.739</ele>
        <time>2025-02-24T12:54:30Z</time>
      </trkpt>
      <trkpt lat="44.98627" lon="6.63349">
        <ele>2341.771</ele>
        <time>2025-02-24T12:54:33Z</time>
      </trkpt>
      <trkpt lat="44.98627" lon="6.63357">
        <ele>2341.852</ele>
        <time>2025-02-24T12:54:35Z</time>
      </trkpt>
      <trkpt lat="44.98632" lon="6.6336">
        <ele>2340.833</ele>
        <time>2025-02-24T12:54:46Z</time>
      </trkpt>
      <trkpt lat="44.98637" lon="6.63361">
        <ele>2339.378</ele>
        <time>2025-02-24T12:54:48Z</time>
      </trkpt>
      <trkpt lat="44.98642" lon="6.63362">
        <ele>2338.667</ele>
        <time>2025-02-24T12:54:51Z</time>
      </trkpt>
      <trkpt lat="44.98647" lon="6.63364">
        <ele>2339.305</ele>
        <time>2025-02-24T12:54:55Z</time>
      </trkpt>
      <trkpt lat="44.98653" lon="6.63365">
        <ele>2337.162</ele>
        <time>2025-02-24T12:55:03Z</time>
      </trkpt>
      <trkpt lat="44.98659" lon="6.63363">
        <ele>2336.643</ele>
        <time>2025-02-24T12:55:05Z</time>
      </trkpt>
      <trkpt lat="44.98659" lon="6.63363">
        <ele>2336.171</ele>
        <time>2025-02-24T12:55:09Z</time>
      </trkpt>
      <trkpt lat="44.98659" lon="6.63363">
        <ele>2332.277</ele>
        <time>2025-02-24T12:55:30Z</time>
      </trkpt>
      <trkpt lat="44.98659" lon="6.63363">
        <ele>2328.893</ele>
        <time>2025-02-24T12:55:51Z</time>
      </trkpt>
      <trkpt lat="44.98659" lon="6.63363">
        <ele>2327.538</ele>
        <time>2025-02-24T12:56:11Z</time>
      </trkpt>
      <trkpt lat="44.98659" lon="6.63363">
        <ele>2325.078</ele>
        <time>2025-02-24T12:56:32Z</time>
      </trkpt>
      <trkpt lat="44.98659" lon="6.63363">
        <ele>2321.74</ele>
        <time>2025-02-24T12:56:52Z</time>
      </trkpt>
      <trkpt lat="44.98653" lon="6.63352">
        <ele>2321.446</ele>
        <time>2025-02-24T12:57:12Z</time>
      </trkpt>
      <trkpt lat="44.98652" lon="6.6335">
        <ele>2323.828</ele>
        <time>2025-02-24T12:57:33Z</time>
      </trkpt>
      <trkpt lat="44.98652" lon="6.63349">
        <ele>2326.261</ele>
        <time>2025-02-24T12:57:54Z</time>
      </trkpt>
      <trkpt lat="44.98651" lon="6.63344">
        <ele>2329.272</ele>
        <time>2025-02-24T12:58:12Z</time>
      </trkpt>
      <trkpt lat="44.98657" lon="6.63344">
        <ele>2328.204</ele>
        <time>2025-02-24T12:58:14Z</time>
      </trkpt>
      <trkpt lat="44.98663" lon="6.63347">
        <ele>2327.619</ele>
        <time>2025-02-24T12:58:16Z</time>
      </trkpt>
      <trkpt lat="44.98666" lon="6.63342">
        <ele>2327.567</ele>
        <time>2025-02-24T12:58:22Z</time>
      </trkpt>
      <trkpt lat="44.9867" lon="6.63337">
        <ele>2326.342</ele>
        <time>2025-02-24T12:58:27Z</time>
      </trkpt>
      <trkpt lat="44.98673" lon="6.63333">
        <ele>2324.848</ele>
        <time>2025-02-24T12:58:32Z</time>
      </trkpt>
      <trkpt lat="44.98678" lon="6.63328">
        <ele>2324.146</ele>
        <time>2025-02-24T12:58:36Z</time>
      </trkpt>
      <trkpt lat="44.98683" lon="6.63324">
        <ele>2323.103</ele>
        <time>2025-02-24T12:58:38Z</time>
      </trkpt>
      <trkpt lat="44.98688" lon="6.63322">
        <ele>2322.13</ele>
        <time>2025-02-24T12:58:40Z</time>
      </trkpt>
      <trkpt lat="44.98694" lon="6.6332">
        <ele>2320.172</ele>
        <time>2025-02-24T12:58:42Z</time>
      </trkpt>
      <trkpt lat="44.98699" lon="6.63318">
        <ele>2319.005</ele>
        <time>2025-02-24T12:58:45Z</time>
      </trkpt>
      <trkpt lat="44.98706" lon="6.63314">
        <ele>2317.748</ele>
        <time>2025-02-24T12:58:48Z</time>
      </trkpt>
      <trkpt lat="44.9871" lon="6.63312">
        <ele>2317.957</ele>
        <time>2025-02-24T12:58:50Z</time>
      </trkpt>
      <trkpt lat="44.98714" lon="6.63308">
        <ele>2318.056</ele>
        <time>2025-02-24T12:58:57Z</time>
      </trkpt>
      <trkpt lat="44.98719" lon="6.63307">
        <ele>2318.246</ele>
        <time>2025-02-24T12:59:02Z</time>
      </trkpt>
      <trkpt lat="44.98725" lon="6.63312">
        <ele>2315.504</ele>
        <time>2025-02-24T12:59:04Z</time>
      </trkpt>
      <trkpt lat="44.98726" lon="6.6332">
        <ele>2315.044</ele>
        <time>2025-02-24T12:59:06Z</time>
      </trkpt>
      <trkpt lat="44.98727" lon="6.63327">
        <ele>2312.703</ele>
        <time>2025-02-24T12:59:18Z</time>
      </trkpt>
      <trkpt lat="44.98729" lon="6.63334">
        <ele>2311.859</ele>
        <time>2025-02-24T12:59:21Z</time>
      </trkpt>
      <trkpt lat="44.98732" lon="6.6334">
        <ele>2309.779</ele>
        <time>2025-02-24T12:59:23Z</time>
      </trkpt>
      <trkpt lat="44.98739" lon="6.63342">
        <ele>2310.992</ele>
        <time>2025-02-24T12:59:25Z</time>
      </trkpt>
      <trkpt lat="44.98742" lon="6.63331">
        <ele>2311.171</ele>
        <time>2025-02-24T12:59:27Z</time>
      </trkpt>
      <trkpt lat="44.98746" lon="6.63323">
        <ele>2309.382</ele>
        <time>2025-02-24T12:59:29Z</time>
      </trkpt>
      <trkpt lat="44.9875" lon="6.63328">
        <ele>2307.67</ele>
        <time>2025-02-24T12:59:31Z</time>
      </trkpt>
      <trkpt lat="44.98751" lon="6.63336">
        <ele>2305.765</ele>
        <time>2025-02-24T12:59:33Z</time>
      </trkpt>
      <trkpt lat="44.98754" lon="6.63344">
        <ele>2303.816</ele>
        <time>2025-02-24T12:59:35Z</time>
      </trkpt>
      <trkpt lat="44.98757" lon="6.63348">
        <ele>2303.701</ele>
        <time>2025-02-24T12:59:37Z</time>
      </trkpt>
      <trkpt lat="44.98761" lon="6.63342">
        <ele>2303.055</ele>
        <time>2025-02-24T12:59:39Z</time>
      </trkpt>
      <trkpt lat="44.98768" lon="6.63341">
        <ele>2299.736</ele>
        <time>2025-02-24T12:59:41Z</time>
      </trkpt>
      <trkpt lat="44.98769" lon="6.63346">
        <ele>2296.549</ele>
        <time>2025-02-24T12:59:48Z</time>
      </trkpt>
      <trkpt lat="44.98771" lon="6.63351">
        <ele>2296.032</ele>
        <time>2025-02-24T13:00:08Z</time>
      </trkpt>
      <trkpt lat="44.98778" lon="6.63351">
        <ele>2295.257</ele>
        <time>2025-02-24T13:00:11Z</time>
      </trkpt>
      <trkpt lat="44.98782" lon="6.63347">
        <ele>2295.36</ele>
        <time>2025-02-24T13:00:13Z</time>
      </trkpt>
      <trkpt lat="44.98787" lon="6.63345">
        <ele>2294.078</ele>
        <time>2025-02-24T13:00:15Z</time>
      </trkpt>
      <trkpt lat="44.9879" lon="6.63355">
        <ele>2292.004</ele>
        <time>2025-02-24T13:00:17Z</time>
      </trkpt>
      <trkpt lat="44.98792" lon="6.63362">
        <ele>2292.009</ele>
        <time>2025-02-24T13:00:19Z</time>
      </trkpt>
      <trkpt lat="44.98795" lon="6.63368">
        <ele>2289.544</ele>
        <time>2025-02-24T13:00:21Z</time>
      </trkpt>
      <trkpt lat="44.98797" lon="6.63374">
        <ele>2288.819</ele>
        <time>2025-02-24T13:00:23Z</time>
      </trkpt>
      <trkpt lat="44.98801" lon="6.63381">
        <ele>2286.881</ele>
        <time>2025-02-24T13:00:25Z</time>
      </trkpt>
      <trkpt lat="44.98804" lon="6.63387">
        <ele>2285.225</ele>
        <time>2025-02-24T13:00:27Z</time>
      </trkpt>
      <trkpt lat="44.98809" lon="6.63394">
        <ele>2283.997</ele>
        <time>2025-02-24T13:00:29Z</time>
      </trkpt>
      <trkpt lat="44.98816" lon="6.63397">
        <ele>2282.548</ele>
        <time>2025-02-24T13:00:31Z</time>
      </trkpt>
      <trkpt lat="44.98822" lon="6.63398">
        <ele>2281.047</ele>
        <time>2025-02-24T13:00:33Z</time>
      </trkpt>
      <trkpt lat="44.98827" lon="6.63398">
        <ele>2281.169</ele>
        <time>2025-02-24T13:00:35Z</time>
      </trkpt>
      <trkpt lat="44.98831" lon="6.634">
        <ele>2279.833</ele>
        <time>2025-02-24T13:00:37Z</time>
      </trkpt>
      <trkpt lat="44.98837" lon="6.63402">
        <ele>2278.96</ele>
        <time>2025-02-24T13:00:39Z</time>
      </trkpt>
      <trkpt lat="44.98844" lon="6.63406">
        <ele>2277.603</ele>
        <time>2025-02-24T13:00:41Z</time>
      </trkpt>
      <trkpt lat="44.98848" lon="6.6341">
        <ele>2277.532</ele>
        <time>2025-02-24T13:00:43Z</time>
      </trkpt>
      <trkpt lat="44.98851" lon="6.63415">
        <ele>2277.288</ele>
        <time>2025-02-24T13:00:47Z</time>
      </trkpt>
      <trkpt lat="44.98856" lon="6.63417">
        <ele>2276.336</ele>
        <time>2025-02-24T13:00:53Z</time>
      </trkpt>
      <trkpt lat="44.98861" lon="6.63416">
        <ele>2273.955</ele>
        <time>2025-02-24T13:00:55Z</time>
      </trkpt>
      <trkpt lat="44.98864" lon="6.63405">
        <ele>2270.671</ele>
        <time>2025-02-24T13:00:57Z</time>
      </trkpt>
      <trkpt lat="44.9886" lon="6.63396">
        <ele>2272.142</ele>
        <time>2025-02-24T13:00:59Z</time>
      </trkpt>
      <trkpt lat="44.98859" lon="6.6339">
        <ele>2270.722</ele>
        <time>2025-02-24T13:01:05Z</time>
      </trkpt>
      <trkpt lat="44.98854" lon="6.63384">
        <ele>2268.479</ele>
        <time>2025-02-24T13:01:08Z</time>
      </trkpt>
      <trkpt lat="44.9885" lon="6.63377">
        <ele>2266.73</ele>
        <time>2025-02-24T13:01:14Z</time>
      </trkpt>
      <trkpt lat="44.98847" lon="6.63371">
        <ele>2266.762</ele>
        <time>2025-02-24T13:01:17Z</time>
      </trkpt>
      <trkpt lat="44.98846" lon="6.63364">
        <ele>2266.848</ele>
        <time>2025-02-24T13:01:19Z</time>
      </trkpt>
      <trkpt lat="44.98852" lon="6.6336">
        <ele>2266.783</ele>
        <time>2025-02-24T13:01:28Z</time>
      </trkpt>
      <trkpt lat="44.98856" lon="6.63357">
        <ele>2265.994</ele>
        <time>2025-02-24T13:01:30Z</time>
      </trkpt>
      <trkpt lat="44.98859" lon="6.63352">
        <ele>2266.598</ele>
        <time>2025-02-24T13:01:33Z</time>
      </trkpt>
      <trkpt lat="44.98866" lon="6.63349">
        <ele>2265.888</ele>
        <time>2025-02-24T13:01:36Z</time>
      </trkpt>
      <trkpt lat="44.98869" lon="6.63353">
        <ele>2263.301</ele>
        <time>2025-02-24T13:01:38Z</time>
      </trkpt>
      <trkpt lat="44.98868" lon="6.63359">
        <ele>2261.699</ele>
        <time>2025-02-24T13:01:45Z</time>
      </trkpt>
      <trkpt lat="44.98868" lon="6.63359">
        <ele>2261.755</ele>
        <time>2025-02-24T13:02:05Z</time>
      </trkpt>
      <trkpt lat="44.98868" lon="6.63359">
        <ele>2261.708</ele>
        <time>2025-02-24T13:02:25Z</time>
      </trkpt>
      <trkpt lat="44.98868" lon="6.63359">
        <ele>2261.677</ele>
        <time>2025-02-24T13:02:46Z</time>
      </trkpt>
      <trkpt lat="44.98872" lon="6.63367">
        <ele>2260.331</ele>
        <time>2025-02-24T13:02:56Z</time>
      </trkpt>
      <trkpt lat="44.98877" lon="6.63368">
        <ele>2259.357</ele>
        <time>2025-02-24T13:02:58Z</time>
      </trkpt>
      <trkpt lat="44.98883" lon="6.6337">
        <ele>2258.341</ele>
        <time>2025-02-24T13:03:00Z</time>
      </trkpt>
      <trkpt lat="44.9889" lon="6.63372">
        <ele>2256.75</ele>
        <time>2025-02-24T13:03:03Z</time>
      </trkpt>
      <trkpt lat="44.98894" lon="6.63374">
        <ele>2256.249</ele>
        <time>2025-02-24T13:03:05Z</time>
      </trkpt>
      <trkpt lat="44.98898" lon="6.63375">
        <ele>2254.544</ele>
        <time>2025-02-24T13:03:07Z</time>
      </trkpt>
      <trkpt lat="44.98904" lon="6.63378">
        <ele>2251.118</ele>
        <time>2025-02-24T13:03:09Z</time>
      </trkpt>
      <trkpt lat="44.98909" lon="6.63383">
        <ele>2250.357</ele>
        <time>2025-02-24T13:03:11Z</time>
      </trkpt>
      <trkpt lat="44.98913" lon="6.63386">
        <ele>2250.419</ele>
        <time>2025-02-24T13:03:13Z</time>
      </trkpt>
      <trkpt lat="44.98914" lon="6.63387">
        <ele>2249.351</ele>
        <time>2025-02-24T13:03:33Z</time>
      </trkpt>
      <trkpt lat="44.98918" lon="6.63391">
        <ele>2249.298</ele>
        <time>2025-02-24T13:03:43Z</time>
      </trkpt>
      <trkpt lat="44.98922" lon="6.63394">
        <ele>2248.747</ele>
        <time>2025-02-24T13:03:47Z</time>
      </trkpt>
      <trkpt lat="44.98931" lon="6.6339">
        <ele>2246.809</ele>
        <time>2025-02-24T13:03:51Z</time>
      </trkpt>
      <trkpt lat="44.98937" lon="6.6339">
        <ele>2247.095</ele>
        <time>2025-02-24T13:03:53Z</time>
      </trkpt>
      <trkpt lat="44.98942" lon="6.63393">
        <ele>2247.031</ele>
        <time>2025-02-24T13:03:55Z</time>
      </trkpt>
      <trkpt lat="44.98948" lon="6.63396">
        <ele>2246.177</ele>
        <time>2025-02-24T13:03:57Z</time>
      </trkpt>
      <trkpt lat="44.98952" lon="6.63398">
        <ele>2245.527</ele>
        <time>2025-02-24T13:03:59Z</time>
      </trkpt>
      <trkpt lat="44.98956" lon="6.63401">
        <ele>2244.074</ele>
        <time>2025-02-24T13:04:02Z</time>
      </trkpt>
      <trkpt lat="44.9896" lon="6.63404">
        <ele>2241.868</ele>
        <time>2025-02-24T13:04:04Z</time>
      </trkpt>
      <trkpt lat="44.98965" lon="6.63409">
        <ele>2240.556</ele>
        <time>2025-02-24T13:04:06Z</time>
      </trkpt>
      <trkpt lat="44.9897" lon="6.63411">
        <ele>2241.937</ele>
        <time>2025-02-24T13:04:08Z</time>
      </trkpt>
      <trkpt lat="44.98976" lon="6.63414">
        <ele>2238.42</ele>
        <time>2025-02-24T13:04:21Z</time>
      </trkpt>
      <trkpt lat="44.98986" lon="6.6342">
        <ele>2236.808</ele>
        <time>2025-02-24T13:04:23Z</time>
      </trkpt>
      <trkpt lat="44.98997" lon="6.63428">
        <ele>2235.006</ele>
        <time>2025-02-24T13:04:25Z</time>
      </trkpt>
      <trkpt lat="44.99004" lon="6.63433">
        <ele>2233.386</ele>
        <time>2025-02-24T13:04:27Z</time>
      </trkpt>
      <trkpt lat="44.99011" lon="6.63439">
        <ele>2231.963</ele>
        <time>2025-02-24T13:04:29Z</time>
      </trkpt>
      <trkpt lat="44.99016" lon="6.6344">
        <ele>2231.644</ele>
        <time>2025-02-24T13:04:31Z</time>
      </trkpt>
      <trkpt lat="44.99021" lon="6.63445">
        <ele>2229.176</ele>
        <time>2025-02-24T13:04:50Z</time>
      </trkpt>
      <trkpt lat="44.99027" lon="6.63447">
        <ele>2228.654</ele>
        <time>2025-02-24T13:04:52Z</time>
      </trkpt>
      <trkpt lat="44.99031" lon="6.6345">
        <ele>2225.409</ele>
        <time>2025-02-24T13:04:54Z</time>
      </trkpt>
      <trkpt lat="44.99039" lon="6.63458">
        <ele>2225.737</ele>
        <time>2025-02-24T13:04:56Z</time>
      </trkpt>
      <trkpt lat="44.99046" lon="6.63463">
        <ele>2224.304</ele>
        <time>2025-02-24T13:04:58Z</time>
      </trkpt>
      <trkpt lat="44.99053" lon="6.63469">
        <ele>2222.198</ele>
        <time>2025-02-24T13:05:00Z</time>
      </trkpt>
      <trkpt lat="44.9906" lon="6.63475">
        <ele>2220.173</ele>
        <time>2025-02-24T13:05:02Z</time>
      </trkpt>
      <trkpt lat="44.99062" lon="6.6348">
        <ele>2219.413</ele>
        <time>2025-02-24T13:05:04Z</time>
      </trkpt>
      <trkpt lat="44.99067" lon="6.63486">
        <ele>2216.598</ele>
        <time>2025-02-24T13:05:07Z</time>
      </trkpt>
      <trkpt lat="44.99071" lon="6.63492">
        <ele>2214.279</ele>
        <time>2025-02-24T13:05:09Z</time>
      </trkpt>
      <trkpt lat="44.99075" lon="6.63497">
        <ele>2212.747</ele>
        <time>2025-02-24T13:05:23Z</time>
      </trkpt>
      <trkpt lat="44.9908" lon="6.63507">
        <ele>2210.747</ele>
        <time>2025-02-24T13:05:25Z</time>
      </trkpt>
      <trkpt lat="44.99084" lon="6.63512">
        <ele>2207.455</ele>
        <time>2025-02-24T13:05:28Z</time>
      </trkpt>
      <trkpt lat="44.99086" lon="6.63519">
        <ele>2207.038</ele>
        <time>2025-02-24T13:05:30Z</time>
      </trkpt>
      <trkpt lat="44.99088" lon="6.63526">
        <ele>2207.376</ele>
        <time>2025-02-24T13:05:42Z</time>
      </trkpt>
      <trkpt lat="44.9909" lon="6.63536">
        <ele>2204.682</ele>
        <time>2025-02-24T13:05:46Z</time>
      </trkpt>
      <trkpt lat="44.99093" lon="6.63549">
        <ele>2202.705</ele>
        <time>2025-02-24T13:05:48Z</time>
      </trkpt>
      <trkpt lat="44.99096" lon="6.63559">
        <ele>2202.186</ele>
        <time>2025-02-24T13:05:50Z</time>
      </trkpt>
      <trkpt lat="44.99099" lon="6.63566">
        <ele>2202.451</ele>
        <time>2025-02-24T13:05:52Z</time>
      </trkpt>
      <trkpt lat="44.99103" lon="6.6357">
        <ele>2203.131</ele>
        <time>2025-02-24T13:05:54Z</time>
      </trkpt>
      <trkpt lat="44.99106" lon="6.63575">
        <ele>2202.823</ele>
        <time>2025-02-24T13:05:56Z</time>
      </trkpt>
      <trkpt lat="44.99111" lon="6.63581">
        <ele>2199.829</ele>
        <time>2025-02-24T13:05:58Z</time>
      </trkpt>
      <trkpt lat="44.99115" lon="6.63587">
        <ele>2199.758</ele>
        <time>2025-02-24T13:06:00Z</time>
      </trkpt>
      <trkpt lat="44.99119" lon="6.63592">
        <ele>2197.185</ele>
        <time>2025-02-24T13:06:03Z</time>
      </trkpt>
      <trkpt lat="44.99123" lon="6.63597">
        <ele>2195.26</ele>
        <time>2025-02-24T13:06:05Z</time>
      </trkpt>
      <trkpt lat="44.99125" lon="6.63603">
        <ele>2194.867</ele>
        <time>2025-02-24T13:06:08Z</time>
      </trkpt>
      <trkpt lat="44.9913" lon="6.63607">
        <ele>2193.51</ele>
        <time>2025-02-24T13:06:16Z</time>
      </trkpt>
      <trkpt lat="44.99134" lon="6.63612">
        <ele>2193.51</ele>
        <time>2025-02-24T13:06:18Z</time>
      </trkpt>
      <trkpt lat="44.99139" lon="6.63616">
        <ele>2192.178</ele>
        <time>2025-02-24T13:06:20Z</time>
      </trkpt>
      <trkpt lat="44.99143" lon="6.6362">
        <ele>2191.977</ele>
        <time>2025-02-24T13:06:22Z</time>
      </trkpt>
      <trkpt lat="44.99147" lon="6.63625">
        <ele>2191.325</ele>
        <time>2025-02-24T13:06:24Z</time>
      </trkpt>
      <trkpt lat="44.99152" lon="6.6363">
        <ele>2191.582</ele>
        <time>2025-02-24T13:06:26Z</time>
      </trkpt>
      <trkpt lat="44.99156" lon="6.63635">
        <ele>2191.19</ele>
        <time>2025-02-24T13:06:28Z</time>
      </trkpt>
      <trkpt lat="44.99162" lon="6.6364">
        <ele>2190.591</ele>
        <time>2025-02-24T13:06:30Z</time>
      </trkpt>
      <trkpt lat="44.99167" lon="6.63642">
        <ele>2188.375</ele>
        <time>2025-02-24T13:06:32Z</time>
      </trkpt>
      <trkpt lat="44.99172" lon="6.63637">
        <ele>2187.358</ele>
        <time>2025-02-24T13:06:46Z</time>
      </trkpt>
      <trkpt lat="44.99176" lon="6.6364">
        <ele>2186.469</ele>
        <time>2025-02-24T13:06:48Z</time>
      </trkpt>
      <trkpt lat="44.99181" lon="6.63634">
        <ele>2186.058</ele>
        <time>2025-02-24T13:07:00Z</time>
      </trkpt>
      <trkpt lat="44.99186" lon="6.63634">
        <ele>2185.621</ele>
        <time>2025-02-24T13:07:02Z</time>
      </trkpt>
      <trkpt lat="44.99191" lon="6.63636">
        <ele>2183.203</ele>
        <time>2025-02-24T13:07:06Z</time>
      </trkpt>
      <trkpt lat="44.99197" lon="6.63637">
        <ele>2183.116</ele>
        <time>2025-02-24T13:07:08Z</time>
      </trkpt>
      <trkpt lat="44.99202" lon="6.6364">
        <ele>2180.81</ele>
        <time>2025-02-24T13:07:10Z</time>
      </trkpt>
      <trkpt lat="44.99211" lon="6.63637">
        <ele>2179.996</ele>
        <time>2025-02-24T13:07:12Z</time>
      </trkpt>
      <trkpt lat="44.99216" lon="6.63632">
        <ele>2179.257</ele>
        <time>2025-02-24T13:07:14Z</time>
      </trkpt>
      <trkpt lat="44.99221" lon="6.63626">
        <ele>2177.187</ele>
        <time>2025-02-24T13:07:16Z</time>
      </trkpt>
      <trkpt lat="44.99229" lon="6.63618">
        <ele>2176.58</ele>
        <time>2025-02-24T13:07:18Z</time>
      </trkpt>
      <trkpt lat="44.99233" lon="6.63606">
        <ele>2176.695</ele>
        <time>2025-02-24T13:07:20Z</time>
      </trkpt>
      <trkpt lat="44.99236" lon="6.63597">
        <ele>2174.767</ele>
        <time>2025-02-24T13:07:22Z</time>
      </trkpt>
      <trkpt lat="44.9924" lon="6.63593">
        <ele>2174.185</ele>
        <time>2025-02-24T13:07:24Z</time>
      </trkpt>
      <trkpt lat="44.99246" lon="6.63594">
        <ele>2171.433</ele>
        <time>2025-02-24T13:07:26Z</time>
      </trkpt>
      <trkpt lat="44.99253" lon="6.63599">
        <ele>2169.001</ele>
        <time>2025-02-24T13:07:28Z</time>
      </trkpt>
      <trkpt lat="44.99263" lon="6.63604">
        <ele>2167.206</ele>
        <time>2025-02-24T13:07:30Z</time>
      </trkpt>
      <trkpt lat="44.99272" lon="6.63609">
        <ele>2164.034</ele>
        <time>2025-02-24T13:07:32Z</time>
      </trkpt>
      <trkpt lat="44.9928" lon="6.63614">
        <ele>2161.492</ele>
        <time>2025-02-24T13:07:34Z</time>
      </trkpt>
      <trkpt lat="44.99288" lon="6.63621">
        <ele>2159.11</ele>
        <time>2025-02-24T13:07:36Z</time>
      </trkpt>
      <trkpt lat="44.99295" lon="6.6363">
        <ele>2157.101</ele>
        <time>2025-02-24T13:07:38Z</time>
      </trkpt>
      <trkpt lat="44.99302" lon="6.63638">
        <ele>2155.942</ele>
        <time>2025-02-24T13:07:40Z</time>
      </trkpt>
      <trkpt lat="44.99307" lon="6.63644">
        <ele>2155.258</ele>
        <time>2025-02-24T13:07:42Z</time>
      </trkpt>
      <trkpt lat="44.99309" lon="6.63645">
        <ele>2153.713</ele>
        <time>2025-02-24T13:08:02Z</time>
      </trkpt>
      <trkpt lat="44.99312" lon="6.6365">
        <ele>2152.467</ele>
        <time>2025-02-24T13:08:21Z</time>
      </trkpt>
      <trkpt lat="44.99314" lon="6.63658">
        <ele>2149.671</ele>
        <time>2025-02-24T13:08:24Z</time>
      </trkpt>
      <trkpt lat="44.99317" lon="6.63664">
        <ele>2147.791</ele>
        <time>2025-02-24T13:08:26Z</time>
      </trkpt>
      <trkpt lat="44.99321" lon="6.63671">
        <ele>2147.816</ele>
        <time>2025-02-24T13:08:28Z</time>
      </trkpt>
      <trkpt lat="44.99324" lon="6.63677">
        <ele>2147.489</ele>
        <time>2025-02-24T13:08:30Z</time>
      </trkpt>
      <trkpt lat="44.99327" lon="6.63684">
        <ele>2146.673</ele>
        <time>2025-02-24T13:08:32Z</time>
      </trkpt>
      <trkpt lat="44.99329" lon="6.63691">
        <ele>2146.177</ele>
        <time>2025-02-24T13:08:34Z</time>
      </trkpt>
      <trkpt lat="44.99332" lon="6.63697">
        <ele>2144.744</ele>
        <time>2025-02-24T13:08:36Z</time>
      </trkpt>
      <trkpt lat="44.99334" lon="6.63701">
        <ele>2142.615</ele>
        <time>2025-02-24T13:08:41Z</time>
      </trkpt>
      <trkpt lat="44.99328" lon="6.63703">
        <ele>2142.116</ele>
        <time>2025-02-24T13:08:44Z</time>
      </trkpt>
      <trkpt lat="44.99323" lon="6.63702">
        <ele>2143.95</ele>
        <time>2025-02-24T13:08:54Z</time>
      </trkpt>
      <trkpt lat="44.99319" lon="6.637">
        <ele>2144.381</ele>
        <time>2025-02-24T13:08:57Z</time>
      </trkpt>
      <trkpt lat="44.99314" lon="6.637">
        <ele>2145.626</ele>
        <time>2025-02-24T13:09:02Z</time>
      </trkpt>
      <trkpt lat="44.99314" lon="6.63706">
        <ele>2143.129</ele>
        <time>2025-02-24T13:09:04Z</time>
      </trkpt>
      <trkpt lat="44.99318" lon="6.63715">
        <ele>2141.967</ele>
        <time>2025-02-24T13:09:06Z</time>
      </trkpt>
      <trkpt lat="44.99324" lon="6.63729">
        <ele>2140.781</ele>
        <time>2025-02-24T13:09:08Z</time>
      </trkpt>
      <trkpt lat="44.9933" lon="6.63736">
        <ele>2141.541</ele>
        <time>2025-02-24T13:09:10Z</time>
      </trkpt>
      <trkpt lat="44.99335" lon="6.6374">
        <ele>2139.794</ele>
        <time>2025-02-24T13:09:13Z</time>
      </trkpt>
      <trkpt lat="44.99341" lon="6.63744">
        <ele>2138.414</ele>
        <time>2025-02-24T13:09:16Z</time>
      </trkpt>
      <trkpt lat="44.99344" lon="6.63749">
        <ele>2137.199</ele>
        <time>2025-02-24T13:09:18Z</time>
      </trkpt>
      <trkpt lat="44.99349" lon="6.63752">
        <ele>2135.419</ele>
        <time>2025-02-24T13:09:23Z</time>
      </trkpt>
      <trkpt lat="44.99353" lon="6.63756">
        <ele>2134.618</ele>
        <time>2025-02-24T13:09:26Z</time>
      </trkpt>
      <trkpt lat="44.99357" lon="6.63759">
        <ele>2132.645</ele>
        <time>2025-02-24T13:09:34Z</time>
      </trkpt>
      <trkpt lat="44.99362" lon="6.63761">
        <ele>2131.75</ele>
        <time>2025-02-24T13:09:45Z</time>
      </trkpt>
      <trkpt lat="44.99366" lon="6.63765">
        <ele>2129.773</ele>
        <time>2025-02-24T13:09:49Z</time>
      </trkpt>
      <trkpt lat="44.99368" lon="6.63766">
        <ele>2127.658</ele>
        <time>2025-02-24T13:10:09Z</time>
      </trkpt>
      <trkpt lat="44.99373" lon="6.63767">
        <ele>2126.205</ele>
        <time>2025-02-24T13:10:18Z</time>
      </trkpt>
      <trkpt lat="44.99378" lon="6.63768">
        <ele>2125.194</ele>
        <time>2025-02-24T13:10:21Z</time>
      </trkpt>
      <trkpt lat="44.99381" lon="6.6377">
        <ele>2121.989</ele>
        <time>2025-02-24T13:10:27Z</time>
      </trkpt>
      <trkpt lat="44.99383" lon="6.63763">
        <ele>2120.977</ele>
        <time>2025-02-24T13:10:29Z</time>
      </trkpt>
      <trkpt lat="44.99382" lon="6.63755">
        <ele>2121.265</ele>
        <time>2025-02-24T13:10:32Z</time>
      </trkpt>
      <trkpt lat="44.99382" lon="6.63753">
        <ele>2123.574</ele>
        <time>2025-02-24T13:10:53Z</time>
      </trkpt>
      <trkpt lat="44.99386" lon="6.63751">
        <ele>2121.342</ele>
        <time>2025-02-24T13:11:06Z</time>
      </trkpt>
      <trkpt lat="44.9939" lon="6.6375">
        <ele>2118.615</ele>
        <time>2025-02-24T13:11:10Z</time>
      </trkpt>
      <trkpt lat="44.9939" lon="6.63759">
        <ele>2116.217</ele>
        <time>2025-02-24T13:11:12Z</time>
      </trkpt>
      <trkpt lat="44.99393" lon="6.63765">
        <ele>2115.719</ele>
        <time>2025-02-24T13:11:16Z</time>
      </trkpt>
      <trkpt lat="44.99398" lon="6.63767">
        <ele>2112.927</ele>
        <time>2025-02-24T13:11:21Z</time>
      </trkpt>
      <trkpt lat="44.99402" lon="6.63771">
        <ele>2110.053</ele>
        <time>2025-02-24T13:11:24Z</time>
      </trkpt>
      <trkpt lat="44.99407" lon="6.63772">
        <ele>2108.83</ele>
        <time>2025-02-24T13:11:28Z</time>
      </trkpt>
      <trkpt lat="44.99411" lon="6.63774">
        <ele>2109.283</ele>
        <time>2025-02-24T13:11:44Z</time>
      </trkpt>
      <trkpt lat="44.99415" lon="6.63776">
        <ele>2107.834</ele>
        <time>2025-02-24T13:11:48Z</time>
      </trkpt>
      <trkpt lat="44.99419" lon="6.63777">
        <ele>2104.891</ele>
        <time>2025-02-24T13:11:51Z</time>
      </trkpt>
      <trkpt lat="44.99424" lon="6.63781">
        <ele>2101.856</ele>
        <time>2025-02-24T13:11:54Z</time>
      </trkpt>
      <trkpt lat="44.99428" lon="6.63786">
        <ele>2100.219</ele>
        <time>2025-02-24T13:11:58Z</time>
      </trkpt>
      <trkpt lat="44.99433" lon="6.63792">
        <ele>2098.647</ele>
        <time>2025-02-24T13:12:02Z</time>
      </trkpt>
      <trkpt lat="44.99438" lon="6.63794">
        <ele>2096.778</ele>
        <time>2025-02-24T13:12:08Z</time>
      </trkpt>
      <trkpt lat="44.99437" lon="6.63787">
        <ele>2094.776</ele>
        <time>2025-02-24T13:12:10Z</time>
      </trkpt>
      <trkpt lat="44.99437" lon="6.63781">
        <ele>2096.352</ele>
        <time>2025-02-24T13:12:12Z</time>
      </trkpt>
      <trkpt lat="44.99435" lon="6.63776">
        <ele>2092.913</ele>
        <time>2025-02-24T13:12:30Z</time>
      </trkpt>
      <trkpt lat="44.99437" lon="6.63773">
        <ele>2087.029</ele>
        <time>2025-02-24T13:12:33Z</time>
      </trkpt>
      <trkpt lat="44.99443" lon="6.63778">
        <ele>2083.742</ele>
        <time>2025-02-24T13:12:35Z</time>
      </trkpt>
      <trkpt lat="44.99447" lon="6.63783">
        <ele>2083.812</ele>
        <time>2025-02-24T13:12:38Z</time>
      </trkpt>
      <trkpt lat="44.99452" lon="6.63787">
        <ele>2081.137</ele>
        <time>2025-02-24T13:12:41Z</time>
      </trkpt>
      <trkpt lat="44.99456" lon="6.63791">
        <ele>2079.062</ele>
        <time>2025-02-24T13:12:44Z</time>
      </trkpt>
      <trkpt lat="44.99462" lon="6.63794">
        <ele>2076.958</ele>
        <time>2025-02-24T13:12:48Z</time>
      </trkpt>
      <trkpt lat="44.99466" lon="6.63796">
        <ele>2075.374</ele>
        <time>2025-02-24T13:12:51Z</time>
      </trkpt>
      <trkpt lat="44.99471" lon="6.63798">
        <ele>2074.643</ele>
        <time>2025-02-24T13:12:54Z</time>
      </trkpt>
      <trkpt lat="44.99471" lon="6.63798">
        <ele>2072.418</ele>
        <time>2025-02-24T13:13:14Z</time>
      </trkpt>
      <trkpt lat="44.99471" lon="6.63798">
        <ele>2070.451</ele>
        <time>2025-02-24T13:13:35Z</time>
      </trkpt>
      <trkpt lat="44.99471" lon="6.63798">
        <ele>2070.379</ele>
        <time>2025-02-24T13:13:56Z</time>
      </trkpt>
      <trkpt lat="44.99471" lon="6.63798">
        <ele>2068.975</ele>
        <time>2025-02-24T13:14:16Z</time>
      </trkpt>
      <trkpt lat="44.99471" lon="6.63798">
        <ele>2066.038</ele>
        <time>2025-02-24T13:14:37Z</time>
      </trkpt>
      <trkpt lat="44.99471" lon="6.63798">
        <ele>2066.7</ele>
        <time>2025-02-24T13:14:58Z</time>
      </trkpt>
      <trkpt lat="44.99471" lon="6.63798">
        <ele>2067.614</ele>
        <time>2025-02-24T13:15:18Z</time>
      </trkpt>
      <trkpt lat="44.99471" lon="6.63798">
        <ele>2065.973</ele>
        <time>2025-02-24T13:15:22Z</time>
      </trkpt>
      <trkpt lat="44.99471" lon="6.63798">
        <ele>2060.533</ele>
        <time>2025-02-24T13:15:25Z</time>
      </trkpt>
      <trkpt lat="44.99476" lon="6.63792">
        <ele>2058.936</ele>
        <time>2025-02-24T13:15:27Z</time>
      </trkpt>
      <trkpt lat="44.9948" lon="6.63796">
        <ele>2057.825</ele>
        <time>2025-02-24T13:15:30Z</time>
      </trkpt>
      <trkpt lat="44.99485" lon="6.63792">
        <ele>2055.532</ele>
        <time>2025-02-24T13:15:32Z</time>
      </trkpt>
      <trkpt lat="44.99484" lon="6.63785">
        <ele>2051.404</ele>
        <time>2025-02-24T13:15:35Z</time>
      </trkpt>
      <trkpt lat="44.99489" lon="6.63789">
        <ele>2049.109</ele>
        <time>2025-02-24T13:15:38Z</time>
      </trkpt>
      <trkpt lat="44.99494" lon="6.63788">
        <ele>2049.163</ele>
        <time>2025-02-24T13:15:43Z</time>
      </trkpt>
      <trkpt lat="44.99498" lon="6.63784">
        <ele>2047.706</ele>
        <time>2025-02-24T13:15:47Z</time>
      </trkpt>
      <trkpt lat="44.99503" lon="6.63782">
        <ele>2048.062</ele>
        <time>2025-02-24T13:15:50Z</time>
      </trkpt>
      <trkpt lat="44.99509" lon="6.6378">
        <ele>2048.993</ele>
        <time>2025-02-24T13:15:53Z</time>
      </trkpt>
      <trkpt lat="44.99513" lon="6.6378">
        <ele>2044.395</ele>
        <time>2025-02-24T13:15:55Z</time>
      </trkpt>
      <trkpt lat="44.99513" lon="6.6378">
        <ele>2041.238</ele>
        <time>2025-02-24T13:15:59Z</time>
      </trkpt>
      <trkpt lat="44.99513" lon="6.6378">
        <ele>2037.916</ele>
        <time>2025-02-24T13:16:03Z</time>
      </trkpt>
      <trkpt lat="44.99513" lon="6.6378">
        <ele>2038.411</ele>
        <time>2025-02-24T13:16:24Z</time>
      </trkpt>
      <trkpt lat="44.99513" lon="6.6378">
        <ele>2039.999</ele>
        <time>2025-02-24T13:16:44Z</time>
      </trkpt>
      <trkpt lat="44.99519" lon="6.63789">
        <ele>2039.309</ele>
        <time>2025-02-24T13:17:04Z</time>
      </trkpt>
      <trkpt lat="44.99519" lon="6.63797">
        <ele>2038.319</ele>
        <time>2025-02-24T13:17:10Z</time>
      </trkpt>
      <trkpt lat="44.99523" lon="6.63802">
        <ele>2035.364</ele>
        <time>2025-02-24T13:17:17Z</time>
      </trkpt>
      <trkpt lat="44.99527" lon="6.63805">
        <ele>2032.643</ele>
        <time>2025-02-24T13:17:23Z</time>
      </trkpt>
      <trkpt lat="44.99532" lon="6.63809">
        <ele>2032.855</ele>
        <time>2025-02-24T13:17:28Z</time>
      </trkpt>
      <trkpt lat="44.99534" lon="6.63815">
        <ele>2031.392</ele>
        <time>2025-02-24T13:17:30Z</time>
      </trkpt>
      <trkpt lat="44.99539" lon="6.63818">
        <ele>2032.959</ele>
        <time>2025-02-24T13:17:37Z</time>
      </trkpt>
      <trkpt lat="44.99539" lon="6.63818">
        <ele>2031.311</ele>
        <time>2025-02-24T13:17:58Z</time>
      </trkpt>
      <trkpt lat="44.99539" lon="6.63819">
        <ele>2029.331</ele>
        <time>2025-02-24T13:18:18Z</time>
      </trkpt>
      <trkpt lat="44.99538" lon="6.63819">
        <ele>2029.203</ele>
        <time>2025-02-24T13:18:39Z</time>
      </trkpt>
      <trkpt lat="44.99541" lon="6.63823">
        <ele>2030.005</ele>
        <time>2025-02-24T13:18:53Z</time>
      </trkpt>
      <trkpt lat="44.99543" lon="6.63829">
        <ele>2030.258</ele>
        <time>2025-02-24T13:18:58Z</time>
      </trkpt>
      <trkpt lat="44.99546" lon="6.63834">
        <ele>2030.229</ele>
        <time>2025-02-24T13:19:01Z</time>
      </trkpt>
      <trkpt lat="44.99549" lon="6.6384">
        <ele>2029.774</ele>
        <time>2025-02-24T13:19:04Z</time>
      </trkpt>
      <trkpt lat="44.99552" lon="6.63848">
        <ele>2027.203</ele>
        <time>2025-02-24T13:19:08Z</time>
      </trkpt>
      <trkpt lat="44.99555" lon="6.63854">
        <ele>2026.138</ele>
        <time>2025-02-24T13:19:10Z</time>
      </trkpt>
      <trkpt lat="44.99557" lon="6.6386">
        <ele>2025.242</ele>
        <time>2025-02-24T13:19:16Z</time>
      </trkpt>
      <trkpt lat="44.9956" lon="6.63864">
        <ele>2021.058</ele>
        <time>2025-02-24T13:19:20Z</time>
      </trkpt>
      <trkpt lat="44.99563" lon="6.63857">
        <ele>2018.352</ele>
        <time>2025-02-24T13:19:22Z</time>
      </trkpt>
      <trkpt lat="44.99562" lon="6.63851">
        <ele>2017.5</ele>
        <time>2025-02-24T13:19:24Z</time>
      </trkpt>
      <trkpt lat="44.99561" lon="6.63839">
        <ele>2016.448</ele>
        <time>2025-02-24T13:19:26Z</time>
      </trkpt>
      <trkpt lat="44.99561" lon="6.63831">
        <ele>2014.458</ele>
        <time>2025-02-24T13:19:28Z</time>
      </trkpt>
      <trkpt lat="44.99561" lon="6.63824">
        <ele>2016.007</ele>
        <time>2025-02-24T13:19:30Z</time>
      </trkpt>
      <trkpt lat="44.99567" lon="6.63827">
        <ele>2013.792</ele>
        <time>2025-02-24T13:19:36Z</time>
      </trkpt>
      <trkpt lat="44.99566" lon="6.63833">
        <ele>2014.373</ele>
        <time>2025-02-24T13:19:38Z</time>
      </trkpt>
      <trkpt lat="44.99567" lon="6.63839">
        <ele>2012.716</ele>
        <time>2025-02-24T13:19:41Z</time>
      </trkpt>
      <trkpt lat="44.99571" lon="6.63845">
        <ele>2011.728</ele>
        <time>2025-02-24T13:19:51Z</time>
      </trkpt>
      <trkpt lat="44.99574" lon="6.63851">
        <ele>2010.31</ele>
        <time>2025-02-24T13:19:55Z</time>
      </trkpt>
      <trkpt lat="44.99576" lon="6.63856">
        <ele>2010.159</ele>
        <time>2025-02-24T13:19:57Z</time>
      </trkpt>
      <trkpt lat="44.9958" lon="6.63862">
        <ele>2009.514</ele>
        <time>2025-02-24T13:19:59Z</time>
      </trkpt>
      <trkpt lat="44.99583" lon="6.63866">
        <ele>2007.928</ele>
        <time>2025-02-24T13:20:01Z</time>
      </trkpt>
      <trkpt lat="44.99587" lon="6.63872">
        <ele>2005.787</ele>
        <time>2025-02-24T13:20:04Z</time>
      </trkpt>
      <trkpt lat="44.9959" lon="6.63878">
        <ele>2002.281</ele>
        <time>2025-02-24T13:20:08Z</time>
      </trkpt>
      <trkpt lat="44.9959" lon="6.63878">
        <ele>1998.762</ele>
        <time>2025-02-24T13:20:11Z</time>
      </trkpt>
      <trkpt lat="44.9959" lon="6.63878">
        <ele>1996.968</ele>
        <time>2025-02-24T13:20:32Z</time>
      </trkpt>
      <trkpt lat="44.99593" lon="6.63871">
        <ele>1995.998</ele>
        <time>2025-02-24T13:20:53Z</time>
      </trkpt>
      <trkpt lat="44.99593" lon="6.63868">
        <ele>1997.581</ele>
        <time>2025-02-24T13:21:14Z</time>
      </trkpt>
      <trkpt lat="44.99594" lon="6.63863">
        <ele>1997.742</ele>
        <time>2025-02-24T13:21:34Z</time>
      </trkpt>
      <trkpt lat="44.99599" lon="6.63863">
        <ele>1996.552</ele>
        <time>2025-02-24T13:21:45Z</time>
      </trkpt>
      <trkpt lat="44.99604" lon="6.63868">
        <ele>1994.185</ele>
        <time>2025-02-24T13:21:48Z</time>
      </trkpt>
      <trkpt lat="44.99605" lon="6.63874">
        <ele>1992.074</ele>
        <time>2025-02-24T13:21:52Z</time>
      </trkpt>
      <trkpt lat="44.99606" lon="6.6388">
        <ele>1992.038</ele>
        <time>2025-02-24T13:21:57Z</time>
      </trkpt>
      <trkpt lat="44.9961" lon="6.63881">
        <ele>1988.161</ele>
        <time>2025-02-24T13:22:02Z</time>
      </trkpt>
      <trkpt lat="44.99615" lon="6.63883">
        <ele>1986.086</ele>
        <time>2025-02-24T13:22:04Z</time>
      </trkpt>
      <trkpt lat="44.99618" lon="6.63888">
        <ele>1984.975</ele>
        <time>2025-02-24T13:22:06Z</time>
      </trkpt>
      <trkpt lat="44.99621" lon="6.63887">
        <ele>1979.493</ele>
        <time>2025-02-24T13:22:08Z</time>
      </trkpt>
      <trkpt lat="44.99622" lon="6.63882">
        <ele>1981.051</ele>
        <time>2025-02-24T13:22:10Z</time>
      </trkpt>
      <trkpt lat="44.99627" lon="6.63883">
        <ele>1983.139</ele>
        <time>2025-02-24T13:22:18Z</time>
      </trkpt>
      <trkpt lat="44.99628" lon="6.63882">
        <ele>1980.932</ele>
        <time>2025-02-24T13:22:39Z</time>
      </trkpt>
      <trkpt lat="44.99628" lon="6.63882">
        <ele>1980.315</ele>
        <time>2025-02-24T13:22:59Z</time>
      </trkpt>
      <trkpt lat="44.99628" lon="6.63882">
        <ele>1980.346</ele>
        <time>2025-02-24T13:23:20Z</time>
      </trkpt>
      <trkpt lat="44.99628" lon="6.63882">
        <ele>1980.252</ele>
        <time>2025-02-24T13:23:41Z</time>
      </trkpt>
      <trkpt lat="44.99628" lon="6.63882">
        <ele>1980.255</ele>
        <time>2025-02-24T13:24:02Z</time>
      </trkpt>
      <trkpt lat="44.99628" lon="6.63882">
        <ele>1980.281</ele>
        <time>2025-02-24T13:24:22Z</time>
      </trkpt>
      <trkpt lat="44.99628" lon="6.63882">
        <ele>1982.936</ele>
        <time>2025-02-24T13:24:42Z</time>
      </trkpt>
      <trkpt lat="44.99628" lon="6.63882">
        <ele>1981.969</ele>
        <time>2025-02-24T13:25:03Z</time>
      </trkpt>
      <trkpt lat="44.99628" lon="6.63882">
        <ele>1981.73</ele>
        <time>2025-02-24T13:25:24Z</time>
      </trkpt>
      <trkpt lat="44.99628" lon="6.63882">
        <ele>1983.287</ele>
        <time>2025-02-24T13:25:44Z</time>
      </trkpt>
      <trkpt lat="44.99628" lon="6.63882">
        <ele>1982.218</ele>
        <time>2025-02-24T13:26:04Z</time>
      </trkpt>
      <trkpt lat="44.99628" lon="6.63882">
        <ele>1983.627</ele>
        <time>2025-02-24T13:26:25Z</time>
      </trkpt>
      <trkpt lat="44.99628" lon="6.63882">
        <ele>1983.375</ele>
        <time>2025-02-24T13:26:46Z</time>
      </trkpt>
      <trkpt lat="44.99629" lon="6.63883">
        <ele>1983.224</ele>
        <time>2025-02-24T13:27:06Z</time>
      </trkpt>
      <trkpt lat="44.99629" lon="6.63883">
        <ele>1983.231</ele>
        <time>2025-02-24T13:27:27Z</time>
      </trkpt>
      <trkpt lat="44.99631" lon="6.6389">
        <ele>1983.018</ele>
        <time>2025-02-24T13:27:39Z</time>
      </trkpt>
      <trkpt lat="44.99635" lon="6.63891">
        <ele>1980.405</ele>
        <time>2025-02-24T13:27:47Z</time>
      </trkpt>
      <trkpt lat="44.99639" lon="6.63889">
        <ele>1977.033</ele>
        <time>2025-02-24T13:27:49Z</time>
      </trkpt>
      <trkpt lat="44.99643" lon="6.63887">
        <ele>1975.618</ele>
        <time>2025-02-24T13:27:51Z</time>
      </trkpt>
      <trkpt lat="44.99648" lon="6.63886">
        <ele>1972.069</ele>
        <time>2025-02-24T13:27:54Z</time>
      </trkpt>
      <trkpt lat="44.99651" lon="6.63891">
        <ele>1970.872</ele>
        <time>2025-02-24T13:27:56Z</time>
      </trkpt>
      <trkpt lat="44.99656" lon="6.63887">
        <ele>1969.763</ele>
        <time>2025-02-24T13:27:58Z</time>
      </trkpt>
      <trkpt lat="44.9966" lon="6.63891">
        <ele>1966.48</ele>
        <time>2025-02-24T13:28:00Z</time>
      </trkpt>
      <trkpt lat="44.99667" lon="6.63899">
        <ele>1965.031</ele>
        <time>2025-02-24T13:28:03Z</time>
      </trkpt>
      <trkpt lat="44.99669" lon="6.63906">
        <ele>1966.035</ele>
        <time>2025-02-24T13:28:15Z</time>
      </trkpt>
      <trkpt lat="44.99673" lon="6.63911">
        <ele>1963.341</ele>
        <time>2025-02-24T13:28:17Z</time>
      </trkpt>
      <trkpt lat="44.99679" lon="6.63915">
        <ele>1964.013</ele>
        <time>2025-02-24T13:28:19Z</time>
      </trkpt>
      <trkpt lat="44.99684" lon="6.63914">
        <ele>1963.261</ele>
        <time>2025-02-24T13:28:23Z</time>
      </trkpt>
      <trkpt lat="44.99684" lon="6.63907">
        <ele>1962.178</ele>
        <time>2025-02-24T13:28:25Z</time>
      </trkpt>
      <trkpt lat="44.99682" lon="6.63901">
        <ele>1961.939</ele>
        <time>2025-02-24T13:28:28Z</time>
      </trkpt>
      <trkpt lat="44.99685" lon="6.63895">
        <ele>1960.687</ele>
        <time>2025-02-24T13:28:31Z</time>
      </trkpt>
      <trkpt lat="44.99692" lon="6.63898">
        <ele>1960.259</ele>
        <time>2025-02-24T13:28:34Z</time>
      </trkpt>
      <trkpt lat="44.99697" lon="6.63896">
        <ele>1958.437</ele>
        <time>2025-02-24T13:28:36Z</time>
      </trkpt>
      <trkpt lat="44.99702" lon="6.63896">
        <ele>1958.285</ele>
        <time>2025-02-24T13:28:38Z</time>
      </trkpt>
      <trkpt lat="44.99707" lon="6.6389">
        <ele>1955.17</ele>
        <time>2025-02-24T13:28:40Z</time>
      </trkpt>
      <trkpt lat="44.99713" lon="6.63887">
        <ele>1952.251</ele>
        <time>2025-02-24T13:28:43Z</time>
      </trkpt>
      <trkpt lat="44.99718" lon="6.63884">
        <ele>1951.423</ele>
        <time>2025-02-24T13:28:55Z</time>
      </trkpt>
      <trkpt lat="44.99724" lon="6.6388">
        <ele>1951.934</ele>
        <time>2025-02-24T13:28:57Z</time>
      </trkpt>
      <trkpt lat="44.99728" lon="6.63877">
        <ele>1950.829</ele>
        <time>2025-02-24T13:28:59Z</time>
      </trkpt>
      <trkpt lat="44.99731" lon="6.63869">
        <ele>1947.557</ele>
        <time>2025-02-24T13:29:01Z</time>
      </trkpt>
      <trkpt lat="44.99735" lon="6.63867">
        <ele>1946.328</ele>
        <time>2025-02-24T13:29:04Z</time>
      </trkpt>
      <trkpt lat="44.99738" lon="6.63871">
        <ele>1943.861</ele>
        <time>2025-02-24T13:29:13Z</time>
      </trkpt>
      <trkpt lat="44.99743" lon="6.63875">
        <ele>1941.425</ele>
        <time>2025-02-24T13:29:16Z</time>
      </trkpt>
      <trkpt lat="44.99746" lon="6.63872">
        <ele>1936.79</ele>
        <time>2025-02-24T13:29:18Z</time>
      </trkpt>
      <trkpt lat="44.99752" lon="6.63866">
        <ele>1935.102</ele>
        <time>2025-02-24T13:29:20Z</time>
      </trkpt>
      <trkpt lat="44.99759" lon="6.63869">
        <ele>1932.447</ele>
        <time>2025-02-24T13:29:23Z</time>
      </trkpt>
      <trkpt lat="44.99765" lon="6.63869">
        <ele>1932.461</ele>
        <time>2025-02-24T13:29:25Z</time>
      </trkpt>
      <trkpt lat="44.99771" lon="6.63869">
        <ele>1930.905</ele>
        <time>2025-02-24T13:29:27Z</time>
      </trkpt>
      <trkpt lat="44.99774" lon="6.63863">
        <ele>1931.67</ele>
        <time>2025-02-24T13:29:45Z</time>
      </trkpt>
      <trkpt lat="44.99776" lon="6.63869">
        <ele>1932.312</ele>
        <time>2025-02-24T13:29:52Z</time>
      </trkpt>
      <trkpt lat="44.99781" lon="6.63867">
        <ele>1930.607</ele>
        <time>2025-02-24T13:29:56Z</time>
      </trkpt>
      <trkpt lat="44.99786" lon="6.63865">
        <ele>1927.206</ele>
        <time>2025-02-24T13:29:59Z</time>
      </trkpt>
      <trkpt lat="44.99792" lon="6.63864">
        <ele>1925.53</ele>
        <time>2025-02-24T13:30:01Z</time>
      </trkpt>
      <trkpt lat="44.99798" lon="6.6386">
        <ele>1924.225</ele>
        <time>2025-02-24T13:30:03Z</time>
      </trkpt>
      <trkpt lat="44.99802" lon="6.63863">
        <ele>1923.095</ele>
        <time>2025-02-24T13:30:05Z</time>
      </trkpt>
      <trkpt lat="44.99806" lon="6.63861">
        <ele>1921.349</ele>
        <time>2025-02-24T13:30:07Z</time>
      </trkpt>
      <trkpt lat="44.99811" lon="6.6386">
        <ele>1919.998</ele>
        <time>2025-02-24T13:30:11Z</time>
      </trkpt>
      <trkpt lat="44.99816" lon="6.63866">
        <ele>1917.914</ele>
        <time>2025-02-24T13:30:13Z</time>
      </trkpt>
      <trkpt lat="44.99823" lon="6.63865">
        <ele>1918.164</ele>
        <time>2025-02-24T13:30:15Z</time>
      </trkpt>
      <trkpt lat="44.99828" lon="6.63868">
        <ele>1916.038</ele>
        <time>2025-02-24T13:30:17Z</time>
      </trkpt>
      <trkpt lat="44.99828" lon="6.63868">
        <ele>1913.838</ele>
        <time>2025-02-24T13:30:31Z</time>
      </trkpt>
      <trkpt lat="44.99832" lon="6.63873">
        <ele>1913.133</ele>
        <time>2025-02-24T13:30:37Z</time>
      </trkpt>
      <trkpt lat="44.99841" lon="6.63875">
        <ele>1912.626</ele>
        <time>2025-02-24T13:30:39Z</time>
      </trkpt>
      <trkpt lat="44.99848" lon="6.63877">
        <ele>1910.526</ele>
        <time>2025-02-24T13:30:41Z</time>
      </trkpt>
      <trkpt lat="44.99848" lon="6.63877">
        <ele>1909.302</ele>
        <time>2025-02-24T13:30:43Z</time>
      </trkpt>
      <trkpt lat="44.99848" lon="6.63877">
        <ele>1908.589</ele>
        <time>2025-02-24T13:30:59Z</time>
      </trkpt>
      <trkpt lat="44.99856" lon="6.6387">
        <ele>1908.21</ele>
        <time>2025-02-24T13:31:01Z</time>
      </trkpt>
      <trkpt lat="44.99861" lon="6.63871">
        <ele>1907.277</ele>
        <time>2025-02-24T13:31:04Z</time>
      </trkpt>
      <trkpt lat="44.99866" lon="6.63875">
        <ele>1904.976</ele>
        <time>2025-02-24T13:31:09Z</time>
      </trkpt>
      <trkpt lat="44.9987" lon="6.63872">
        <ele>1904.635</ele>
        <time>2025-02-24T13:31:12Z</time>
      </trkpt>
      <trkpt lat="44.99875" lon="6.63873">
        <ele>1903.772</ele>
        <time>2025-02-24T13:31:15Z</time>
      </trkpt>
      <trkpt lat="44.9988" lon="6.63877">
        <ele>1904.614</ele>
        <time>2025-02-24T13:31:19Z</time>
      </trkpt>
      <trkpt lat="44.99885" lon="6.63874">
        <ele>1904.103</ele>
        <time>2025-02-24T13:31:21Z</time>
      </trkpt>
      <trkpt lat="44.99886" lon="6.63877">
        <ele>1899.945</ele>
        <time>2025-02-24T13:31:32Z</time>
      </trkpt>
      <trkpt lat="44.9989" lon="6.63881">
        <ele>1899.279</ele>
        <time>2025-02-24T13:31:37Z</time>
      </trkpt>
      <trkpt lat="44.99893" lon="6.63885">
        <ele>1896.499</ele>
        <time>2025-02-24T13:31:39Z</time>
      </trkpt>
      <trkpt lat="44.999" lon="6.63886">
        <ele>1894.928</ele>
        <time>2025-02-24T13:31:41Z</time>
      </trkpt>
      <trkpt lat="44.99904" lon="6.63887">
        <ele>1895.051</ele>
        <time>2025-02-24T13:31:47Z</time>
      </trkpt>
      <trkpt lat="44.99908" lon="6.6389">
        <ele>1893.454</ele>
        <time>2025-02-24T13:31:53Z</time>
      </trkpt>
      <trkpt lat="44.99913" lon="6.6389">
        <ele>1889.335</ele>
        <time>2025-02-24T13:31:55Z</time>
      </trkpt>
      <trkpt lat="44.99918" lon="6.63898">
        <ele>1889.02</ele>
        <time>2025-02-24T13:32:01Z</time>
      </trkpt>
      <trkpt lat="44.99922" lon="6.639">
        <ele>1888.915</ele>
        <time>2025-02-24T13:32:04Z</time>
      </trkpt>
      <trkpt lat="44.99927" lon="6.63898">
        <ele>1887.54</ele>
        <time>2025-02-24T13:32:09Z</time>
      </trkpt>
      <trkpt lat="44.99932" lon="6.63895">
        <ele>1886.26</ele>
        <time>2025-02-24T13:32:14Z</time>
      </trkpt>
      <trkpt lat="44.99937" lon="6.63895">
        <ele>1885.858</ele>
        <time>2025-02-24T13:32:17Z</time>
      </trkpt>
      <trkpt lat="44.99943" lon="6.63896">
        <ele>1882.707</ele>
        <time>2025-02-24T13:32:19Z</time>
      </trkpt>
      <trkpt lat="44.9995" lon="6.63895">
        <ele>1883.107</ele>
        <time>2025-02-24T13:32:21Z</time>
      </trkpt>
      <trkpt lat="44.99955" lon="6.63896">
        <ele>1882.489</ele>
        <time>2025-02-24T13:32:23Z</time>
      </trkpt>
      <trkpt lat="44.9996" lon="6.63899">
        <ele>1882.951</ele>
        <time>2025-02-24T13:32:42Z</time>
      </trkpt>
      <trkpt lat="44.99965" lon="6.63898">
        <ele>1880.192</ele>
        <time>2025-02-24T13:32:45Z</time>
      </trkpt>
      <trkpt lat="44.99968" lon="6.63895">
        <ele>1874.981</ele>
        <time>2025-02-24T13:32:51Z</time>
      </trkpt>
      <trkpt lat="44.99974" lon="6.63896">
        <ele>1874.285</ele>
        <time>2025-02-24T13:32:57Z</time>
      </trkpt>
      <trkpt lat="44.99978" lon="6.63898">
        <ele>1874.715</ele>
        <time>2025-02-24T13:33:00Z</time>
      </trkpt>
      <trkpt lat="44.99985" lon="6.63897">
        <ele>1873.743</ele>
        <time>2025-02-24T13:33:03Z</time>
      </trkpt>
      <trkpt lat="44.99993" lon="6.63899">
        <ele>1873.406</ele>
        <time>2025-02-24T13:33:05Z</time>
      </trkpt>
      <trkpt lat="44.99999" lon="6.639">
        <ele>1874.263</ele>
        <time>2025-02-24T13:33:08Z</time>
      </trkpt>
      <trkpt lat="45.00002" lon="6.63908">
        <ele>1874.478</ele>
        <time>2025-02-24T13:33:10Z</time>
      </trkpt>
      <trkpt lat="45.00009" lon="6.63906">
        <ele>1871.269</ele>
        <time>2025-02-24T13:33:12Z</time>
      </trkpt>
      <trkpt lat="45.00014" lon="6.63907">
        <ele>1867.149</ele>
        <time>2025-02-24T13:33:16Z</time>
      </trkpt>
      <trkpt lat="45.00021" lon="6.6391">
        <ele>1867.327</ele>
        <time>2025-02-24T13:33:19Z</time>
      </trkpt>
      <trkpt lat="45.00026" lon="6.63916">
        <ele>1866.424</ele>
        <time>2025-02-24T13:33:21Z</time>
      </trkpt>
      <trkpt lat="45.00034" lon="6.63918">
        <ele>1865.257</ele>
        <time>2025-02-24T13:33:23Z</time>
      </trkpt>
      <trkpt lat="45.00039" lon="6.63915">
        <ele>1863.057</ele>
        <time>2025-02-24T13:33:25Z</time>
      </trkpt>
      <trkpt lat="45.00046" lon="6.63914">
        <ele>1861.64</ele>
        <time>2025-02-24T13:33:27Z</time>
      </trkpt>
      <trkpt lat="45.00052" lon="6.63912">
        <ele>1860.262</ele>
        <time>2025-02-24T13:33:30Z</time>
      </trkpt>
      <trkpt lat="45.00059" lon="6.63913">
        <ele>1858.957</ele>
        <time>2025-02-24T13:33:32Z</time>
      </trkpt>
      <trkpt lat="45.00065" lon="6.63915">
        <ele>1858.473</ele>
        <time>2025-02-24T13:33:34Z</time>
      </trkpt>
      <trkpt lat="45.0007" lon="6.63922">
        <ele>1856.807</ele>
        <time>2025-02-24T13:33:36Z</time>
      </trkpt>
      <trkpt lat="45.00073" lon="6.63928">
        <ele>1856.262</ele>
        <time>2025-02-24T13:33:38Z</time>
      </trkpt>
      <trkpt lat="45.00076" lon="6.63933">
        <ele>1855.719</ele>
        <time>2025-02-24T13:33:40Z</time>
      </trkpt>
      <trkpt lat="45.00081" lon="6.63937">
        <ele>1853.026</ele>
        <time>2025-02-24T13:33:43Z</time>
      </trkpt>
      <trkpt lat="45.00086" lon="6.63937">
        <ele>1852.071</ele>
        <time>2025-02-24T13:33:45Z</time>
      </trkpt>
      <trkpt lat="45.0009" lon="6.6394">
        <ele>1853.189</ele>
        <time>2025-02-24T13:33:51Z</time>
      </trkpt>
      <trkpt lat="45.00096" lon="6.6394">
        <ele>1850.564</ele>
        <time>2025-02-24T13:34:08Z</time>
      </trkpt>
      <trkpt lat="45.001" lon="6.63941">
        <ele>1849.526</ele>
        <time>2025-02-24T13:34:10Z</time>
      </trkpt>
      <trkpt lat="45.00104" lon="6.63945">
        <ele>1848.655</ele>
        <time>2025-02-24T13:34:12Z</time>
      </trkpt>
      <trkpt lat="45.00108" lon="6.63949">
        <ele>1846.86</ele>
        <time>2025-02-24T13:34:14Z</time>
      </trkpt>
      <trkpt lat="45.00114" lon="6.63951">
        <ele>1844.451</ele>
        <time>2025-02-24T13:34:17Z</time>
      </trkpt>
      <trkpt lat="45.00114" lon="6.63951">
        <ele>1847.451</ele>
        <time>2025-02-24T13:34:37Z</time>
      </trkpt>
      <trkpt lat="45.00114" lon="6.63951">
        <ele>1847.458</ele>
        <time>2025-02-24T13:34:57Z</time>
      </trkpt>
      <trkpt lat="45.00114" lon="6.63951">
        <ele>1847.126</ele>
        <time>2025-02-24T13:35:17Z</time>
      </trkpt>
      <trkpt lat="45.00116" lon="6.63947">
        <ele>1845.957</ele>
        <time>2025-02-24T13:35:38Z</time>
      </trkpt>
      <trkpt lat="45.00117" lon="6.63948">
        <ele>1845.083</ele>
        <time>2025-02-24T13:35:59Z</time>
      </trkpt>
      <trkpt lat="45.00117" lon="6.63947">
        <ele>1845.095</ele>
        <time>2025-02-24T13:36:20Z</time>
      </trkpt>
      <trkpt lat="45.00122" lon="6.63948">
        <ele>1842.25</ele>
        <time>2025-02-24T13:36:26Z</time>
      </trkpt>
      <trkpt lat="45.00127" lon="6.63951">
        <ele>1841.477</ele>
        <time>2025-02-24T13:36:28Z</time>
      </trkpt>
      <trkpt lat="45.00132" lon="6.63952">
        <ele>1840.385</ele>
        <time>2025-02-24T13:36:30Z</time>
      </trkpt>
      <trkpt lat="45.00138" lon="6.63952">
        <ele>1838.592</ele>
        <time>2025-02-24T13:36:32Z</time>
      </trkpt>
      <trkpt lat="45.00144" lon="6.63963">
        <ele>1836.595</ele>
        <time>2025-02-24T13:36:34Z</time>
      </trkpt>
      <trkpt lat="45.00152" lon="6.63966">
        <ele>1833.482</ele>
        <time>2025-02-24T13:36:37Z</time>
      </trkpt>
      <trkpt lat="45.00156" lon="6.63969">
        <ele>1834.366</ele>
        <time>2025-02-24T13:36:40Z</time>
      </trkpt>
      <trkpt lat="45.00163" lon="6.63972">
        <ele>1833.256</ele>
        <time>2025-02-24T13:36:43Z</time>
      </trkpt>
      <trkpt lat="45.00167" lon="6.63971">
        <ele>1830.523</ele>
        <time>2025-02-24T13:36:45Z</time>
      </trkpt>
      <trkpt lat="45.00172" lon="6.63968">
        <ele>1830.941</ele>
        <time>2025-02-24T13:36:47Z</time>
      </trkpt>
      <trkpt lat="45.00177" lon="6.63965">
        <ele>1831.577</ele>
        <time>2025-02-24T13:36:49Z</time>
      </trkpt>
      <trkpt lat="45.00182" lon="6.63959">
        <ele>1830.888</ele>
        <time>2025-02-24T13:36:51Z</time>
      </trkpt>
      <trkpt lat="45.00189" lon="6.63965">
        <ele>1827.952</ele>
        <time>2025-02-24T13:36:53Z</time>
      </trkpt>
      <trkpt lat="45.00194" lon="6.63968">
        <ele>1824.369</ele>
        <time>2025-02-24T13:36:55Z</time>
      </trkpt>
      <trkpt lat="45.00199" lon="6.63972">
        <ele>1824.222</ele>
        <time>2025-02-24T13:36:57Z</time>
      </trkpt>
      <trkpt lat="45.00204" lon="6.63971">
        <ele>1820.467</ele>
        <time>2025-02-24T13:37:06Z</time>
      </trkpt>
      <trkpt lat="45.0021" lon="6.63969">
        <ele>1820.496</ele>
        <time>2025-02-24T13:37:08Z</time>
      </trkpt>
      <trkpt lat="45.00217" lon="6.63969">
        <ele>1820.452</ele>
        <time>2025-02-24T13:37:10Z</time>
      </trkpt>
      <trkpt lat="45.00222" lon="6.6397">
        <ele>1818.685</ele>
        <time>2025-02-24T13:37:12Z</time>
      </trkpt>
      <trkpt lat="45.00229" lon="6.6397">
        <ele>1817.225</ele>
        <time>2025-02-24T13:37:15Z</time>
      </trkpt>
      <trkpt lat="45.00234" lon="6.63974">
        <ele>1817.277</ele>
        <time>2025-02-24T13:37:18Z</time>
      </trkpt>
      <trkpt lat="45.0024" lon="6.63974">
        <ele>1817.287</ele>
        <time>2025-02-24T13:37:21Z</time>
      </trkpt>
      <trkpt lat="45.00246" lon="6.63977">
        <ele>1816.851</ele>
        <time>2025-02-24T13:37:23Z</time>
      </trkpt>
      <trkpt lat="45.00251" lon="6.63983">
        <ele>1814.799</ele>
        <time>2025-02-24T13:37:25Z</time>
      </trkpt>
      <trkpt lat="45.00255" lon="6.63988">
        <ele>1814.304</ele>
        <time>2025-02-24T13:37:27Z</time>
      </trkpt>
      <trkpt lat="45.00257" lon="6.63994">
        <ele>1814.191</ele>
        <time>2025-02-24T13:37:29Z</time>
      </trkpt>
      <trkpt lat="45.00261" lon="6.63998">
        <ele>1811.874</ele>
        <time>2025-02-24T13:37:31Z</time>
      </trkpt>
      <trkpt lat="45.00265" lon="6.64002">
        <ele>1812.083</ele>
        <time>2025-02-24T13:37:33Z</time>
      </trkpt>
      <trkpt lat="45.0027" lon="6.64003">
        <ele>1811.097</ele>
        <time>2025-02-24T13:37:35Z</time>
      </trkpt>
      <trkpt lat="45.00277" lon="6.64004">
        <ele>1809.91</ele>
        <time>2025-02-24T13:37:37Z</time>
      </trkpt>
      <trkpt lat="45.00282" lon="6.64004">
        <ele>1809.022</ele>
        <time>2025-02-24T13:37:39Z</time>
      </trkpt>
      <trkpt lat="45.00288" lon="6.64007">
        <ele>1806.641</ele>
        <time>2025-02-24T13:37:41Z</time>
      </trkpt>
      <trkpt lat="45.00296" lon="6.64009">
        <ele>1805.236</ele>
        <time>2025-02-24T13:37:43Z</time>
      </trkpt>
      <trkpt lat="45.00303" lon="6.64008">
        <ele>1804.615</ele>
        <time>2025-02-24T13:37:45Z</time>
      </trkpt>
      <trkpt lat="45.00308" lon="6.64009">
        <ele>1799.881</ele>
        <time>2025-02-24T13:37:47Z</time>
      </trkpt>
      <trkpt lat="45.00313" lon="6.64007">
        <ele>1800.916</ele>
        <time>2025-02-24T13:37:54Z</time>
      </trkpt>
      <trkpt lat="45.00318" lon="6.6401">
        <ele>1799.272</ele>
        <time>2025-02-24T13:37:56Z</time>
      </trkpt>
      <trkpt lat="45.00323" lon="6.64011">
        <ele>1798.802</ele>
        <time>2025-02-24T13:37:58Z</time>
      </trkpt>
      <trkpt lat="45.00329" lon="6.64013">
        <ele>1796.971</ele>
        <time>2025-02-24T13:38:00Z</time>
      </trkpt>
      <trkpt lat="45.00334" lon="6.64013">
        <ele>1796.339</ele>
        <time>2025-02-24T13:38:02Z</time>
      </trkpt>
      <trkpt lat="45.00339" lon="6.64014">
        <ele>1794.592</ele>
        <time>2025-02-24T13:38:04Z</time>
      </trkpt>
      <trkpt lat="45.00343" lon="6.6402">
        <ele>1793.021</ele>
        <time>2025-02-24T13:38:06Z</time>
      </trkpt>
      <trkpt lat="45.00351" lon="6.64018">
        <ele>1793.172</ele>
        <time>2025-02-24T13:38:08Z</time>
      </trkpt>
      <trkpt lat="45.00358" lon="6.64021">
        <ele>1794.458</ele>
        <time>2025-02-24T13:38:10Z</time>
      </trkpt>
      <trkpt lat="45.00364" lon="6.64026">
        <ele>1791.707</ele>
        <time>2025-02-24T13:38:12Z</time>
      </trkpt>
      <trkpt lat="45.00369" lon="6.64028">
        <ele>1790.847</ele>
        <time>2025-02-24T13:38:14Z</time>
      </trkpt>
      <trkpt lat="45.00373" lon="6.64029">
        <ele>1790.285</ele>
        <time>2025-02-24T13:38:18Z</time>
      </trkpt>
      <trkpt lat="45.00377" lon="6.64032">
        <ele>1789.178</ele>
        <time>2025-02-24T13:38:20Z</time>
      </trkpt>
      <trkpt lat="45.00383" lon="6.64033">
        <ele>1787.931</ele>
        <time>2025-02-24T13:38:22Z</time>
      </trkpt>
      <trkpt lat="45.00388" lon="6.64032">
        <ele>1785.71</ele>
        <time>2025-02-24T13:38:24Z</time>
      </trkpt>
      <trkpt lat="45.00393" lon="6.6403">
        <ele>1785.584</ele>
        <time>2025-02-24T13:38:26Z</time>
      </trkpt>
      <trkpt lat="45.00398" lon="6.64026">
        <ele>1785.515</ele>
        <time>2025-02-24T13:38:28Z</time>
      </trkpt>
      <trkpt lat="45.00402" lon="6.64026">
        <ele>1783.469</ele>
        <time>2025-02-24T13:38:30Z</time>
      </trkpt>
      <trkpt lat="45.00407" lon="6.64026">
        <ele>1781.774</ele>
        <time>2025-02-24T13:38:32Z</time>
      </trkpt>
      <trkpt lat="45.00414" lon="6.64027">
        <ele>1781.234</ele>
        <time>2025-02-24T13:38:34Z</time>
      </trkpt>
      <trkpt lat="45.00421" lon="6.64027">
        <ele>1780.292</ele>
        <time>2025-02-24T13:38:36Z</time>
      </trkpt>
      <trkpt lat="45.00426" lon="6.64023">
        <ele>1781.295</ele>
        <time>2025-02-24T13:38:40Z</time>
      </trkpt>
      <trkpt lat="45.00432" lon="6.64024">
        <ele>1780.875</ele>
        <time>2025-02-24T13:38:42Z</time>
      </trkpt>
      <trkpt lat="45.00437" lon="6.64024">
        <ele>1777.806</ele>
        <time>2025-02-24T13:38:44Z</time>
      </trkpt>
      <trkpt lat="45.00438" lon="6.64025">
        <ele>1779.536</ele>
        <time>2025-02-24T13:39:04Z</time>
      </trkpt>
      <trkpt lat="45.00438" lon="6.64025">
        <ele>1779.595</ele>
        <time>2025-02-24T13:39:25Z</time>
      </trkpt>
      <trkpt lat="45.00438" lon="6.64025">
        <ele>1779.556</ele>
        <time>2025-02-24T13:39:46Z</time>
      </trkpt>
      <trkpt lat="45.00438" lon="6.64025">
        <ele>1779.578</ele>
        <time>2025-02-24T13:40:06Z</time>
      </trkpt>
      <trkpt lat="45.00442" lon="6.64021">
        <ele>1779.029</ele>
        <time>2025-02-24T13:40:09Z</time>
      </trkpt>
      <trkpt lat="45.00447" lon="6.64016">
        <ele>1779.033</ele>
        <time>2025-02-24T13:40:11Z</time>
      </trkpt>
      <trkpt lat="45.00452" lon="6.64017">
        <ele>1777.179</ele>
        <time>2025-02-24T13:40:13Z</time>
      </trkpt>
      <trkpt lat="45.00459" lon="6.64018">
        <ele>1774.809</ele>
        <time>2025-02-24T13:40:15Z</time>
      </trkpt>
      <trkpt lat="45.00466" lon="6.6402">
        <ele>1771.479</ele>
        <time>2025-02-24T13:40:17Z</time>
      </trkpt>
      <trkpt lat="45.00471" lon="6.64023">
        <ele>1772.088</ele>
        <time>2025-02-24T13:40:19Z</time>
      </trkpt>
      <trkpt lat="45.00477" lon="6.64026">
        <ele>1772.314</ele>
        <time>2025-02-24T13:40:22Z</time>
      </trkpt>
      <trkpt lat="45.00483" lon="6.64033">
        <ele>1771.486</ele>
        <time>2025-02-24T13:40:24Z</time>
      </trkpt>
      <trkpt lat="45.00489" lon="6.64036">
        <ele>1768.907</ele>
        <time>2025-02-24T13:40:26Z</time>
      </trkpt>
      <trkpt lat="45.00496" lon="6.64036">
        <ele>1767.905</ele>
        <time>2025-02-24T13:40:28Z</time>
      </trkpt>
      <trkpt lat="45.00503" lon="6.64039">
        <ele>1766.795</ele>
        <time>2025-02-24T13:40:30Z</time>
      </trkpt>
      <trkpt lat="45.00507" lon="6.6404">
        <ele>1765.421</ele>
        <time>2025-02-24T13:40:32Z</time>
      </trkpt>
      <trkpt lat="45.00513" lon="6.64041">
        <ele>1764.199</ele>
        <time>2025-02-24T13:40:34Z</time>
      </trkpt>
      <trkpt lat="45.00521" lon="6.64038">
        <ele>1763.133</ele>
        <time>2025-02-24T13:40:37Z</time>
      </trkpt>
      <trkpt lat="45.00526" lon="6.64038">
        <ele>1763.283</ele>
        <time>2025-02-24T13:40:39Z</time>
      </trkpt>
      <trkpt lat="45.00533" lon="6.64039">
        <ele>1762.311</ele>
        <time>2025-02-24T13:40:42Z</time>
      </trkpt>
      <trkpt lat="45.00538" lon="6.64043">
        <ele>1760.825</ele>
        <time>2025-02-24T13:40:44Z</time>
      </trkpt>
      <trkpt lat="45.00544" lon="6.64048">
        <ele>1757.153</ele>
        <time>2025-02-24T13:40:46Z</time>
      </trkpt>
      <trkpt lat="45.00547" lon="6.64056">
        <ele>1755.591</ele>
        <time>2025-02-24T13:40:48Z</time>
      </trkpt>
      <trkpt lat="45.00552" lon="6.64064">
        <ele>1752.131</ele>
        <time>2025-02-24T13:40:50Z</time>
      </trkpt>
      <trkpt lat="45.00557" lon="6.64068">
        <ele>1751.337</ele>
        <time>2025-02-24T13:40:52Z</time>
      </trkpt>
      <trkpt lat="45.00563" lon="6.64071">
        <ele>1750.566</ele>
        <time>2025-02-24T13:40:54Z</time>
      </trkpt>
      <trkpt lat="45.00568" lon="6.64072">
        <ele>1749.772</ele>
        <time>2025-02-24T13:40:56Z</time>
      </trkpt>
      <trkpt lat="45.00573" lon="6.64071">
        <ele>1749.445</ele>
        <time>2025-02-24T13:40:58Z</time>
      </trkpt>
      <trkpt lat="45.00579" lon="6.64069">
        <ele>1748.238</ele>
        <time>2025-02-24T13:41:00Z</time>
      </trkpt>
      <trkpt lat="45.00585" lon="6.64067">
        <ele>1747.411</ele>
        <time>2025-02-24T13:41:02Z</time>
      </trkpt>
      <trkpt lat="45.0059" lon="6.64067">
        <ele>1747.33</ele>
        <time>2025-02-24T13:41:04Z</time>
      </trkpt>
      <trkpt lat="45.00595" lon="6.64066">
        <ele>1746.217</ele>
        <time>2025-02-24T13:41:06Z</time>
      </trkpt>
      <trkpt lat="45.006" lon="6.64065">
        <ele>1745.054</ele>
        <time>2025-02-24T13:41:08Z</time>
      </trkpt>
      <trkpt lat="45.00607" lon="6.64066">
        <ele>1744.831</ele>
        <time>2025-02-24T13:41:10Z</time>
      </trkpt>
      <trkpt lat="45.00615" lon="6.64068">
        <ele>1742.941</ele>
        <time>2025-02-24T13:41:12Z</time>
      </trkpt>
      <trkpt lat="45.00621" lon="6.64069">
        <ele>1742.945</ele>
        <time>2025-02-24T13:41:14Z</time>
      </trkpt>
      <trkpt lat="45.00628" lon="6.64068">
        <ele>1744.287</ele>
        <time>2025-02-24T13:41:16Z</time>
      </trkpt>
      <trkpt lat="45.00634" lon="6.64067">
        <ele>1744.785</ele>
        <time>2025-02-24T13:41:18Z</time>
      </trkpt>
      <trkpt lat="45.00642" lon="6.64069">
        <ele>1743.881</ele>
        <time>2025-02-24T13:41:20Z</time>
      </trkpt>
      <trkpt lat="45.00646" lon="6.6407">
        <ele>1740.885</ele>
        <time>2025-02-24T13:41:23Z</time>
      </trkpt>
      <trkpt lat="45.00652" lon="6.64072">
        <ele>1740.948</ele>
        <time>2025-02-24T13:41:25Z</time>
      </trkpt>
      <trkpt lat="45.00657" lon="6.64075">
        <ele>1739.2</ele>
        <time>2025-02-24T13:41:27Z</time>
      </trkpt>
      <trkpt lat="45.00662" lon="6.64078">
        <ele>1736.787</ele>
        <time>2025-02-24T13:41:29Z</time>
      </trkpt>
      <trkpt lat="45.00667" lon="6.64079">
        <ele>1734.703</ele>
        <time>2025-02-24T13:41:31Z</time>
      </trkpt>
      <trkpt lat="45.00675" lon="6.64077">
        <ele>1732.518</ele>
        <time>2025-02-24T13:41:33Z</time>
      </trkpt>
      <trkpt lat="45.00681" lon="6.64078">
        <ele>1731.984</ele>
        <time>2025-02-24T13:41:37Z</time>
      </trkpt>
      <trkpt lat="45.00686" lon="6.64077">
        <ele>1731.297</ele>
        <time>2025-02-24T13:41:39Z</time>
      </trkpt>
      <trkpt lat="45.0069" lon="6.64078">
        <ele>1729.381</ele>
        <time>2025-02-24T13:41:41Z</time>
      </trkpt>
      <trkpt lat="45.00696" lon="6.64081">
        <ele>1727.251</ele>
        <time>2025-02-24T13:41:43Z</time>
      </trkpt>
      <trkpt lat="45.00702" lon="6.64081">
        <ele>1725.569</ele>
        <time>2025-02-24T13:41:47Z</time>
      </trkpt>
      <trkpt lat="45.00706" lon="6.64087">
        <ele>1724.991</ele>
        <time>2025-02-24T13:41:50Z</time>
      </trkpt>
      <trkpt lat="45.00711" lon="6.64092">
        <ele>1725.955</ele>
        <time>2025-02-24T13:41:54Z</time>
      </trkpt>
      <trkpt lat="45.00715" lon="6.64095">
        <ele>1725.434</ele>
        <time>2025-02-24T13:41:56Z</time>
      </trkpt>
      <trkpt lat="45.00722" lon="6.64101">
        <ele>1724.766</ele>
        <time>2025-02-24T13:41:58Z</time>
      </trkpt>
      <trkpt lat="45.00726" lon="6.64108">
        <ele>1726.495</ele>
        <time>2025-02-24T13:42:05Z</time>
      </trkpt>
      <trkpt lat="45.0073" lon="6.64113">
        <ele>1725.006</ele>
        <time>2025-02-24T13:42:07Z</time>
      </trkpt>
      <trkpt lat="45.00733" lon="6.64118">
        <ele>1724.107</ele>
        <time>2025-02-24T13:42:10Z</time>
      </trkpt>
      <trkpt lat="45.00736" lon="6.6411">
        <ele>1721.217</ele>
        <time>2025-02-24T13:42:13Z</time>
      </trkpt>
      <trkpt lat="45.0074" lon="6.64107">
        <ele>1720.271</ele>
        <time>2025-02-24T13:42:15Z</time>
      </trkpt>
      <trkpt lat="45.00746" lon="6.64114">
        <ele>1719.444</ele>
        <time>2025-02-24T13:42:18Z</time>
      </trkpt>
      <trkpt lat="45.00754" lon="6.64114">
        <ele>1720.146</ele>
        <time>2025-02-24T13:42:20Z</time>
      </trkpt>
      <trkpt lat="45.00757" lon="6.64121">
        <ele>1719.299</ele>
        <time>2025-02-24T13:42:22Z</time>
      </trkpt>
      <trkpt lat="45.00761" lon="6.64121">
        <ele>1715.798</ele>
        <time>2025-02-24T13:42:24Z</time>
      </trkpt>
      <trkpt lat="45.00765" lon="6.64123">
        <ele>1716.016</ele>
        <time>2025-02-24T13:42:29Z</time>
      </trkpt>
      <trkpt lat="45.00772" lon="6.64125">
        <ele>1714.066</ele>
        <time>2025-02-24T13:42:31Z</time>
      </trkpt>
      <trkpt lat="45.00775" lon="6.64132">
        <ele>1712.815</ele>
        <time>2025-02-24T13:42:33Z</time>
      </trkpt>
      <trkpt lat="45.00777" lon="6.64138">
        <ele>1713.037</ele>
        <time>2025-02-24T13:42:35Z</time>
      </trkpt>
      <trkpt lat="45.00782" lon="6.64143">
        <ele>1714.389</ele>
        <time>2025-02-24T13:42:37Z</time>
      </trkpt>
      <trkpt lat="45.00784" lon="6.64152">
        <ele>1713.319</ele>
        <time>2025-02-24T13:42:39Z</time>
      </trkpt>
      <trkpt lat="45.00787" lon="6.64161">
        <ele>1712.351</ele>
        <time>2025-02-24T13:42:41Z</time>
      </trkpt>
      <trkpt lat="45.00791" lon="6.64164">
        <ele>1710.42</ele>
        <time>2025-02-24T13:42:46Z</time>
      </trkpt>
      <trkpt lat="45.00792" lon="6.6417">
        <ele>1709.551</ele>
        <time>2025-02-24T13:42:49Z</time>
      </trkpt>
      <trkpt lat="45.00792" lon="6.64177">
        <ele>1709.501</ele>
        <time>2025-02-24T13:42:51Z</time>
      </trkpt>
      <trkpt lat="45.00792" lon="6.64186">
        <ele>1709.608</ele>
        <time>2025-02-24T13:42:53Z</time>
      </trkpt>
      <trkpt lat="45.00793" lon="6.64194">
        <ele>1708.733</ele>
        <time>2025-02-24T13:42:56Z</time>
      </trkpt>
      <trkpt lat="45.00796" lon="6.64202">
        <ele>1706.855</ele>
        <time>2025-02-24T13:42:58Z</time>
      </trkpt>
      <trkpt lat="45.008" lon="6.64206">
        <ele>1703.99</ele>
        <time>2025-02-24T13:43:00Z</time>
      </trkpt>
      <trkpt lat="45.00804" lon="6.6421">
        <ele>1702.802</ele>
        <time>2025-02-24T13:43:02Z</time>
      </trkpt>
      <trkpt lat="45.00807" lon="6.64215">
        <ele>1702.477</ele>
        <time>2025-02-24T13:43:04Z</time>
      </trkpt>
      <trkpt lat="45.00813" lon="6.6422">
        <ele>1701.042</ele>
        <time>2025-02-24T13:43:06Z</time>
      </trkpt>
      <trkpt lat="45.00819" lon="6.64224">
        <ele>1700.319</ele>
        <time>2025-02-24T13:43:08Z</time>
      </trkpt>
      <trkpt lat="45.00823" lon="6.64232">
        <ele>1699.508</ele>
        <time>2025-02-24T13:43:10Z</time>
      </trkpt>
      <trkpt lat="45.00827" lon="6.64239">
        <ele>1697.822</ele>
        <time>2025-02-24T13:43:12Z</time>
      </trkpt>
      <trkpt lat="45.00833" lon="6.64244">
        <ele>1698.799</ele>
        <time>2025-02-24T13:43:14Z</time>
      </trkpt>
      <trkpt lat="45.00837" lon="6.64249">
        <ele>1698.193</ele>
        <time>2025-02-24T13:43:16Z</time>
      </trkpt>
      <trkpt lat="45.00842" lon="6.64251">
        <ele>1697.576</ele>
        <time>2025-02-24T13:43:20Z</time>
      </trkpt>
      <trkpt lat="45.00847" lon="6.64255">
        <ele>1697.374</ele>
        <time>2025-02-24T13:43:23Z</time>
      </trkpt>
      <trkpt lat="45.0085" lon="6.64262">
        <ele>1697.702</ele>
        <time>2025-02-24T13:43:25Z</time>
      </trkpt>
      <trkpt lat="45.00852" lon="6.64269">
        <ele>1696.167</ele>
        <time>2025-02-24T13:43:28Z</time>
      </trkpt>
      <trkpt lat="45.00857" lon="6.64276">
        <ele>1693.869</ele>
        <time>2025-02-24T13:43:31Z</time>
      </trkpt>
      <trkpt lat="45.0086" lon="6.64279">
        <ele>1690.86</ele>
        <time>2025-02-24T13:43:35Z</time>
      </trkpt>
      <trkpt lat="45.00864" lon="6.64282">
        <ele>1691.068</ele>
        <time>2025-02-24T13:43:37Z</time>
      </trkpt>
      <trkpt lat="45.00871" lon="6.64284">
        <ele>1688.126</ele>
        <time>2025-02-24T13:43:40Z</time>
      </trkpt>
      <trkpt lat="45.00876" lon="6.64289">
        <ele>1684.984</ele>
        <time>2025-02-24T13:43:42Z</time>
      </trkpt>
      <trkpt lat="45.0088" lon="6.64295">
        <ele>1684.326</ele>
        <time>2025-02-24T13:43:44Z</time>
      </trkpt>
      <trkpt lat="45.00881" lon="6.643">
        <ele>1687.933</ele>
        <time>2025-02-24T13:43:53Z</time>
      </trkpt>
      <trkpt lat="45.00884" lon="6.64306">
        <ele>1685.413</ele>
        <time>2025-02-24T13:43:59Z</time>
      </trkpt>
      <trkpt lat="45.00887" lon="6.64314">
        <ele>1686.69</ele>
        <time>2025-02-24T13:44:01Z</time>
      </trkpt>
      <trkpt lat="45.00891" lon="6.64321">
        <ele>1686.547</ele>
        <time>2025-02-24T13:44:03Z</time>
      </trkpt>
      <trkpt lat="45.00896" lon="6.64325">
        <ele>1685.368</ele>
        <time>2025-02-24T13:44:05Z</time>
      </trkpt>
      <trkpt lat="45.00902" lon="6.64328">
        <ele>1684.044</ele>
        <time>2025-02-24T13:44:07Z</time>
      </trkpt>
      <trkpt lat="45.00909" lon="6.6433">
        <ele>1683.846</ele>
        <time>2025-02-24T13:44:09Z</time>
      </trkpt>
      <trkpt lat="45.00913" lon="6.64333">
        <ele>1681.894</ele>
        <time>2025-02-24T13:44:11Z</time>
      </trkpt>
      <trkpt lat="45.00918" lon="6.64333">
        <ele>1681.359</ele>
        <time>2025-02-24T13:44:18Z</time>
      </trkpt>
      <trkpt lat="45.00924" lon="6.64334">
        <ele>1680.458</ele>
        <time>2025-02-24T13:44:20Z</time>
      </trkpt>
      <trkpt lat="45.00929" lon="6.64333">
        <ele>1679.912</ele>
        <time>2025-02-24T13:44:22Z</time>
      </trkpt>
      <trkpt lat="45.00929" lon="6.64332">
        <ele>1679.81</ele>
        <time>2025-02-24T13:44:42Z</time>
      </trkpt>
      <trkpt lat="45.00929" lon="6.64332">
        <ele>1675.497</ele>
        <time>2025-02-24T13:44:52Z</time>
      </trkpt>
      <trkpt lat="45.00929" lon="6.64332">
        <ele>1674.931</ele>
        <time>2025-02-24T13:45:12Z</time>
      </trkpt>
      <trkpt lat="45.00929" lon="6.64332">
        <ele>1674.993</ele>
        <time>2025-02-24T13:45:33Z</time>
      </trkpt>
      <trkpt lat="45.00929" lon="6.64332">
        <ele>1674.793</ele>
        <time>2025-02-24T13:45:54Z</time>
      </trkpt>
      <trkpt lat="45.00935" lon="6.64331">
        <ele>1674.35</ele>
        <time>2025-02-24T13:45:57Z</time>
      </trkpt>
      <trkpt lat="45.00939" lon="6.64328">
        <ele>1675.081</ele>
        <time>2025-02-24T13:46:00Z</time>
      </trkpt>
      <trkpt lat="45.00943" lon="6.64327">
        <ele>1672.271</ele>
        <time>2025-02-24T13:46:03Z</time>
      </trkpt>
      <trkpt lat="45.00947" lon="6.64333">
        <ele>1671.24</ele>
        <time>2025-02-24T13:46:08Z</time>
      </trkpt>
      <trkpt lat="45.00951" lon="6.6434">
        <ele>1672.482</ele>
        <time>2025-02-24T13:46:11Z</time>
      </trkpt>
      <trkpt lat="45.00957" lon="6.64341">
        <ele>1671.896</ele>
        <time>2025-02-24T13:46:13Z</time>
      </trkpt>
      <trkpt lat="45.00963" lon="6.64348">
        <ele>1673.071</ele>
        <time>2025-02-24T13:46:15Z</time>
      </trkpt>
      <trkpt lat="45.00964" lon="6.64356">
        <ele>1669.549</ele>
        <time>2025-02-24T13:46:17Z</time>
      </trkpt>
      <trkpt lat="45.00963" lon="6.64363">
        <ele>1669.955</ele>
        <time>2025-02-24T13:46:19Z</time>
      </trkpt>
      <trkpt lat="45.00968" lon="6.64369">
        <ele>1669.502</ele>
        <time>2025-02-24T13:46:24Z</time>
      </trkpt>
      <trkpt lat="45.00971" lon="6.64375">
        <ele>1670.655</ele>
        <time>2025-02-24T13:46:26Z</time>
      </trkpt>
      <trkpt lat="45.00974" lon="6.64384">
        <ele>1671.487</ele>
        <time>2025-02-24T13:46:28Z</time>
      </trkpt>
      <trkpt lat="45.00977" lon="6.64393">
        <ele>1671.405</ele>
        <time>2025-02-24T13:46:30Z</time>
      </trkpt>
      <trkpt lat="45.00981" lon="6.64403">
        <ele>1670.23</ele>
        <time>2025-02-24T13:46:32Z</time>
      </trkpt>
      <trkpt lat="45.00983" lon="6.64411">
        <ele>1669.466</ele>
        <time>2025-02-24T13:46:34Z</time>
      </trkpt>
      <trkpt lat="45.00988" lon="6.64416">
        <ele>1668.119</ele>
        <time>2025-02-24T13:46:37Z</time>
      </trkpt>
      <trkpt lat="45.00993" lon="6.6442">
        <ele>1666.077</ele>
        <time>2025-02-24T13:46:40Z</time>
      </trkpt>
      <trkpt lat="45.00995" lon="6.64425">
        <ele>1665.521</ele>
        <time>2025-02-24T13:47:00Z</time>
      </trkpt>
      <trkpt lat="45.00999" lon="6.64423">
        <ele>1663.886</ele>
        <time>2025-02-24T13:47:07Z</time>
      </trkpt>
      <trkpt lat="45.01005" lon="6.64422">
        <ele>1664.401</ele>
        <time>2025-02-24T13:47:16Z</time>
      </trkpt>
      <trkpt lat="45.0101" lon="6.64423">
        <ele>1666.218</ele>
        <time>2025-02-24T13:47:20Z</time>
      </trkpt>
      <trkpt lat="45.01014" lon="6.64423">
        <ele>1667.38</ele>
        <time>2025-02-24T13:47:25Z</time>
      </trkpt>
      <trkpt lat="45.01019" lon="6.64424">
        <ele>1666.178</ele>
        <time>2025-02-24T13:47:33Z</time>
      </trkpt>
      <trkpt lat="45.01022" lon="6.64427">
        <ele>1663.94</ele>
        <time>2025-02-24T13:47:39Z</time>
      </trkpt>
      <trkpt lat="45.01027" lon="6.64429">
        <ele>1664.521</ele>
        <time>2025-02-24T13:47:43Z</time>
      </trkpt>
      <trkpt lat="45.01032" lon="6.64432">
        <ele>1665.39</ele>
        <time>2025-02-24T13:47:48Z</time>
      </trkpt>
      <trkpt lat="45.01037" lon="6.64435">
        <ele>1664.026</ele>
        <time>2025-02-24T13:47:52Z</time>
      </trkpt>
      <trkpt lat="45.01041" lon="6.64438">
        <ele>1664.899</ele>
        <time>2025-02-24T13:47:56Z</time>
      </trkpt>
      <trkpt lat="45.01045" lon="6.64442">
        <ele>1665.845</ele>
        <time>2025-02-24T13:48:02Z</time>
      </trkpt>
      <trkpt lat="45.01048" lon="6.64447">
        <ele>1668.099</ele>
        <time>2025-02-24T13:48:07Z</time>
      </trkpt>
      <trkpt lat="45.01052" lon="6.64452">
        <ele>1668.89</ele>
        <time>2025-02-24T13:48:13Z</time>
      </trkpt>
      <trkpt lat="45.01055" lon="6.64456">
        <ele>1665.981</ele>
        <time>2025-02-24T13:48:21Z</time>
      </trkpt>
      <trkpt lat="45.01057" lon="6.64461">
        <ele>1667.279</ele>
        <time>2025-02-24T13:48:26Z</time>
      </trkpt>
      <trkpt lat="45.0106" lon="6.64467">
        <ele>1666.872</ele>
        <time>2025-02-24T13:48:32Z</time>
      </trkpt>
      <trkpt lat="45.01063" lon="6.64472">
        <ele>1666.341</ele>
        <time>2025-02-24T13:48:38Z</time>
      </trkpt>
      <trkpt lat="45.01066" lon="6.64477">
        <ele>1666.426</ele>
        <time>2025-02-24T13:48:44Z</time>
      </trkpt>
      <trkpt lat="45.01068" lon="6.64482">
        <ele>1663.946</ele>
        <time>2025-02-24T13:48:51Z</time>
      </trkpt>
      <trkpt lat="45.01072" lon="6.64486">
        <ele>1663.416</ele>
        <time>2025-02-24T13:48:57Z</time>
      </trkpt>
      <trkpt lat="45.01077" lon="6.6449">
        <ele>1663.312</ele>
        <time>2025-02-24T13:49:03Z</time>
      </trkpt>
      <trkpt lat="45.01081" lon="6.64494">
        <ele>1662.594</ele>
        <time>2025-02-24T13:49:09Z</time>
      </trkpt>
      <trkpt lat="45.01084" lon="6.64499">
        <ele>1662.071</ele>
        <time>2025-02-24T13:49:15Z</time>
      </trkpt>
      <trkpt lat="45.01087" lon="6.64501">
        <ele>1664.989</ele>
        <time>2025-02-24T13:49:20Z</time>
      </trkpt>
      <trkpt lat="45.01092" lon="6.64501">
        <ele>1666.51</ele>
        <time>2025-02-24T13:49:27Z</time>
      </trkpt>
      <trkpt lat="45.01096" lon="6.64498">
        <ele>1668.234</ele>
        <time>2025-02-24T13:49:33Z</time>
      </trkpt>
      <trkpt lat="45.011" lon="6.64494">
        <ele>1668.931</ele>
        <time>2025-02-24T13:49:40Z</time>
      </trkpt>
      <trkpt lat="45.01103" lon="6.64489">
        <ele>1669.98</ele>
        <time>2025-02-24T13:49:47Z</time>
      </trkpt>
      <trkpt lat="45.01105" lon="6.64483">
        <ele>1668.344</ele>
        <time>2025-02-24T13:49:54Z</time>
      </trkpt>
      <trkpt lat="45.01108" lon="6.64475">
        <ele>1668.194</ele>
        <time>2025-02-24T13:49:57Z</time>
      </trkpt>
      <trkpt lat="45.0111" lon="6.64469">
        <ele>1668.321</ele>
        <time>2025-02-24T13:49:59Z</time>
      </trkpt>
      <trkpt lat="45.01113" lon="6.64462">
        <ele>1668.371</ele>
        <time>2025-02-24T13:50:01Z</time>
      </trkpt>
      <trkpt lat="45.01115" lon="6.64456">
        <ele>1666.977</ele>
        <time>2025-02-24T13:50:04Z</time>
      </trkpt>
      <trkpt lat="45.01117" lon="6.64451">
        <ele>1665.525</ele>
        <time>2025-02-24T13:50:07Z</time>
      </trkpt>
      <trkpt lat="45.01121" lon="6.64447">
        <ele>1665.51</ele>
        <time>2025-02-24T13:50:12Z</time>
      </trkpt>
      <trkpt lat="45.01124" lon="6.64441">
        <ele>1666.693</ele>
        <time>2025-02-24T13:50:16Z</time>
      </trkpt>
      <trkpt lat="45.01128" lon="6.64434">
        <ele>1669.168</ele>
        <time>2025-02-24T13:50:21Z</time>
      </trkpt>
      <trkpt lat="45.01131" lon="6.64429">
        <ele>1670.945</ele>
        <time>2025-02-24T13:50:24Z</time>
      </trkpt>
      <trkpt lat="45.01135" lon="6.64428">
        <ele>1668.07</ele>
        <time>2025-02-24T13:50:29Z</time>
      </trkpt>
      <trkpt lat="45.0114" lon="6.64425">
        <ele>1669.283</ele>
        <time>2025-02-24T13:50:32Z</time>
      </trkpt>
      <trkpt lat="45.01144" lon="6.64425">
        <ele>1669.908</ele>
        <time>2025-02-24T13:50:36Z</time>
      </trkpt>
      <trkpt lat="45.01149" lon="6.64425">
        <ele>1667.844</ele>
        <time>2025-02-24T13:50:42Z</time>
      </trkpt>
      <trkpt lat="45.01154" lon="6.64425">
        <ele>1669.357</ele>
        <time>2025-02-24T13:50:47Z</time>
      </trkpt>
      <trkpt lat="45.01158" lon="6.64422">
        <ele>1671.505</ele>
        <time>2025-02-24T13:50:52Z</time>
      </trkpt>
      <trkpt lat="45.01163" lon="6.64421">
        <ele>1671.854</ele>
        <time>2025-02-24T13:50:58Z</time>
      </trkpt>
      <trkpt lat="45.01167" lon="6.6442">
        <ele>1675.288</ele>
        <time>2025-02-24T13:51:02Z</time>
      </trkpt>
      <trkpt lat="45.0117" lon="6.64416">
        <ele>1671.432</ele>
        <time>2025-02-24T13:51:07Z</time>
      </trkpt>
      <trkpt lat="45.01173" lon="6.64409">
        <ele>1671.875</ele>
        <time>2025-02-24T13:51:13Z</time>
      </trkpt>
      <trkpt lat="45.01175" lon="6.64403">
        <ele>1673.051</ele>
        <time>2025-02-24T13:51:16Z</time>
      </trkpt>
      <trkpt lat="45.0118" lon="6.644">
        <ele>1671.472</ele>
        <time>2025-02-24T13:51:21Z</time>
      </trkpt>
      <trkpt lat="45.01185" lon="6.64397">
        <ele>1672.513</ele>
        <time>2025-02-24T13:51:27Z</time>
      </trkpt>
      <trkpt lat="45.01189" lon="6.64394">
        <ele>1670.624</ele>
        <time>2025-02-24T13:51:32Z</time>
      </trkpt>
      <trkpt lat="45.01194" lon="6.64391">
        <ele>1670.027</ele>
        <time>2025-02-24T13:51:37Z</time>
      </trkpt>
      <trkpt lat="45.01198" lon="6.64387">
        <ele>1668.756</ele>
        <time>2025-02-24T13:51:42Z</time>
      </trkpt>
      <trkpt lat="45.01201" lon="6.64384">
        <ele>1672.303</ele>
        <time>2025-02-24T13:51:46Z</time>
      </trkpt>
      <trkpt lat="45.01205" lon="6.64381">
        <ele>1671.009</ele>
        <time>2025-02-24T13:51:51Z</time>
      </trkpt>
      <trkpt lat="45.01209" lon="6.64378">
        <ele>1673.837</ele>
        <time>2025-02-24T13:51:56Z</time>
      </trkpt>
      <trkpt lat="45.01211" lon="6.64374">
        <ele>1676.996</ele>
        <time>2025-02-24T13:52:01Z</time>
      </trkpt>
      <trkpt lat="45.01214" lon="6.64369">
        <ele>1678.12</ele>
        <time>2025-02-24T13:52:08Z</time>
      </trkpt>
      <trkpt lat="45.01214" lon="6.64366">
        <ele>1673.148</ele>
        <time>2025-02-24T13:52:13Z</time>
      </trkpt>
      <trkpt lat="45.01215" lon="6.64361">
        <ele>1668.797</ele>
        <time>2025-02-24T13:52:18Z</time>
      </trkpt>
      <trkpt lat="45.01218" lon="6.64355">
        <ele>1668.273</ele>
        <time>2025-02-24T13:52:25Z</time>
      </trkpt>
      <trkpt lat="45.01222" lon="6.6435">
        <ele>1667.383</ele>
        <time>2025-02-24T13:52:33Z</time>
      </trkpt>
      <trkpt lat="45.01227" lon="6.6435">
        <ele>1667.875</ele>
        <time>2025-02-24T13:52:38Z</time>
      </trkpt>
      <trkpt lat="45.01231" lon="6.64349">
        <ele>1670.814</ele>
        <time>2025-02-24T13:52:43Z</time>
      </trkpt>
      <trkpt lat="45.01236" lon="6.64349">
        <ele>1673.242</ele>
        <time>2025-02-24T13:52:50Z</time>
      </trkpt>
      <trkpt lat="45.0124" lon="6.64347">
        <ele>1673.351</ele>
        <time>2025-02-24T13:52:58Z</time>
      </trkpt>
      <trkpt lat="45.01244" lon="6.64346">
        <ele>1670.614</ele>
        <time>2025-02-24T13:53:14Z</time>
      </trkpt>
      <trkpt lat="45.0125" lon="6.64341">
        <ele>1668.351</ele>
        <time>2025-02-24T13:53:17Z</time>
      </trkpt>
      <trkpt lat="45.01255" lon="6.64335">
        <ele>1668.083</ele>
        <time>2025-02-24T13:53:19Z</time>
      </trkpt>
      <trkpt lat="45.01258" lon="6.64328">
        <ele>1665.761</ele>
        <time>2025-02-24T13:53:21Z</time>
      </trkpt>
      <trkpt lat="45.0126" lon="6.64321">
        <ele>1666.017</ele>
        <time>2025-02-24T13:53:23Z</time>
      </trkpt>
      <trkpt lat="45.01261" lon="6.64313">
        <ele>1665.716</ele>
        <time>2025-02-24T13:53:25Z</time>
      </trkpt>
      <trkpt lat="45.01261" lon="6.64304">
        <ele>1665.031</ele>
        <time>2025-02-24T13:53:27Z</time>
      </trkpt>
      <trkpt lat="45.0126" lon="6.64294">
        <ele>1664.13</ele>
        <time>2025-02-24T13:53:29Z</time>
      </trkpt>
      <trkpt lat="45.01258" lon="6.64284">
        <ele>1663.282</ele>
        <time>2025-02-24T13:53:31Z</time>
      </trkpt>
      <trkpt lat="45.01254" lon="6.6427">
        <ele>1662.503</ele>
        <time>2025-02-24T13:53:33Z</time>
      </trkpt>
      <trkpt lat="45.01252" lon="6.64257">
        <ele>1662.507</ele>
        <time>2025-02-24T13:53:35Z</time>
      </trkpt>
      <trkpt lat="45.01252" lon="6.64243">
        <ele>1662.068</ele>
        <time>2025-02-24T13:53:37Z</time>
      </trkpt>
      <trkpt lat="45.01252" lon="6.6423">
        <ele>1659.372</ele>
        <time>2025-02-24T13:53:39Z</time>
      </trkpt>
      <trkpt lat="45.01254" lon="6.64216">
        <ele>1658.389</ele>
        <time>2025-02-24T13:53:41Z</time>
      </trkpt>
      <trkpt lat="45.01258" lon="6.64202">
        <ele>1656.72</ele>
        <time>2025-02-24T13:53:43Z</time>
      </trkpt>
      <trkpt lat="45.01264" lon="6.64191">
        <ele>1655.782</ele>
        <time>2025-02-24T13:53:45Z</time>
      </trkpt>
      <trkpt lat="45.01267" lon="6.64177">
        <ele>1655.934</ele>
        <time>2025-02-24T13:53:47Z</time>
      </trkpt>
      <trkpt lat="45.0127" lon="6.64163">
        <ele>1655.778</ele>
        <time>2025-02-24T13:53:49Z</time>
      </trkpt>
      <trkpt lat="45.01276" lon="6.64149">
        <ele>1654.54</ele>
        <time>2025-02-24T13:53:51Z</time>
      </trkpt>
      <trkpt lat="45.01285" lon="6.64143">
        <ele>1652.539</ele>
        <time>2025-02-24T13:53:53Z</time>
      </trkpt>
      <trkpt lat="45.01294" lon="6.64145">
        <ele>1650.254</ele>
        <time>2025-02-24T13:53:55Z</time>
      </trkpt>
      <trkpt lat="45.01301" lon="6.6415">
        <ele>1650.575</ele>
        <time>2025-02-24T13:53:57Z</time>
      </trkpt>
      <trkpt lat="45.01309" lon="6.64155">
        <ele>1650.246</ele>
        <time>2025-02-24T13:53:59Z</time>
      </trkpt>
      <trkpt lat="45.01315" lon="6.64157">
        <ele>1651.528</ele>
        <time>2025-02-24T13:54:01Z</time>
      </trkpt>
      <trkpt lat="45.01321" lon="6.6416">
        <ele>1650.923</ele>
        <time>2025-02-24T13:54:04Z</time>
      </trkpt>
      <trkpt lat="45.01325" lon="6.64164">
        <ele>1651.753</ele>
        <time>2025-02-24T13:54:07Z</time>
      </trkpt>
      <trkpt lat="45.01328" lon="6.64168">
        <ele>1648.839</ele>
        <time>2025-02-24T13:54:10Z</time>
      </trkpt>
      <trkpt lat="45.01332" lon="6.64171">
        <ele>1647.816</ele>
        <time>2025-02-24T13:54:15Z</time>
      </trkpt>
      <trkpt lat="45.01336" lon="6.64175">
        <ele>1646.112</ele>
        <time>2025-02-24T13:54:22Z</time>
      </trkpt>
      <trkpt lat="45.0134" lon="6.64178">
        <ele>1646.997</ele>
        <time>2025-02-24T13:54:28Z</time>
      </trkpt>
      <trkpt lat="45.01342" lon="6.64185">
        <ele>1647.043</ele>
        <time>2025-02-24T13:54:36Z</time>
      </trkpt>
      <trkpt lat="45.01347" lon="6.64187">
        <ele>1645.947</ele>
        <time>2025-02-24T13:54:42Z</time>
      </trkpt>
      <trkpt lat="45.01351" lon="6.6419">
        <ele>1647.707</ele>
        <time>2025-02-24T13:54:48Z</time>
      </trkpt>
      <trkpt lat="45.01357" lon="6.64189">
        <ele>1649.145</ele>
        <time>2025-02-24T13:54:51Z</time>
      </trkpt>
      <trkpt lat="45.01364" lon="6.64188">
        <ele>1649.918</ele>
        <time>2025-02-24T13:54:54Z</time>
      </trkpt>
      <trkpt lat="45.01369" lon="6.64187">
        <ele>1650.212</ele>
        <time>2025-02-24T13:54:56Z</time>
      </trkpt>
      <trkpt lat="45.01373" lon="6.64183">
        <ele>1649.259</ele>
        <time>2025-02-24T13:55:00Z</time>
      </trkpt>
      <trkpt lat="45.01376" lon="6.64178">
        <ele>1650.831</ele>
        <time>2025-02-24T13:55:06Z</time>
      </trkpt>
      <trkpt lat="45.01379" lon="6.64173">
        <ele>1651.597</ele>
        <time>2025-02-24T13:55:10Z</time>
      </trkpt>
      <trkpt lat="45.0138" lon="6.64166">
        <ele>1650.43</ele>
        <time>2025-02-24T13:55:13Z</time>
      </trkpt>
      <trkpt lat="45.01383" lon="6.64156">
        <ele>1649.348</ele>
        <time>2025-02-24T13:55:16Z</time>
      </trkpt>
      <trkpt lat="45.01385" lon="6.64145">
        <ele>1649.224</ele>
        <time>2025-02-24T13:55:18Z</time>
      </trkpt>
      <trkpt lat="45.01389" lon="6.64135">
        <ele>1649.106</ele>
        <time>2025-02-24T13:55:20Z</time>
      </trkpt>
      <trkpt lat="45.01393" lon="6.64121">
        <ele>1649.25</ele>
        <time>2025-02-24T13:55:22Z</time>
      </trkpt>
      <trkpt lat="45.01397" lon="6.64109">
        <ele>1648.201</ele>
        <time>2025-02-24T13:55:24Z</time>
      </trkpt>
      <trkpt lat="45.01401" lon="6.64097">
        <ele>1647.879</ele>
        <time>2025-02-24T13:55:26Z</time>
      </trkpt>
      <trkpt lat="45.01405" lon="6.64087">
        <ele>1647.858</ele>
        <time>2025-02-24T13:55:28Z</time>
      </trkpt>
      <trkpt lat="45.01406" lon="6.64079">
        <ele>1646.6</ele>
        <time>2025-02-24T13:55:30Z</time>
      </trkpt>
      <trkpt lat="45.01408" lon="6.6407">
        <ele>1647.001</ele>
        <time>2025-02-24T13:55:33Z</time>
      </trkpt>
      <trkpt lat="45.01409" lon="6.64064">
        <ele>1646.889</ele>
        <time>2025-02-24T13:55:36Z</time>
      </trkpt>
      <trkpt lat="45.01408" lon="6.64057">
        <ele>1646.329</ele>
        <time>2025-02-24T13:55:47Z</time>
      </trkpt>
      <trkpt lat="45.01411" lon="6.6405">
        <ele>1647.564</ele>
        <time>2025-02-24T13:55:58Z</time>
      </trkpt>
      <trkpt lat="45.01411" lon="6.64043">
        <ele>1647.877</ele>
        <time>2025-02-24T13:56:04Z</time>
      </trkpt>
      <trkpt lat="45.01412" lon="6.64037">
        <ele>1647.718</ele>
        <time>2025-02-24T13:56:11Z</time>
      </trkpt>
      <trkpt lat="45.01413" lon="6.64031">
        <ele>1650.335</ele>
        <time>2025-02-24T13:56:21Z</time>
      </trkpt>
      <trkpt lat="45.01413" lon="6.64029">
        <ele>1650.326</ele>
        <time>2025-02-24T13:56:42Z</time>
      </trkpt>
      <trkpt lat="45.01413" lon="6.64029">
        <ele>1650.761</ele>
        <time>2025-02-24T13:57:02Z</time>
      </trkpt>
      <trkpt lat="45.01413" lon="6.64029">
        <ele>1650.761</ele>
        <time>2025-02-24T13:57:22Z</time>
      </trkpt>
      <trkpt lat="45.01415" lon="6.64023">
        <ele>1650.044</ele>
        <time>2025-02-24T13:57:25Z</time>
      </trkpt>
      <trkpt lat="45.01416" lon="6.64016">
        <ele>1649.559</ele>
        <time>2025-02-24T13:57:29Z</time>
      </trkpt>
      <trkpt lat="45.01417" lon="6.64008">
        <ele>1650.272</ele>
        <time>2025-02-24T13:57:33Z</time>
      </trkpt>
      <trkpt lat="45.01418" lon="6.64002">
        <ele>1648.803</ele>
        <time>2025-02-24T13:57:38Z</time>
      </trkpt>
      <trkpt lat="45.0142" lon="6.63996">
        <ele>1649.29</ele>
        <time>2025-02-24T13:57:46Z</time>
      </trkpt>
      <trkpt lat="45.01421" lon="6.63989">
        <ele>1649.116</ele>
        <time>2025-02-24T13:57:52Z</time>
      </trkpt>
      <trkpt lat="45.01422" lon="6.63983">
        <ele>1649.727</ele>
        <time>2025-02-24T13:57:58Z</time>
      </trkpt>
      <trkpt lat="45.01423" lon="6.63977">
        <ele>1648.456</ele>
        <time>2025-02-24T13:58:05Z</time>
      </trkpt>
      <trkpt lat="45.01426" lon="6.63972">
        <ele>1648.177</ele>
        <time>2025-02-24T13:58:14Z</time>
      </trkpt>
      <trkpt lat="45.01427" lon="6.63966">
        <ele>1646.149</ele>
        <time>2025-02-24T13:58:22Z</time>
      </trkpt>
      <trkpt lat="45.01427" lon="6.63963">
        <ele>1645.208</ele>
        <time>2025-02-24T13:58:43Z</time>
      </trkpt>
      <trkpt lat="45.01429" lon="6.63962">
        <ele>1644.341</ele>
        <time>2025-02-24T13:59:03Z</time>
      </trkpt>
      <trkpt lat="45.01427" lon="6.63956">
        <ele>1645.386</ele>
        <time>2025-02-24T13:59:07Z</time>
      </trkpt>
      <trkpt lat="45.01426" lon="6.63949">
        <ele>1647.757</ele>
        <time>2025-02-24T13:59:11Z</time>
      </trkpt>
      <trkpt lat="45.01424" lon="6.63942">
        <ele>1648.888</ele>
        <time>2025-02-24T13:59:16Z</time>
      </trkpt>
      <trkpt lat="45.0142" lon="6.6394">
        <ele>1647.016</ele>
        <time>2025-02-24T13:59:31Z</time>
      </trkpt>
      <trkpt lat="45.0142" lon="6.63932">
        <ele>1647.071</ele>
        <time>2025-02-24T13:59:46Z</time>
      </trkpt>
      <trkpt lat="45.01421" lon="6.63926">
        <ele>1649.684</ele>
        <time>2025-02-24T13:59:51Z</time>
      </trkpt>
      <trkpt lat="45.01422" lon="6.6392">
        <ele>1651.471</ele>
        <time>2025-02-24T13:59:56Z</time>
      </trkpt>
      <trkpt lat="45.01422" lon="6.63914">
        <ele>1648.707</ele>
        <time>2025-02-24T14:00:03Z</time>
      </trkpt>
      <trkpt lat="45.01423" lon="6.63908">
        <ele>1649.2</ele>
        <time>2025-02-24T14:00:12Z</time>
      </trkpt>
      <trkpt lat="45.01423" lon="6.63902">
        <ele>1647.377</ele>
        <time>2025-02-24T14:00:19Z</time>
      </trkpt>
      <trkpt lat="45.01424" lon="6.63895">
        <ele>1648.732</ele>
        <time>2025-02-24T14:00:27Z</time>
      </trkpt>
      <trkpt lat="45.01426" lon="6.63889">
        <ele>1648.019</ele>
        <time>2025-02-24T14:00:36Z</time>
      </trkpt>
      <trkpt lat="45.01426" lon="6.63883">
        <ele>1651.636</ele>
        <time>2025-02-24T14:00:43Z</time>
      </trkpt>
      <trkpt lat="45.01427" lon="6.63877">
        <ele>1653.156</ele>
        <time>2025-02-24T14:00:52Z</time>
      </trkpt>
      <trkpt lat="45.0143" lon="6.6387">
        <ele>1653.917</ele>
        <time>2025-02-24T14:01:00Z</time>
      </trkpt>
      <trkpt lat="45.01431" lon="6.63864">
        <ele>1652.807</ele>
        <time>2025-02-24T14:01:07Z</time>
      </trkpt>
      <trkpt lat="45.01435" lon="6.6386">
        <ele>1653.693</ele>
        <time>2025-02-24T14:01:14Z</time>
      </trkpt>
      <trkpt lat="45.01439" lon="6.63856">
        <ele>1651.829</ele>
        <time>2025-02-24T14:01:23Z</time>
      </trkpt>
      <trkpt lat="45.01441" lon="6.63853">
        <ele>1655.723</ele>
        <time>2025-02-24T14:01:31Z</time>
      </trkpt>
      <trkpt lat="45.01442" lon="6.63846">
        <ele>1654.893</ele>
        <time>2025-02-24T14:01:40Z</time>
      </trkpt>
      <trkpt lat="45.01441" lon="6.6384">
        <ele>1652.355</ele>
        <time>2025-02-24T14:01:47Z</time>
      </trkpt>
      <trkpt lat="45.01441" lon="6.63834">
        <ele>1654.321</ele>
        <time>2025-02-24T14:01:55Z</time>
      </trkpt>
      <trkpt lat="45.0144" lon="6.63828">
        <ele>1654.098</ele>
        <time>2025-02-24T14:02:02Z</time>
      </trkpt>
      <trkpt lat="45.01439" lon="6.63821">
        <ele>1654.181</ele>
        <time>2025-02-24T14:02:08Z</time>
      </trkpt>
      <trkpt lat="45.01438" lon="6.63814">
        <ele>1654.23</ele>
        <time>2025-02-24T14:02:17Z</time>
      </trkpt>
      <trkpt lat="45.01438" lon="6.63807">
        <ele>1657.254</ele>
        <time>2025-02-24T14:02:24Z</time>
      </trkpt>
      <trkpt lat="45.01438" lon="6.63801">
        <ele>1659.44</ele>
        <time>2025-02-24T14:02:29Z</time>
      </trkpt>
      <trkpt lat="45.01438" lon="6.63794">
        <ele>1659.776</ele>
        <time>2025-02-24T14:02:35Z</time>
      </trkpt>
      <trkpt lat="45.0144" lon="6.63789">
        <ele>1658.905</ele>
        <time>2025-02-24T14:02:41Z</time>
      </trkpt>
      <trkpt lat="45.01442" lon="6.63784">
        <ele>1661.723</ele>
        <time>2025-02-24T14:02:47Z</time>
      </trkpt>
      <trkpt lat="45.01447" lon="6.63782">
        <ele>1660.709</ele>
        <time>2025-02-24T14:02:55Z</time>
      </trkpt>
      <trkpt lat="45.01451" lon="6.63779">
        <ele>1659.784</ele>
        <time>2025-02-24T14:03:04Z</time>
      </trkpt>
      <trkpt lat="45.01454" lon="6.63773">
        <ele>1659.555</ele>
        <time>2025-02-24T14:03:11Z</time>
      </trkpt>
      <trkpt lat="45.01455" lon="6.63767">
        <ele>1658.987</ele>
        <time>2025-02-24T14:03:19Z</time>
      </trkpt>
      <trkpt lat="45.01457" lon="6.63761">
        <ele>1658.567</ele>
        <time>2025-02-24T14:03:27Z</time>
      </trkpt>
      <trkpt lat="45.01458" lon="6.63755">
        <ele>1657.124</ele>
        <time>2025-02-24T14:03:33Z</time>
      </trkpt>
      <trkpt lat="45.0146" lon="6.63748">
        <ele>1658.806</ele>
        <time>2025-02-24T14:03:45Z</time>
      </trkpt>
      <trkpt lat="45.01461" lon="6.63742">
        <ele>1658.186</ele>
        <time>2025-02-24T14:03:51Z</time>
      </trkpt>
      <trkpt lat="45.01462" lon="6.63735">
        <ele>1657.639</ele>
        <time>2025-02-24T14:04:06Z</time>
      </trkpt>
      <trkpt lat="45.0146" lon="6.63729">
        <ele>1657.015</ele>
        <time>2025-02-24T14:04:12Z</time>
      </trkpt>
      <trkpt lat="45.01461" lon="6.63722">
        <ele>1658.666</ele>
        <time>2025-02-24T14:04:18Z</time>
      </trkpt>
      <trkpt lat="45.01462" lon="6.63716">
        <ele>1660.965</ele>
        <time>2025-02-24T14:04:25Z</time>
      </trkpt>
      <trkpt lat="45.01461" lon="6.63709">
        <ele>1661.452</ele>
        <time>2025-02-24T14:04:33Z</time>
      </trkpt>
      <trkpt lat="45.01461" lon="6.63705">
        <ele>1665.276</ele>
        <time>2025-02-24T14:04:37Z</time>
      </trkpt>
      <trkpt lat="45.0146" lon="6.63699">
        <ele>1662.157</ele>
        <time>2025-02-24T14:04:44Z</time>
      </trkpt>
      <trkpt lat="45.01459" lon="6.63694">
        <ele>1657.588</ele>
        <time>2025-02-24T14:04:51Z</time>
      </trkpt>
      <trkpt lat="45.0146" lon="6.63689">
        <ele>1654.979</ele>
        <time>2025-02-24T14:05:03Z</time>
      </trkpt>
      <trkpt lat="45.01462" lon="6.6368">
        <ele>1653.726</ele>
        <time>2025-02-24T14:05:13Z</time>
      </trkpt>
      <trkpt lat="45.01464" lon="6.63673">
        <ele>1650.225</ele>
        <time>2025-02-24T14:05:16Z</time>
      </trkpt>
      <trkpt lat="45.01468" lon="6.63667">
        <ele>1651.251</ele>
        <time>2025-02-24T14:05:19Z</time>
      </trkpt>
      <trkpt lat="45.0147" lon="6.63661">
        <ele>1653.695</ele>
        <time>2025-02-24T14:05:22Z</time>
      </trkpt>
      <trkpt lat="45.01473" lon="6.63655">
        <ele>1651.289</ele>
        <time>2025-02-24T14:05:26Z</time>
      </trkpt>
      <trkpt lat="45.01477" lon="6.63651">
        <ele>1653.208</ele>
        <time>2025-02-24T14:05:28Z</time>
      </trkpt>
      <trkpt lat="45.01481" lon="6.63649">
        <ele>1653.331</ele>
        <time>2025-02-24T14:05:31Z</time>
      </trkpt>
      <trkpt lat="45.01487" lon="6.63644">
        <ele>1652.491</ele>
        <time>2025-02-24T14:05:35Z</time>
      </trkpt>
      <trkpt lat="45.01488" lon="6.63643">
        <ele>1650.845</ele>
        <time>2025-02-24T14:05:56Z</time>
      </trkpt>
      <trkpt lat="45.01494" lon="6.63642">
        <ele>1648.91</ele>
        <time>2025-02-24T14:06:00Z</time>
      </trkpt>
      <trkpt lat="45.01499" lon="6.63643">
        <ele>1646.437</ele>
        <time>2025-02-24T14:06:11Z</time>
      </trkpt>
      <trkpt lat="45.01504" lon="6.63641">
        <ele>1645.181</ele>
        <time>2025-02-24T14:06:14Z</time>
      </trkpt>
      <trkpt lat="45.01509" lon="6.63639">
        <ele>1642.538</ele>
        <time>2025-02-24T14:06:16Z</time>
      </trkpt>
      <trkpt lat="45.01513" lon="6.63636">
        <ele>1642.703</ele>
        <time>2025-02-24T14:06:22Z</time>
      </trkpt>
      <trkpt lat="45.01516" lon="6.63631">
        <ele>1641.205</ele>
        <time>2025-02-24T14:06:25Z</time>
      </trkpt>
      <trkpt lat="45.01517" lon="6.63625">
        <ele>1639.689</ele>
        <time>2025-02-24T14:06:36Z</time>
      </trkpt>
      <trkpt lat="45.01519" lon="6.63619">
        <ele>1637.836</ele>
        <time>2025-02-24T14:06:41Z</time>
      </trkpt>
      <trkpt lat="45.01517" lon="6.63614">
        <ele>1634.246</ele>
        <time>2025-02-24T14:06:46Z</time>
      </trkpt>
      <trkpt lat="45.0152" lon="6.6361">
        <ele>1631.956</ele>
        <time>2025-02-24T14:06:52Z</time>
      </trkpt>
      <trkpt lat="45.01524" lon="6.63602">
        <ele>1629.843</ele>
        <time>2025-02-24T14:07:01Z</time>
      </trkpt>
      <trkpt lat="45.01527" lon="6.63597">
        <ele>1628.669</ele>
        <time>2025-02-24T14:07:21Z</time>
      </trkpt>
      <trkpt lat="45.01527" lon="6.63591">
        <ele>1626.678</ele>
        <time>2025-02-24T14:07:31Z</time>
      </trkpt>
      <trkpt lat="45.01528" lon="6.63585">
        <ele>1623.907</ele>
        <time>2025-02-24T14:07:44Z</time>
      </trkpt>
      <trkpt lat="45.01531" lon="6.63579">
        <ele>1625.084</ele>
        <time>2025-02-24T14:07:49Z</time>
      </trkpt>
      <trkpt lat="45.01532" lon="6.63572">
        <ele>1623.655</ele>
        <time>2025-02-24T14:07:55Z</time>
      </trkpt>
      <trkpt lat="45.01532" lon="6.63566">
        <ele>1622.099</ele>
        <time>2025-02-24T14:08:00Z</time>
      </trkpt>
      <trkpt lat="45.01534" lon="6.63559">
        <ele>1621.884</ele>
        <time>2025-02-24T14:08:02Z</time>
      </trkpt>
      <trkpt lat="45.01536" lon="6.63553">
        <ele>1622.14</ele>
        <time>2025-02-24T14:08:21Z</time>
      </trkpt>
      <trkpt lat="45.01537" lon="6.63545">
        <ele>1621.009</ele>
        <time>2025-02-24T14:08:23Z</time>
      </trkpt>
      <trkpt lat="45.01539" lon="6.63539">
        <ele>1620.009</ele>
        <time>2025-02-24T14:08:27Z</time>
      </trkpt>
      <trkpt lat="45.01542" lon="6.63533">
        <ele>1618.745</ele>
        <time>2025-02-24T14:08:30Z</time>
      </trkpt>
      <trkpt lat="45.01544" lon="6.63526">
        <ele>1619.472</ele>
        <time>2025-02-24T14:08:32Z</time>
      </trkpt>
      <trkpt lat="45.01544" lon="6.63518">
        <ele>1618.438</ele>
        <time>2025-02-24T14:08:34Z</time>
      </trkpt>
      <trkpt lat="45.01545" lon="6.63512">
        <ele>1614.773</ele>
        <time>2025-02-24T14:08:47Z</time>
      </trkpt>
      <trkpt lat="45.01547" lon="6.63506">
        <ele>1614.125</ele>
        <time>2025-02-24T14:08:49Z</time>
      </trkpt>
      <trkpt lat="45.01549" lon="6.63497">
        <ele>1612.727</ele>
        <time>2025-02-24T14:08:51Z</time>
      </trkpt>
      <trkpt lat="45.01553" lon="6.63488">
        <ele>1613.135</ele>
        <time>2025-02-24T14:08:53Z</time>
      </trkpt>
      <trkpt lat="45.01558" lon="6.63478">
        <ele>1612.862</ele>
        <time>2025-02-24T14:08:55Z</time>
      </trkpt>
      <trkpt lat="45.01563" lon="6.63473">
        <ele>1611.827</ele>
        <time>2025-02-24T14:08:57Z</time>
      </trkpt>
      <trkpt lat="45.01569" lon="6.63473">
        <ele>1610.446</ele>
        <time>2025-02-24T14:08:59Z</time>
      </trkpt>
      <trkpt lat="45.01573" lon="6.63468">
        <ele>1609.756</ele>
        <time>2025-02-24T14:09:13Z</time>
      </trkpt>
      <trkpt lat="45.01576" lon="6.63464">
        <ele>1610.237</ele>
        <time>2025-02-24T14:09:15Z</time>
      </trkpt>
      <trkpt lat="45.01579" lon="6.63461">
        <ele>1614.116</ele>
        <time>2025-02-24T14:09:19Z</time>
      </trkpt>
      <trkpt lat="45.01584" lon="6.63458">
        <ele>1612.828</ele>
        <time>2025-02-24T14:09:21Z</time>
      </trkpt>
      <trkpt lat="45.01592" lon="6.63451">
        <ele>1612.953</ele>
        <time>2025-02-24T14:09:23Z</time>
      </trkpt>
      <trkpt lat="45.01596" lon="6.63446">
        <ele>1612.859</ele>
        <time>2025-02-24T14:09:25Z</time>
      </trkpt>
      <trkpt lat="45.01601" lon="6.63444">
        <ele>1616.125</ele>
        <time>2025-02-24T14:09:27Z</time>
      </trkpt>
      <trkpt lat="45.01606" lon="6.63441">
        <ele>1613.803</ele>
        <time>2025-02-24T14:09:29Z</time>
      </trkpt>
      <trkpt lat="45.01612" lon="6.63436">
        <ele>1610.562</ele>
        <time>2025-02-24T14:09:31Z</time>
      </trkpt>
      <trkpt lat="45.01611" lon="6.63429">
        <ele>1609.864</ele>
        <time>2025-02-24T14:09:36Z</time>
      </trkpt>
      <trkpt lat="45.01614" lon="6.63425">
        <ele>1606.931</ele>
        <time>2025-02-24T14:09:39Z</time>
      </trkpt>
      <trkpt lat="45.01613" lon="6.63419">
        <ele>1603.589</ele>
        <time>2025-02-24T14:09:45Z</time>
      </trkpt>
      <trkpt lat="45.01615" lon="6.63411">
        <ele>1602.459</ele>
        <time>2025-02-24T14:09:47Z</time>
      </trkpt>
      <trkpt lat="45.01617" lon="6.63397">
        <ele>1600.067</ele>
        <time>2025-02-24T14:09:49Z</time>
      </trkpt>
      <trkpt lat="45.0162" lon="6.63389">
        <ele>1599.779</ele>
        <time>2025-02-24T14:09:51Z</time>
      </trkpt>
      <trkpt lat="45.01618" lon="6.63381">
        <ele>1600.027</ele>
        <time>2025-02-24T14:09:57Z</time>
      </trkpt>
      <trkpt lat="45.01619" lon="6.63374">
        <ele>1602.541</ele>
        <time>2025-02-24T14:10:06Z</time>
      </trkpt>
      <trkpt lat="45.0162" lon="6.6337">
        <ele>1597.245</ele>
        <time>2025-02-24T14:10:09Z</time>
      </trkpt>
      <trkpt lat="45.01619" lon="6.63361">
        <ele>1592.678</ele>
        <time>2025-02-24T14:10:12Z</time>
      </trkpt>
      <trkpt lat="45.01622" lon="6.63358">
        <ele>1590.551</ele>
        <time>2025-02-24T14:10:20Z</time>
      </trkpt>
      <trkpt lat="45.01623" lon="6.63357">
        <ele>1590.975</ele>
        <time>2025-02-24T14:10:40Z</time>
      </trkpt>
      <trkpt lat="45.01625" lon="6.63357">
        <ele>1591.507</ele>
        <time>2025-02-24T14:11:01Z</time>
      </trkpt>
      <trkpt lat="45.01625" lon="6.63357">
        <ele>1591.739</ele>
        <time>2025-02-24T14:11:21Z</time>
      </trkpt>
      <trkpt lat="45.01629" lon="6.6335">
        <ele>1591.378</ele>
        <time>2025-02-24T14:11:40Z</time>
      </trkpt>
      <trkpt lat="45.01634" lon="6.63343">
        <ele>1592.183</ele>
        <time>2025-02-24T14:11:42Z</time>
      </trkpt>
      <trkpt lat="45.01637" lon="6.63337">
        <ele>1592.909</ele>
        <time>2025-02-24T14:11:44Z</time>
      </trkpt>
      <trkpt lat="45.01638" lon="6.63329">
        <ele>1593.035</ele>
        <time>2025-02-24T14:11:51Z</time>
      </trkpt>
      <trkpt lat="45.01641" lon="6.63324">
        <ele>1592.278</ele>
        <time>2025-02-24T14:12:01Z</time>
      </trkpt>
      <trkpt lat="45.01642" lon="6.63316">
        <ele>1590.301</ele>
        <time>2025-02-24T14:12:05Z</time>
      </trkpt>
      <trkpt lat="45.0164" lon="6.63308">
        <ele>1588.88</ele>
        <time>2025-02-24T14:12:07Z</time>
      </trkpt>
      <trkpt lat="45.01641" lon="6.63301">
        <ele>1588.021</ele>
        <time>2025-02-24T14:12:09Z</time>
      </trkpt>
      <trkpt lat="45.01642" lon="6.63295">
        <ele>1587.268</ele>
        <time>2025-02-24T14:12:13Z</time>
      </trkpt>
      <trkpt lat="45.01644" lon="6.63287">
        <ele>1585.522</ele>
        <time>2025-02-24T14:12:17Z</time>
      </trkpt>
      <trkpt lat="45.01644" lon="6.63277">
        <ele>1585.152</ele>
        <time>2025-02-24T14:12:19Z</time>
      </trkpt>
      <trkpt lat="45.01644" lon="6.6327">
        <ele>1584.472</ele>
        <time>2025-02-24T14:12:21Z</time>
      </trkpt>
      <trkpt lat="45.01646" lon="6.63264">
        <ele>1584.126</ele>
        <time>2025-02-24T14:12:30Z</time>
      </trkpt>
      <trkpt lat="45.01643" lon="6.63258">
        <ele>1584.884</ele>
        <time>2025-02-24T14:12:37Z</time>
      </trkpt>
      <trkpt lat="45.01642" lon="6.63252">
        <ele>1583.787</ele>
        <time>2025-02-24T14:12:44Z</time>
      </trkpt>
      <trkpt lat="45.01641" lon="6.63245">
        <ele>1586.376</ele>
        <time>2025-02-24T14:12:47Z</time>
      </trkpt>
      <trkpt lat="45.01641" lon="6.63236">
        <ele>1585.673</ele>
        <time>2025-02-24T14:12:52Z</time>
      </trkpt>
      <trkpt lat="45.0164" lon="6.6323">
        <ele>1584.022</ele>
        <time>2025-02-24T14:12:55Z</time>
      </trkpt>
      <trkpt lat="45.01639" lon="6.63223">
        <ele>1584.137</ele>
        <time>2025-02-24T14:13:05Z</time>
      </trkpt>
      <trkpt lat="45.01638" lon="6.63216">
        <ele>1583.598</ele>
        <time>2025-02-24T14:13:22Z</time>
      </trkpt>
      <trkpt lat="45.01638" lon="6.63209">
        <ele>1584.188</ele>
        <time>2025-02-24T14:13:30Z</time>
      </trkpt>
      <trkpt lat="45.01634" lon="6.63205">
        <ele>1583.484</ele>
        <time>2025-02-24T14:13:34Z</time>
      </trkpt>
      <trkpt lat="45.01633" lon="6.63199">
        <ele>1582.4</ele>
        <time>2025-02-24T14:13:42Z</time>
      </trkpt>
      <trkpt lat="45.01632" lon="6.63192">
        <ele>1584.661</ele>
        <time>2025-02-24T14:13:47Z</time>
      </trkpt>
      <trkpt lat="45.01632" lon="6.63192">
        <ele>1582.176</ele>
        <time>2025-02-24T14:14:08Z</time>
      </trkpt>
      <trkpt lat="45.01632" lon="6.63192">
        <ele>1581.311</ele>
        <time>2025-02-24T14:14:29Z</time>
      </trkpt>
      <trkpt lat="45.01632" lon="6.63187">
        <ele>1582.103</ele>
        <time>2025-02-24T14:14:35Z</time>
      </trkpt>
      <trkpt lat="45.0163" lon="6.63182">
        <ele>1579.572</ele>
        <time>2025-02-24T14:14:41Z</time>
      </trkpt>
      <trkpt lat="45.01628" lon="6.63176">
        <ele>1582.087</ele>
        <time>2025-02-24T14:14:46Z</time>
      </trkpt>
      <trkpt lat="45.01626" lon="6.63169">
        <ele>1584.7</ele>
        <time>2025-02-24T14:14:51Z</time>
      </trkpt>
      <trkpt lat="45.01625" lon="6.63162">
        <ele>1585.011</ele>
        <time>2025-02-24T14:14:57Z</time>
      </trkpt>
      <trkpt lat="45.01627" lon="6.63156">
        <ele>1586.593</ele>
        <time>2025-02-24T14:15:02Z</time>
      </trkpt>
      <trkpt lat="45.01625" lon="6.63151">
        <ele>1583.642</ele>
        <time>2025-02-24T14:15:07Z</time>
      </trkpt>
      <trkpt lat="45.01624" lon="6.63144">
        <ele>1582.87</ele>
        <time>2025-02-24T14:15:13Z</time>
      </trkpt>
      <trkpt lat="45.01625" lon="6.63137">
        <ele>1583.189</ele>
        <time>2025-02-24T14:15:20Z</time>
      </trkpt>
      <trkpt lat="45.01625" lon="6.63131">
        <ele>1585.85</ele>
        <time>2025-02-24T14:15:25Z</time>
      </trkpt>
      <trkpt lat="45.01625" lon="6.63125">
        <ele>1586.97</ele>
        <time>2025-02-24T14:15:30Z</time>
      </trkpt>
      <trkpt lat="45.01624" lon="6.63118">
        <ele>1587.434</ele>
        <time>2025-02-24T14:15:37Z</time>
      </trkpt>
      <trkpt lat="45.01626" lon="6.63112">
        <ele>1589.008</ele>
        <time>2025-02-24T14:15:42Z</time>
      </trkpt>
      <trkpt lat="45.01627" lon="6.63106">
        <ele>1589.377</ele>
        <time>2025-02-24T14:15:47Z</time>
      </trkpt>
      <trkpt lat="45.01628" lon="6.63099">
        <ele>1586.405</ele>
        <time>2025-02-24T14:15:54Z</time>
      </trkpt>
      <trkpt lat="45.0163" lon="6.63092">
        <ele>1586.405</ele>
        <time>2025-02-24T14:16:00Z</time>
      </trkpt>
      <trkpt lat="45.01629" lon="6.63089">
        <ele>1581.934</ele>
        <time>2025-02-24T14:16:06Z</time>
      </trkpt>
      <trkpt lat="45.0163" lon="6.63083">
        <ele>1584.867</ele>
        <time>2025-02-24T14:16:09Z</time>
      </trkpt>
      <trkpt lat="45.01631" lon="6.63077">
        <ele>1585.111</ele>
        <time>2025-02-24T14:16:13Z</time>
      </trkpt>
      <trkpt lat="45.01633" lon="6.6307">
        <ele>1585.815</ele>
        <time>2025-02-24T14:16:18Z</time>
      </trkpt>
      <trkpt lat="45.01637" lon="6.63067">
        <ele>1583.63</ele>
        <time>2025-02-24T14:16:25Z</time>
      </trkpt>
      <trkpt lat="45.01642" lon="6.63064">
        <ele>1583.891</ele>
        <time>2025-02-24T14:16:31Z</time>
      </trkpt>
      <trkpt lat="45.01646" lon="6.6306">
        <ele>1583.331</ele>
        <time>2025-02-24T14:16:37Z</time>
      </trkpt>
      <trkpt lat="45.01649" lon="6.63055">
        <ele>1583.529</ele>
        <time>2025-02-24T14:16:42Z</time>
      </trkpt>
      <trkpt lat="45.0165" lon="6.63048">
        <ele>1583.744</ele>
        <time>2025-02-24T14:16:47Z</time>
      </trkpt>
      <trkpt lat="45.01652" lon="6.63043">
        <ele>1581.29</ele>
        <time>2025-02-24T14:16:53Z</time>
      </trkpt>
      <trkpt lat="45.01651" lon="6.63036">
        <ele>1582.226</ele>
        <time>2025-02-24T14:16:58Z</time>
      </trkpt>
      <trkpt lat="45.01652" lon="6.63029">
        <ele>1583.53</ele>
        <time>2025-02-24T14:17:03Z</time>
      </trkpt>
      <trkpt lat="45.01652" lon="6.63022">
        <ele>1582.512</ele>
        <time>2025-02-24T14:17:08Z</time>
      </trkpt>
      <trkpt lat="45.01652" lon="6.63016">
        <ele>1584.982</ele>
        <time>2025-02-24T14:17:13Z</time>
      </trkpt>
      <trkpt lat="45.01652" lon="6.63008">
        <ele>1586.104</ele>
        <time>2025-02-24T14:17:18Z</time>
      </trkpt>
      <trkpt lat="45.01652" lon="6.63001">
        <ele>1584.69</ele>
        <time>2025-02-24T14:17:23Z</time>
      </trkpt>
      <trkpt lat="45.01651" lon="6.62994">
        <ele>1583.237</ele>
        <time>2025-02-24T14:17:28Z</time>
      </trkpt>
      <trkpt lat="45.01651" lon="6.62987">
        <ele>1582.947</ele>
        <time>2025-02-24T14:17:33Z</time>
      </trkpt>
      <trkpt lat="45.01651" lon="6.6298">
        <ele>1583.946</ele>
        <time>2025-02-24T14:17:39Z</time>
      </trkpt>
      <trkpt lat="45.01651" lon="6.62974">
        <ele>1581.089</ele>
        <time>2025-02-24T14:17:44Z</time>
      </trkpt>
      <trkpt lat="45.01651" lon="6.62966">
        <ele>1581.238</ele>
        <time>2025-02-24T14:18:02Z</time>
      </trkpt>
      <trkpt lat="45.0165" lon="6.6296">
        <ele>1580.761</ele>
        <time>2025-02-24T14:18:08Z</time>
      </trkpt>
      <trkpt lat="45.01649" lon="6.62953">
        <ele>1582.107</ele>
        <time>2025-02-24T14:18:13Z</time>
      </trkpt>
      <trkpt lat="45.01648" lon="6.62946">
        <ele>1583.631</ele>
        <time>2025-02-24T14:18:18Z</time>
      </trkpt>
      <trkpt lat="45.01649" lon="6.62939">
        <ele>1583.782</ele>
        <time>2025-02-24T14:18:24Z</time>
      </trkpt>
      <trkpt lat="45.01649" lon="6.62932">
        <ele>1583.935</ele>
        <time>2025-02-24T14:18:30Z</time>
      </trkpt>
      <trkpt lat="45.01649" lon="6.62926">
        <ele>1581.464</ele>
        <time>2025-02-24T14:18:34Z</time>
      </trkpt>
      <trkpt lat="45.01649" lon="6.62918">
        <ele>1582.295</ele>
        <time>2025-02-24T14:18:40Z</time>
      </trkpt>
      <trkpt lat="45.0165" lon="6.62912">
        <ele>1583.268</ele>
        <time>2025-02-24T14:18:45Z</time>
      </trkpt>
      <trkpt lat="45.0165" lon="6.62904">
        <ele>1583.316</ele>
        <time>2025-02-24T14:18:51Z</time>
      </trkpt>
      <trkpt lat="45.01649" lon="6.62898">
        <ele>1585.76</ele>
        <time>2025-02-24T14:18:56Z</time>
      </trkpt>
      <trkpt lat="45.0165" lon="6.62891">
        <ele>1584.57</ele>
        <time>2025-02-24T14:19:02Z</time>
      </trkpt>
      <trkpt lat="45.01651" lon="6.62884">
        <ele>1585.501</ele>
        <time>2025-02-24T14:19:09Z</time>
      </trkpt>
      <trkpt lat="45.01652" lon="6.62878">
        <ele>1586.886</ele>
        <time>2025-02-24T14:19:14Z</time>
      </trkpt>
      <trkpt lat="45.01657" lon="6.62877">
        <ele>1585.095</ele>
        <time>2025-02-24T14:19:19Z</time>
      </trkpt>
      <trkpt lat="45.01662" lon="6.6288">
        <ele>1584.467</ele>
        <time>2025-02-24T14:19:24Z</time>
      </trkpt>
      <trkpt lat="45.01667" lon="6.62882">
        <ele>1584.2</ele>
        <time>2025-02-24T14:19:31Z</time>
      </trkpt>
      <trkpt lat="45.01671" lon="6.62881">
        <ele>1584.907</ele>
        <time>2025-02-24T14:19:37Z</time>
      </trkpt>
      <trkpt lat="45.01675" lon="6.62878">
        <ele>1584.025</ele>
        <time>2025-02-24T14:19:46Z</time>
      </trkpt>
      <trkpt lat="45.01675" lon="6.62876">
        <ele>1583.098</ele>
        <time>2025-02-24T14:20:07Z</time>
      </trkpt>
      <trkpt lat="45.01675" lon="6.62876">
        <ele>1583.104</ele>
        <time>2025-02-24T14:20:27Z</time>
      </trkpt>
      <trkpt lat="45.01678" lon="6.62881">
        <ele>1581.729</ele>
        <time>2025-02-24T14:20:43Z</time>
      </trkpt>
      <trkpt lat="45.0168" lon="6.62886">
        <ele>1580.915</ele>
        <time>2025-02-24T14:20:47Z</time>
      </trkpt>
      <trkpt lat="45.01685" lon="6.62887">
        <ele>1578.655</ele>
        <time>2025-02-24T14:20:52Z</time>
      </trkpt>
      <trkpt lat="45.01686" lon="6.62893">
        <ele>1580.591</ele>
        <time>2025-02-24T14:20:56Z</time>
      </trkpt>
      <trkpt lat="45.01686" lon="6.62899">
        <ele>1578.476</ele>
        <time>2025-02-24T14:21:00Z</time>
      </trkpt>
      <trkpt lat="45.01687" lon="6.62906">
        <ele>1580.057</ele>
        <time>2025-02-24T14:21:05Z</time>
      </trkpt>
      <trkpt lat="45.01688" lon="6.62913">
        <ele>1580.126</ele>
        <time>2025-02-24T14:21:11Z</time>
      </trkpt>
      <trkpt lat="45.01689" lon="6.62921">
        <ele>1580.862</ele>
        <time>2025-02-24T14:21:17Z</time>
      </trkpt>
      <trkpt lat="45.01689" lon="6.62928">
        <ele>1581.783</ele>
        <time>2025-02-24T14:21:22Z</time>
      </trkpt>
      <trkpt lat="45.0169" lon="6.62935">
        <ele>1580.397</ele>
        <time>2025-02-24T14:21:27Z</time>
      </trkpt>
      <trkpt lat="45.0169" lon="6.62941">
        <ele>1580.782</ele>
        <time>2025-02-24T14:21:32Z</time>
      </trkpt>
      <trkpt lat="45.01691" lon="6.62948">
        <ele>1582.069</ele>
        <time>2025-02-24T14:21:37Z</time>
      </trkpt>
      <trkpt lat="45.01691" lon="6.62955">
        <ele>1580.821</ele>
        <time>2025-02-24T14:21:42Z</time>
      </trkpt>
      <trkpt lat="45.01692" lon="6.62961">
        <ele>1582.996</ele>
        <time>2025-02-24T14:21:47Z</time>
      </trkpt>
      <trkpt lat="45.01693" lon="6.62968">
        <ele>1584.525</ele>
        <time>2025-02-24T14:21:52Z</time>
      </trkpt>
      <trkpt lat="45.01694" lon="6.62974">
        <ele>1584.181</ele>
        <time>2025-02-24T14:21:58Z</time>
      </trkpt>
      <trkpt lat="45.01694" lon="6.62981">
        <ele>1583.633</ele>
        <time>2025-02-24T14:22:04Z</time>
      </trkpt>
      <trkpt lat="45.01695" lon="6.62988">
        <ele>1583.449</ele>
        <time>2025-02-24T14:22:09Z</time>
      </trkpt>
      <trkpt lat="45.01694" lon="6.62996">
        <ele>1582.78</ele>
        <time>2025-02-24T14:22:15Z</time>
      </trkpt>
      <trkpt lat="45.01694" lon="6.63003">
        <ele>1583.69</ele>
        <time>2025-02-24T14:22:21Z</time>
      </trkpt>
      <trkpt lat="45.01694" lon="6.63004">
        <ele>1583.448</ele>
        <time>2025-02-24T14:22:41Z</time>
      </trkpt>
      <trkpt lat="45.01698" lon="6.63007">
        <ele>1584.308</ele>
        <time>2025-02-24T14:22:48Z</time>
      </trkpt>
      <trkpt lat="45.01703" lon="6.63007">
        <ele>1584.688</ele>
        <time>2025-02-24T14:23:09Z</time>
      </trkpt>
      <trkpt lat="45.01702" lon="6.63008">
        <ele>1584.725</ele>
        <time>2025-02-24T14:23:30Z</time>
      </trkpt>
      <trkpt lat="45.01702" lon="6.63008">
        <ele>1585.32</ele>
        <time>2025-02-24T14:23:50Z</time>
      </trkpt>
      <trkpt lat="45.01699" lon="6.63013">
        <ele>1585.081</ele>
        <time>2025-02-24T14:24:01Z</time>
      </trkpt>
      <trkpt lat="45.01697" lon="6.63019">
        <ele>1584.099</ele>
        <time>2025-02-24T14:24:03Z</time>
      </trkpt>
      <trkpt lat="45.01696" lon="6.63025">
        <ele>1583.974</ele>
        <time>2025-02-24T14:24:05Z</time>
      </trkpt>
      <trkpt lat="45.01696" lon="6.63032">
        <ele>1584.262</ele>
        <time>2025-02-24T14:24:07Z</time>
      </trkpt>
      <trkpt lat="45.01695" lon="6.63041">
        <ele>1584.526</ele>
        <time>2025-02-24T14:24:12Z</time>
      </trkpt>
      <trkpt lat="45.01694" lon="6.63048">
        <ele>1583.763</ele>
        <time>2025-02-24T14:24:19Z</time>
      </trkpt>
      <trkpt lat="45.01694" lon="6.63055">
        <ele>1582.932</ele>
        <time>2025-02-24T14:24:26Z</time>
      </trkpt>
      <trkpt lat="45.01693" lon="6.63061">
        <ele>1583.524</ele>
        <time>2025-02-24T14:24:30Z</time>
      </trkpt>
      <trkpt lat="45.01693" lon="6.63068">
        <ele>1582.909</ele>
        <time>2025-02-24T14:24:35Z</time>
      </trkpt>
      <trkpt lat="45.01692" lon="6.63075">
        <ele>1583.315</ele>
        <time>2025-02-24T14:24:40Z</time>
      </trkpt>
      <trkpt lat="45.01692" lon="6.63083">
        <ele>1583.217</ele>
        <time>2025-02-24T14:24:45Z</time>
      </trkpt>
      <trkpt lat="45.01691" lon="6.63089">
        <ele>1582.585</ele>
        <time>2025-02-24T14:24:50Z</time>
      </trkpt>
      <trkpt lat="45.01691" lon="6.63096">
        <ele>1583.442</ele>
        <time>2025-02-24T14:24:56Z</time>
      </trkpt>
      <trkpt lat="45.01691" lon="6.63103">
        <ele>1582.014</ele>
        <time>2025-02-24T14:25:01Z</time>
      </trkpt>
      <trkpt lat="45.0169" lon="6.63109">
        <ele>1583.505</ele>
        <time>2025-02-24T14:25:06Z</time>
      </trkpt>
      <trkpt lat="45.01691" lon="6.63116">
        <ele>1586.401</ele>
        <time>2025-02-24T14:25:11Z</time>
      </trkpt>
      <trkpt lat="45.01691" lon="6.63123">
        <ele>1585.907</ele>
        <time>2025-02-24T14:25:17Z</time>
      </trkpt>
      <trkpt lat="45.01692" lon="6.63129">
        <ele>1585.799</ele>
        <time>2025-02-24T14:25:24Z</time>
      </trkpt>
      <trkpt lat="45.01692" lon="6.63136">
        <ele>1585.048</ele>
        <time>2025-02-24T14:25:31Z</time>
      </trkpt>
      <trkpt lat="45.01692" lon="6.63143">
        <ele>1584.03</ele>
        <time>2025-02-24T14:25:37Z</time>
      </trkpt>
      <trkpt lat="45.01691" lon="6.63151">
        <ele>1583.036</ele>
        <time>2025-02-24T14:25:43Z</time>
      </trkpt>
      <trkpt lat="45.01691" lon="6.63158">
        <ele>1584.088</ele>
        <time>2025-02-24T14:25:48Z</time>
      </trkpt>
      <trkpt lat="45.01691" lon="6.63165">
        <ele>1584.667</ele>
        <time>2025-02-24T14:25:53Z</time>
      </trkpt>
      <trkpt lat="45.01691" lon="6.63171">
        <ele>1583.956</ele>
        <time>2025-02-24T14:25:58Z</time>
      </trkpt>
      <trkpt lat="45.01691" lon="6.63177">
        <ele>1585.06</ele>
        <time>2025-02-24T14:26:04Z</time>
      </trkpt>
      <trkpt lat="45.01691" lon="6.63185">
        <ele>1585.609</ele>
        <time>2025-02-24T14:26:11Z</time>
      </trkpt>
      <trkpt lat="45.01693" lon="6.63186">
        <ele>1586.441</ele>
        <time>2025-02-24T14:26:31Z</time>
      </trkpt>
      <trkpt lat="45.01693" lon="6.63186">
        <ele>1585.258</ele>
        <time>2025-02-24T14:26:52Z</time>
      </trkpt>
      <trkpt lat="45.01693" lon="6.63186">
        <ele>1584.627</ele>
        <time>2025-02-24T14:27:12Z</time>
      </trkpt>
      <trkpt lat="45.01693" lon="6.63186">
        <ele>1584.387</ele>
        <time>2025-02-24T14:27:33Z</time>
      </trkpt>
      <trkpt lat="45.01693" lon="6.63186">
        <ele>1583.359</ele>
        <time>2025-02-24T14:27:53Z</time>
      </trkpt>
      <trkpt lat="45.01693" lon="6.63186">
        <ele>1583.573</ele>
        <time>2025-02-24T14:28:14Z</time>
      </trkpt>
      <trkpt lat="45.01693" lon="6.63186">
        <ele>1583.559</ele>
        <time>2025-02-24T14:28:34Z</time>
      </trkpt>
      <trkpt lat="45.01693" lon="6.63186">
        <ele>1583.986</ele>
        <time>2025-02-24T14:28:55Z</time>
      </trkpt>
      <trkpt lat="45.01693" lon="6.63186">
        <ele>1582.938</ele>
        <time>2025-02-24T14:29:16Z</time>
      </trkpt>
      <trkpt lat="45.01693" lon="6.63186">
        <ele>1582.361</ele>
        <time>2025-02-24T14:29:36Z</time>
      </trkpt>
      <trkpt lat="45.01693" lon="6.63186">
        <ele>1583.393</ele>
        <time>2025-02-24T14:29:57Z</time>
      </trkpt>
      <trkpt lat="45.01693" lon="6.63186">
        <ele>1582.364</ele>
        <time>2025-02-24T14:30:18Z</time>
      </trkpt>
      <trkpt lat="45.01693" lon="6.63186">
        <ele>1582.129</ele>
        <time>2025-02-24T14:30:38Z</time>
      </trkpt>
      <trkpt lat="45.01693" lon="6.63186">
        <ele>1584.433</ele>
        <time>2025-02-24T14:30:51Z</time>
      </trkpt>
      <trkpt lat="45.01693" lon="6.63186">
        <ele>1586.012</ele>
        <time>2025-02-24T14:31:12Z</time>
      </trkpt>
      <trkpt lat="45.01695" lon="6.6319">
        <ele>1585.711</ele>
        <time>2025-02-24T14:31:32Z</time>
      </trkpt>
    </trkseg>
  </trk>
</gpx>